﻿_id	data_ora	id_station	denominazione	temperatura	cod_validazione_temperatura	umidita	cod_validazione_umidita_rel	precipitazione	cod_validazione_precipitazione	velocita_vento	cod_validazione_velocita_vento	direzione_vento	cod_validazione_direzione_vento	rad_solare_globale	cod_validazione_rad_solare_globale	pressione_atmosferica	cod_validazione_pressione_atmosferica	Latitude	Longitude
1	2024-01-01 00:00:00	22	candela_ex_comes	10.71	1	76.76	1	0.0	1	2.08	1	202.81	1	null	6	982.83	1	41.168724	15.52385
2	2024-01-01 01:00:00	22	candela_ex_comes	11.13	1	75.07	1	0.0	1	2.6	1	210.74	1	null	6	982.44	1	41.168724	15.52385
3	2024-01-01 02:00:00	22	candela_ex_comes	11.44	1	75.48	1	0.0	1	2.95	1	219.61	1	null	6	981.97	1	41.168724	15.52385
4	2024-01-01 03:00:00	22	candela_ex_comes	11.56	1	77.78	1	0.0	1	2.83	1	232.32	1	null	6	981.92	1	41.168724	15.52385
5	2024-01-01 04:00:00	22	candela_ex_comes	12.07	1	75.56	1	0.0	1	3.17	1	190.63	1	null	6	981.36	1	41.168724	15.52385
6	2024-01-01 05:00:00	22	candela_ex_comes	10.91	1	80.38	1	0.0	1	3.99	1	148.84	1	null	6	980.74	1	41.168724	15.52385
7	2024-01-01 06:00:00	22	candela_ex_comes	10.82	1	82.52	1	0.0	1	3.17	1	161.44	1	null	6	980.51	1	41.168724	15.52385
8	2024-01-01 07:00:00	22	candela_ex_comes	11.33	1	78.08	1	0.0	1	1.97	1	136.0	1	null	6	980.62	1	41.168724	15.52385
9	2024-01-01 08:00:00	22	candela_ex_comes	11.39	1	78.49	1	0.0	1	3.3	1	218.0	1	null	6	980.74	1	41.168724	15.52385
10	2024-01-01 09:00:00	22	candela_ex_comes	12.02	1	75.59	1	0.0	1	1.51	1	156.03	1	null	6	981.03	1	41.168724	15.52385
11	2024-01-01 10:00:00	22	candela_ex_comes	13.48	1	66.46	1	0.0	1	2.02	1	235.14	1	null	6	981.25	1	41.168724	15.52385
12	2024-01-01 11:00:00	22	candela_ex_comes	13.98	1	63.7	1	0.0	1	3.31	1	276.36	1	null	6	981.56	1	41.168724	15.52385
13	2024-01-01 12:00:00	22	candela_ex_comes	14.21	1	65.05	1	0.0	1	5.38	1	270.28	1	null	6	981.17	1	41.168724	15.52385
14	2024-01-01 13:00:00	22	candela_ex_comes	14.28	1	63.6	1	0.0	1	4.84	1	254.48	1	null	6	980.63	1	41.168724	15.52385
15	2024-01-01 14:00:00	22	candela_ex_comes	14.12	1	65.01	1	0.0	1	2.8	1	205.9	1	null	6	980.42	1	41.168724	15.52385
16	2024-01-01 15:00:00	22	candela_ex_comes	13.55	1	67.43	1	0.0	1	4.19	1	284.38	1	null	6	980.39	1	41.168724	15.52385
17	2024-01-01 16:00:00	22	candela_ex_comes	12.28	1	78.25	1	0.0	1	2.82	1	334.01	1	null	6	980.69	1	41.168724	15.52385
18	2024-01-01 17:00:00	22	candela_ex_comes	11.29	1	83.65	1	1.4	1	3.83	1	245.42	1	null	6	980.91	1	41.168724	15.52385
19	2024-01-01 18:00:00	22	candela_ex_comes	10.95	1	82.87	1	0.0	1	4.42	1	233.92	1	null	6	981.04	1	41.168724	15.52385
20	2024-01-01 19:00:00	22	candela_ex_comes	10.88	1	81.09	1	0.0	1	4.97	1	236.73	1	null	6	981.2	1	41.168724	15.52385
21	2024-01-01 20:00:00	22	candela_ex_comes	10.78	1	82.07	1	0.0	1	4.93	1	239.61	1	null	6	981.37	1	41.168724	15.52385
22	2024-01-01 21:00:00	22	candela_ex_comes	10.82	1	77.65	1	0.0	1	4.12	1	231.45	1	null	6	981.34	1	41.168724	15.52385
23	2024-01-01 22:00:00	22	candela_ex_comes	10.33	1	79.44	1	0.0	1	3.48	1	240.52	1	null	6	981.51	1	41.168724	15.52385
24	2024-01-01 23:00:00	22	candela_ex_comes	10.54	1	78.59	1	0.0	1	4.8	1	230.34	1	null	6	981.67	1	41.168724	15.52385
25	2024-01-02 00:00:00	22	candela_ex_comes	10.15	1	78.93	1	0.0	1	7.6	1	249.12	1	null	6	981.54	1	41.168724	15.52385
26	2024-01-02 01:00:00	22	candela_ex_comes	9.98	1	78.83	1	0.0	1	9.51	1	253.76	1	null	6	981.31	1	41.168724	15.52385
27	2024-01-02 02:00:00	22	candela_ex_comes	10.24	1	77.92	1	0.0	1	10.67	1	255.33	1	null	6	981.58	1	41.168724	15.52385
28	2024-01-02 03:00:00	22	candela_ex_comes	9.98	1	78.32	1	0.0	1	6.95	1	273.67	1	null	6	982.25	1	41.168724	15.52385
29	2024-01-02 04:00:00	22	candela_ex_comes	8.91	1	81.88	1	0.0	1	6.07	1	267.15	1	null	6	982.12	1	41.168724	15.52385
30	2024-01-02 05:00:00	22	candela_ex_comes	8.92	1	81.54	1	0.0	1	2.9	1	290.08	1	null	6	982.76	1	41.168724	15.52385
31	2024-01-02 06:00:00	22	candela_ex_comes	7.99	1	82.14	1	0.0	1	3.28	1	240.24	1	null	6	982.88	1	41.168724	15.52385
32	2024-01-02 07:00:00	22	candela_ex_comes	7.47	1	84.09	1	0.0	1	1.57	1	250.35	1	null	6	983.18	1	41.168724	15.52385
33	2024-01-02 08:00:00	22	candela_ex_comes	7.5	1	84.19	1	0.0	1	4.67	1	244.93	1	null	6	983.61	1	41.168724	15.52385
34	2024-01-02 09:00:00	22	candela_ex_comes	8.4	1	82.9	1	0.0	1	4.78	1	245.45	1	null	6	984.2	1	41.168724	15.52385
35	2024-01-02 10:00:00	22	candela_ex_comes	10.37	1	76.2	1	0.0	1	4.5	1	238.8	1	null	6	984.35	1	41.168724	15.52385
36	2024-01-02 11:00:00	22	candela_ex_comes	11.79	1	69.54	1	0.0	1	6.83	1	249.72	1	null	6	984.35	1	41.168724	15.52385
37	2024-01-02 12:00:00	22	candela_ex_comes	12.49	1	65.88	1	0.0	1	7.66	1	253.85	1	null	6	983.77	1	41.168724	15.52385
38	2024-01-02 13:00:00	22	candela_ex_comes	13.2	1	62.23	1	0.0	1	8.52	1	258.83	1	null	6	983.1	1	41.168724	15.52385
39	2024-01-02 14:00:00	22	candela_ex_comes	13.87	1	56.89	1	0.0	1	8.85	1	259.98	1	null	6	982.84	1	41.168724	15.52385
40	2024-01-02 15:00:00	22	candela_ex_comes	14.02	1	52.74	1	0.0	1	8.14	1	248.06	1	null	6	983.18	1	41.168724	15.52385
41	2024-01-02 16:00:00	22	candela_ex_comes	13.4	1	54.23	1	0.0	1	5.44	1	245.22	1	null	6	982.96	1	41.168724	15.52385
42	2024-01-02 17:00:00	22	candela_ex_comes	12.5	1	59.33	1	0.0	1	3.79	1	226.77	1	null	6	982.79	1	41.168724	15.52385
43	2024-01-02 18:00:00	22	candela_ex_comes	11.67	1	62.45	1	0.0	1	3.33	1	217.14	1	null	6	983.05	1	41.168724	15.52385
44	2024-01-02 19:00:00	22	candela_ex_comes	11.64	1	64.02	1	0.0	1	7.49	1	248.85	1	null	6	983.15	1	41.168724	15.52385
45	2024-01-02 20:00:00	22	candela_ex_comes	10.96	1	71.35	1	0.0	1	9.33	1	242.37	1	null	6	983.25	1	41.168724	15.52385
46	2024-01-02 21:00:00	22	candela_ex_comes	10.5	1	75.47	1	0.0	1	7.81	1	238.25	1	null	6	983.33	1	41.168724	15.52385
47	2024-01-02 22:00:00	22	candela_ex_comes	9.94	1	75.33	1	0.0	1	4.48	1	226.5	1	null	6	983.42	1	41.168724	15.52385
48	2024-01-02 23:00:00	22	candela_ex_comes	10.1	1	68.34	1	0.0	1	2.81	1	186.0	1	null	6	982.76	1	41.168724	15.52385
49	2024-01-03 00:00:00	22	candela_ex_comes	10.59	1	68.6	1	0.0	1	6.95	1	235.98	1	null	6	982.21	1	41.168724	15.52385
50	2024-01-03 01:00:00	22	candela_ex_comes	11.12	1	65.85	1	0.0	1	6.66	1	241.02	1	null	6	981.78	1	41.168724	15.52385
51	2024-01-03 02:00:00	22	candela_ex_comes	11.46	1	63.96	1	0.0	1	6.69	1	243.26	1	null	6	982.07	1	41.168724	15.52385
52	2024-01-03 03:00:00	22	candela_ex_comes	11.7	1	64.83	1	0.0	1	5.69	1	236.91	1	null	6	981.82	1	41.168724	15.52385
53	2024-01-03 04:00:00	22	candela_ex_comes	11.66	1	65.71	1	0.0	1	3.94	1	208.46	1	null	6	981.0	1	41.168724	15.52385
54	2024-01-03 05:00:00	22	candela_ex_comes	11.56	1	61.35	1	0.0	1	7.65	1	232.51	1	null	6	980.29	1	41.168724	15.52385
55	2024-01-03 06:00:00	22	candela_ex_comes	12.1	1	59.82	1	0.0	1	4.44	1	145.55	1	null	6	980.43	1	41.168724	15.52385
56	2024-01-03 07:00:00	22	candela_ex_comes	11.85	1	63.71	1	0.0	1	5.84	1	196.64	1	null	6	979.8	1	41.168724	15.52385
57	2024-01-03 08:00:00	22	candela_ex_comes	11.6	1	69.48	1	0.0	1	14.91	1	251.83	1	null	6	979.04	1	41.168724	15.52385
58	2024-01-03 09:00:00	22	candela_ex_comes	11.93	1	68.72	1	0.0	1	14.38	1	254.88	1	null	6	978.98	1	41.168724	15.52385
59	2024-01-03 10:00:00	22	candela_ex_comes	12.94	1	64.69	1	0.0	1	17.15	1	252.2	1	null	6	979.09	1	41.168724	15.52385
60	2024-01-03 11:00:00	22	candela_ex_comes	13.36	1	63.34	1	0.0	1	17.39	1	252.48	1	null	6	979.1	1	41.168724	15.52385
61	2024-01-03 12:00:00	22	candela_ex_comes	13.96	1	61.56	1	0.0	1	16.43	1	261.39	1	null	6	979.11	1	41.168724	15.52385
62	2024-01-03 13:00:00	22	candela_ex_comes	14.52	1	58.69	1	0.0	1	16.85	1	257.82	1	null	6	978.3	1	41.168724	15.52385
63	2024-01-03 14:00:00	22	candela_ex_comes	14.66	1	58.88	1	0.0	1	15.59	1	261.67	1	null	6	977.89	1	41.168724	15.52385
64	2024-01-03 15:00:00	22	candela_ex_comes	14.52	1	58.87	1	0.0	1	15.98	1	257.81	1	null	6	977.42	1	41.168724	15.52385
65	2024-01-03 16:00:00	22	candela_ex_comes	14.73	1	58.83	1	0.0	1	14.94	1	255.12	1	null	6	977.45	1	41.168724	15.52385
66	2024-01-03 17:00:00	22	candela_ex_comes	14.21	1	62.18	1	0.0	1	12.19	1	253.15	1	null	6	976.98	1	41.168724	15.52385
67	2024-01-03 18:00:00	22	candela_ex_comes	13.58	1	64.62	1	0.0	1	15.9	1	254.44	1	null	6	976.93	1	41.168724	15.52385
68	2024-01-03 19:00:00	22	candela_ex_comes	13.07	1	67.05	1	0.0	1	14.53	1	254.15	1	null	6	977.62	1	41.168724	15.52385
69	2024-01-03 20:00:00	22	candela_ex_comes	12.52	1	71.94	1	0.0	1	13.1	1	252.53	1	null	6	977.74	1	41.168724	15.52385
70	2024-01-03 21:00:00	22	candela_ex_comes	12.71	1	69.4	1	0.0	1	10.61	1	247.98	1	null	6	978.01	1	41.168724	15.52385
71	2024-01-03 22:00:00	22	candela_ex_comes	12.45	1	69.57	1	0.0	1	10.28	1	250.48	1	null	6	977.8	1	41.168724	15.52385
72	2024-01-03 23:00:00	22	candela_ex_comes	12.53	1	71.14	1	0.0	1	8.8	1	234.51	1	null	6	978.02	1	41.168724	15.52385
73	2024-01-04 00:00:00	22	candela_ex_comes	13.04	1	69.55	1	0.0	1	6.3	1	210.77	1	null	6	977.26	1	41.168724	15.52385
74	2024-01-04 01:00:00	22	candela_ex_comes	12.85	1	66.91	1	0.0	1	14.04	1	250.33	1	null	6	976.39	1	41.168724	15.52385
75	2024-01-04 02:00:00	22	candela_ex_comes	13.04	1	64.28	1	0.0	1	13.35	1	252.12	1	null	6	976.47	1	41.168724	15.52385
76	2024-01-04 03:00:00	22	candela_ex_comes	13.37	1	63.85	1	0.0	1	7.74	1	247.92	1	null	6	977.1	1	41.168724	15.52385
77	2024-01-04 04:00:00	22	candela_ex_comes	13.5	1	64.89	1	0.0	1	9.07	1	247.3	1	null	6	976.71	1	41.168724	15.52385
78	2024-01-04 05:00:00	22	candela_ex_comes	13.75	1	63.38	1	0.0	1	4.76	1	239.6	1	null	6	976.32	1	41.168724	15.52385
79	2024-01-04 06:00:00	22	candela_ex_comes	13.63	1	61.24	1	0.0	1	14.32	1	251.4	1	null	6	975.24	1	41.168724	15.52385
80	2024-01-04 07:00:00	22	candela_ex_comes	13.85	1	61.42	1	0.0	1	14.28	1	252.16	1	null	6	976.12	1	41.168724	15.52385
81	2024-01-04 08:00:00	22	candela_ex_comes	13.65	1	64.34	1	0.0	1	4.68	1	234.15	1	null	6	977.43	1	41.168724	15.52385
82	2024-01-04 09:00:00	22	candela_ex_comes	13.87	1	68.12	1	0.0	1	9.82	1	251.8	1	null	6	977.89	1	41.168724	15.52385
83	2024-01-04 10:00:00	22	candela_ex_comes	13.73	1	71.88	1	0.0	1	10.32	1	242.74	1	null	6	978.36	1	41.168724	15.52385
84	2024-01-04 11:00:00	22	candela_ex_comes	14.91	1	66.46	1	0.0	1	8.13	1	238.86	1	null	6	978.61	1	41.168724	15.52385
85	2024-01-04 12:00:00	22	candela_ex_comes	15.83	1	60.48	1	0.0	1	10.34	1	253.96	1	null	6	978.42	1	41.168724	15.52385
86	2024-01-04 13:00:00	22	candela_ex_comes	16.24	1	56.07	1	0.0	1	12.77	1	259.97	1	null	6	977.9	1	41.168724	15.52385
87	2024-01-04 14:00:00	22	candela_ex_comes	16.55	1	54.02	1	0.0	1	11.9	1	252.98	1	null	6	977.39	1	41.168724	15.52385
88	2024-01-04 15:00:00	22	candela_ex_comes	16.3	1	56.05	1	0.0	1	11.45	1	255.84	1	null	6	977.43	1	41.168724	15.52385
89	2024-01-04 16:00:00	22	candela_ex_comes	15.92	1	58.33	1	0.0	1	10.71	1	263.92	1	null	6	977.79	1	41.168724	15.52385
90	2024-01-04 17:00:00	22	candela_ex_comes	15.12	1	58.82	1	0.0	1	10.54	1	264.98	1	null	6	978.08	1	41.168724	15.52385
91	2024-01-04 18:00:00	22	candela_ex_comes	13.45	1	62.81	1	0.0	1	7.06	1	254.5	1	null	6	978.95	1	41.168724	15.52385
92	2024-01-04 19:00:00	22	candela_ex_comes	12.9	1	64.5	1	0.0	1	7.43	1	243.8	1	null	6	979.53	1	41.168724	15.52385
93	2024-01-04 20:00:00	22	candela_ex_comes	12.64	1	65.14	1	0.0	1	5.17	1	228.87	1	null	6	980.26	1	41.168724	15.52385
94	2024-01-04 21:00:00	22	candela_ex_comes	11.97	1	68.45	1	0.0	1	5.4	1	225.53	1	null	6	980.54	1	41.168724	15.52385
95	2024-01-04 22:00:00	22	candela_ex_comes	11.31	1	72.08	1	0.0	1	5.39	1	232.15	1	null	6	980.76	1	41.168724	15.52385
96	2024-01-04 23:00:00	22	candela_ex_comes	11.2	1	73.32	1	0.0	1	3.72	1	236.24	1	null	6	981.05	1	41.168724	15.52385
97	2024-01-05 00:00:00	22	candela_ex_comes	10.52	1	75.46	1	0.0	1	2.51	1	153.13	1	null	6	981.09	1	41.168724	15.52385
98	2024-01-05 01:00:00	22	candela_ex_comes	10.4	1	76.22	1	0.0	1	3.03	1	207.86	1	null	6	980.98	1	41.168724	15.52385
99	2024-01-05 02:00:00	22	candela_ex_comes	10.29	1	74.94	1	0.0	1	4.46	1	227.44	1	null	6	980.84	1	41.168724	15.52385
100	2024-01-05 03:00:00	22	candela_ex_comes	11.27	1	73.88	1	0.0	1	6.38	1	228.76	1	null	6	980.73	1	41.168724	15.52385
101	2024-01-05 04:00:00	22	candela_ex_comes	11.3	1	71.54	1	0.0	1	5.79	1	231.92	1	null	6	980.1	1	41.168724	15.52385
102	2024-01-05 05:00:00	22	candela_ex_comes	11.03	1	71.37	1	0.0	1	5.22	1	221.99	1	null	6	979.57	1	41.168724	15.52385
103	2024-01-05 06:00:00	22	candela_ex_comes	11.08	1	73.15	1	0.0	1	5.76	1	227.82	1	null	6	979.16	1	41.168724	15.52385
104	2024-01-05 07:00:00	22	candela_ex_comes	10.78	1	74.83	1	0.0	1	4.83	1	219.6	1	null	6	979.31	1	41.168724	15.52385
105	2024-01-05 08:00:00	22	candela_ex_comes	10.84	1	73.62	1	0.0	1	4.99	1	226.46	1	null	6	979.18	1	41.168724	15.52385
106	2024-01-05 09:00:00	22	candela_ex_comes	11.18	1	71.44	1	0.0	1	3.98	1	224.17	1	null	6	978.96	1	41.168724	15.52385
107	2024-01-05 10:00:00	22	candela_ex_comes	12.3	1	67.2	1	0.0	1	4.99	1	232.7	1	null	6	978.9	1	41.168724	15.52385
108	2024-01-05 11:00:00	22	candela_ex_comes	13.64	1	62.18	1	0.0	1	2.47	1	212.29	1	null	6	978.65	1	41.168724	15.52385
109	2024-01-05 12:00:00	22	candela_ex_comes	14.26	1	62.31	1	0.0	1	3.02	1	183.93	1	null	6	977.75	1	41.168724	15.52385
110	2024-01-05 13:00:00	22	candela_ex_comes	14.6	1	62.57	1	0.0	1	3.48	1	185.61	1	null	6	976.73	1	41.168724	15.52385
111	2024-01-05 14:00:00	22	candela_ex_comes	14.58	1	63.59	1	0.0	1	2.91	1	197.48	1	null	6	976.12	1	41.168724	15.52385
112	2024-01-05 15:00:00	22	candela_ex_comes	14.66	1	64.25	1	0.0	1	2.44	1	143.48	1	null	6	975.65	1	41.168724	15.52385
113	2024-01-05 16:00:00	22	candela_ex_comes	13.67	1	64.39	1	0.0	1	3.64	1	125.79	1	null	6	975.35	1	41.168724	15.52385
114	2024-01-05 17:00:00	22	candela_ex_comes	12.45	1	64.23	1	0.0	1	4.05	1	142.98	1	null	6	975.12	1	41.168724	15.52385
115	2024-01-05 18:00:00	22	candela_ex_comes	11.75	1	66.04	1	0.0	1	4.54	1	144.69	1	null	6	975.19	1	41.168724	15.52385
116	2024-01-05 19:00:00	22	candela_ex_comes	10.86	1	69.35	1	0.0	1	4.98	1	143.1	1	null	6	975.23	1	41.168724	15.52385
117	2024-01-05 20:00:00	22	candela_ex_comes	10.24	1	72.55	1	0.0	1	4.04	1	145.44	1	null	6	975.17	1	41.168724	15.52385
118	2024-01-05 21:00:00	22	candela_ex_comes	10.03	1	74.04	1	0.0	1	3.95	1	150.62	1	null	6	974.73	1	41.168724	15.52385
119	2024-01-05 22:00:00	22	candela_ex_comes	9.85	1	75.79	1	0.0	1	2.52	1	170.17	1	null	6	974.22	1	41.168724	15.52385
120	2024-01-05 23:00:00	22	candela_ex_comes	9.92	1	77.07	1	0.0	1	4.27	1	145.4	1	null	6	973.53	1	41.168724	15.52385
121	2024-01-06 00:00:00	22	candela_ex_comes	10.42	1	76.92	1	0.0	1	3.55	1	157.58	1	null	6	973.01	1	41.168724	15.52385
122	2024-01-06 01:00:00	22	candela_ex_comes	11.12	1	73.76	1	0.0	1	1.68	1	108.27	1	null	6	972.53	1	41.168724	15.52385
123	2024-01-06 02:00:00	22	candela_ex_comes	12.87	1	65.56	1	0.0	1	2.54	1	186.86	1	null	6	972.05	1	41.168724	15.52385
124	2024-01-06 03:00:00	22	candela_ex_comes	12.69	1	64.69	1	0.0	1	2.59	1	152.68	1	null	6	971.58	1	41.168724	15.52385
125	2024-01-06 04:00:00	22	candela_ex_comes	11.33	1	68.91	1	0.0	1	3.29	1	147.39	1	null	6	971.06	1	41.168724	15.52385
126	2024-01-06 05:00:00	22	candela_ex_comes	10.94	1	72.79	1	0.0	1	3.1	1	131.83	1	null	6	970.43	1	41.168724	15.52385
127	2024-01-06 06:00:00	22	candela_ex_comes	10.77	1	74.14	1	0.0	1	3.88	1	148.86	1	null	6	970.23	1	41.168724	15.52385
128	2024-01-06 07:00:00	22	candela_ex_comes	11.25	1	71.72	1	0.0	1	3.08	1	154.93	1	null	6	970.05	1	41.168724	15.52385
129	2024-01-06 08:00:00	22	candela_ex_comes	11.44	1	70.2	1	0.0	1	3.22	1	166.14	1	null	6	969.74	1	41.168724	15.52385
130	2024-01-06 09:00:00	22	candela_ex_comes	11.1	1	69.88	1	0.0	1	3.97	1	136.19	1	null	6	969.3	1	41.168724	15.52385
131	2024-01-06 10:00:00	22	candela_ex_comes	10.63	1	73.79	1	0.0	1	5.02	1	143.56	1	null	6	968.97	1	41.168724	15.52385
132	2024-01-06 11:00:00	22	candela_ex_comes	11.01	1	73.39	1	0.0	1	4.57	1	143.89	1	null	6	968.39	1	41.168724	15.52385
133	2024-01-06 12:00:00	22	candela_ex_comes	11.59	1	72.07	1	0.0	1	4.61	1	143.57	1	null	6	967.1	1	41.168724	15.52385
134	2024-01-06 13:00:00	22	candela_ex_comes	12.87	1	70.77	1	0.0	1	4.73	1	119.79	1	null	6	965.14	1	41.168724	15.52385
135	2024-01-06 14:00:00	22	candela_ex_comes	12.5	1	76.44	1	0.4	1	3.49	1	130.91	1	null	6	964.01	1	41.168724	15.52385
136	2024-01-06 15:00:00	22	candela_ex_comes	11.33	1	84.56	1	0.6	1	2.63	1	249.62	1	null	6	962.92	1	41.168724	15.52385
137	2024-01-06 16:00:00	22	candela_ex_comes	11.1	1	88.01	1	0.0	1	1.72	1	281.91	1	null	6	961.81	1	41.168724	15.52385
138	2024-01-06 17:00:00	22	candela_ex_comes	11.19	1	85.19	1	0.0	1	1.72	1	299.21	1	null	6	961.18	1	41.168724	15.52385
139	2024-01-06 18:00:00	22	candela_ex_comes	10.86	1	82.02	1	0.0	1	1.01	1	149.83	1	null	6	960.75	1	41.168724	15.52385
140	2024-01-06 19:00:00	22	candela_ex_comes	9.81	1	88.87	1	0.0	1	2.68	1	235.41	1	null	6	960.58	1	41.168724	15.52385
141	2024-01-06 20:00:00	22	candela_ex_comes	9.8	1	87.63	1	1.0	1	2.04	1	245.07	1	null	6	961.03	1	41.168724	15.52385
142	2024-01-06 21:00:00	22	candela_ex_comes	9.58	1	85.99	1	0.6	1	2.5	1	242.11	1	null	6	960.34	1	41.168724	15.52385
143	2024-01-06 22:00:00	22	candela_ex_comes	9.25	1	84.07	1	0.0	1	2.46	1	238.04	1	null	6	959.58	1	41.168724	15.52385
144	2024-01-06 23:00:00	22	candela_ex_comes	8.75	1	82.31	1	0.0	1	2.03	1	259.05	1	null	6	959.34	1	41.168724	15.52385
145	2024-01-07 00:00:00	22	candela_ex_comes	8.49	1	85.41	1	0.0	1	2.49	1	138.65	1	null	6	959.61	1	41.168724	15.52385
146	2024-01-07 01:00:00	22	candela_ex_comes	8.87	1	84.15	1	0.0	1	1.86	1	128.95	1	null	6	959.72	1	41.168724	15.52385
147	2024-01-07 02:00:00	22	candela_ex_comes	8.67	1	86.49	1	0.0	1	1.87	1	252.3	1	null	6	960.01	1	41.168724	15.52385
148	2024-01-07 03:00:00	22	candela_ex_comes	8.96	1	88.89	1	0.2	1	1.76	1	245.73	1	null	6	960.05	1	41.168724	15.52385
149	2024-01-07 04:00:00	22	candela_ex_comes	8.15	1	91.48	1	0.0	1	2.45	1	250.77	1	null	6	959.68	1	41.168724	15.52385
150	2024-01-07 05:00:00	22	candela_ex_comes	8.19	1	92.93	1	0.0	1	1.61	1	258.97	1	null	6	959.58	1	41.168724	15.52385
151	2024-01-07 06:00:00	22	candela_ex_comes	8.57	1	92.52	1	0.0	1	2.11	1	255.24	1	null	6	959.53	1	41.168724	15.52385
152	2024-01-07 07:00:00	22	candela_ex_comes	8.61	1	92.83	1	0.0	1	2.18	1	275.02	1	null	6	959.95	1	41.168724	15.52385
153	2024-01-07 08:00:00	22	candela_ex_comes	8.86	1	91.42	1	0.0	1	1.74	1	309.01	1	null	6	960.65	1	41.168724	15.52385
154	2024-01-07 09:00:00	22	candela_ex_comes	9.12	1	88.84	1	0.0	1	1.22	1	32.9	1	null	6	961.4	1	41.168724	15.52385
155	2024-01-07 10:00:00	22	candela_ex_comes	9.42	1	87.37	1	0.0	1	1.07	1	249.21	1	null	6	961.87	1	41.168724	15.52385
156	2024-01-07 11:00:00	22	candela_ex_comes	9.63	1	90.17	1	0.0	1	0.73	1	274.13	1	null	6	962.02	1	41.168724	15.52385
157	2024-01-07 12:00:00	22	candela_ex_comes	10.19	1	88.22	1	0.2	1	1.43	1	168.75	1	null	6	961.92	1	41.168724	15.52385
158	2024-01-07 13:00:00	22	candela_ex_comes	10.36	1	82.73	1	0.2	1	6.8	1	246.02	1	null	6	961.69	1	41.168724	15.52385
159	2024-01-07 14:00:00	22	candela_ex_comes	10.1	1	78.58	1	0.0	1	6.8	1	254.25	1	null	6	961.9	1	41.168724	15.52385
160	2024-01-07 15:00:00	22	candela_ex_comes	9.3	1	78.85	1	0.4	1	8.58	1	245.94	1	null	6	962.32	1	41.168724	15.52385
161	2024-01-07 16:00:00	22	candela_ex_comes	8.78	1	77.2	1	0.0	1	9.69	1	248.1	1	null	6	962.81	1	41.168724	15.52385
162	2024-01-07 17:00:00	22	candela_ex_comes	8.04	1	79.17	1	0.0	1	9.55	1	259.21	1	null	6	963.04	1	41.168724	15.52385
163	2024-01-07 18:00:00	22	candela_ex_comes	8.2	1	77.43	1	0.0	1	10.62	1	259.57	1	null	6	963.36	1	41.168724	15.52385
164	2024-01-07 19:00:00	22	candela_ex_comes	8.14	1	79.05	1	0.0	1	7.29	1	253.1	1	null	6	964.4	1	41.168724	15.52385
165	2024-01-07 20:00:00	22	candela_ex_comes	8.22	1	75.23	1	0.0	1	6.81	1	257.02	1	null	6	965.25	1	41.168724	15.52385
166	2024-01-07 21:00:00	22	candela_ex_comes	8.08	1	75.16	1	0.0	1	6.09	1	254.9	1	null	6	965.87	1	41.168724	15.52385
167	2024-01-07 22:00:00	22	candela_ex_comes	7.83	1	78.33	1	0.0	1	2.57	1	222.78	1	null	6	966.33	1	41.168724	15.52385
168	2024-01-07 23:00:00	22	candela_ex_comes	7.46	1	83.3	1	0.8	1	4.39	1	228.55	1	null	6	966.67	1	41.168724	15.52385
169	2024-01-08 00:00:00	22	candela_ex_comes	7.42	1	84.59	1	0.2	1	5.53	1	227.23	1	null	6	966.7	1	41.168724	15.52385
170	2024-01-08 01:00:00	22	candela_ex_comes	7.46	1	85.03	1	0.2	1	5.5	1	232.62	1	null	6	966.67	1	41.168724	15.52385
171	2024-01-08 02:00:00	22	candela_ex_comes	7.54	1	84.6	1	0.0	1	3.91	1	235.49	1	null	6	966.9	1	41.168724	15.52385
172	2024-01-08 03:00:00	22	candela_ex_comes	7.65	1	85.11	1	1.4	1	2.3	1	223.49	1	null	6	967.15	1	41.168724	15.52385
173	2024-01-08 04:00:00	22	candela_ex_comes	7.39	1	86.97	1	1.0	1	1.77	1	163.47	1	null	6	967.17	1	41.168724	15.52385
174	2024-01-08 05:00:00	22	candela_ex_comes	7.21	1	89.49	1	0.4	1	1.14	1	182.93	1	null	6	967.42	1	41.168724	15.52385
175	2024-01-08 06:00:00	22	candela_ex_comes	7.16	1	90.26	1	0.0	1	1.28	1	173.41	1	null	6	967.62	1	41.168724	15.52385
176	2024-01-08 07:00:00	22	candela_ex_comes	7.07	1	90.88	1	0.2	1	1.51	1	181.24	1	null	6	967.99	1	41.168724	15.52385
177	2024-01-08 08:00:00	22	candela_ex_comes	7.28	1	89.9	1	0.0	1	0.77	1	147.02	1	null	6	968.51	1	41.168724	15.52385
178	2024-01-08 09:00:00	22	candela_ex_comes	7.19	1	89.62	1	0.0	1	1.23	1	130.34	1	null	6	969.15	1	41.168724	15.52385
179	2024-01-08 10:00:00	22	candela_ex_comes	7.66	1	90.41	1	0.4	1	0.93	1	129.95	1	null	6	969.87	1	41.168724	15.52385
180	2024-01-08 11:00:00	22	candela_ex_comes	8.27	1	90.16	1	0.4	1	1.66	1	255.32	1	null	6	970.03	1	41.168724	15.52385
181	2024-01-08 12:00:00	22	candela_ex_comes	9.32	1	85.95	1	0.0	1	2.74	1	264.22	1	null	6	969.74	1	41.168724	15.52385
182	2024-01-08 13:00:00	22	candela_ex_comes	10.11	1	78.89	1	0.0	1	2.13	1	35.98	1	null	6	969.47	1	41.168724	15.52385
183	2024-01-08 14:00:00	22	candela_ex_comes	9.07	1	83.81	1	0.6	1	2.0	1	6.2	1	null	6	969.75	1	41.168724	15.52385
184	2024-01-08 15:00:00	22	candela_ex_comes	9.04	1	86.29	1	0.4	1	1.45	1	7.09	1	null	6	969.98	1	41.168724	15.52385
185	2024-01-08 16:00:00	22	candela_ex_comes	9.05	1	87.27	1	0.0	1	1.09	1	358.51	1	null	6	970.45	1	41.168724	15.52385
186	2024-01-08 17:00:00	22	candela_ex_comes	8.25	1	89.45	1	1.2	1	3.27	1	341.45	1	null	6	971.13	1	41.168724	15.52385
187	2024-01-08 18:00:00	22	candela_ex_comes	7.43	1	93.18	1	1.0	1	2.87	1	352.26	1	null	6	972.05	1	41.168724	15.52385
188	2024-01-08 19:00:00	22	candela_ex_comes	7.04	1	94.3	1	1.2	1	5.66	1	323.31	1	null	6	972.86	1	41.168724	15.52385
189	2024-01-08 20:00:00	22	candela_ex_comes	6.38	1	94.75	1	0.4	1	7.55	1	325.69	1	null	6	973.89	1	41.168724	15.52385
190	2024-01-08 21:00:00	22	candela_ex_comes	6.58	1	94.32	1	0.0	1	7.98	1	321.07	1	null	6	974.86	1	41.168724	15.52385
191	2024-01-08 22:00:00	22	candela_ex_comes	6.73	1	93.56	1	0.0	1	9.66	1	320.83	1	null	6	975.66	1	41.168724	15.52385
192	2024-01-08 23:00:00	22	candela_ex_comes	6.62	1	91.43	1	0.0	1	11.13	1	321.01	1	null	6	976.45	1	41.168724	15.52385
193	2024-01-09 00:00:00	22	candela_ex_comes	6.09	1	90.88	1	0.0	1	11.93	1	316.95	1	null	6	977.0	1	41.168724	15.52385
194	2024-01-09 01:00:00	22	candela_ex_comes	5.66	1	91.92	1	0.0	1	12.71	1	319.11	1	null	6	977.57	1	41.168724	15.52385
195	2024-01-09 02:00:00	22	candela_ex_comes	5.52	1	90.7	1	0.0	1	12.31	1	321.19	1	null	6	978.25	1	41.168724	15.52385
196	2024-01-09 03:00:00	22	candela_ex_comes	5.57	1	88.13	1	0.0	1	12.54	1	323.63	1	null	6	979.09	1	41.168724	15.52385
197	2024-01-09 04:00:00	22	candela_ex_comes	5.53	1	87.63	1	0.2	1	11.86	1	323.35	1	null	6	979.66	1	41.168724	15.52385
198	2024-01-09 05:00:00	22	candela_ex_comes	5.57	1	86.23	1	0.6	1	11.19	1	325.76	1	null	6	980.19	1	41.168724	15.52385
199	2024-01-09 06:00:00	22	candela_ex_comes	5.42	1	88.22	1	0.6	1	10.69	1	324.35	1	null	6	980.71	1	41.168724	15.52385
200	2024-01-09 07:00:00	22	candela_ex_comes	5.54	1	86.99	1	0.0	1	9.16	1	329.39	1	null	6	981.58	1	41.168724	15.52385
201	2024-01-09 08:00:00	22	candela_ex_comes	5.47	1	86.83	1	0.0	1	6.49	1	333.73	1	null	6	982.5	1	41.168724	15.52385
202	2024-01-09 09:00:00	22	candela_ex_comes	5.59	1	84.03	1	0.2	1	7.54	1	337.55	1	null	6	983.39	1	41.168724	15.52385
203	2024-01-09 10:00:00	22	candela_ex_comes	5.82	1	81.75	1	0.0	1	8.71	1	334.78	1	null	6	984.2	1	41.168724	15.52385
204	2024-01-09 11:00:00	22	candela_ex_comes	6.19	1	81.42	1	0.0	1	9.45	1	333.48	1	null	6	984.65	1	41.168724	15.52385
205	2024-01-09 12:00:00	22	candela_ex_comes	6.75	1	81.3	1	0.0	1	8.81	1	331.22	1	null	6	984.74	1	41.168724	15.52385
206	2024-01-09 13:00:00	22	candela_ex_comes	6.88	1	81.25	1	0.0	1	8.72	1	335.08	1	null	6	984.73	1	41.168724	15.52385
207	2024-01-09 14:00:00	22	candela_ex_comes	6.57	1	83.89	1	0.0	1	8.91	1	335.7	1	null	6	984.97	1	41.168724	15.52385
208	2024-01-09 15:00:00	22	candela_ex_comes	6.41	1	83.77	1	0.0	1	7.97	1	343.22	1	null	6	985.45	1	41.168724	15.52385
209	2024-01-09 16:00:00	22	candela_ex_comes	6.15	1	84.39	1	0.0	1	8.19	1	338.09	1	null	6	985.95	1	41.168724	15.52385
210	2024-01-09 17:00:00	22	candela_ex_comes	5.88	1	85.35	1	0.0	1	6.09	1	320.7	1	null	6	986.49	1	41.168724	15.52385
211	2024-01-09 18:00:00	22	candela_ex_comes	5.8	1	84.82	1	0.0	1	4.83	1	310.41	1	null	6	986.94	1	41.168724	15.52385
212	2024-01-09 19:00:00	22	candela_ex_comes	5.77	1	84.89	1	0.0	1	4.87	1	305.49	1	null	6	987.5	1	41.168724	15.52385
213	2024-01-09 20:00:00	22	candela_ex_comes	5.63	1	87.33	1	0.0	1	5.14	1	299.79	1	null	6	987.95	1	41.168724	15.52385
214	2024-01-09 21:00:00	22	candela_ex_comes	5.65	1	86.79	1	0.0	1	4.96	1	300.28	1	null	6	988.29	1	41.168724	15.52385
215	2024-01-09 22:00:00	22	candela_ex_comes	5.71	1	87.05	1	0.0	1	4.51	1	296.29	1	null	6	988.68	1	41.168724	15.52385
216	2024-01-09 23:00:00	22	candela_ex_comes	5.76	1	86.35	1	0.0	1	4.41	1	302.83	1	null	6	988.89	1	41.168724	15.52385
217	2024-01-10 00:00:00	22	candela_ex_comes	5.55	1	87.94	1	0.0	1	4.04	1	303.91	1	null	6	988.93	1	41.168724	15.52385
218	2024-01-10 01:00:00	22	candela_ex_comes	5.52	1	88.81	1	0.0	1	3.85	1	306.41	1	null	6	989.05	1	41.168724	15.52385
219	2024-01-10 02:00:00	22	candela_ex_comes	5.42	1	89.84	1	0.0	1	3.09	1	316.42	1	null	6	989.35	1	41.168724	15.52385
220	2024-01-10 03:00:00	22	candela_ex_comes	5.24	1	90.66	1	0.0	1	3.01	1	329.51	1	null	6	989.74	1	41.168724	15.52385
221	2024-01-10 04:00:00	22	candela_ex_comes	5.09	1	91.03	1	0.0	1	2.91	1	326.54	1	null	6	989.73	1	41.168724	15.52385
222	2024-01-10 05:00:00	22	candela_ex_comes	5.09	1	89.77	1	0.0	1	1.66	1	349.28	1	null	6	989.8	1	41.168724	15.52385
223	2024-01-10 06:00:00	22	candela_ex_comes	5.2	1	86.96	1	0.0	1	1.91	1	351.61	1	null	6	990.14	1	41.168724	15.52385
224	2024-01-10 07:00:00	22	candela_ex_comes	5.34	1	79.41	1	0.0	1	2.94	1	337.74	1	null	6	990.53	1	41.168724	15.52385
225	2024-01-10 08:00:00	22	candela_ex_comes	4.7	1	83.61	1	0.0	1	2.68	1	357.91	1	null	6	991.01	1	41.168724	15.52385
226	2024-01-10 09:00:00	22	candela_ex_comes	4.67	1	86.18	1	0.0	1	1.56	1	16.04	1	null	6	991.45	1	41.168724	15.52385
227	2024-01-10 10:00:00	22	candela_ex_comes	5.11	1	84.55	1	0.0	1	2.06	1	4.78	1	null	6	991.81	1	41.168724	15.52385
228	2024-01-10 11:00:00	22	candela_ex_comes	5.56	1	81.55	1	0.0	1	3.0	1	352.25	1	null	6	991.9	1	41.168724	15.52385
229	2024-01-10 12:00:00	22	candela_ex_comes	5.9	1	80.31	1	0.0	1	2.81	1	351.72	1	null	6	991.62	1	41.168724	15.52385
230	2024-01-10 13:00:00	22	candela_ex_comes	6.31	1	80.01	1	0.0	1	3.41	1	339.02	1	null	6	991.13	1	41.168724	15.52385
231	2024-01-10 14:00:00	22	candela_ex_comes	6.51	1	82.59	1	0.0	1	3.43	1	350.64	1	null	6	990.75	1	41.168724	15.52385
232	2024-01-10 15:00:00	22	candela_ex_comes	6.45	1	85.13	1	0.0	1	3.04	1	352.27	1	null	6	990.63	1	41.168724	15.52385
233	2024-01-10 16:00:00	22	candela_ex_comes	6.36	1	87.42	1	0.0	1	3.03	1	351.94	1	null	6	991.01	1	41.168724	15.52385
234	2024-01-10 17:00:00	22	candela_ex_comes	6.2	1	88.42	1	0.0	1	2.83	1	355.3	1	null	6	990.83	1	41.168724	15.52385
235	2024-01-10 18:00:00	22	candela_ex_comes	5.69	1	90.54	1	0.0	1	2.7	1	4.84	1	null	6	990.84	1	41.168724	15.52385
236	2024-01-10 19:00:00	22	candela_ex_comes	5.52	1	91.82	1	0.0	1	2.26	1	6.92	1	null	6	991.2	1	41.168724	15.52385
237	2024-01-10 20:00:00	22	candela_ex_comes	5.41	1	92.58	1	0.0	1	2.28	1	9.23	1	null	6	991.1	1	41.168724	15.52385
238	2024-01-10 21:00:00	22	candela_ex_comes	5.34	1	92.47	1	0.0	1	2.12	1	14.16	1	null	6	991.1	1	41.168724	15.52385
239	2024-01-10 22:00:00	22	candela_ex_comes	5.37	1	91.36	1	0.0	1	1.97	1	19.46	1	null	6	991.06	1	41.168724	15.52385
240	2024-01-10 23:00:00	22	candela_ex_comes	5.44	1	89.91	1	0.0	1	1.47	1	24.64	1	null	6	990.79	1	41.168724	15.52385
241	2024-01-11 00:00:00	22	candela_ex_comes	5.52	1	89.49	1	0.0	1	1.95	1	30.8	1	null	6	990.49	1	41.168724	15.52385
242	2024-01-11 01:00:00	22	candela_ex_comes	5.49	1	89.59	1	0.0	1	1.94	1	26.25	1	null	6	990.14	1	41.168724	15.52385
243	2024-01-11 02:00:00	22	candela_ex_comes	5.36	1	90.43	1	0.0	1	1.97	1	21.86	1	null	6	989.69	1	41.168724	15.52385
244	2024-01-11 03:00:00	22	candela_ex_comes	5.32	1	91.45	1	0.0	1	1.59	1	31.87	1	null	6	989.66	1	41.168724	15.52385
245	2024-01-11 04:00:00	22	candela_ex_comes	5.27	1	92.3	1	0.0	1	1.82	1	22.07	1	null	6	989.29	1	41.168724	15.52385
246	2024-01-11 05:00:00	22	candela_ex_comes	5.23	1	93.14	1	0.0	1	2.12	1	15.62	1	null	6	988.87	1	41.168724	15.52385
247	2024-01-11 06:00:00	22	candela_ex_comes	5.2	1	94.21	1	0.0	1	1.91	1	10.69	1	null	6	988.85	1	41.168724	15.52385
248	2024-01-11 07:00:00	22	candela_ex_comes	5.19	1	95.14	1	0.0	1	2.02	1	15.76	1	null	6	988.74	1	41.168724	15.52385
249	2024-01-11 08:00:00	22	candela_ex_comes	5.17	1	95.84	1	0.0	1	1.78	1	15.37	1	null	6	988.74	1	41.168724	15.52385
250	2024-01-11 09:00:00	22	candela_ex_comes	5.26	1	96.27	1	0.0	1	1.37	1	19.44	1	null	6	988.65	1	41.168724	15.52385
251	2024-01-11 10:00:00	22	candela_ex_comes	5.36	1	96.47	1	0.0	1	1.74	1	24.36	1	null	6	988.65	1	41.168724	15.52385
252	2024-01-11 11:00:00	22	candela_ex_comes	5.46	1	96.55	1	0.0	1	1.55	1	11.48	1	null	6	988.38	1	41.168724	15.52385
253	2024-01-11 12:00:00	22	candela_ex_comes	5.63	1	96.85	1	0.0	1	2.48	1	14.93	1	null	6	987.84	1	41.168724	15.52385
254	2024-01-11 13:00:00	22	candela_ex_comes	5.75	1	97.3	1	0.0	1	3.4	1	15.62	1	null	6	987.22	1	41.168724	15.52385
255	2024-01-11 14:00:00	22	candela_ex_comes	5.85	1	97.36	1	0.0	1	3.71	1	13.25	1	null	6	986.53	1	41.168724	15.52385
256	2024-01-11 15:00:00	22	candela_ex_comes	6.08	1	97.23	1	0.0	1	3.91	1	356.07	1	null	6	985.97	1	41.168724	15.52385
257	2024-01-11 16:00:00	22	candela_ex_comes	6.1	1	96.92	1	0.0	1	3.71	1	346.71	1	null	6	985.98	1	41.168724	15.52385
258	2024-01-11 17:00:00	22	candela_ex_comes	6.03	1	96.89	1	0.6	1	2.67	1	342.58	1	null	6	985.76	1	41.168724	15.52385
259	2024-01-11 18:00:00	22	candela_ex_comes	6.05	1	97.02	1	0.2	1	2.52	1	0.81	1	null	6	985.73	1	41.168724	15.52385
260	2024-01-11 19:00:00	22	candela_ex_comes	6.0	1	97.14	1	0.0	1	1.94	1	12.97	1	null	6	985.7	1	41.168724	15.52385
261	2024-01-11 20:00:00	22	candela_ex_comes	5.82	1	96.98	1	0.0	1	2.69	1	0.05	1	null	6	985.43	1	41.168724	15.52385
262	2024-01-11 21:00:00	22	candela_ex_comes	5.69	1	96.53	1	0.0	1	2.87	1	358.58	1	null	6	985.24	1	41.168724	15.52385
263	2024-01-11 22:00:00	22	candela_ex_comes	5.65	1	95.89	1	0.0	1	2.97	1	354.33	1	null	6	985.46	1	41.168724	15.52385
264	2024-01-11 23:00:00	22	candela_ex_comes	5.61	1	95.5	1	0.0	1	2.89	1	357.98	1	null	6	985.48	1	41.168724	15.52385
265	2024-01-12 00:00:00	22	candela_ex_comes	5.53	1	95.37	1	0.0	1	1.94	1	344.73	1	null	6	985.36	1	41.168724	15.52385
266	2024-01-12 01:00:00	22	candela_ex_comes	5.53	1	95.16	1	0.0	1	2.75	1	324.3	1	null	6	984.75	1	41.168724	15.52385
267	2024-01-12 02:00:00	22	candela_ex_comes	5.64	1	94.74	1	0.0	1	4.15	1	335.87	1	null	6	984.61	1	41.168724	15.52385
268	2024-01-12 03:00:00	22	candela_ex_comes	5.62	1	93.89	1	0.0	1	2.43	1	355.49	1	null	6	984.59	1	41.168724	15.52385
269	2024-01-12 04:00:00	22	candela_ex_comes	5.42	1	93.97	1	0.0	1	2.99	1	336.37	1	null	6	984.22	1	41.168724	15.52385
270	2024-01-12 05:00:00	22	candela_ex_comes	5.47	1	93.69	1	0.0	1	3.95	1	329.74	1	null	6	983.92	1	41.168724	15.52385
271	2024-01-12 06:00:00	22	candela_ex_comes	5.34	1	92.62	1	0.0	1	4.51	1	333.4	1	null	6	984.01	1	41.168724	15.52385
272	2024-01-12 07:00:00	22	candela_ex_comes	5.13	1	91.96	1	0.0	1	6.34	1	325.76	1	null	6	984.21	1	41.168724	15.52385
273	2024-01-12 08:00:00	22	candela_ex_comes	4.94	1	90.09	1	0.0	1	7.22	1	323.29	1	null	6	984.32	1	41.168724	15.52385
274	2024-01-12 09:00:00	22	candela_ex_comes	5.56	1	84.36	1	0.0	1	7.99	1	325.3	1	null	6	984.7	1	41.168724	15.52385
275	2024-01-12 10:00:00	22	candela_ex_comes	5.85	1	81.22	1	0.0	1	9.23	1	329.08	1	null	6	985.45	1	41.168724	15.52385
276	2024-01-12 11:00:00	22	candela_ex_comes	6.56	1	80.44	1	0.0	1	9.41	1	331.9	1	null	6	986.15	1	41.168724	15.52385
277	2024-01-12 12:00:00	22	candela_ex_comes	6.87	1	77.81	1	0.2	1	11.03	1	328.02	1	null	6	985.8	1	41.168724	15.52385
278	2024-01-12 13:00:00	22	candela_ex_comes	7.42	1	73.43	1	0.0	1	11.77	1	328.64	1	null	6	985.26	1	41.168724	15.52385
279	2024-01-12 14:00:00	22	candela_ex_comes	7.79	1	66.78	1	0.0	1	12.01	1	329.29	1	null	6	985.03	1	41.168724	15.52385
280	2024-01-12 15:00:00	22	candela_ex_comes	7.01	1	71.51	1	0.0	1	9.6	1	330.94	1	null	6	985.26	1	41.168724	15.52385
281	2024-01-12 16:00:00	22	candela_ex_comes	7.09	1	73.08	1	0.0	1	7.78	1	327.65	1	null	6	985.56	1	41.168724	15.52385
282	2024-01-12 17:00:00	22	candela_ex_comes	6.2	1	78.42	1	0.0	1	6.97	1	319.85	1	null	6	985.73	1	41.168724	15.52385
283	2024-01-12 18:00:00	22	candela_ex_comes	5.38	1	76.73	1	0.0	1	5.45	1	333.54	1	null	6	986.35	1	41.168724	15.52385
284	2024-01-12 19:00:00	22	candela_ex_comes	4.19	1	77.22	1	0.0	1	4.32	1	317.1	1	null	6	986.46	1	41.168724	15.52385
285	2024-01-12 20:00:00	22	candela_ex_comes	4.66	1	75.76	1	0.0	1	5.79	1	304.28	1	null	6	986.67	1	41.168724	15.52385
286	2024-01-12 21:00:00	22	candela_ex_comes	4.98	1	74.69	1	0.0	1	5.73	1	310.53	1	null	6	986.88	1	41.168724	15.52385
287	2024-01-12 22:00:00	22	candela_ex_comes	4.68	1	76.14	1	0.0	1	5.91	1	325.57	1	null	6	987.2	1	41.168724	15.52385
288	2024-01-12 23:00:00	22	candela_ex_comes	4.45	1	77.06	1	0.0	1	5.17	1	326.59	1	null	6	987.46	1	41.168724	15.52385
289	2024-01-13 00:00:00	22	candela_ex_comes	4.41	1	78.83	1	0.0	1	6.15	1	313.6	1	null	6	987.67	1	41.168724	15.52385
290	2024-01-13 01:00:00	22	candela_ex_comes	3.94	1	81.38	1	0.0	1	5.24	1	303.57	1	null	6	987.51	1	41.168724	15.52385
291	2024-01-13 02:00:00	22	candela_ex_comes	4.05	1	80.93	1	0.0	1	5.57	1	315.59	1	null	6	987.7	1	41.168724	15.52385
292	2024-01-13 03:00:00	22	candela_ex_comes	3.83	1	80.67	1	0.0	1	4.7	1	301.21	1	null	6	987.85	1	41.168724	15.52385
293	2024-01-13 04:00:00	22	candela_ex_comes	3.13	1	81.36	1	0.0	1	4.03	1	302.24	1	null	6	987.57	1	41.168724	15.52385
294	2024-01-13 05:00:00	22	candela_ex_comes	3.05	1	82.38	1	0.0	1	5.76	1	320.25	1	null	6	987.36	1	41.168724	15.52385
295	2024-01-13 06:00:00	22	candela_ex_comes	2.84	1	83.95	1	0.0	1	5.92	1	309.62	1	null	6	987.64	1	41.168724	15.52385
296	2024-01-13 07:00:00	22	candela_ex_comes	2.84	1	88.14	1	0.0	1	5.01	1	299.18	1	null	6	987.93	1	41.168724	15.52385
297	2024-01-13 08:00:00	22	candela_ex_comes	3.24	1	81.52	1	0.0	1	4.69	1	314.92	1	null	6	988.2	1	41.168724	15.52385
298	2024-01-13 09:00:00	22	candela_ex_comes	3.57	1	78.93	1	0.0	1	4.44	1	315.76	1	null	6	988.76	1	41.168724	15.52385
299	2024-01-13 10:00:00	22	candela_ex_comes	4.48	1	76.65	1	0.0	1	2.61	1	298.07	1	null	6	988.96	1	41.168724	15.52385
300	2024-01-13 11:00:00	22	candela_ex_comes	5.52	1	74.7	1	0.0	1	4.12	1	326.65	1	null	6	989.08	1	41.168724	15.52385
301	2024-01-13 12:00:00	22	candela_ex_comes	6.61	1	71.86	1	0.0	1	6.78	1	323.88	1	null	6	988.65	1	41.168724	15.52385
302	2024-01-13 13:00:00	22	candela_ex_comes	7.22	1	68.73	1	0.0	1	7.18	1	322.96	1	null	6	988.04	1	41.168724	15.52385
303	2024-01-13 14:00:00	22	candela_ex_comes	7.4	1	68.25	1	0.0	1	7.38	1	319.2	1	null	6	987.49	1	41.168724	15.52385
304	2024-01-13 15:00:00	22	candela_ex_comes	7.52	1	67.39	1	0.0	1	6.65	1	321.21	1	null	6	987.17	1	41.168724	15.52385
305	2024-01-13 16:00:00	22	candela_ex_comes	7.63	1	66.19	1	0.0	1	5.61	1	317.46	1	null	6	986.94	1	41.168724	15.52385
306	2024-01-13 17:00:00	22	candela_ex_comes	7.03	1	67.51	1	0.0	1	4.77	1	315.2	1	null	6	986.99	1	41.168724	15.52385
307	2024-01-13 18:00:00	22	candela_ex_comes	5.83	1	72.56	1	0.0	1	1.88	1	303.49	1	null	6	987.2	1	41.168724	15.52385
308	2024-01-13 19:00:00	22	candela_ex_comes	4.63	1	73.99	1	0.0	1	3.76	1	243.16	1	null	6	987.05	1	41.168724	15.52385
309	2024-01-13 20:00:00	22	candela_ex_comes	3.34	1	78.82	1	0.0	1	5.07	1	245.31	1	null	6	987.15	1	41.168724	15.52385
310	2024-01-13 21:00:00	22	candela_ex_comes	3.93	1	76.73	1	0.0	1	2.67	1	218.94	1	null	6	987.04	1	41.168724	15.52385
311	2024-01-13 22:00:00	22	candela_ex_comes	4.34	1	75.72	1	0.0	1	4.25	1	229.26	1	null	6	986.67	1	41.168724	15.52385
312	2024-01-13 23:00:00	22	candela_ex_comes	4.91	1	70.14	1	0.0	1	8.14	1	241.52	1	null	6	986.17	1	41.168724	15.52385
313	2024-01-14 00:00:00	22	candela_ex_comes	4.62	1	70.2	1	0.0	1	8.53	1	246.82	1	null	6	985.96	1	41.168724	15.52385
314	2024-01-14 01:00:00	22	candela_ex_comes	4.59	1	69.71	1	0.0	1	8.11	1	244.65	1	null	6	985.74	1	41.168724	15.52385
315	2024-01-14 02:00:00	22	candela_ex_comes	4.79	1	70.52	1	0.0	1	7.46	1	237.99	1	null	6	985.32	1	41.168724	15.52385
316	2024-01-14 03:00:00	22	candela_ex_comes	4.5	1	71.05	1	0.0	1	6.92	1	244.36	1	null	6	984.7	1	41.168724	15.52385
317	2024-01-14 04:00:00	22	candela_ex_comes	4.37	1	70.32	1	0.0	1	5.53	1	249.06	1	null	6	984.18	1	41.168724	15.52385
318	2024-01-14 05:00:00	22	candela_ex_comes	4.45	1	71.21	1	0.0	1	2.96	1	228.37	1	null	6	983.85	1	41.168724	15.52385
319	2024-01-14 06:00:00	22	candela_ex_comes	4.42	1	72.27	1	0.0	1	2.31	1	231.99	1	null	6	983.65	1	41.168724	15.52385
320	2024-01-14 07:00:00	22	candela_ex_comes	4.89	1	73.3	1	0.0	1	1.39	1	131.96	1	null	6	983.45	1	41.168724	15.52385
321	2024-01-14 08:00:00	22	candela_ex_comes	5.49	1	72.72	1	0.0	1	7.04	1	239.32	1	null	6	983.21	1	41.168724	15.52385
322	2024-01-14 09:00:00	22	candela_ex_comes	5.53	1	72.48	1	0.0	1	2.17	1	188.83	1	null	6	983.47	1	41.168724	15.52385
323	2024-01-14 10:00:00	22	candela_ex_comes	6.81	1	70.42	1	0.0	1	1.05	1	284.68	1	null	6	983.19	1	41.168724	15.52385
324	2024-01-14 11:00:00	22	candela_ex_comes	8.89	1	68.23	1	0.0	1	2.13	1	159.56	1	null	6	982.66	1	41.168724	15.52385
325	2024-01-14 12:00:00	22	candela_ex_comes	9.78	1	71.59	1	0.0	1	7.89	1	257.35	1	null	6	982.03	1	41.168724	15.52385
326	2024-01-14 13:00:00	22	candela_ex_comes	9.9	1	73.08	1	0.0	1	8.16	1	259.33	1	null	6	981.13	1	41.168724	15.52385
327	2024-01-14 14:00:00	22	candela_ex_comes	10.5	1	67.34	1	0.0	1	9.76	1	267.15	1	null	6	980.3	1	41.168724	15.52385
328	2024-01-14 15:00:00	22	candela_ex_comes	10.78	1	64.63	1	0.0	1	9.18	1	271.91	1	null	6	979.67	1	41.168724	15.52385
329	2024-01-14 16:00:00	22	candela_ex_comes	10.69	1	65.85	1	0.0	1	7.83	1	261.25	1	null	6	979.73	1	41.168724	15.52385
330	2024-01-14 17:00:00	22	candela_ex_comes	10.05	1	69.7	1	0.0	1	5.05	1	264.98	1	null	6	979.34	1	41.168724	15.52385
331	2024-01-14 18:00:00	22	candela_ex_comes	9.25	1	71.41	1	0.0	1	3.82	1	261.17	1	null	6	978.93	1	41.168724	15.52385
332	2024-01-14 19:00:00	22	candela_ex_comes	9.16	1	71.26	1	0.0	1	5.42	1	241.69	1	null	6	978.64	1	41.168724	15.52385
333	2024-01-14 20:00:00	22	candela_ex_comes	9.09	1	72.79	1	0.0	1	7.78	1	247.87	1	null	6	978.3	1	41.168724	15.52385
334	2024-01-14 21:00:00	22	candela_ex_comes	9.15	1	72.85	1	0.0	1	5.76	1	241.4	1	null	6	978.06	1	41.168724	15.52385
335	2024-01-14 22:00:00	22	candela_ex_comes	9.45	1	73.32	1	0.0	1	5.5	1	227.66	1	null	6	977.62	1	41.168724	15.52385
336	2024-01-14 23:00:00	22	candela_ex_comes	9.62	1	73.71	1	0.0	1	4.98	1	231.2	1	null	6	977.21	1	41.168724	15.52385
337	2024-01-15 00:00:00	22	candela_ex_comes	9.67	1	72.42	1	0.0	1	4.26	1	212.66	1	null	6	976.45	1	41.168724	15.52385
338	2024-01-15 01:00:00	22	candela_ex_comes	9.58	1	71.03	1	0.0	1	4.95	1	232.78	1	null	6	975.66	1	41.168724	15.52385
339	2024-01-15 02:00:00	22	candela_ex_comes	9.49	1	72.39	1	0.2	1	2.98	1	174.94	1	null	6	975.1	1	41.168724	15.52385
340	2024-01-15 03:00:00	22	candela_ex_comes	9.48	1	75.12	1	0.0	1	3.19	1	163.93	1	null	6	974.42	1	41.168724	15.52385
341	2024-01-15 04:00:00	22	candela_ex_comes	9.67	1	76.28	1	0.0	1	3.12	1	186.82	1	null	6	973.35	1	41.168724	15.52385
342	2024-01-15 05:00:00	22	candela_ex_comes	9.28	1	78.57	1	0.0	1	3.59	1	167.74	1	null	6	972.04	1	41.168724	15.52385
343	2024-01-15 06:00:00	22	candela_ex_comes	9.6	1	80.54	1	0.0	1	2.73	1	178.24	1	null	6	971.14	1	41.168724	15.52385
344	2024-01-15 07:00:00	22	candela_ex_comes	10.41	1	76.49	1	0.0	1	2.07	1	229.56	1	null	6	970.67	1	41.168724	15.52385
345	2024-01-15 08:00:00	22	candela_ex_comes	10.86	1	76.56	1	0.0	1	3.16	1	202.97	1	null	6	970.06	1	41.168724	15.52385
346	2024-01-15 09:00:00	22	candela_ex_comes	11.1	1	78.34	1	0.0	1	3.51	1	223.58	1	null	6	969.88	1	41.168724	15.52385
347	2024-01-15 10:00:00	22	candela_ex_comes	11.51	1	80.35	1	0.0	1	3.69	1	220.2	1	null	6	970.18	1	41.168724	15.52385
348	2024-01-15 11:00:00	22	candela_ex_comes	12.4	1	76.84	1	0.0	1	5.92	1	240.84	1	null	6	970.06	1	41.168724	15.52385
349	2024-01-15 12:00:00	22	candela_ex_comes	13.29	1	71.26	1	0.0	1	8.47	1	252.33	1	null	6	969.1	1	41.168724	15.52385
350	2024-01-15 13:00:00	22	candela_ex_comes	12.94	1	71.39	1	0.0	1	8.74	1	256.96	1	null	6	968.43	1	41.168724	15.52385
351	2024-01-15 14:00:00	22	candela_ex_comes	12.66	1	71.46	1	0.0	1	8.06	1	255.64	1	null	6	968.01	1	41.168724	15.52385
352	2024-01-15 15:00:00	22	candela_ex_comes	12.52	1	73.36	1	0.0	1	7.61	1	268.52	1	null	6	967.8	1	41.168724	15.52385
353	2024-01-15 16:00:00	22	candela_ex_comes	12.77	1	71.31	1	0.0	1	7.48	1	275.15	1	null	6	967.87	1	41.168724	15.52385
354	2024-01-15 17:00:00	22	candela_ex_comes	11.89	1	74.43	1	0.0	1	4.43	1	275.57	1	null	6	968.19	1	41.168724	15.52385
355	2024-01-15 18:00:00	22	candela_ex_comes	11.15	1	78.13	1	0.0	1	3.95	1	241.01	1	null	6	968.43	1	41.168724	15.52385
356	2024-01-15 19:00:00	22	candela_ex_comes	10.91	1	80.33	1	0.0	1	5.23	1	238.57	1	null	6	968.66	1	41.168724	15.52385
357	2024-01-15 20:00:00	22	candela_ex_comes	10.73	1	79.66	1	0.0	1	9.46	1	252.44	1	null	6	968.41	1	41.168724	15.52385
358	2024-01-15 21:00:00	22	candela_ex_comes	10.59	1	79.38	1	0.0	1	10.44	1	254.51	1	null	6	968.71	1	41.168724	15.52385
359	2024-01-15 22:00:00	22	candela_ex_comes	10.39	1	78.45	1	0.0	1	12.55	1	255.63	1	null	6	968.52	1	41.168724	15.52385
360	2024-01-15 23:00:00	22	candela_ex_comes	10.9	1	74.07	1	0.0	1	14.47	1	253.37	1	null	6	969.05	1	41.168724	15.52385
361	2024-01-16 00:00:00	22	candela_ex_comes	10.75	1	76.01	1	0.0	1	11.11	1	254.9	1	null	6	969.9	1	41.168724	15.52385
362	2024-01-16 01:00:00	22	candela_ex_comes	10.62	1	75.71	1	0.0	1	11.32	1	254.86	1	null	6	970.01	1	41.168724	15.52385
363	2024-01-16 02:00:00	22	candela_ex_comes	10.69	1	77.92	1	0.0	1	10.01	1	244.52	1	null	6	970.46	1	41.168724	15.52385
364	2024-01-16 03:00:00	22	candela_ex_comes	11.0	1	77.57	1	0.0	1	10.29	1	244.33	1	null	6	970.99	1	41.168724	15.52385
365	2024-01-16 04:00:00	22	candela_ex_comes	11.14	1	76.37	1	0.0	1	10.38	1	251.0	1	null	6	971.33	1	41.168724	15.52385
366	2024-01-16 05:00:00	22	candela_ex_comes	10.92	1	76.54	1	0.0	1	10.33	1	250.73	1	null	6	971.79	1	41.168724	15.52385
367	2024-01-16 06:00:00	22	candela_ex_comes	10.48	1	77.73	1	0.0	1	8.71	1	244.84	1	null	6	972.38	1	41.168724	15.52385
368	2024-01-16 07:00:00	22	candela_ex_comes	10.0	1	79.54	1	0.0	1	8.25	1	250.35	1	null	6	973.06	1	41.168724	15.52385
369	2024-01-16 08:00:00	22	candela_ex_comes	9.89	1	80.97	1	0.0	1	7.25	1	253.46	1	null	6	973.85	1	41.168724	15.52385
370	2024-01-16 09:00:00	22	candela_ex_comes	10.52	1	80.98	1	0.0	1	6.19	1	249.93	1	null	6	975.0	1	41.168724	15.52385
371	2024-01-16 10:00:00	22	candela_ex_comes	11.95	1	76.48	1	0.0	1	6.34	1	247.53	1	null	6	975.71	1	41.168724	15.52385
372	2024-01-16 11:00:00	22	candela_ex_comes	13.42	1	69.47	1	0.0	1	5.02	1	253.07	1	null	6	976.13	1	41.168724	15.52385
373	2024-01-16 12:00:00	22	candela_ex_comes	14.38	1	62.93	1	0.0	1	2.58	1	18.12	1	null	6	976.06	1	41.168724	15.52385
374	2024-01-16 13:00:00	22	candela_ex_comes	15.14	1	59.03	1	0.0	1	4.21	1	267.59	1	null	6	975.72	1	41.168724	15.52385
375	2024-01-16 14:00:00	22	candela_ex_comes	15.03	1	58.45	1	0.0	1	4.27	1	264.27	1	null	6	975.17	1	41.168724	15.52385
376	2024-01-16 15:00:00	22	candela_ex_comes	14.78	1	60.44	1	0.0	1	2.63	1	13.82	1	null	6	975.57	1	41.168724	15.52385
377	2024-01-16 16:00:00	22	candela_ex_comes	14.14	1	63.44	1	0.0	1	2.26	1	4.11	1	null	6	975.95	1	41.168724	15.52385
378	2024-01-16 17:00:00	22	candela_ex_comes	12.93	1	71.07	1	0.0	1	2.13	1	20.36	1	null	6	976.74	1	41.168724	15.52385
379	2024-01-16 18:00:00	22	candela_ex_comes	12.01	1	74.89	1	0.0	1	1.39	1	264.66	1	null	6	976.96	1	41.168724	15.52385
380	2024-01-16 19:00:00	22	candela_ex_comes	11.52	1	74.34	1	0.0	1	2.24	1	162.27	1	null	6	977.44	1	41.168724	15.52385
381	2024-01-16 20:00:00	22	candela_ex_comes	11.52	1	72.2	1	0.0	1	4.26	1	229.46	1	null	6	977.55	1	41.168724	15.52385
382	2024-01-16 21:00:00	22	candela_ex_comes	10.69	1	75.38	1	0.0	1	3.46	1	207.3	1	null	6	977.67	1	41.168724	15.52385
383	2024-01-16 22:00:00	22	candela_ex_comes	10.46	1	77.44	1	0.0	1	5.2	1	225.51	1	null	6	977.8	1	41.168724	15.52385
384	2024-01-16 23:00:00	22	candela_ex_comes	10.39	1	75.59	1	0.0	1	4.66	1	223.62	1	null	6	978.2	1	41.168724	15.52385
385	2024-01-17 00:00:00	22	candela_ex_comes	10.73	1	73.54	1	0.0	1	1.94	1	125.06	1	null	6	978.18	1	41.168724	15.52385
386	2024-01-17 01:00:00	22	candela_ex_comes	10.52	1	72.1	1	0.0	1	3.35	1	201.62	1	null	6	977.97	1	41.168724	15.52385
387	2024-01-17 02:00:00	22	candela_ex_comes	10.99	1	72.56	1	0.0	1	6.93	1	245.95	1	null	6	977.95	1	41.168724	15.52385
388	2024-01-17 03:00:00	22	candela_ex_comes	11.33	1	75.18	1	0.0	1	8.85	1	249.8	1	null	6	977.69	1	41.168724	15.52385
389	2024-01-17 04:00:00	22	candela_ex_comes	11.94	1	74.89	1	0.0	1	7.35	1	247.85	1	null	6	977.97	1	41.168724	15.52385
390	2024-01-17 05:00:00	22	candela_ex_comes	12.11	1	76.13	1	0.0	1	3.97	1	234.76	1	null	6	977.86	1	41.168724	15.52385
391	2024-01-17 06:00:00	22	candela_ex_comes	11.86	1	75.86	1	0.0	1	3.47	1	168.22	1	null	6	977.7	1	41.168724	15.52385
392	2024-01-17 07:00:00	22	candela_ex_comes	11.36	1	81.32	1	0.0	1	2.64	1	183.87	1	null	6	977.95	1	41.168724	15.52385
393	2024-01-17 08:00:00	22	candela_ex_comes	12.02	1	78.95	1	0.0	1	2.76	1	187.5	1	null	6	978.02	1	41.168724	15.52385
394	2024-01-17 09:00:00	22	candela_ex_comes	12.7	1	78.35	1	0.0	1	2.14	1	159.63	1	null	6	978.05	1	41.168724	15.52385
395	2024-01-17 10:00:00	22	candela_ex_comes	13.81	1	74.77	1	0.0	1	7.25	1	210.59	1	null	6	977.47	1	41.168724	15.52385
396	2024-01-17 11:00:00	22	candela_ex_comes	14.83	1	72.4	1	0.0	1	5.63	1	206.39	1	null	6	977.27	1	41.168724	15.52385
397	2024-01-17 12:00:00	22	candela_ex_comes	15.2	1	73.21	1	0.0	1	4.08	1	202.03	1	null	6	976.87	1	41.168724	15.52385
398	2024-01-17 13:00:00	22	candela_ex_comes	15.54	1	72.74	1	0.0	1	4.21	1	200.23	1	null	6	975.96	1	41.168724	15.52385
399	2024-01-17 14:00:00	22	candela_ex_comes	15.09	1	73.44	1	0.0	1	6.15	1	219.1	1	null	6	975.39	1	41.168724	15.52385
400	2024-01-17 15:00:00	22	candela_ex_comes	14.83	1	74.91	1	0.0	1	4.34	1	201.85	1	null	6	974.74	1	41.168724	15.52385
401	2024-01-17 16:00:00	22	candela_ex_comes	14.92	1	72.19	1	0.0	1	3.03	1	193.3	1	null	6	974.71	1	41.168724	15.52385
402	2024-01-17 17:00:00	22	candela_ex_comes	14.75	1	68.98	1	0.0	1	6.9	1	230.57	1	null	6	975.33	1	41.168724	15.52385
403	2024-01-17 18:00:00	22	candela_ex_comes	14.94	1	66.69	1	0.0	1	7.26	1	233.04	1	null	6	975.97	1	41.168724	15.52385
404	2024-01-17 19:00:00	22	candela_ex_comes	15.12	1	62.15	1	0.0	1	9.21	1	223.44	1	null	6	975.04	1	41.168724	15.52385
405	2024-01-17 20:00:00	22	candela_ex_comes	14.96	1	62.19	1	0.0	1	7.03	1	220.68	1	null	6	974.51	1	41.168724	15.52385
406	2024-01-17 21:00:00	22	candela_ex_comes	15.44	1	55.72	1	0.0	1	7.78	1	231.7	1	null	6	974.08	1	41.168724	15.52385
407	2024-01-17 22:00:00	22	candela_ex_comes	15.44	1	55.28	1	0.0	1	6.43	1	230.81	1	null	6	974.28	1	41.168724	15.52385
408	2024-01-17 23:00:00	22	candela_ex_comes	15.31	1	57.97	1	0.0	1	2.22	1	185.75	1	null	6	974.34	1	41.168724	15.52385
409	2024-01-18 00:00:00	22	candela_ex_comes	15.36	1	61.03	1	0.0	1	5.93	1	216.17	1	null	6	974.27	1	41.168724	15.52385
410	2024-01-18 01:00:00	22	candela_ex_comes	14.88	1	61.73	1	0.0	1	2.55	1	188.47	1	null	6	974.14	1	41.168724	15.52385
411	2024-01-18 02:00:00	22	candela_ex_comes	14.99	1	60.76	1	0.0	1	3.16	1	189.61	1	null	6	972.87	1	41.168724	15.52385
412	2024-01-18 03:00:00	22	candela_ex_comes	14.56	1	61.36	1	0.0	1	5.41	1	162.55	1	null	6	971.33	1	41.168724	15.52385
413	2024-01-18 04:00:00	22	candela_ex_comes	15.5	1	56.81	1	0.0	1	4.96	1	190.94	1	null	6	969.96	1	41.168724	15.52385
414	2024-01-18 05:00:00	22	candela_ex_comes	15.25	1	56.32	1	0.0	1	5.43	1	182.45	1	null	6	969.39	1	41.168724	15.52385
415	2024-01-18 06:00:00	22	candela_ex_comes	14.94	1	60.1	1	0.0	1	3.6	1	205.05	1	null	6	969.68	1	41.168724	15.52385
416	2024-01-18 07:00:00	22	candela_ex_comes	15.04	1	63.39	1	0.0	1	4.71	1	214.34	1	null	6	969.98	1	41.168724	15.52385
417	2024-01-18 08:00:00	22	candela_ex_comes	14.67	1	64.29	1	0.0	1	4.09	1	213.71	1	null	6	969.78	1	41.168724	15.52385
418	2024-01-18 09:00:00	22	candela_ex_comes	15.6	1	61.12	1	0.0	1	9.03	1	229.1	1	null	6	968.82	1	41.168724	15.52385
419	2024-01-18 10:00:00	22	candela_ex_comes	16.73	1	57.75	1	0.0	1	7.92	1	240.75	1	null	6	969.4	1	41.168724	15.52385
420	2024-01-18 11:00:00	22	candela_ex_comes	17.35	1	56.94	1	0.0	1	8.46	1	236.7	1	null	6	969.9	1	41.168724	15.52385
421	2024-01-18 12:00:00	22	candela_ex_comes	17.5	1	56.9	1	0.0	1	14.69	1	242.99	1	null	6	968.98	1	41.168724	15.52385
422	2024-01-18 13:00:00	22	candela_ex_comes	17.2	1	60.17	1	0.0	1	16.68	1	247.95	1	null	6	968.72	1	41.168724	15.52385
423	2024-01-18 14:00:00	22	candela_ex_comes	17.24	1	58.55	1	0.0	1	11.16	1	258.8	1	null	6	969.07	1	41.168724	15.52385
424	2024-01-18 15:00:00	22	candela_ex_comes	17.49	1	46.39	1	0.0	1	15.49	1	263.98	1	null	6	968.94	1	41.168724	15.52385
425	2024-01-18 16:00:00	22	candela_ex_comes	16.51	1	52.74	1	0.0	1	18.65	1	251.54	1	null	6	968.12	1	41.168724	15.52385
426	2024-01-18 17:00:00	22	candela_ex_comes	15.55	1	57.66	1	0.0	1	13.61	1	257.77	1	null	6	969.9	1	41.168724	15.52385
427	2024-01-18 18:00:00	22	candela_ex_comes	15.18	1	58.93	1	0.0	1	7.02	1	276.01	1	null	6	970.96	1	41.168724	15.52385
428	2024-01-18 19:00:00	22	candela_ex_comes	15.16	1	57.86	1	0.0	1	3.47	1	117.85	1	null	6	971.25	1	41.168724	15.52385
429	2024-01-18 20:00:00	22	candela_ex_comes	14.89	1	57.08	1	0.0	1	6.15	1	235.48	1	null	6	971.83	1	41.168724	15.52385
430	2024-01-18 21:00:00	22	candela_ex_comes	14.77	1	55.03	1	0.0	1	4.9	1	262.21	1	null	6	973.16	1	41.168724	15.52385
431	2024-01-18 22:00:00	22	candela_ex_comes	14.8	1	58.02	1	0.0	1	2.94	1	238.93	1	null	6	973.54	1	41.168724	15.52385
432	2024-01-18 23:00:00	22	candela_ex_comes	14.56	1	62.97	1	0.0	1	5.4	1	251.75	1	null	6	973.58	1	41.168724	15.52385
433	2024-01-19 00:00:00	22	candela_ex_comes	14.63	1	62.53	1	0.0	1	6.81	1	242.51	1	null	6	973.45	1	41.168724	15.52385
434	2024-01-19 01:00:00	22	candela_ex_comes	14.44	1	60.12	1	0.0	1	6.76	1	232.04	1	null	6	973.38	1	41.168724	15.52385
435	2024-01-19 02:00:00	22	candela_ex_comes	14.12	1	60.9	1	0.0	1	10.65	1	228.93	1	null	6	972.44	1	41.168724	15.52385
436	2024-01-19 03:00:00	22	candela_ex_comes	14.12	1	62.22	1	0.0	1	13.5	1	243.06	1	null	6	973.07	1	41.168724	15.52385
437	2024-01-19 04:00:00	22	candela_ex_comes	14.08	1	62.63	1	0.0	1	15.42	1	238.08	1	null	6	972.45	1	41.168724	15.52385
438	2024-01-19 05:00:00	22	candela_ex_comes	14.12	1	62.39	1	0.0	1	13.77	1	244.05	1	null	6	973.14	1	41.168724	15.52385
439	2024-01-19 06:00:00	22	candela_ex_comes	14.13	1	62.2	1	0.0	1	9.15	1	239.74	1	null	6	973.92	1	41.168724	15.52385
440	2024-01-19 07:00:00	22	candela_ex_comes	14.51	1	59.28	1	0.0	1	13.43	1	243.91	1	null	6	973.8	1	41.168724	15.52385
441	2024-01-19 08:00:00	22	candela_ex_comes	14.34	1	59.04	1	0.0	1	9.63	1	246.81	1	null	6	974.49	1	41.168724	15.52385
442	2024-01-19 09:00:00	22	candela_ex_comes	14.72	1	58.03	1	0.0	1	10.1	1	246.3	1	null	6	974.39	1	41.168724	15.52385
443	2024-01-19 10:00:00	22	candela_ex_comes	15.01	1	58.87	1	0.0	1	6.67	1	241.31	1	null	6	974.83	1	41.168724	15.52385
444	2024-01-19 11:00:00	22	candela_ex_comes	15.64	1	59.28	1	0.0	1	6.38	1	262.41	1	null	6	974.99	1	41.168724	15.52385
445	2024-01-19 12:00:00	22	candela_ex_comes	16.7	1	54.46	1	0.0	1	7.98	1	264.15	1	null	6	974.71	1	41.168724	15.52385
446	2024-01-19 13:00:00	22	candela_ex_comes	17.51	1	50.71	1	0.0	1	10.74	1	260.35	1	null	6	974.06	1	41.168724	15.52385
447	2024-01-19 14:00:00	22	candela_ex_comes	17.68	1	50.01	1	0.0	1	8.9	1	258.54	1	null	6	973.88	1	41.168724	15.52385
448	2024-01-19 15:00:00	22	candela_ex_comes	17.48	1	53.08	1	0.0	1	7.12	1	247.96	1	null	6	974.28	1	41.168724	15.52385
449	2024-01-19 16:00:00	22	candela_ex_comes	16.76	1	54.74	1	0.0	1	8.8	1	260.45	1	null	6	974.61	1	41.168724	15.52385
450	2024-01-19 17:00:00	22	candela_ex_comes	16.04	1	57.28	1	0.0	1	5.43	1	251.37	1	null	6	974.97	1	41.168724	15.52385
451	2024-01-19 18:00:00	22	candela_ex_comes	15.17	1	60.5	1	0.0	1	5.44	1	244.68	1	null	6	974.97	1	41.168724	15.52385
452	2024-01-19 19:00:00	22	candela_ex_comes	14.72	1	61.7	1	0.0	1	4.53	1	251.81	1	null	6	975.05	1	41.168724	15.52385
453	2024-01-19 20:00:00	22	candela_ex_comes	14.54	1	59.81	1	0.0	1	5.53	1	261.65	1	null	6	975.38	1	41.168724	15.52385
454	2024-01-19 21:00:00	22	candela_ex_comes	13.83	1	63.42	1	0.0	1	3.64	1	270.77	1	null	6	976.11	1	41.168724	15.52385
455	2024-01-19 22:00:00	22	candela_ex_comes	11.58	1	76.05	1	0.0	1	4.55	1	350.81	1	null	6	977.27	1	41.168724	15.52385
456	2024-01-19 23:00:00	22	candela_ex_comes	9.61	1	89.03	1	0.0	1	5.06	1	347.62	1	null	6	978.13	1	41.168724	15.52385
457	2024-01-20 00:00:00	22	candela_ex_comes	9.52	1	89.6	1	0.2	1	5.69	1	340.03	1	null	6	978.65	1	41.168724	15.52385
458	2024-01-20 01:00:00	22	candela_ex_comes	9.0	1	91.21	1	2.2	1	6.89	1	336.82	1	null	6	979.17	1	41.168724	15.52385
459	2024-01-20 02:00:00	22	candela_ex_comes	8.16	1	93.92	1	2.2	1	7.85	1	337.54	1	null	6	979.81	1	41.168724	15.52385
460	2024-01-20 03:00:00	22	candela_ex_comes	6.74	1	94.37	1	0.6	1	11.49	1	332.55	1	null	6	980.61	1	41.168724	15.52385
461	2024-01-20 04:00:00	22	candela_ex_comes	4.78	1	93.69	1	1.2	1	13.53	1	326.96	1	null	6	981.82	1	41.168724	15.52385
462	2024-01-20 05:00:00	22	candela_ex_comes	4.18	1	92.62	1	2.0	1	10.8	1	333.58	1	null	6	982.93	1	41.168724	15.52385
463	2024-01-20 06:00:00	22	candela_ex_comes	3.65	1	92.02	1	1.4	1	10.45	1	336.19	1	null	6	983.78	1	41.168724	15.52385
464	2024-01-20 07:00:00	22	candela_ex_comes	3.49	1	90.01	1	0.6	1	9.89	1	332.53	1	null	6	984.42	1	41.168724	15.52385
465	2024-01-20 08:00:00	22	candela_ex_comes	2.94	1	89.38	1	0.8	1	9.97	1	335.37	1	null	6	985.21	1	41.168724	15.52385
466	2024-01-20 09:00:00	22	candela_ex_comes	2.79	1	87.04	1	0.6	1	10.17	1	341.09	1	null	6	985.91	1	41.168724	15.52385
467	2024-01-20 10:00:00	22	candela_ex_comes	2.45	1	88.84	1	0.6	1	7.2	1	336.39	1	null	6	986.77	1	41.168724	15.52385
468	2024-01-20 11:00:00	22	candela_ex_comes	3.49	1	87.6	1	0.0	1	5.13	1	321.48	1	null	6	986.67	1	41.168724	15.52385
469	2024-01-20 12:00:00	22	candela_ex_comes	4.49	1	80.61	1	0.0	1	7.39	1	333.87	1	null	6	986.4	1	41.168724	15.52385
470	2024-01-20 13:00:00	22	candela_ex_comes	4.97	1	74.97	1	0.0	1	10.08	1	333.99	1	null	6	986.42	1	41.168724	15.52385
471	2024-01-20 14:00:00	22	candela_ex_comes	4.66	1	70.21	1	0.0	1	10.2	1	337.3	1	null	6	986.5	1	41.168724	15.52385
472	2024-01-20 15:00:00	22	candela_ex_comes	4.2	1	73.71	1	0.0	1	10.08	1	330.64	1	null	6	986.91	1	41.168724	15.52385
473	2024-01-20 16:00:00	22	candela_ex_comes	3.97	1	73.49	1	0.0	1	10.12	1	327.09	1	null	6	987.41	1	41.168724	15.52385
474	2024-01-20 17:00:00	22	candela_ex_comes	3.94	1	75.39	1	0.0	1	9.6	1	324.44	1	null	6	987.87	1	41.168724	15.52385
475	2024-01-20 18:00:00	22	candela_ex_comes	3.56	1	77.54	1	0.0	1	8.16	1	325.86	1	null	6	988.78	1	41.168724	15.52385
476	2024-01-20 19:00:00	22	candela_ex_comes	3.16	1	72.08	1	0.0	1	8.07	1	321.56	1	null	6	989.31	1	41.168724	15.52385
477	2024-01-20 20:00:00	22	candela_ex_comes	3.2	1	68.23	1	0.0	1	8.32	1	322.19	1	null	6	989.91	1	41.168724	15.52385
478	2024-01-20 21:00:00	22	candela_ex_comes	3.14	1	67.49	1	0.0	1	6.97	1	322.26	1	null	6	990.3	1	41.168724	15.52385
479	2024-01-20 22:00:00	22	candela_ex_comes	2.18	1	72.41	1	0.0	1	4.91	1	313.22	1	null	6	990.38	1	41.168724	15.52385
480	2024-01-20 23:00:00	22	candela_ex_comes	2.19	1	73.72	1	0.0	1	4.24	1	317.57	1	null	6	990.61	1	41.168724	15.52385
481	2024-01-21 00:00:00	22	candela_ex_comes	2.23	1	72.1	1	0.0	1	6.81	1	312.44	1	null	6	990.87	1	41.168724	15.52385
482	2024-01-21 01:00:00	22	candela_ex_comes	1.99	1	70.38	1	0.0	1	7.96	1	311.62	1	null	6	991.07	1	41.168724	15.52385
483	2024-01-21 02:00:00	22	candela_ex_comes	2.07	1	70.93	1	0.0	1	6.64	1	316.8	1	null	6	991.35	1	41.168724	15.52385
484	2024-01-21 03:00:00	22	candela_ex_comes	2.39	1	68.56	1	0.0	1	7.61	1	317.28	1	null	6	991.45	1	41.168724	15.52385
485	2024-01-21 04:00:00	22	candela_ex_comes	2.66	1	67.51	1	0.0	1	8.78	1	311.16	1	null	6	991.4	1	41.168724	15.52385
486	2024-01-21 05:00:00	22	candela_ex_comes	1.99	1	73.81	1	0.0	1	7.28	1	319.45	1	null	6	992.12	1	41.168724	15.52385
487	2024-01-21 06:00:00	22	candela_ex_comes	1.43	1	77.41	1	0.0	1	2.18	1	348.32	1	null	6	992.5	1	41.168724	15.52385
488	2024-01-21 07:00:00	22	candela_ex_comes	2.08	1	74.48	1	0.0	1	2.91	1	320.51	1	null	6	992.78	1	41.168724	15.52385
489	2024-01-21 08:00:00	22	candela_ex_comes	2.08	1	71.29	1	0.0	1	1.71	1	14.39	1	null	6	993.55	1	41.168724	15.52385
490	2024-01-21 09:00:00	22	candela_ex_comes	3.12	1	72.61	1	0.0	1	4.91	1	339.22	1	null	6	994.23	1	41.168724	15.52385
491	2024-01-21 10:00:00	22	candela_ex_comes	5.0	1	67.02	1	0.0	1	7.66	1	334.28	1	null	6	994.56	1	41.168724	15.52385
492	2024-01-21 11:00:00	22	candela_ex_comes	6.3	1	63.3	1	0.0	1	8.49	1	337.91	1	null	6	994.93	1	41.168724	15.52385
493	2024-01-21 12:00:00	22	candela_ex_comes	7.03	1	64.22	1	0.0	1	9.35	1	331.98	1	null	6	994.78	1	41.168724	15.52385
494	2024-01-21 13:00:00	22	candela_ex_comes	7.81	1	60.02	1	0.0	1	10.8	1	341.99	1	null	6	994.57	1	41.168724	15.52385
495	2024-01-21 14:00:00	22	candela_ex_comes	7.25	1	69.42	1	0.0	1	11.55	1	335.02	1	null	6	994.54	1	41.168724	15.52385
496	2024-01-21 15:00:00	22	candela_ex_comes	7.2	1	72.13	1	0.0	1	11.53	1	331.27	1	null	6	994.65	1	41.168724	15.52385
497	2024-01-21 16:00:00	22	candela_ex_comes	7.26	1	68.37	1	0.0	1	10.86	1	334.74	1	null	6	994.74	1	41.168724	15.52385
498	2024-01-21 17:00:00	22	candela_ex_comes	6.55	1	64.55	1	0.0	1	7.86	1	338.26	1	null	6	995.22	1	41.168724	15.52385
499	2024-01-21 18:00:00	22	candela_ex_comes	5.38	1	73.97	1	0.0	1	5.99	1	320.89	1	null	6	996.1	1	41.168724	15.52385
500	2024-01-21 19:00:00	22	candela_ex_comes	4.89	1	79.77	1	0.0	1	7.33	1	321.82	1	null	6	996.82	1	41.168724	15.52385
501	2024-01-21 20:00:00	22	candela_ex_comes	4.87	1	80.12	1	0.0	1	7.62	1	322.47	1	null	6	997.19	1	41.168724	15.52385
502	2024-01-21 21:00:00	22	candela_ex_comes	4.8	1	80.97	1	0.0	1	7.06	1	325.13	1	null	6	997.55	1	41.168724	15.52385
503	2024-01-21 22:00:00	22	candela_ex_comes	4.89	1	80.92	1	0.0	1	5.64	1	329.78	1	null	6	997.88	1	41.168724	15.52385
504	2024-01-21 23:00:00	22	candela_ex_comes	4.52	1	82.34	1	0.0	1	1.96	1	128.28	1	null	6	998.3	1	41.168724	15.52385
505	2024-01-22 00:00:00	22	candela_ex_comes	4.85	1	81.78	1	0.0	1	2.2	1	8.67	1	null	6	998.41	1	41.168724	15.52385
506	2024-01-22 01:00:00	22	candela_ex_comes	4.85	1	81.16	1	0.0	1	1.89	1	13.91	1	null	6	998.41	1	41.168724	15.52385
507	2024-01-22 02:00:00	22	candela_ex_comes	4.72	1	80.11	1	0.0	1	1.84	1	17.91	1	null	6	998.41	1	41.168724	15.52385
508	2024-01-22 03:00:00	22	candela_ex_comes	4.92	1	74.66	1	0.0	1	2.72	1	5.12	1	null	6	998.42	1	41.168724	15.52385
509	2024-01-22 04:00:00	22	candela_ex_comes	4.75	1	76.12	1	0.0	1	3.12	1	2.75	1	null	6	998.41	1	41.168724	15.52385
510	2024-01-22 05:00:00	22	candela_ex_comes	4.67	1	75.58	1	0.0	1	2.69	1	341.81	1	null	6	998.24	1	41.168724	15.52385
511	2024-01-22 06:00:00	22	candela_ex_comes	2.89	1	80.65	1	0.0	1	3.25	1	254.71	1	null	6	998.04	1	41.168724	15.52385
512	2024-01-22 07:00:00	22	candela_ex_comes	1.82	1	85.68	1	0.0	1	3.66	1	252.12	1	null	6	998.18	1	41.168724	15.52385
513	2024-01-22 08:00:00	22	candela_ex_comes	1.03	1	88.84	1	0.0	1	2.76	1	259.34	1	null	6	998.37	1	41.168724	15.52385
514	2024-01-22 09:00:00	22	candela_ex_comes	2.46	1	89.54	1	0.0	1	1.6	1	244.53	1	null	6	998.73	1	41.168724	15.52385
515	2024-01-22 10:00:00	22	candela_ex_comes	4.59	1	84.6	1	0.0	1	3.29	1	253.34	1	null	6	999.15	1	41.168724	15.52385
516	2024-01-22 11:00:00	22	candela_ex_comes	6.98	1	75.23	1	0.0	1	2.8	1	256.52	1	null	6	998.96	1	41.168724	15.52385
517	2024-01-22 12:00:00	22	candela_ex_comes	8.37	1	67.2	1	0.0	1	1.52	1	248.03	1	null	6	998.24	1	41.168724	15.52385
518	2024-01-22 13:00:00	22	candela_ex_comes	9.63	1	53.98	1	0.0	1	1.21	1	284.98	1	null	6	997.53	1	41.168724	15.52385
519	2024-01-22 14:00:00	22	candela_ex_comes	9.9	1	51.88	1	0.0	1	1.72	1	357.1	1	null	6	996.53	1	41.168724	15.52385
520	2024-01-22 15:00:00	22	candela_ex_comes	10.23	1	53.45	1	0.0	1	1.07	1	58.39	1	null	6	995.75	1	41.168724	15.52385
521	2024-01-22 16:00:00	22	candela_ex_comes	10.51	1	50.17	1	0.0	1	1.5	1	120.91	1	null	6	995.13	1	41.168724	15.52385
522	2024-01-22 17:00:00	22	candela_ex_comes	9.72	1	55.39	1	0.0	1	2.58	1	139.77	1	null	6	994.62	1	41.168724	15.52385
523	2024-01-22 18:00:00	22	candela_ex_comes	8.44	1	58.45	1	0.0	1	2.79	1	169.57	1	null	6	994.73	1	41.168724	15.52385
524	2024-01-22 19:00:00	22	candela_ex_comes	7.27	1	59.01	1	0.0	1	3.98	1	202.85	1	null	6	994.83	1	41.168724	15.52385
525	2024-01-22 20:00:00	22	candela_ex_comes	6.71	1	58.46	1	0.0	1	3.72	1	205.42	1	null	6	994.71	1	41.168724	15.52385
526	2024-01-22 21:00:00	22	candela_ex_comes	6.06	1	57.76	1	0.0	1	3.13	1	209.91	1	null	6	994.47	1	41.168724	15.52385
527	2024-01-22 22:00:00	22	candela_ex_comes	5.99	1	57.84	1	0.0	1	7.33	1	247.73	1	null	6	994.1	1	41.168724	15.52385
528	2024-01-22 23:00:00	22	candela_ex_comes	5.88	1	63.02	1	0.0	1	8.2	1	247.88	1	null	6	993.9	1	41.168724	15.52385
529	2024-01-23 00:00:00	22	candela_ex_comes	6.5	1	63.19	1	0.0	1	8.76	1	242.16	1	null	6	993.53	1	41.168724	15.52385
530	2024-01-23 01:00:00	22	candela_ex_comes	6.44	1	63.3	1	0.0	1	5.5	1	221.14	1	null	6	992.79	1	41.168724	15.52385
531	2024-01-23 02:00:00	22	candela_ex_comes	7.01	1	66.62	1	0.0	1	9.81	1	244.39	1	null	6	992.09	1	41.168724	15.52385
532	2024-01-23 03:00:00	22	candela_ex_comes	7.42	1	67.42	1	0.0	1	12.56	1	240.18	1	null	6	991.58	1	41.168724	15.52385
533	2024-01-23 04:00:00	22	candela_ex_comes	7.4	1	70.3	1	0.0	1	13.56	1	256.63	1	null	6	991.84	1	41.168724	15.52385
534	2024-01-23 05:00:00	22	candela_ex_comes	7.39	1	70.29	1	0.0	1	9.87	1	258.82	1	null	6	992.21	1	41.168724	15.52385
535	2024-01-23 06:00:00	22	candela_ex_comes	7.52	1	67.96	1	0.0	1	10.45	1	255.93	1	null	6	992.5	1	41.168724	15.52385
536	2024-01-23 07:00:00	22	candela_ex_comes	7.15	1	69.15	1	0.0	1	6.61	1	254.49	1	null	6	992.71	1	41.168724	15.52385
537	2024-01-23 08:00:00	22	candela_ex_comes	6.89	1	68.77	1	0.0	1	7.37	1	257.38	1	null	6	992.56	1	41.168724	15.52385
538	2024-01-23 09:00:00	22	candela_ex_comes	7.6	1	62.07	1	0.0	1	7.02	1	256.13	1	null	6	992.92	1	41.168724	15.52385
539	2024-01-23 10:00:00	22	candela_ex_comes	8.65	1	61.87	1	0.0	1	5.37	1	261.08	1	null	6	993.26	1	41.168724	15.52385
540	2024-01-23 11:00:00	22	candela_ex_comes	9.41	1	56.56	1	0.0	1	4.25	1	261.74	1	null	6	993.35	1	41.168724	15.52385
541	2024-01-23 12:00:00	22	candela_ex_comes	9.78	1	53.51	1	0.0	1	3.84	1	259.24	1	null	6	993.12	1	41.168724	15.52385
542	2024-01-23 13:00:00	22	candela_ex_comes	9.38	1	58.22	1	0.0	1	2.71	1	17.76	1	null	6	993.05	1	41.168724	15.52385
543	2024-01-23 14:00:00	22	candela_ex_comes	9.15	1	60.4	1	0.0	1	2.9	1	346.4	1	null	6	992.84	1	41.168724	15.52385
544	2024-01-23 15:00:00	22	candela_ex_comes	8.84	1	69.02	1	0.0	1	3.66	1	342.76	1	null	6	993.11	1	41.168724	15.52385
545	2024-01-23 16:00:00	22	candela_ex_comes	8.3	1	76.58	1	0.0	1	3.85	1	340.74	1	null	6	993.7	1	41.168724	15.52385
546	2024-01-23 17:00:00	22	candela_ex_comes	8.14	1	79.74	1	0.0	1	4.51	1	320.35	1	null	6	994.29	1	41.168724	15.52385
547	2024-01-23 18:00:00	22	candela_ex_comes	7.68	1	81.91	1	0.0	1	4.13	1	313.61	1	null	6	994.99	1	41.168724	15.52385
548	2024-01-23 19:00:00	22	candela_ex_comes	7.39	1	83.53	1	0.0	1	2.87	1	357.09	1	null	6	995.79	1	41.168724	15.52385
549	2024-01-23 20:00:00	22	candela_ex_comes	7.26	1	84.52	1	0.0	1	2.32	1	14.95	1	null	6	996.02	1	41.168724	15.52385
550	2024-01-23 21:00:00	22	candela_ex_comes	7.12	1	87.26	1	0.0	1	3.08	1	357.99	1	null	6	996.56	1	41.168724	15.52385
551	2024-01-23 22:00:00	22	candela_ex_comes	7.05	1	85.26	1	0.0	1	3.82	1	326.05	1	null	6	996.72	1	41.168724	15.52385
552	2024-01-23 23:00:00	22	candela_ex_comes	7.34	1	85.12	1	0.0	1	3.6	1	337.72	1	null	6	997.01	1	41.168724	15.52385
553	2024-01-24 00:00:00	22	candela_ex_comes	7.42	1	87.22	1	0.0	1	2.65	1	346.19	1	null	6	997.36	1	41.168724	15.52385
554	2024-01-24 01:00:00	22	candela_ex_comes	7.26	1	89.44	1	0.0	1	1.74	1	340.42	1	null	6	997.19	1	41.168724	15.52385
555	2024-01-24 02:00:00	22	candela_ex_comes	7.12	1	90.58	1	0.0	1	1.75	1	348.62	1	null	6	997.22	1	41.168724	15.52385
556	2024-01-24 03:00:00	22	candela_ex_comes	7.02	1	90.89	1	0.0	1	1.15	1	null	3	null	6	997.02	1	41.168724	15.52385
557	2024-01-24 04:00:00	22	candela_ex_comes	6.92	1	91.04	1	0.0	1	1.72	1	null	3	null	6	997.06	1	41.168724	15.52385
558	2024-01-24 05:00:00	22	candela_ex_comes	7.2	1	89.57	1	0.0	1	2.37	1	307.46	1	null	6	996.99	1	41.168724	15.52385
559	2024-01-24 06:00:00	22	candela_ex_comes	6.88	1	87.36	1	0.0	1	1.51	1	332.74	1	null	6	997.13	1	41.168724	15.52385
560	2024-01-24 07:00:00	22	candela_ex_comes	6.87	1	87.67	1	0.0	1	1.44	1	332.72	1	null	6	997.29	1	41.168724	15.52385
561	2024-01-24 08:00:00	22	candela_ex_comes	6.74	1	86.87	1	0.0	1	1.63	1	181.76	1	null	6	997.29	1	41.168724	15.52385
562	2024-01-24 09:00:00	22	candela_ex_comes	6.03	1	87.17	1	0.0	1	1.54	1	263.7	1	null	6	997.57	1	41.168724	15.52385
563	2024-01-24 10:00:00	22	candela_ex_comes	8.04	1	86.83	1	0.0	1	2.18	1	262.39	1	null	6	997.59	1	41.168724	15.52385
564	2024-01-24 11:00:00	22	candela_ex_comes	9.92	1	72.7	1	0.0	1	2.68	1	252.03	1	null	6	997.71	1	41.168724	15.52385
565	2024-01-24 12:00:00	22	candela_ex_comes	11.46	1	53.97	1	0.0	1	1.89	1	249.33	1	null	6	996.96	1	41.168724	15.52385
566	2024-01-24 13:00:00	22	candela_ex_comes	12.81	1	45.57	1	0.0	1	2.67	1	214.41	1	null	6	995.93	1	41.168724	15.52385
567	2024-01-24 14:00:00	22	candela_ex_comes	14.04	1	43.45	1	0.0	1	3.93	1	223.41	1	null	6	994.81	1	41.168724	15.52385
568	2024-01-24 15:00:00	22	candela_ex_comes	14.37	1	37.1	1	0.0	1	6.82	1	243.66	1	null	6	994.28	1	41.168724	15.52385
569	2024-01-24 16:00:00	22	candela_ex_comes	13.95	1	36.52	1	0.0	1	6.65	1	242.52	1	null	6	993.63	1	41.168724	15.52385
570	2024-01-24 17:00:00	22	candela_ex_comes	12.75	1	45.07	1	0.0	1	6.43	1	249.47	1	null	6	992.98	1	41.168724	15.52385
571	2024-01-24 18:00:00	22	candela_ex_comes	11.91	1	51.99	1	0.0	1	7.69	1	242.21	1	null	6	992.54	1	41.168724	15.52385
572	2024-01-24 19:00:00	22	candela_ex_comes	10.97	1	57.33	1	0.0	1	7.79	1	249.79	1	null	6	992.34	1	41.168724	15.52385
573	2024-01-24 20:00:00	22	candela_ex_comes	11.05	1	58.17	1	0.0	1	9.0	1	245.75	1	null	6	992.16	1	41.168724	15.52385
574	2024-01-24 21:00:00	22	candela_ex_comes	11.34	1	58.39	1	0.0	1	10.57	1	248.13	1	null	6	992.06	1	41.168724	15.52385
575	2024-01-24 22:00:00	22	candela_ex_comes	11.05	1	58.72	1	0.0	1	8.94	1	250.77	1	null	6	991.97	1	41.168724	15.52385
576	2024-01-24 23:00:00	22	candela_ex_comes	10.9	1	58.6	1	0.0	1	8.96	1	253.24	1	null	6	991.52	1	41.168724	15.52385
577	2024-01-25 00:00:00	22	candela_ex_comes	10.88	1	60.44	1	0.0	1	10.79	1	253.93	1	null	6	991.27	1	41.168724	15.52385
578	2024-01-25 01:00:00	22	candela_ex_comes	11.17	1	60.38	1	0.0	1	13.41	1	254.75	1	null	6	990.49	1	41.168724	15.52385
579	2024-01-25 02:00:00	22	candela_ex_comes	11.15	1	57.46	1	0.0	1	14.96	1	251.13	1	null	6	989.98	1	41.168724	15.52385
580	2024-01-25 03:00:00	22	candela_ex_comes	11.36	1	53.66	1	0.0	1	14.44	1	253.29	1	null	6	990.01	1	41.168724	15.52385
581	2024-01-25 04:00:00	22	candela_ex_comes	11.05	1	55.83	1	0.0	1	14.54	1	253.86	1	null	6	989.51	1	41.168724	15.52385
582	2024-01-25 05:00:00	22	candela_ex_comes	11.24	1	54.62	1	0.0	1	14.72	1	250.36	1	null	6	989.43	1	41.168724	15.52385
583	2024-01-25 06:00:00	22	candela_ex_comes	10.61	1	61.83	1	0.0	1	14.14	1	252.22	1	null	6	989.55	1	41.168724	15.52385
584	2024-01-25 07:00:00	22	candela_ex_comes	10.26	1	65.24	1	0.0	1	11.49	1	251.78	1	null	6	989.76	1	41.168724	15.52385
585	2024-01-25 08:00:00	22	candela_ex_comes	9.87	1	67.94	1	0.0	1	9.86	1	254.23	1	null	6	989.85	1	41.168724	15.52385
586	2024-01-25 09:00:00	22	candela_ex_comes	10.21	1	69.7	1	0.0	1	8.92	1	250.75	1	null	6	989.86	1	41.168724	15.52385
587	2024-01-25 10:00:00	22	candela_ex_comes	11.32	1	68.13	1	0.0	1	9.93	1	250.6	1	null	6	989.73	1	41.168724	15.52385
588	2024-01-25 11:00:00	22	candela_ex_comes	12.31	1	66.94	1	0.0	1	10.09	1	254.05	1	null	6	989.9	1	41.168724	15.52385
589	2024-01-25 12:00:00	22	candela_ex_comes	12.89	1	65.69	1	0.0	1	9.42	1	252.36	1	null	6	989.93	1	41.168724	15.52385
590	2024-01-25 13:00:00	22	candela_ex_comes	13.99	1	60.9	1	0.0	1	6.68	1	249.67	1	null	6	989.65	1	41.168724	15.52385
591	2024-01-25 14:00:00	22	candela_ex_comes	14.36	1	56.71	1	0.0	1	5.57	1	331.74	1	null	6	989.44	1	41.168724	15.52385
592	2024-01-25 15:00:00	22	candela_ex_comes	14.07	1	59.14	1	0.0	1	4.53	1	338.06	1	null	6	989.8	1	41.168724	15.52385
593	2024-01-25 16:00:00	22	candela_ex_comes	13.16	1	62.2	1	0.0	1	5.4	1	0.75	1	null	6	990.4	1	41.168724	15.52385
594	2024-01-25 17:00:00	22	candela_ex_comes	11.95	1	68.74	1	0.0	1	4.64	1	349.37	1	null	6	990.64	1	41.168724	15.52385
595	2024-01-25 18:00:00	22	candela_ex_comes	10.5	1	79.38	1	0.0	1	2.68	1	341.01	1	null	6	991.17	1	41.168724	15.52385
596	2024-01-25 19:00:00	22	candela_ex_comes	9.88	1	83.08	1	0.0	1	2.54	1	327.82	1	null	6	991.52	1	41.168724	15.52385
597	2024-01-25 20:00:00	22	candela_ex_comes	7.98	1	85.07	1	0.0	1	2.5	1	264.73	1	null	6	991.52	1	41.168724	15.52385
598	2024-01-25 21:00:00	22	candela_ex_comes	6.85	1	86.5	1	0.0	1	4.03	1	253.63	1	null	6	991.44	1	41.168724	15.52385
599	2024-01-25 22:00:00	22	candela_ex_comes	6.78	1	83.3	1	0.0	1	4.14	1	242.66	1	null	6	991.43	1	41.168724	15.52385
600	2024-01-25 23:00:00	22	candela_ex_comes	6.87	1	79.43	1	0.0	1	2.79	1	241.77	1	null	6	991.54	1	41.168724	15.52385
601	2024-01-26 00:00:00	22	candela_ex_comes	6.87	1	75.16	1	0.0	1	2.07	1	247.36	1	null	6	991.61	1	41.168724	15.52385
602	2024-01-26 01:00:00	22	candela_ex_comes	6.23	1	70.27	1	0.0	1	4.5	1	245.75	1	null	6	991.46	1	41.168724	15.52385
603	2024-01-26 02:00:00	22	candela_ex_comes	6.19	1	71.08	1	0.0	1	5.05	1	244.48	1	null	6	991.48	1	41.168724	15.52385
604	2024-01-26 03:00:00	22	candela_ex_comes	5.88	1	74.96	1	0.0	1	2.93	1	241.6	1	null	6	991.67	1	41.168724	15.52385
605	2024-01-26 04:00:00	22	candela_ex_comes	6.16	1	75.34	1	0.0	1	2.01	1	167.84	1	null	6	991.51	1	41.168724	15.52385
606	2024-01-26 05:00:00	22	candela_ex_comes	5.9	1	75.92	1	0.0	1	1.6	1	179.69	1	null	6	991.38	1	41.168724	15.52385
607	2024-01-26 06:00:00	22	candela_ex_comes	5.6	1	74.25	1	0.0	1	2.18	1	153.21	1	null	6	991.6	1	41.168724	15.52385
608	2024-01-26 07:00:00	22	candela_ex_comes	4.71	1	75.1	1	0.0	1	2.64	1	158.26	1	null	6	991.92	1	41.168724	15.52385
609	2024-01-26 08:00:00	22	candela_ex_comes	5.77	1	71.56	1	0.0	1	2.14	1	160.6	1	null	6	992.3	1	41.168724	15.52385
610	2024-01-26 09:00:00	22	candela_ex_comes	5.9	1	70.93	1	0.0	1	3.17	1	148.82	1	null	6	992.58	1	41.168724	15.52385
611	2024-01-26 10:00:00	22	candela_ex_comes	8.56	1	65.77	1	0.0	1	3.59	1	128.71	1	null	6	992.46	1	41.168724	15.52385
612	2024-01-26 11:00:00	22	candela_ex_comes	11.87	1	54.99	1	0.0	1	3.79	1	126.96	1	null	6	992.26	1	41.168724	15.52385
613	2024-01-26 12:00:00	22	candela_ex_comes	13.72	1	47.58	1	0.0	1	4.06	1	124.01	1	null	6	991.58	1	41.168724	15.52385
614	2024-01-26 13:00:00	22	candela_ex_comes	15.46	1	36.93	1	0.0	1	3.61	1	123.4	1	null	6	990.81	1	41.168724	15.52385
615	2024-01-26 14:00:00	22	candela_ex_comes	16.67	1	24.37	1	0.0	1	3.13	1	134.69	1	null	6	990.42	1	41.168724	15.52385
616	2024-01-26 15:00:00	22	candela_ex_comes	16.89	1	28.04	1	0.0	1	3.62	1	134.04	1	null	6	990.05	1	41.168724	15.52385
617	2024-01-26 16:00:00	22	candela_ex_comes	16.47	1	41.35	1	0.0	1	3.47	1	240.42	1	null	6	990.13	1	41.168724	15.52385
618	2024-01-26 17:00:00	22	candela_ex_comes	14.79	1	48.77	1	0.0	1	3.51	1	224.4	1	null	6	990.32	1	41.168724	15.52385
619	2024-01-26 18:00:00	22	candela_ex_comes	12.97	1	59.99	1	0.0	1	4.16	1	227.2	1	null	6	990.65	1	41.168724	15.52385
620	2024-01-26 19:00:00	22	candela_ex_comes	10.63	1	69.34	1	0.0	1	4.03	1	17.71	1	null	6	991.27	1	41.168724	15.52385
621	2024-01-26 20:00:00	22	candela_ex_comes	8.92	1	81.1	1	0.0	1	3.56	1	25.94	1	null	6	991.57	1	41.168724	15.52385
622	2024-01-26 21:00:00	22	candela_ex_comes	8.36	1	85.2	1	0.0	1	2.8	1	20.85	1	null	6	991.62	1	41.168724	15.52385
623	2024-01-26 22:00:00	22	candela_ex_comes	8.33	1	86.4	1	0.0	1	2.02	1	25.77	1	null	6	991.71	1	41.168724	15.52385
624	2024-01-26 23:00:00	22	candela_ex_comes	7.69	1	86.08	1	0.0	1	2.25	1	240.86	1	null	6	991.61	1	41.168724	15.52385
625	2024-01-27 00:00:00	22	candela_ex_comes	7.83	1	85.13	1	0.0	1	2.47	1	212.33	1	null	6	991.66	1	41.168724	15.52385
626	2024-01-27 01:00:00	22	candela_ex_comes	7.0	1	85.82	1	0.0	1	1.86	1	143.33	1	null	6	991.16	1	41.168724	15.52385
627	2024-01-27 02:00:00	22	candela_ex_comes	8.67	1	87.19	1	0.0	1	5.49	1	230.6	1	null	6	990.75	1	41.168724	15.52385
628	2024-01-27 03:00:00	22	candela_ex_comes	8.64	1	82.71	1	0.0	1	3.38	1	265.83	1	null	6	991.33	1	41.168724	15.52385
629	2024-01-27 04:00:00	22	candela_ex_comes	7.73	1	84.33	1	0.0	1	1.8	1	334.13	1	null	6	991.62	1	41.168724	15.52385
630	2024-01-27 05:00:00	22	candela_ex_comes	7.26	1	89.24	1	0.0	1	1.64	1	17.52	1	null	6	991.61	1	41.168724	15.52385
631	2024-01-27 06:00:00	22	candela_ex_comes	6.29	1	91.51	1	0.0	1	1.42	1	269.93	1	null	6	992.09	1	41.168724	15.52385
632	2024-01-27 07:00:00	22	candela_ex_comes	6.25	1	92.91	1	0.0	1	2.09	1	263.44	1	null	6	992.84	1	41.168724	15.52385
633	2024-01-27 08:00:00	22	candela_ex_comes	6.32	1	93.93	1	0.0	1	1.39	1	248.18	1	null	6	993.32	1	41.168724	15.52385
634	2024-01-27 09:00:00	22	candela_ex_comes	7.15	1	93.78	1	0.0	1	1.15	1	269.06	1	null	6	993.45	1	41.168724	15.52385
635	2024-01-27 10:00:00	22	candela_ex_comes	8.04	1	92.59	1	0.0	1	2.16	1	263.33	1	null	6	993.49	1	41.168724	15.52385
636	2024-01-27 11:00:00	22	candela_ex_comes	9.17	1	88.93	1	0.0	1	3.79	1	338.68	1	null	6	994.27	1	41.168724	15.52385
637	2024-01-27 12:00:00	22	candela_ex_comes	9.72	1	86.64	1	0.0	1	5.17	1	331.56	1	null	6	994.59	1	41.168724	15.52385
638	2024-01-27 13:00:00	22	candela_ex_comes	9.62	1	86.0	1	0.0	1	6.26	1	335.77	1	null	6	994.73	1	41.168724	15.52385
639	2024-01-27 14:00:00	22	candela_ex_comes	9.96	1	84.26	1	0.0	1	5.43	1	336.21	1	null	6	994.52	1	41.168724	15.52385
640	2024-01-27 15:00:00	22	candela_ex_comes	10.08	1	77.79	1	0.0	1	4.93	1	345.22	1	null	6	994.49	1	41.168724	15.52385
641	2024-01-27 16:00:00	22	candela_ex_comes	10.26	1	75.81	1	0.0	1	4.62	1	334.0	1	null	6	994.48	1	41.168724	15.52385
642	2024-01-27 17:00:00	22	candela_ex_comes	9.61	1	76.45	1	0.0	1	4.73	1	346.34	1	null	6	994.85	1	41.168724	15.52385
643	2024-01-27 18:00:00	22	candela_ex_comes	8.68	1	84.02	1	0.0	1	3.33	1	7.61	1	null	6	995.35	1	41.168724	15.52385
644	2024-01-27 19:00:00	22	candela_ex_comes	8.62	1	87.02	1	0.0	1	2.39	1	11.7	1	null	6	995.85	1	41.168724	15.52385
645	2024-01-27 20:00:00	22	candela_ex_comes	8.61	1	88.04	1	0.0	1	1.36	1	254.78	1	null	6	996.15	1	41.168724	15.52385
646	2024-01-27 21:00:00	22	candela_ex_comes	8.35	1	87.91	1	0.0	1	2.41	1	329.86	1	null	6	996.61	1	41.168724	15.52385
647	2024-01-27 22:00:00	22	candela_ex_comes	7.55	1	88.47	1	0.0	1	2.02	1	326.83	1	null	6	997.22	1	41.168724	15.52385
648	2024-01-27 23:00:00	22	candela_ex_comes	7.24	1	90.06	1	0.0	1	3.15	1	335.98	1	null	6	997.52	1	41.168724	15.52385
649	2024-01-28 00:00:00	22	candela_ex_comes	7.38	1	89.61	1	0.0	1	2.91	1	345.25	1	null	6	998.07	1	41.168724	15.52385
650	2024-01-28 01:00:00	22	candela_ex_comes	7.28	1	89.02	1	0.0	1	2.57	1	298.72	1	null	6	997.94	1	41.168724	15.52385
651	2024-01-28 02:00:00	22	candela_ex_comes	7.03	1	89.6	1	0.0	1	5.19	1	316.59	1	null	6	998.17	1	41.168724	15.52385
652	2024-01-28 03:00:00	22	candela_ex_comes	6.73	1	89.7	1	0.0	1	2.69	1	359.24	1	null	6	998.61	1	41.168724	15.52385
653	2024-01-28 04:00:00	22	candela_ex_comes	6.82	1	83.64	1	0.0	1	2.99	1	339.85	1	null	6	998.73	1	41.168724	15.52385
654	2024-01-28 05:00:00	22	candela_ex_comes	6.19	1	78.77	1	0.0	1	2.13	1	298.62	1	null	6	998.95	1	41.168724	15.52385
655	2024-01-28 06:00:00	22	candela_ex_comes	5.92	1	80.25	1	0.0	1	1.57	1	356.25	1	null	6	999.03	1	41.168724	15.52385
656	2024-01-28 07:00:00	22	candela_ex_comes	5.1	1	76.96	1	0.0	1	1.37	1	145.03	1	null	6	999.39	1	41.168724	15.52385
657	2024-01-28 08:00:00	22	candela_ex_comes	4.83	1	74.8	1	0.0	1	1.81	1	155.25	1	null	6	999.84	1	41.168724	15.52385
658	2024-01-28 09:00:00	22	candela_ex_comes	6.09	1	73.75	1	0.0	1	1.47	1	169.81	1	null	6	1000.25	1	41.168724	15.52385
659	2024-01-28 10:00:00	22	candela_ex_comes	7.36	1	71.37	1	0.0	1	3.2	1	333.76	1	null	6	1000.46	1	41.168724	15.52385
660	2024-01-28 11:00:00	22	candela_ex_comes	8.39	1	63.75	1	0.0	1	5.3	1	338.83	1	null	6	1000.83	1	41.168724	15.52385
661	2024-01-28 12:00:00	22	candela_ex_comes	9.06	1	55.6	1	0.0	1	4.58	1	350.49	1	null	6	1000.71	1	41.168724	15.52385
662	2024-01-28 13:00:00	22	candela_ex_comes	9.55	1	47.15	1	0.0	1	7.06	1	333.75	1	null	6	1000.14	1	41.168724	15.52385
663	2024-01-28 14:00:00	22	candela_ex_comes	9.54	1	47.34	1	0.0	1	8.08	1	339.42	1	null	6	999.68	1	41.168724	15.52385
664	2024-01-28 15:00:00	22	candela_ex_comes	9.74	1	40.84	1	0.0	1	8.16	1	340.3	1	null	6	999.52	1	41.168724	15.52385
665	2024-01-28 16:00:00	22	candela_ex_comes	9.23	1	43.77	1	0.0	1	8.81	1	337.64	1	null	6	999.64	1	41.168724	15.52385
666	2024-01-28 17:00:00	22	candela_ex_comes	8.2	1	54.02	1	0.0	1	7.36	1	334.12	1	null	6	999.84	1	41.168724	15.52385
667	2024-01-28 18:00:00	22	candela_ex_comes	6.81	1	63.42	1	0.0	1	4.88	1	326.78	1	null	6	1000.11	1	41.168724	15.52385
668	2024-01-28 19:00:00	22	candela_ex_comes	6.22	1	66.97	1	0.0	1	2.49	1	337.34	1	null	6	1000.61	1	41.168724	15.52385
669	2024-01-28 20:00:00	22	candela_ex_comes	6.15	1	68.06	1	0.0	1	1.52	1	314.76	1	null	6	1000.8	1	41.168724	15.52385
670	2024-01-28 21:00:00	22	candela_ex_comes	6.15	1	67.76	1	0.0	1	1.66	1	280.25	1	null	6	1000.87	1	41.168724	15.52385
671	2024-01-28 22:00:00	22	candela_ex_comes	6.34	1	70.88	1	0.0	1	2.24	1	269.54	1	null	6	1001.04	1	41.168724	15.52385
672	2024-01-28 23:00:00	22	candela_ex_comes	6.39	1	74.16	1	0.0	1	2.4	1	265.39	1	null	6	1000.95	1	41.168724	15.52385
673	2024-01-29 00:00:00	22	candela_ex_comes	5.84	1	77.89	1	0.0	1	1.64	1	254.75	1	null	6	1000.87	1	41.168724	15.52385
674	2024-01-29 01:00:00	22	candela_ex_comes	5.57	1	79.81	1	0.0	1	0.81	1	284.12	1	null	6	1000.92	1	41.168724	15.52385
675	2024-01-29 02:00:00	22	candela_ex_comes	5.56	1	81.47	1	0.0	1	0.73	1	144.19	1	null	6	1000.8	1	41.168724	15.52385
676	2024-01-29 03:00:00	22	candela_ex_comes	5.58	1	82.95	1	0.0	1	1.11	1	177.33	1	null	6	1000.63	1	41.168724	15.52385
677	2024-01-29 04:00:00	22	candela_ex_comes	6.03	1	82.21	1	0.0	1	0.49	1	199.9	1	null	6	1000.39	1	41.168724	15.52385
678	2024-01-29 05:00:00	22	candela_ex_comes	5.96	1	82.3	1	0.0	1	0.76	1	17.61	1	null	6	1000.38	1	41.168724	15.52385
679	2024-01-29 06:00:00	22	candela_ex_comes	5.86	1	82.5	1	0.0	1	0.66	1	111.47	1	null	6	1000.21	1	41.168724	15.52385
680	2024-01-29 07:00:00	22	candela_ex_comes	5.76	1	82.35	1	0.0	1	1.36	1	28.01	1	null	6	1000.39	1	41.168724	15.52385
681	2024-01-29 08:00:00	22	candela_ex_comes	5.74	1	83.64	1	0.0	1	1.56	1	39.07	1	null	6	1000.69	1	41.168724	15.52385
682	2024-01-29 09:00:00	22	candela_ex_comes	5.65	1	84.92	1	0.0	1	2.3	1	30.67	1	null	6	1001.02	1	41.168724	15.52385
683	2024-01-29 10:00:00	22	candela_ex_comes	6.23	1	83.91	1	0.0	1	1.94	1	32.44	1	null	6	1001.13	1	41.168724	15.52385
684	2024-01-29 11:00:00	22	candela_ex_comes	7.14	1	81.98	1	0.0	1	2.18	1	7.27	1	null	6	1001.39	1	41.168724	15.52385
685	2024-01-29 12:00:00	22	candela_ex_comes	8.37	1	77.45	1	0.0	1	5.09	1	343.12	1	null	6	1001.08	1	41.168724	15.52385
686	2024-01-29 13:00:00	22	candela_ex_comes	9.15	1	69.34	1	0.0	1	4.62	1	343.44	1	null	6	1000.6	1	41.168724	15.52385
687	2024-01-29 14:00:00	22	candela_ex_comes	9.68	1	63.5	1	0.0	1	4.75	1	351.29	1	null	6	999.92	1	41.168724	15.52385
688	2024-01-29 15:00:00	22	candela_ex_comes	9.92	1	61.06	1	0.0	1	4.6	1	357.19	1	null	6	999.61	1	41.168724	15.52385
689	2024-01-29 16:00:00	22	candela_ex_comes	9.82	1	58.21	1	0.0	1	6.03	1	337.14	1	null	6	999.72	1	41.168724	15.52385
690	2024-01-29 17:00:00	22	candela_ex_comes	8.84	1	64.81	1	0.0	1	4.98	1	339.1	1	null	6	999.51	1	41.168724	15.52385
691	2024-01-29 18:00:00	22	candela_ex_comes	7.1	1	75.16	1	0.0	1	2.81	1	352.24	1	null	6	999.79	1	41.168724	15.52385
692	2024-01-29 19:00:00	22	candela_ex_comes	6.31	1	80.69	1	0.0	1	1.75	1	338.28	1	null	6	1000.08	1	41.168724	15.52385
693	2024-01-29 20:00:00	22	candela_ex_comes	6.03	1	81.47	1	0.0	1	1.3	1	270.98	1	null	6	1000.61	1	41.168724	15.52385
694	2024-01-29 21:00:00	22	candela_ex_comes	5.61	1	82.91	1	0.0	1	2.47	1	245.8	1	null	6	1000.9	1	41.168724	15.52385
695	2024-01-29 22:00:00	22	candela_ex_comes	4.44	1	84.37	1	0.0	1	3.55	1	249.47	1	null	6	1001.01	1	41.168724	15.52385
696	2024-01-29 23:00:00	22	candela_ex_comes	3.12	1	85.5	1	0.0	1	3.16	1	252.37	1	null	6	1001.16	1	41.168724	15.52385
697	2024-01-30 00:00:00	22	candela_ex_comes	3.39	1	87.37	1	0.0	1	2.67	1	253.32	1	null	6	1001.37	1	41.168724	15.52385
698	2024-01-30 01:00:00	22	candela_ex_comes	3.2	1	87.71	1	0.0	1	2.18	1	257.66	1	null	6	1001.33	1	41.168724	15.52385
699	2024-01-30 02:00:00	22	candela_ex_comes	4.78	1	87.95	1	0.0	1	1.67	1	254.42	1	null	6	1001.35	1	41.168724	15.52385
700	2024-01-30 03:00:00	22	candela_ex_comes	4.66	1	86.85	1	0.0	1	1.76	1	262.48	1	null	6	1001.17	1	41.168724	15.52385
701	2024-01-30 04:00:00	22	candela_ex_comes	4.63	1	87.49	1	0.0	1	1.71	1	258.55	1	null	6	1000.81	1	41.168724	15.52385
702	2024-01-30 05:00:00	22	candela_ex_comes	4.77	1	86.86	1	0.0	1	1.37	1	262.75	1	null	6	1000.6	1	41.168724	15.52385
703	2024-01-30 06:00:00	22	candela_ex_comes	4.54	1	86.54	1	0.0	1	1.53	1	263.12	1	null	6	1000.4	1	41.168724	15.52385
704	2024-01-30 07:00:00	22	candela_ex_comes	4.36	1	87.56	1	0.0	1	2.94	1	257.58	1	null	6	1000.72	1	41.168724	15.52385
705	2024-01-30 08:00:00	22	candela_ex_comes	3.55	1	87.93	1	0.0	1	2.53	1	264.13	1	null	6	1001.19	1	41.168724	15.52385
706	2024-01-30 09:00:00	22	candela_ex_comes	3.5	1	87.39	1	0.0	1	1.57	1	273.95	1	null	6	1001.75	1	41.168724	15.52385
707	2024-01-30 10:00:00	22	candela_ex_comes	6.26	1	84.42	1	0.0	1	2.09	1	266.12	1	null	6	1001.86	1	41.168724	15.52385
708	2024-01-30 11:00:00	22	candela_ex_comes	8.26	1	73.7	1	0.0	1	3.42	1	350.23	1	null	6	1001.7	1	41.168724	15.52385
709	2024-01-30 12:00:00	22	candela_ex_comes	9.39	1	67.8	1	0.0	1	3.69	1	345.14	1	null	6	1001.23	1	41.168724	15.52385
710	2024-01-30 13:00:00	22	candela_ex_comes	9.89	1	63.73	1	0.0	1	2.95	1	354.35	1	null	6	1000.58	1	41.168724	15.52385
711	2024-01-30 14:00:00	22	candela_ex_comes	10.21	1	62.14	1	0.0	1	3.16	1	2.4	1	null	6	999.98	1	41.168724	15.52385
712	2024-01-30 15:00:00	22	candela_ex_comes	10.42	1	60.56	1	0.0	1	3.03	1	1.14	1	null	6	999.71	1	41.168724	15.52385
713	2024-01-30 16:00:00	22	candela_ex_comes	10.25	1	59.68	1	0.0	1	2.33	1	23.35	1	null	6	999.87	1	41.168724	15.52385
714	2024-01-30 17:00:00	22	candela_ex_comes	9.47	1	66.58	1	0.0	1	2.68	1	357.39	1	null	6	1000.0	1	41.168724	15.52385
715	2024-01-30 18:00:00	22	candela_ex_comes	8.26	1	71.12	1	0.0	1	2.56	1	12.69	1	null	6	1000.27	1	41.168724	15.52385
716	2024-01-30 19:00:00	22	candela_ex_comes	7.46	1	77.95	1	0.0	1	2.38	1	10.48	1	null	6	1000.62	1	41.168724	15.52385
717	2024-01-30 20:00:00	22	candela_ex_comes	6.12	1	82.23	1	0.0	1	1.38	1	280.45	1	null	6	1000.83	1	41.168724	15.52385
718	2024-01-30 21:00:00	22	candela_ex_comes	4.08	1	85.29	1	0.0	1	2.29	1	261.33	1	null	6	1000.87	1	41.168724	15.52385
719	2024-01-30 22:00:00	22	candela_ex_comes	3.47	1	88.02	1	0.0	1	2.22	1	263.31	1	null	6	1000.89	1	41.168724	15.52385
720	2024-01-30 23:00:00	22	candela_ex_comes	3.17	1	88.21	1	0.0	1	5.0	1	243.86	1	null	6	1000.8	1	41.168724	15.52385
721	2024-01-31 00:00:00	22	candela_ex_comes	2.97	1	88.15	1	0.0	1	3.18	1	247.26	1	null	6	1001.03	1	41.168724	15.52385
722	2024-01-31 01:00:00	22	candela_ex_comes	2.89	1	87.5	1	0.0	1	2.93	1	247.97	1	null	6	1000.89	1	41.168724	15.52385
723	2024-01-31 02:00:00	22	candela_ex_comes	2.37	1	87.73	1	0.0	1	2.73	1	244.98	1	null	6	1000.83	1	41.168724	15.52385
724	2024-01-31 03:00:00	22	candela_ex_comes	2.6	1	87.51	1	0.0	1	2.9	1	239.77	1	null	6	1000.8	1	41.168724	15.52385
725	2024-01-31 04:00:00	22	candela_ex_comes	2.24	1	86.85	1	0.0	1	2.85	1	241.88	1	null	6	1000.44	1	41.168724	15.52385
726	2024-01-31 05:00:00	22	candela_ex_comes	1.96	1	87.85	1	0.0	1	1.96	1	167.73	1	null	6	1000.13	1	41.168724	15.52385
727	2024-01-31 06:00:00	22	candela_ex_comes	1.8	1	90.45	1	0.0	1	1.39	1	245.12	1	null	6	1000.18	1	41.168724	15.52385
728	2024-01-31 07:00:00	22	candela_ex_comes	1.64	1	89.37	1	0.0	1	2.06	1	230.94	1	null	6	1000.3	1	41.168724	15.52385
729	2024-01-31 08:00:00	22	candela_ex_comes	1.48	1	89.25	1	0.0	1	2.7	1	244.63	1	null	6	1000.37	1	41.168724	15.52385
730	2024-01-31 09:00:00	22	candela_ex_comes	2.31	1	85.84	1	0.0	1	1.77	1	166.62	1	null	6	1000.37	1	41.168724	15.52385
731	2024-01-31 10:00:00	22	candela_ex_comes	4.36	1	84.94	1	0.0	1	2.21	1	143.4	1	null	6	1000.29	1	41.168724	15.52385
732	2024-01-31 11:00:00	22	candela_ex_comes	7.51	1	73.15	1	0.0	1	1.24	1	125.99	1	null	6	999.91	1	41.168724	15.52385
733	2024-01-31 12:00:00	22	candela_ex_comes	8.93	1	64.83	1	0.0	1	1.55	1	7.77	1	null	6	999.17	1	41.168724	15.52385
734	2024-01-31 13:00:00	22	candela_ex_comes	10.18	1	56.76	1	0.0	1	1.86	1	351.22	1	null	6	998.36	1	41.168724	15.52385
735	2024-01-31 14:00:00	22	candela_ex_comes	11.22	1	50.55	1	0.0	1	1.84	1	26.34	1	null	6	997.66	1	41.168724	15.52385
736	2024-01-31 15:00:00	22	candela_ex_comes	11.56	1	52.18	1	0.0	1	2.69	1	356.03	1	null	6	997.32	1	41.168724	15.52385
737	2024-01-31 16:00:00	22	candela_ex_comes	11.51	1	52.9	1	0.0	1	1.9	1	2.23	1	null	6	997.18	1	41.168724	15.52385
738	2024-01-31 17:00:00	22	candela_ex_comes	10.89	1	56.44	1	0.0	1	2.02	1	10.97	1	null	6	997.17	1	41.168724	15.52385
739	2024-01-31 18:00:00	22	candela_ex_comes	9.66	1	61.06	1	0.0	1	2.91	1	11.3	1	null	6	997.3	1	41.168724	15.52385
740	2024-01-31 19:00:00	22	candela_ex_comes	7.34	1	76.72	1	0.0	1	2.89	1	19.56	1	null	6	997.47	1	41.168724	15.52385
741	2024-01-31 20:00:00	22	candela_ex_comes	5.19	1	81.96	1	0.0	1	1.33	1	278.35	1	null	6	997.49	1	41.168724	15.52385
742	2024-01-31 21:00:00	22	candela_ex_comes	3.91	1	83.83	1	0.0	1	2.34	1	262.79	1	null	6	997.45	1	41.168724	15.52385
743	2024-01-31 22:00:00	22	candela_ex_comes	3.67	1	85.2	1	0.0	1	2.31	1	262.94	1	null	6	997.37	1	41.168724	15.52385
744	2024-01-31 23:00:00	22	candela_ex_comes	4.51	1	77.94	1	0.0	1	3.58	1	242.26	1	null	6	997.21	1	41.168724	15.52385
745	2024-02-01 00:00:00	22	candela_ex_comes	3.6	1	76.4	1	0.0	1	3.88	1	244.44	1	null	6	997.18	1	41.168724	15.52385
746	2024-02-01 01:00:00	22	candela_ex_comes	4.15	1	67.24	1	0.0	1	3.99	1	236.5	1	null	6	996.92	1	41.168724	15.52385
747	2024-02-01 02:00:00	22	candela_ex_comes	3.79	1	75.08	1	0.0	1	1.55	1	175.63	1	null	6	996.73	1	41.168724	15.52385
748	2024-02-01 03:00:00	22	candela_ex_comes	3.77	1	73.17	1	0.0	1	2.2	1	218.6	1	null	6	996.3	1	41.168724	15.52385
749	2024-02-01 04:00:00	22	candela_ex_comes	4.05	1	74.15	1	0.0	1	1.75	1	172.05	1	null	6	995.84	1	41.168724	15.52385
750	2024-02-01 05:00:00	22	candela_ex_comes	5.63	1	73.75	1	0.0	1	3.16	1	216.14	1	null	6	995.25	1	41.168724	15.52385
751	2024-02-01 06:00:00	22	candela_ex_comes	5.72	1	75.12	1	0.0	1	1.8	1	175.21	1	null	6	994.75	1	41.168724	15.52385
752	2024-02-01 07:00:00	22	candela_ex_comes	6.2	1	76.53	1	0.0	1	3.2	1	218.87	1	null	6	994.7	1	41.168724	15.52385
753	2024-02-01 08:00:00	22	candela_ex_comes	5.43	1	78.5	1	0.0	1	4.58	1	251.57	1	null	6	994.98	1	41.168724	15.52385
754	2024-02-01 09:00:00	22	candela_ex_comes	6.37	1	79.21	1	0.0	1	4.36	1	251.6	1	null	6	995.16	1	41.168724	15.52385
755	2024-02-01 10:00:00	22	candela_ex_comes	8.33	1	73.6	1	0.0	1	5.83	1	248.69	1	null	6	995.16	1	41.168724	15.52385
756	2024-02-01 11:00:00	22	candela_ex_comes	9.82	1	67.05	1	0.0	1	7.21	1	252.21	1	null	6	994.81	1	41.168724	15.52385
757	2024-02-01 12:00:00	22	candela_ex_comes	11.26	1	57.04	1	0.0	1	6.51	1	257.07	1	null	6	994.09	1	41.168724	15.52385
758	2024-02-01 13:00:00	22	candela_ex_comes	12.01	1	50.36	1	0.0	1	6.79	1	267.74	1	null	6	993.23	1	41.168724	15.52385
759	2024-02-01 14:00:00	22	candela_ex_comes	12.65	1	46.27	1	0.0	1	7.35	1	269.19	1	null	6	992.2	1	41.168724	15.52385
760	2024-02-01 15:00:00	22	candela_ex_comes	12.63	1	49.09	1	0.0	1	8.6	1	264.44	1	null	6	991.32	1	41.168724	15.52385
761	2024-02-01 16:00:00	22	candela_ex_comes	12.52	1	50.52	1	0.0	1	8.5	1	263.48	1	null	6	990.89	1	41.168724	15.52385
762	2024-02-01 17:00:00	22	candela_ex_comes	11.76	1	54.5	1	0.0	1	6.58	1	272.24	1	null	6	990.78	1	41.168724	15.52385
763	2024-02-01 18:00:00	22	candela_ex_comes	10.36	1	62.18	1	0.0	1	6.22	1	267.67	1	null	6	991.22	1	41.168724	15.52385
764	2024-02-01 19:00:00	22	candela_ex_comes	9.21	1	68.67	1	0.0	1	4.28	1	256.43	1	null	6	991.62	1	41.168724	15.52385
765	2024-02-01 20:00:00	22	candela_ex_comes	8.3	1	72.09	1	0.0	1	1.91	1	266.27	1	null	6	991.74	1	41.168724	15.52385
766	2024-02-01 21:00:00	22	candela_ex_comes	7.27	1	76.45	1	0.0	1	0.94	1	273.54	1	null	6	991.44	1	41.168724	15.52385
767	2024-02-01 22:00:00	22	candela_ex_comes	7.06	1	79.24	1	0.0	1	2.48	1	267.18	1	null	6	991.44	1	41.168724	15.52385
768	2024-02-01 23:00:00	22	candela_ex_comes	6.93	1	79.74	1	0.0	1	2.12	1	239.54	1	null	6	991.56	1	41.168724	15.52385
769	2024-02-02 00:00:00	22	candela_ex_comes	6.16	1	80.38	1	0.0	1	2.98	1	245.74	1	null	6	991.56	1	41.168724	15.52385
770	2024-02-02 01:00:00	22	candela_ex_comes	5.54	1	83.14	1	0.0	1	3.35	1	241.67	1	null	6	991.43	1	41.168724	15.52385
771	2024-02-02 02:00:00	22	candela_ex_comes	4.83	1	83.65	1	0.0	1	4.22	1	253.69	1	null	6	991.35	1	41.168724	15.52385
772	2024-02-02 03:00:00	22	candela_ex_comes	3.85	1	86.06	1	0.0	1	4.42	1	243.31	1	null	6	991.64	1	41.168724	15.52385
773	2024-02-02 04:00:00	22	candela_ex_comes	3.59	1	84.88	1	0.0	1	4.7	1	252.74	1	null	6	991.83	1	41.168724	15.52385
774	2024-02-02 05:00:00	22	candela_ex_comes	4.39	1	65.25	1	0.0	1	4.79	1	263.25	1	null	6	991.9	1	41.168724	15.52385
775	2024-02-02 06:00:00	22	candela_ex_comes	5.21	1	64.02	1	0.0	1	2.85	1	264.28	1	null	6	992.23	1	41.168724	15.52385
776	2024-02-02 07:00:00	22	candela_ex_comes	5.91	1	73.73	1	0.0	1	1.25	1	275.58	1	null	6	992.46	1	41.168724	15.52385
777	2024-02-02 08:00:00	22	candela_ex_comes	6.31	1	80.91	1	0.0	1	3.46	1	336.5	1	null	6	992.95	1	41.168724	15.52385
778	2024-02-02 09:00:00	22	candela_ex_comes	6.73	1	81.66	1	0.0	1	3.46	1	352.43	1	null	6	993.51	1	41.168724	15.52385
779	2024-02-02 10:00:00	22	candela_ex_comes	7.35	1	81.64	1	0.0	1	2.98	1	32.68	1	null	6	993.63	1	41.168724	15.52385
780	2024-02-02 11:00:00	22	candela_ex_comes	8.58	1	80.19	1	0.0	1	3.47	1	31.44	1	null	6	993.92	1	41.168724	15.52385
781	2024-02-02 12:00:00	22	candela_ex_comes	9.28	1	77.22	1	0.0	1	4.96	1	20.37	1	null	6	993.94	1	41.168724	15.52385
782	2024-02-02 13:00:00	22	candela_ex_comes	9.78	1	76.32	1	0.0	1	5.43	1	353.58	1	null	6	993.48	1	41.168724	15.52385
783	2024-02-02 14:00:00	22	candela_ex_comes	10.28	1	74.84	1	0.0	1	5.31	1	352.83	1	null	6	992.91	1	41.168724	15.52385
784	2024-02-02 15:00:00	22	candela_ex_comes	10.75	1	72.25	1	0.0	1	6.96	1	339.06	1	null	6	992.78	1	41.168724	15.52385
785	2024-02-02 16:00:00	22	candela_ex_comes	10.61	1	70.77	1	0.0	1	6.87	1	341.88	1	null	6	992.82	1	41.168724	15.52385
786	2024-02-02 17:00:00	22	candela_ex_comes	10.08	1	69.89	1	0.0	1	6.29	1	340.9	1	null	6	992.84	1	41.168724	15.52385
787	2024-02-02 18:00:00	22	candela_ex_comes	8.54	1	76.21	1	0.0	1	5.43	1	328.45	1	null	6	993.23	1	41.168724	15.52385
788	2024-02-02 19:00:00	22	candela_ex_comes	7.49	1	84.62	1	0.0	1	2.77	1	317.01	1	null	6	993.76	1	41.168724	15.52385
789	2024-02-02 20:00:00	22	candela_ex_comes	7.33	1	89.0	1	0.0	1	2.49	1	333.33	1	null	6	994.21	1	41.168724	15.52385
790	2024-02-02 21:00:00	22	candela_ex_comes	7.78	1	88.39	1	0.0	1	1.84	1	337.36	1	null	6	994.39	1	41.168724	15.52385
791	2024-02-02 22:00:00	22	candela_ex_comes	7.4	1	87.16	1	0.0	1	1.33	1	334.17	1	null	6	994.2	1	41.168724	15.52385
792	2024-02-02 23:00:00	22	candela_ex_comes	7.71	1	85.36	1	0.0	1	1.92	1	320.62	1	null	6	994.2	1	41.168724	15.52385
793	2024-02-03 00:00:00	22	candela_ex_comes	7.49	1	81.48	1	0.0	1	1.56	1	289.0	1	null	6	994.34	1	41.168724	15.52385
794	2024-02-03 01:00:00	22	candela_ex_comes	6.12	1	82.23	1	0.0	1	2.6	1	271.36	1	null	6	994.31	1	41.168724	15.52385
795	2024-02-03 02:00:00	22	candela_ex_comes	6.38	1	86.22	1	0.0	1	1.93	1	284.69	1	null	6	994.15	1	41.168724	15.52385
796	2024-02-03 03:00:00	22	candela_ex_comes	7.09	1	85.94	1	0.0	1	1.79	1	281.39	1	null	6	994.11	1	41.168724	15.52385
797	2024-02-03 04:00:00	22	candela_ex_comes	6.59	1	84.54	1	0.0	1	1.84	1	247.76	1	null	6	993.89	1	41.168724	15.52385
798	2024-02-03 05:00:00	22	candela_ex_comes	4.85	1	85.97	1	0.0	1	2.53	1	255.01	1	null	6	993.85	1	41.168724	15.52385
799	2024-02-03 06:00:00	22	candela_ex_comes	3.71	1	88.28	1	0.0	1	3.13	1	257.35	1	null	6	993.88	1	41.168724	15.52385
800	2024-02-03 07:00:00	22	candela_ex_comes	4.04	1	89.37	1	0.0	1	2.59	1	255.89	1	null	6	993.79	1	41.168724	15.52385
801	2024-02-03 08:00:00	22	candela_ex_comes	4.14	1	86.77	1	0.0	1	3.88	1	249.81	1	null	6	993.98	1	41.168724	15.52385
802	2024-02-03 09:00:00	22	candela_ex_comes	5.5	1	82.58	1	0.0	1	4.16	1	244.92	1	null	6	994.04	1	41.168724	15.52385
803	2024-02-03 10:00:00	22	candela_ex_comes	9.18	1	73.18	1	0.0	1	1.65	1	139.15	1	null	6	994.09	1	41.168724	15.52385
804	2024-02-03 11:00:00	22	candela_ex_comes	12.29	1	58.49	1	0.0	1	1.55	1	142.13	1	null	6	993.78	1	41.168724	15.52385
805	2024-02-03 12:00:00	22	candela_ex_comes	14.53	1	39.08	1	0.0	1	1.84	1	307.88	1	null	6	993.25	1	41.168724	15.52385
806	2024-02-03 13:00:00	22	candela_ex_comes	15.53	1	33.79	1	0.0	1	2.33	1	15.48	1	null	6	992.72	1	41.168724	15.52385
807	2024-02-03 14:00:00	22	candela_ex_comes	16.23	1	30.67	1	0.0	1	2.24	1	354.8	1	null	6	991.97	1	41.168724	15.52385
808	2024-02-03 15:00:00	22	candela_ex_comes	16.43	1	31.86	1	0.0	1	2.11	1	349.83	1	null	6	991.48	1	41.168724	15.52385
809	2024-02-03 16:00:00	22	candela_ex_comes	16.43	1	32.67	1	0.0	1	1.95	1	351.84	1	null	6	991.38	1	41.168724	15.52385
810	2024-02-03 17:00:00	22	candela_ex_comes	15.91	1	36.69	1	0.0	1	3.7	1	252.27	1	null	6	991.16	1	41.168724	15.52385
811	2024-02-03 18:00:00	22	candela_ex_comes	13.88	1	42.2	1	0.0	1	5.7	1	252.03	1	null	6	991.1	1	41.168724	15.52385
812	2024-02-03 19:00:00	22	candela_ex_comes	12.27	1	49.49	1	0.0	1	6.46	1	248.9	1	null	6	991.35	1	41.168724	15.52385
813	2024-02-03 20:00:00	22	candela_ex_comes	11.51	1	51.4	1	0.0	1	6.68	1	250.21	1	null	6	991.47	1	41.168724	15.52385
814	2024-02-03 21:00:00	22	candela_ex_comes	10.86	1	53.97	1	0.0	1	3.71	1	258.88	1	null	6	991.66	1	41.168724	15.52385
815	2024-02-03 22:00:00	22	candela_ex_comes	11.07	1	54.51	1	0.0	1	6.1	1	246.19	1	null	6	991.67	1	41.168724	15.52385
816	2024-02-03 23:00:00	22	candela_ex_comes	10.81	1	56.2	1	0.0	1	7.0	1	245.55	1	null	6	991.6	1	41.168724	15.52385
817	2024-02-04 00:00:00	22	candela_ex_comes	10.46	1	58.28	1	0.0	1	7.54	1	248.38	1	null	6	991.51	1	41.168724	15.52385
818	2024-02-04 01:00:00	22	candela_ex_comes	10.05	1	60.37	1	0.0	1	7.89	1	253.34	1	null	6	991.15	1	41.168724	15.52385
819	2024-02-04 02:00:00	22	candela_ex_comes	9.94	1	61.74	1	0.0	1	9.44	1	252.4	1	null	6	990.99	1	41.168724	15.52385
820	2024-02-04 03:00:00	22	candela_ex_comes	9.5	1	64.47	1	0.0	1	9.4	1	252.89	1	null	6	990.91	1	41.168724	15.52385
821	2024-02-04 04:00:00	22	candela_ex_comes	9.5	1	66.3	1	0.0	1	11.27	1	242.97	1	null	6	990.91	1	41.168724	15.52385
822	2024-02-04 05:00:00	22	candela_ex_comes	9.77	1	66.92	1	0.0	1	11.57	1	248.02	1	null	6	990.57	1	41.168724	15.52385
823	2024-02-04 06:00:00	22	candela_ex_comes	9.76	1	70.93	1	0.0	1	11.89	1	248.77	1	null	6	990.48	1	41.168724	15.52385
824	2024-02-04 07:00:00	22	candela_ex_comes	9.34	1	72.23	1	0.0	1	11.88	1	245.13	1	null	6	990.47	1	41.168724	15.52385
825	2024-02-04 08:00:00	22	candela_ex_comes	9.47	1	71.61	1	0.0	1	11.42	1	243.01	1	null	6	990.77	1	41.168724	15.52385
826	2024-02-04 09:00:00	22	candela_ex_comes	10.32	1	69.53	1	0.0	1	9.84	1	252.21	1	null	6	990.76	1	41.168724	15.52385
827	2024-02-04 10:00:00	22	candela_ex_comes	11.47	1	67.43	1	0.0	1	12.45	1	251.07	1	null	6	990.7	1	41.168724	15.52385
828	2024-02-04 11:00:00	22	candela_ex_comes	12.49	1	66.91	1	0.0	1	12.88	1	259.45	1	null	6	991.38	1	41.168724	15.52385
829	2024-02-04 12:00:00	22	candela_ex_comes	13.01	1	65.66	1	0.0	1	12.99	1	259.0	1	null	6	991.64	1	41.168724	15.52385
830	2024-02-04 13:00:00	22	candela_ex_comes	13.73	1	62.7	1	0.0	1	12.43	1	258.88	1	null	6	991.06	1	41.168724	15.52385
831	2024-02-04 14:00:00	22	candela_ex_comes	14.55	1	60.05	1	0.0	1	10.77	1	256.23	1	null	6	990.49	1	41.168724	15.52385
832	2024-02-04 15:00:00	22	candela_ex_comes	15.04	1	58.4	1	0.0	1	9.81	1	262.2	1	null	6	989.8	1	41.168724	15.52385
833	2024-02-04 16:00:00	22	candela_ex_comes	14.96	1	58.9	1	0.0	1	9.42	1	261.75	1	null	6	989.65	1	41.168724	15.52385
834	2024-02-04 17:00:00	22	candela_ex_comes	14.27	1	61.12	1	0.0	1	9.3	1	259.83	1	null	6	989.54	1	41.168724	15.52385
835	2024-02-04 18:00:00	22	candela_ex_comes	12.76	1	66.85	1	0.0	1	8.62	1	254.61	1	null	6	990.06	1	41.168724	15.52385
836	2024-02-04 19:00:00	22	candela_ex_comes	12.07	1	70.33	1	0.0	1	8.89	1	249.25	1	null	6	990.58	1	41.168724	15.52385
837	2024-02-04 20:00:00	22	candela_ex_comes	11.35	1	72.42	1	0.0	1	7.7	1	241.08	1	null	6	990.7	1	41.168724	15.52385
838	2024-02-04 21:00:00	22	candela_ex_comes	10.9	1	75.71	1	0.0	1	8.72	1	243.75	1	null	6	990.97	1	41.168724	15.52385
839	2024-02-04 22:00:00	22	candela_ex_comes	10.69	1	78.5	1	0.0	1	8.28	1	241.59	1	null	6	991.25	1	41.168724	15.52385
840	2024-02-04 23:00:00	22	candela_ex_comes	10.76	1	79.72	1	0.0	1	10.42	1	243.31	1	null	6	991.18	1	41.168724	15.52385
841	2024-02-05 00:00:00	22	candela_ex_comes	10.79	1	78.84	1	0.0	1	10.96	1	246.77	1	null	6	991.09	1	41.168724	15.52385
842	2024-02-05 01:00:00	22	candela_ex_comes	10.74	1	77.84	1	0.0	1	11.15	1	247.58	1	null	6	990.88	1	41.168724	15.52385
843	2024-02-05 02:00:00	22	candela_ex_comes	10.66	1	77.8	1	0.0	1	11.31	1	244.27	1	null	6	990.8	1	41.168724	15.52385
844	2024-02-05 03:00:00	22	candela_ex_comes	10.53	1	77.5	1	0.0	1	10.33	1	242.07	1	null	6	990.81	1	41.168724	15.52385
845	2024-02-05 04:00:00	22	candela_ex_comes	10.45	1	77.88	1	0.0	1	10.8	1	246.26	1	null	6	990.59	1	41.168724	15.52385
846	2024-02-05 05:00:00	22	candela_ex_comes	10.46	1	77.11	1	0.0	1	11.56	1	247.84	1	null	6	990.32	1	41.168724	15.52385
847	2024-02-05 06:00:00	22	candela_ex_comes	10.18	1	77.54	1	0.0	1	12.33	1	248.87	1	null	6	990.31	1	41.168724	15.52385
848	2024-02-05 07:00:00	22	candela_ex_comes	9.42	1	75.81	1	0.0	1	13.71	1	248.94	1	null	6	990.3	1	41.168724	15.52385
849	2024-02-05 08:00:00	22	candela_ex_comes	9.77	1	76.79	1	0.0	1	13.53	1	249.37	1	null	6	990.5	1	41.168724	15.52385
850	2024-02-05 09:00:00	22	candela_ex_comes	10.63	1	75.51	1	0.0	1	12.52	1	248.56	1	null	6	990.79	1	41.168724	15.52385
851	2024-02-05 10:00:00	22	candela_ex_comes	11.25	1	73.45	1	0.0	1	13.13	1	249.52	1	null	6	991.33	1	41.168724	15.52385
852	2024-02-05 11:00:00	22	candela_ex_comes	12.24	1	69.19	1	0.0	1	12.7	1	249.02	1	null	6	991.43	1	41.168724	15.52385
853	2024-02-05 12:00:00	22	candela_ex_comes	13.61	1	65.38	1	0.0	1	14.54	1	256.2	1	null	6	991.21	1	41.168724	15.52385
854	2024-02-05 13:00:00	22	candela_ex_comes	13.67	1	63.63	1	0.0	1	15.25	1	257.73	1	null	6	990.6	1	41.168724	15.52385
855	2024-02-05 14:00:00	22	candela_ex_comes	14.1	1	62.53	1	0.0	1	14.72	1	257.76	1	null	6	990.04	1	41.168724	15.52385
856	2024-02-05 15:00:00	22	candela_ex_comes	14.31	1	61.8	1	0.0	1	13.55	1	252.6	1	null	6	989.59	1	41.168724	15.52385
857	2024-02-05 16:00:00	22	candela_ex_comes	14.12	1	63.27	1	0.0	1	12.6	1	251.34	1	null	6	989.4	1	41.168724	15.52385
858	2024-02-05 17:00:00	22	candela_ex_comes	13.19	1	66.43	1	0.0	1	12.04	1	253.85	1	null	6	989.42	1	41.168724	15.52385
859	2024-02-05 18:00:00	22	candela_ex_comes	11.91	1	69.27	1	0.0	1	10.68	1	250.92	1	null	6	989.8	1	41.168724	15.52385
860	2024-02-05 19:00:00	22	candela_ex_comes	11.28	1	71.2	1	0.0	1	11.45	1	252.5	1	null	6	990.38	1	41.168724	15.52385
861	2024-02-05 20:00:00	22	candela_ex_comes	10.67	1	73.39	1	0.0	1	10.23	1	248.68	1	null	6	990.7	1	41.168724	15.52385
862	2024-02-05 21:00:00	22	candela_ex_comes	10.42	1	74.14	1	0.0	1	8.99	1	248.52	1	null	6	990.98	1	41.168724	15.52385
863	2024-02-05 22:00:00	22	candela_ex_comes	10.36	1	73.69	1	0.0	1	8.81	1	246.52	1	null	6	991.35	1	41.168724	15.52385
864	2024-02-05 23:00:00	22	candela_ex_comes	10.41	1	73.25	1	0.0	1	9.05	1	243.3	1	null	6	991.06	1	41.168724	15.52385
865	2024-02-06 00:00:00	22	candela_ex_comes	10.72	1	72.25	1	0.0	1	12.02	1	250.09	1	null	6	990.8	1	41.168724	15.52385
866	2024-02-06 01:00:00	22	candela_ex_comes	10.73	1	72.43	1	0.0	1	10.62	1	251.29	1	null	6	991.03	1	41.168724	15.52385
867	2024-02-06 02:00:00	22	candela_ex_comes	10.61	1	72.88	1	0.0	1	9.73	1	248.97	1	null	6	990.81	1	41.168724	15.52385
868	2024-02-06 03:00:00	22	candela_ex_comes	10.77	1	74.2	1	0.0	1	9.73	1	253.55	1	null	6	990.51	1	41.168724	15.52385
869	2024-02-06 04:00:00	22	candela_ex_comes	10.88	1	74.42	1	0.0	1	9.78	1	250.69	1	null	6	990.07	1	41.168724	15.52385
870	2024-02-06 05:00:00	22	candela_ex_comes	10.92	1	74.0	1	0.0	1	9.73	1	249.99	1	null	6	989.92	1	41.168724	15.52385
871	2024-02-06 06:00:00	22	candela_ex_comes	10.81	1	75.45	1	0.0	1	9.04	1	251.77	1	null	6	989.81	1	41.168724	15.52385
872	2024-02-06 07:00:00	22	candela_ex_comes	10.85	1	74.98	1	0.0	1	9.08	1	249.26	1	null	6	989.68	1	41.168724	15.52385
873	2024-02-06 08:00:00	22	candela_ex_comes	10.82	1	73.27	1	0.0	1	7.78	1	245.81	1	null	6	989.73	1	41.168724	15.52385
874	2024-02-06 09:00:00	22	candela_ex_comes	11.55	1	70.79	1	0.0	1	8.47	1	253.38	1	null	6	989.89	1	41.168724	15.52385
875	2024-02-06 10:00:00	22	candela_ex_comes	12.39	1	67.1	1	0.0	1	10.05	1	258.04	1	null	6	989.92	1	41.168724	15.52385
876	2024-02-06 11:00:00	22	candela_ex_comes	13.33	1	63.83	1	0.0	1	7.88	1	278.63	1	null	6	990.02	1	41.168724	15.52385
877	2024-02-06 12:00:00	22	candela_ex_comes	14.2	1	60.17	1	0.0	1	7.8	1	267.17	1	null	6	989.82	1	41.168724	15.52385
878	2024-02-06 13:00:00	22	candela_ex_comes	14.83	1	58.08	1	0.0	1	8.36	1	259.29	1	null	6	988.99	1	41.168724	15.52385
879	2024-02-06 14:00:00	22	candela_ex_comes	15.54	1	55.25	1	0.0	1	5.71	1	282.63	1	null	6	988.31	1	41.168724	15.52385
880	2024-02-06 15:00:00	22	candela_ex_comes	15.93	1	54.29	1	0.0	1	6.35	1	285.11	1	null	6	987.82	1	41.168724	15.52385
881	2024-02-06 16:00:00	22	candela_ex_comes	15.85	1	53.51	1	0.0	1	5.23	1	279.37	1	null	6	987.67	1	41.168724	15.52385
882	2024-02-06 17:00:00	22	candela_ex_comes	14.91	1	56.79	1	0.0	1	5.57	1	269.72	1	null	6	987.5	1	41.168724	15.52385
883	2024-02-06 18:00:00	22	candela_ex_comes	13.24	1	63.81	1	0.0	1	5.03	1	257.12	1	null	6	987.5	1	41.168724	15.52385
884	2024-02-06 19:00:00	22	candela_ex_comes	12.09	1	68.18	1	0.0	1	3.43	1	218.01	1	null	6	987.8	1	41.168724	15.52385
885	2024-02-06 20:00:00	22	candela_ex_comes	11.63	1	71.2	1	0.0	1	4.07	1	247.11	1	null	6	987.82	1	41.168724	15.52385
886	2024-02-06 21:00:00	22	candela_ex_comes	10.94	1	75.1	1	0.0	1	4.77	1	235.07	1	null	6	987.85	1	41.168724	15.52385
887	2024-02-06 22:00:00	22	candela_ex_comes	10.47	1	75.05	1	0.0	1	4.46	1	230.85	1	null	6	987.73	1	41.168724	15.52385
888	2024-02-06 23:00:00	22	candela_ex_comes	9.75	1	78.68	1	0.0	1	5.34	1	242.11	1	null	6	987.42	1	41.168724	15.52385
889	2024-02-07 00:00:00	22	candela_ex_comes	9.44	1	78.74	1	0.0	1	5.05	1	232.57	1	null	6	986.94	1	41.168724	15.52385
890	2024-02-07 01:00:00	22	candela_ex_comes	9.59	1	78.32	1	0.0	1	5.84	1	219.6	1	null	6	986.51	1	41.168724	15.52385
891	2024-02-07 02:00:00	22	candela_ex_comes	9.29	1	79.37	1	0.0	1	4.12	1	216.54	1	null	6	986.16	1	41.168724	15.52385
892	2024-02-07 03:00:00	22	candela_ex_comes	9.47	1	76.56	1	0.0	1	4.95	1	209.02	1	null	6	985.5	1	41.168724	15.52385
893	2024-02-07 04:00:00	22	candela_ex_comes	9.29	1	80.1	1	0.0	1	6.54	1	235.75	1	null	6	984.66	1	41.168724	15.52385
894	2024-02-07 05:00:00	22	candela_ex_comes	9.45	1	80.35	1	0.0	1	7.49	1	238.18	1	null	6	984.35	1	41.168724	15.52385
895	2024-02-07 06:00:00	22	candela_ex_comes	9.73	1	78.56	1	0.0	1	8.23	1	239.84	1	null	6	983.95	1	41.168724	15.52385
896	2024-02-07 07:00:00	22	candela_ex_comes	9.6	1	78.97	1	0.0	1	9.95	1	238.5	1	null	6	983.62	1	41.168724	15.52385
897	2024-02-07 08:00:00	22	candela_ex_comes	9.64	1	78.81	1	0.0	1	9.55	1	247.29	1	null	6	983.79	1	41.168724	15.52385
898	2024-02-07 09:00:00	22	candela_ex_comes	10.04	1	76.65	1	0.0	1	6.54	1	248.46	1	null	6	984.05	1	41.168724	15.52385
899	2024-02-07 10:00:00	22	candela_ex_comes	10.81	1	72.69	1	0.0	1	8.51	1	244.91	1	null	6	983.77	1	41.168724	15.52385
900	2024-02-07 11:00:00	22	candela_ex_comes	11.87	1	69.45	1	0.0	1	5.79	1	243.03	1	null	6	983.45	1	41.168724	15.52385
901	2024-02-07 12:00:00	22	candela_ex_comes	14.65	1	58.42	1	0.0	1	5.64	1	228.7	1	null	6	982.3	1	41.168724	15.52385
902	2024-02-07 13:00:00	22	candela_ex_comes	15.92	1	50.73	1	0.0	1	8.66	1	247.14	1	null	6	981.39	1	41.168724	15.52385
903	2024-02-07 14:00:00	22	candela_ex_comes	16.02	1	50.25	1	0.0	1	9.97	1	252.14	1	null	6	980.62	1	41.168724	15.52385
904	2024-02-07 15:00:00	22	candela_ex_comes	15.57	1	53.16	1	0.0	1	11.03	1	247.95	1	null	6	979.92	1	41.168724	15.52385
905	2024-02-07 16:00:00	22	candela_ex_comes	15.21	1	54.72	1	0.0	1	9.13	1	249.32	1	null	6	979.78	1	41.168724	15.52385
906	2024-02-07 17:00:00	22	candela_ex_comes	14.89	1	54.53	1	0.0	1	5.25	1	247.9	1	null	6	979.93	1	41.168724	15.52385
907	2024-02-07 18:00:00	22	candela_ex_comes	13.12	1	62.6	1	0.0	1	2.12	1	212.78	1	null	6	979.99	1	41.168724	15.52385
908	2024-02-07 19:00:00	22	candela_ex_comes	12.05	1	69.31	1	0.0	1	4.7	1	221.19	1	null	6	980.01	1	41.168724	15.52385
909	2024-02-07 20:00:00	22	candela_ex_comes	11.27	1	71.27	1	0.0	1	3.82	1	236.83	1	null	6	979.95	1	41.168724	15.52385
910	2024-02-07 21:00:00	22	candela_ex_comes	10.75	1	73.65	1	0.0	1	6.12	1	240.92	1	null	6	979.83	1	41.168724	15.52385
911	2024-02-07 22:00:00	22	candela_ex_comes	10.12	1	75.67	1	0.0	1	4.67	1	226.31	1	null	6	979.85	1	41.168724	15.52385
912	2024-02-07 23:00:00	22	candela_ex_comes	9.67	1	75.61	1	0.0	1	4.17	1	223.04	1	null	6	979.71	1	41.168724	15.52385
913	2024-02-08 00:00:00	22	candela_ex_comes	9.87	1	71.38	1	0.0	1	3.65	1	224.47	1	null	6	979.57	1	41.168724	15.52385
914	2024-02-08 01:00:00	22	candela_ex_comes	9.6	1	71.56	1	0.0	1	3.29	1	216.09	1	null	6	979.47	1	41.168724	15.52385
915	2024-02-08 02:00:00	22	candela_ex_comes	10.07	1	71.56	1	0.0	1	3.68	1	233.42	1	null	6	979.25	1	41.168724	15.52385
916	2024-02-08 03:00:00	22	candela_ex_comes	10.04	1	71.41	1	0.0	1	5.83	1	253.81	1	null	6	978.68	1	41.168724	15.52385
917	2024-02-08 04:00:00	22	candela_ex_comes	9.84	1	71.88	1	0.0	1	6.64	1	255.85	1	null	6	978.18	1	41.168724	15.52385
918	2024-02-08 05:00:00	22	candela_ex_comes	10.7	1	69.73	1	0.0	1	9.29	1	250.3	1	null	6	977.8	1	41.168724	15.52385
919	2024-02-08 06:00:00	22	candela_ex_comes	10.67	1	71.4	1	0.0	1	10.58	1	248.98	1	null	6	977.95	1	41.168724	15.52385
920	2024-02-08 07:00:00	22	candela_ex_comes	10.43	1	75.28	1	0.0	1	9.23	1	244.32	1	null	6	978.4	1	41.168724	15.52385
921	2024-02-08 08:00:00	22	candela_ex_comes	10.03	1	78.48	1	0.0	1	6.88	1	240.39	1	null	6	978.89	1	41.168724	15.52385
922	2024-02-08 09:00:00	22	candela_ex_comes	10.98	1	71.56	1	0.0	1	9.95	1	253.28	1	null	6	979.15	1	41.168724	15.52385
923	2024-02-08 10:00:00	22	candela_ex_comes	12.15	1	63.52	1	0.0	1	13.2	1	256.24	1	null	6	979.23	1	41.168724	15.52385
924	2024-02-08 11:00:00	22	candela_ex_comes	12.97	1	59.84	1	0.0	1	14.11	1	255.72	1	null	6	979.48	1	41.168724	15.52385
925	2024-02-08 12:00:00	22	candela_ex_comes	13.78	1	54.59	1	0.0	1	14.58	1	259.02	1	null	6	979.53	1	41.168724	15.52385
926	2024-02-08 13:00:00	22	candela_ex_comes	14.27	1	54.76	1	0.0	1	13.57	1	261.51	1	null	6	978.93	1	41.168724	15.52385
927	2024-02-08 14:00:00	22	candela_ex_comes	14.7	1	53.61	1	0.0	1	11.89	1	260.67	1	null	6	978.66	1	41.168724	15.52385
928	2024-02-08 15:00:00	22	candela_ex_comes	14.92	1	52.39	1	0.0	1	11.48	1	270.83	1	null	6	978.3	1	41.168724	15.52385
929	2024-02-08 16:00:00	22	candela_ex_comes	14.7	1	55.24	1	0.0	1	10.02	1	265.34	1	null	6	978.45	1	41.168724	15.52385
930	2024-02-08 17:00:00	22	candela_ex_comes	14.0	1	58.1	1	0.0	1	9.98	1	256.56	1	null	6	978.22	1	41.168724	15.52385
931	2024-02-08 18:00:00	22	candela_ex_comes	12.99	1	61.69	1	0.0	1	9.45	1	250.94	1	null	6	978.14	1	41.168724	15.52385
932	2024-02-08 19:00:00	22	candela_ex_comes	11.96	1	64.71	1	0.0	1	9.3	1	250.42	1	null	6	978.4	1	41.168724	15.52385
933	2024-02-08 20:00:00	22	candela_ex_comes	11.49	1	67.56	1	0.0	1	9.88	1	245.05	1	null	6	978.82	1	41.168724	15.52385
934	2024-02-08 21:00:00	22	candela_ex_comes	10.71	1	71.58	1	0.0	1	5.15	1	229.47	1	null	6	978.92	1	41.168724	15.52385
935	2024-02-08 22:00:00	22	candela_ex_comes	10.14	1	75.33	1	0.0	1	6.5	1	238.24	1	null	6	979.0	1	41.168724	15.52385
936	2024-02-08 23:00:00	22	candela_ex_comes	9.86	1	74.16	1	0.0	1	8.69	1	247.98	1	null	6	978.72	1	41.168724	15.52385
937	2024-02-09 00:00:00	22	candela_ex_comes	9.96	1	72.94	1	0.0	1	6.33	1	235.56	1	null	6	979.15	1	41.168724	15.52385
938	2024-02-09 01:00:00	22	candela_ex_comes	9.49	1	75.24	1	0.0	1	5.35	1	234.24	1	null	6	978.46	1	41.168724	15.52385
939	2024-02-09 02:00:00	22	candela_ex_comes	9.58	1	73.12	1	0.0	1	5.25	1	244.38	1	null	6	978.17	1	41.168724	15.52385
940	2024-02-09 03:00:00	22	candela_ex_comes	10.03	1	71.12	1	0.0	1	3.32	1	204.66	1	null	6	977.82	1	41.168724	15.52385
941	2024-02-09 04:00:00	22	candela_ex_comes	10.09	1	67.44	1	0.0	1	4.43	1	222.61	1	null	6	977.05	1	41.168724	15.52385
942	2024-02-09 05:00:00	22	candela_ex_comes	9.87	1	67.82	1	0.0	1	5.45	1	227.4	1	null	6	977.13	1	41.168724	15.52385
943	2024-02-09 06:00:00	22	candela_ex_comes	9.64	1	70.13	1	0.0	1	4.64	1	220.26	1	null	6	977.04	1	41.168724	15.52385
944	2024-02-09 07:00:00	22	candela_ex_comes	9.37	1	73.47	1	0.0	1	3.03	1	205.65	1	null	6	976.89	1	41.168724	15.52385
945	2024-02-09 08:00:00	22	candela_ex_comes	9.93	1	74.38	1	0.0	1	3.57	1	203.94	1	null	6	976.85	1	41.168724	15.52385
946	2024-02-09 09:00:00	22	candela_ex_comes	11.01	1	71.2	1	0.0	1	4.98	1	224.29	1	null	6	976.78	1	41.168724	15.52385
947	2024-02-09 10:00:00	22	candela_ex_comes	12.62	1	65.95	1	0.0	1	4.28	1	229.86	1	null	6	976.91	1	41.168724	15.52385
948	2024-02-09 11:00:00	22	candela_ex_comes	14.13	1	60.49	1	0.0	1	4.45	1	232.72	1	null	6	976.73	1	41.168724	15.52385
949	2024-02-09 12:00:00	22	candela_ex_comes	15.54	1	49.72	1	0.0	1	6.74	1	235.46	1	null	6	976.02	1	41.168724	15.52385
950	2024-02-09 13:00:00	22	candela_ex_comes	16.14	1	45.04	1	0.0	1	7.24	1	240.62	1	null	6	974.98	1	41.168724	15.52385
951	2024-02-09 14:00:00	22	candela_ex_comes	15.87	1	47.35	1	0.0	1	5.38	1	221.36	1	null	6	974.65	1	41.168724	15.52385
952	2024-02-09 15:00:00	22	candela_ex_comes	15.09	1	47.76	1	0.0	1	2.62	1	182.42	1	null	6	974.28	1	41.168724	15.52385
953	2024-02-09 16:00:00	22	candela_ex_comes	14.85	1	44.41	1	0.0	1	4.46	1	207.22	1	null	6	973.87	1	41.168724	15.52385
954	2024-02-09 17:00:00	22	candela_ex_comes	14.85	1	42.34	1	0.0	1	3.91	1	193.59	1	null	6	973.29	1	41.168724	15.52385
955	2024-02-09 18:00:00	22	candela_ex_comes	14.6	1	43.44	1	0.0	1	3.93	1	194.41	1	null	6	972.93	1	41.168724	15.52385
956	2024-02-09 19:00:00	22	candela_ex_comes	14.56	1	41.75	1	0.0	1	2.63	1	184.25	1	null	6	973.03	1	41.168724	15.52385
957	2024-02-09 20:00:00	22	candela_ex_comes	14.14	1	42.07	1	0.0	1	1.6	1	147.47	1	null	6	972.76	1	41.168724	15.52385
958	2024-02-09 21:00:00	22	candela_ex_comes	13.34	1	45.26	1	0.0	1	1.85	1	160.47	1	null	6	972.9	1	41.168724	15.52385
959	2024-02-09 22:00:00	22	candela_ex_comes	11.95	1	51.84	1	0.0	1	2.69	1	168.34	1	null	6	972.68	1	41.168724	15.52385
960	2024-02-09 23:00:00	22	candela_ex_comes	11.88	1	53.88	1	0.0	1	2.37	1	229.74	1	null	6	972.28	1	41.168724	15.52385
961	2024-02-10 00:00:00	22	candela_ex_comes	10.67	1	61.19	1	0.0	1	3.26	1	143.93	1	null	6	971.87	1	41.168724	15.52385
962	2024-02-10 01:00:00	22	candela_ex_comes	10.58	1	63.01	1	0.0	1	3.32	1	151.89	1	null	6	971.45	1	41.168724	15.52385
963	2024-02-10 02:00:00	22	candela_ex_comes	10.81	1	60.9	1	0.0	1	3.98	1	143.59	1	null	6	970.71	1	41.168724	15.52385
964	2024-02-10 03:00:00	22	candela_ex_comes	12.24	1	51.48	1	0.0	1	5.22	1	126.69	1	null	6	970.01	1	41.168724	15.52385
965	2024-02-10 04:00:00	22	candela_ex_comes	13.05	1	49.74	1	0.0	1	6.06	1	132.71	1	null	6	969.74	1	41.168724	15.52385
966	2024-02-10 05:00:00	22	candela_ex_comes	12.31	1	54.72	1	0.0	1	5.01	1	139.36	1	null	6	969.54	1	41.168724	15.52385
967	2024-02-10 06:00:00	22	candela_ex_comes	13.14	1	51.12	1	0.0	1	6.13	1	159.78	1	null	6	969.12	1	41.168724	15.52385
968	2024-02-10 07:00:00	22	candela_ex_comes	13.16	1	52.41	1	0.0	1	5.64	1	151.44	1	null	6	968.67	1	41.168724	15.52385
969	2024-02-10 08:00:00	22	candela_ex_comes	11.6	1	59.5	1	0.0	1	4.98	1	143.1	1	null	6	968.84	1	41.168724	15.52385
970	2024-02-10 09:00:00	22	candela_ex_comes	13.22	1	57.69	1	0.0	1	4.2	1	151.6	1	null	6	969.19	1	41.168724	15.52385
971	2024-02-10 10:00:00	22	candela_ex_comes	14.06	1	60.14	1	0.0	1	4.79	1	204.85	1	null	6	969.43	1	41.168724	15.52385
972	2024-02-10 11:00:00	22	candela_ex_comes	13.21	1	68.49	1	0.0	1	4.29	1	173.03	1	null	6	969.32	1	41.168724	15.52385
973	2024-02-10 12:00:00	22	candela_ex_comes	13.42	1	71.07	1	0.0	1	5.1	1	127.6	1	null	6	968.26	1	41.168724	15.52385
974	2024-02-10 13:00:00	22	candela_ex_comes	13.42	1	66.0	1	0.0	1	4.57	1	186.68	1	null	6	967.47	1	41.168724	15.52385
975	2024-02-10 14:00:00	22	candela_ex_comes	12.68	1	66.46	1	0.0	1	6.53	1	188.2	1	null	6	966.62	1	41.168724	15.52385
976	2024-02-10 15:00:00	22	candela_ex_comes	12.48	1	68.61	1	0.0	1	3.93	1	172.52	1	null	6	965.72	1	41.168724	15.52385
977	2024-02-10 16:00:00	22	candela_ex_comes	12.43	1	69.99	1	0.0	1	3.05	1	178.84	1	null	6	965.36	1	41.168724	15.52385
978	2024-02-10 17:00:00	22	candela_ex_comes	12.34	1	69.5	1	0.0	1	2.62	1	173.02	1	null	6	964.69	1	41.168724	15.52385
979	2024-02-10 18:00:00	22	candela_ex_comes	11.82	1	72.35	1	0.0	1	1.67	1	140.59	1	null	6	964.08	1	41.168724	15.52385
980	2024-02-10 19:00:00	22	candela_ex_comes	11.46	1	74.62	1	0.0	1	2.79	1	145.63	1	null	6	963.74	1	41.168724	15.52385
981	2024-02-10 20:00:00	22	candela_ex_comes	11.39	1	75.83	1	0.0	1	3.76	1	152.35	1	null	6	963.19	1	41.168724	15.52385
982	2024-02-10 21:00:00	22	candela_ex_comes	11.98	1	73.0	1	0.0	1	5.0	1	151.23	1	null	6	962.6	1	41.168724	15.52385
983	2024-02-10 22:00:00	22	candela_ex_comes	12.3	1	72.0	1	0.0	1	6.78	1	187.92	1	null	6	962.29	1	41.168724	15.52385
984	2024-02-10 23:00:00	22	candela_ex_comes	12.25	1	73.01	1	0.0	1	7.59	1	204.68	1	null	6	962.91	1	41.168724	15.52385
985	2024-02-11 00:00:00	22	candela_ex_comes	12.0	1	69.14	1	0.0	1	7.03	1	198.05	1	null	6	962.74	1	41.168724	15.52385
986	2024-02-11 01:00:00	22	candela_ex_comes	12.05	1	71.06	1	0.0	1	5.51	1	192.0	1	null	6	962.4	1	41.168724	15.52385
987	2024-02-11 02:00:00	22	candela_ex_comes	12.36	1	69.49	1	0.0	1	6.93	1	194.83	1	null	6	962.38	1	41.168724	15.52385
988	2024-02-11 03:00:00	22	candela_ex_comes	12.06	1	69.16	1	0.0	1	9.06	1	207.17	1	null	6	962.17	1	41.168724	15.52385
989	2024-02-11 04:00:00	22	candela_ex_comes	11.9	1	72.45	1	0.0	1	5.45	1	195.7	1	null	6	962.37	1	41.168724	15.52385
990	2024-02-11 05:00:00	22	candela_ex_comes	11.8	1	72.4	1	0.0	1	5.17	1	176.51	1	null	6	961.99	1	41.168724	15.52385
991	2024-02-11 06:00:00	22	candela_ex_comes	11.76	1	72.71	1	0.0	1	5.21	1	188.84	1	null	6	961.73	1	41.168724	15.52385
992	2024-02-11 07:00:00	22	candela_ex_comes	11.45	1	70.48	1	0.0	1	3.3	1	191.59	1	null	6	961.96	1	41.168724	15.52385
993	2024-02-11 08:00:00	22	candela_ex_comes	11.23	1	73.11	1	0.0	1	3.9	1	224.29	1	null	6	962.33	1	41.168724	15.52385
994	2024-02-11 09:00:00	22	candela_ex_comes	10.74	1	79.87	1	0.0	1	2.77	1	201.59	1	null	6	962.9	1	41.168724	15.52385
995	2024-02-11 10:00:00	22	candela_ex_comes	10.71	1	78.1	1	0.6	1	4.26	1	194.6	1	null	6	963.51	1	41.168724	15.52385
996	2024-02-11 11:00:00	22	candela_ex_comes	10.08	1	82.58	1	2.0	1	4.62	1	230.94	1	null	6	964.24	1	41.168724	15.52385
997	2024-02-11 12:00:00	22	candela_ex_comes	10.26	1	81.61	1	0.6	1	5.28	1	234.49	1	null	6	964.45	1	41.168724	15.52385
998	2024-02-11 13:00:00	22	candela_ex_comes	10.58	1	76.52	1	0.0	1	4.35	1	204.64	1	null	6	964.49	1	41.168724	15.52385
999	2024-02-11 14:00:00	22	candela_ex_comes	10.32	1	74.8	1	0.0	1	7.39	1	253.2	1	null	6	964.38	1	41.168724	15.52385
1000	2024-02-11 15:00:00	22	candela_ex_comes	9.99	1	73.47	1	0.0	1	6.09	1	236.24	1	null	6	964.25	1	41.168724	15.52385
1001	2024-02-11 16:00:00	22	candela_ex_comes	10.58	1	67.51	1	0.0	1	5.55	1	214.47	1	null	6	964.05	1	41.168724	15.52385
1002	2024-02-11 17:00:00	22	candela_ex_comes	9.54	1	67.33	1	0.0	1	5.09	1	216.17	1	null	6	963.89	1	41.168724	15.52385
1003	2024-02-11 18:00:00	22	candela_ex_comes	10.35	1	67.56	1	0.0	1	4.32	1	211.54	1	null	6	964.62	1	41.168724	15.52385
1004	2024-02-11 19:00:00	22	candela_ex_comes	9.85	1	69.52	1	0.0	1	4.33	1	217.87	1	null	6	965.69	1	41.168724	15.52385
1005	2024-02-11 20:00:00	22	candela_ex_comes	9.34	1	70.24	1	0.0	1	3.14	1	210.9	1	null	6	965.9	1	41.168724	15.52385
1006	2024-02-11 21:00:00	22	candela_ex_comes	9.72	1	69.32	1	0.0	1	2.2	1	165.37	1	null	6	965.97	1	41.168724	15.52385
1007	2024-02-11 22:00:00	22	candela_ex_comes	9.34	1	70.21	1	0.0	1	4.65	1	247.91	1	null	6	966.6	1	41.168724	15.52385
1008	2024-02-11 23:00:00	22	candela_ex_comes	9.16	1	71.79	1	0.0	1	3.01	1	53.67	1	null	6	966.93	1	41.168724	15.52385
1009	2024-02-12 00:00:00	22	candela_ex_comes	9.2	1	71.54	1	0.0	1	2.59	1	208.25	1	null	6	967.18	1	41.168724	15.52385
1010	2024-02-12 01:00:00	22	candela_ex_comes	8.81	1	72.88	1	0.0	1	1.84	1	194.63	1	null	6	967.37	1	41.168724	15.52385
1011	2024-02-12 02:00:00	22	candela_ex_comes	8.71	1	72.92	1	0.0	1	4.64	1	227.92	1	null	6	967.58	1	41.168724	15.52385
1012	2024-02-12 03:00:00	22	candela_ex_comes	8.35	1	75.9	1	0.0	1	4.28	1	229.96	1	null	6	967.2	1	41.168724	15.52385
1013	2024-02-12 04:00:00	22	candela_ex_comes	8.37	1	76.45	1	0.0	1	2.48	1	249.24	1	null	6	967.41	1	41.168724	15.52385
1014	2024-02-12 05:00:00	22	candela_ex_comes	8.44	1	76.08	1	0.0	1	4.88	1	253.54	1	null	6	967.99	1	41.168724	15.52385
1015	2024-02-12 06:00:00	22	candela_ex_comes	8.44	1	78.3	1	0.0	1	5.94	1	247.87	1	null	6	968.39	1	41.168724	15.52385
1016	2024-02-12 07:00:00	22	candela_ex_comes	7.9	1	80.83	1	0.0	1	5.75	1	253.29	1	null	6	968.78	1	41.168724	15.52385
1017	2024-02-12 08:00:00	22	candela_ex_comes	7.63	1	83.59	1	0.0	1	6.48	1	250.27	1	null	6	969.4	1	41.168724	15.52385
1018	2024-02-12 09:00:00	22	candela_ex_comes	9.09	1	80.05	1	0.0	1	6.27	1	245.12	1	null	6	970.19	1	41.168724	15.52385
1019	2024-02-12 10:00:00	22	candela_ex_comes	10.41	1	72.74	1	0.0	1	8.19	1	255.13	1	null	6	970.59	1	41.168724	15.52385
1020	2024-02-12 11:00:00	22	candela_ex_comes	11.19	1	68.0	1	0.0	1	7.85	1	250.71	1	null	6	970.86	1	41.168724	15.52385
1021	2024-02-12 12:00:00	22	candela_ex_comes	12.04	1	62.08	1	0.0	1	7.28	1	266.26	1	null	6	970.89	1	41.168724	15.52385
1022	2024-02-12 13:00:00	22	candela_ex_comes	12.64	1	58.54	1	0.0	1	6.03	1	271.84	1	null	6	970.59	1	41.168724	15.52385
1023	2024-02-12 14:00:00	22	candela_ex_comes	13.26	1	56.31	1	0.0	1	6.66	1	276.08	1	null	6	970.4	1	41.168724	15.52385
1024	2024-02-12 15:00:00	22	candela_ex_comes	12.88	1	58.69	1	0.0	1	6.33	1	278.56	1	null	6	970.45	1	41.168724	15.52385
1025	2024-02-12 16:00:00	22	candela_ex_comes	13.25	1	57.33	1	0.0	1	5.85	1	275.18	1	null	6	970.81	1	41.168724	15.52385
1026	2024-02-12 17:00:00	22	candela_ex_comes	12.85	1	59.64	1	0.0	1	4.19	1	278.21	1	null	6	971.25	1	41.168724	15.52385
1027	2024-02-12 18:00:00	22	candela_ex_comes	11.17	1	67.28	1	0.0	1	4.55	1	317.17	1	null	6	972.25	1	41.168724	15.52385
1028	2024-02-12 19:00:00	22	candela_ex_comes	9.24	1	78.48	1	0.4	1	4.04	1	320.3	1	null	6	973.21	1	41.168724	15.52385
1029	2024-02-12 20:00:00	22	candela_ex_comes	9.21	1	84.5	1	0.0	1	1.98	1	237.86	1	null	6	974.0	1	41.168724	15.52385
1030	2024-02-12 21:00:00	22	candela_ex_comes	9.23	1	84.21	1	0.4	1	1.17	1	281.83	1	null	6	974.59	1	41.168724	15.52385
1031	2024-02-12 22:00:00	22	candela_ex_comes	9.26	1	82.92	1	0.0	1	1.3	1	127.66	1	null	6	975.05	1	41.168724	15.52385
1032	2024-02-12 23:00:00	22	candela_ex_comes	9.17	1	83.67	1	0.0	1	1.78	1	242.66	1	null	6	975.39	1	41.168724	15.52385
1033	2024-02-13 00:00:00	22	candela_ex_comes	9.14	1	83.42	1	0.0	1	1.65	1	245.73	1	null	6	975.86	1	41.168724	15.52385
1034	2024-02-13 01:00:00	22	candela_ex_comes	8.97	1	78.77	1	0.0	1	1.56	1	253.82	1	null	6	976.12	1	41.168724	15.52385
1035	2024-02-13 02:00:00	22	candela_ex_comes	7.78	1	83.27	1	0.0	1	2.72	1	245.98	1	null	6	976.24	1	41.168724	15.52385
1036	2024-02-13 03:00:00	22	candela_ex_comes	7.31	1	84.21	1	0.0	1	3.21	1	242.1	1	null	6	976.65	1	41.168724	15.52385
1037	2024-02-13 04:00:00	22	candela_ex_comes	6.86	1	85.5	1	0.0	1	3.79	1	248.94	1	null	6	977.01	1	41.168724	15.52385
1038	2024-02-13 05:00:00	22	candela_ex_comes	6.39	1	86.24	1	0.0	1	4.28	1	247.69	1	null	6	977.49	1	41.168724	15.52385
1039	2024-02-13 06:00:00	22	candela_ex_comes	5.91	1	86.99	1	0.0	1	4.67	1	248.43	1	null	6	978.04	1	41.168724	15.52385
1040	2024-02-13 07:00:00	22	candela_ex_comes	5.75	1	88.5	1	0.0	1	4.91	1	244.37	1	null	6	978.56	1	41.168724	15.52385
1041	2024-02-13 08:00:00	22	candela_ex_comes	6.03	1	88.78	1	0.0	1	3.49	1	249.54	1	null	6	979.69	1	41.168724	15.52385
1042	2024-02-13 09:00:00	22	candela_ex_comes	6.97	1	88.01	1	0.0	1	2.76	1	248.35	1	null	6	980.44	1	41.168724	15.52385
1043	2024-02-13 10:00:00	22	candela_ex_comes	9.11	1	83.01	1	0.0	1	2.26	1	330.8	1	null	6	980.68	1	41.168724	15.52385
1044	2024-02-13 11:00:00	22	candela_ex_comes	9.56	1	81.01	1	0.0	1	6.21	1	324.24	1	null	6	980.96	1	41.168724	15.52385
1045	2024-02-13 12:00:00	22	candela_ex_comes	10.09	1	77.49	1	0.0	1	5.56	1	331.8	1	null	6	981.1	1	41.168724	15.52385
1046	2024-02-13 13:00:00	22	candela_ex_comes	9.89	1	78.55	1	0.0	1	6.39	1	334.08	1	null	6	981.1	1	41.168724	15.52385
1047	2024-02-13 14:00:00	22	candela_ex_comes	9.42	1	79.86	1	0.0	1	7.51	1	318.45	1	null	6	981.05	1	41.168724	15.52385
1048	2024-02-13 15:00:00	22	candela_ex_comes	9.08	1	81.15	1	0.2	1	7.12	1	319.11	1	null	6	981.29	1	41.168724	15.52385
1049	2024-02-13 16:00:00	22	candela_ex_comes	8.85	1	85.86	1	0.0	1	7.58	1	318.8	1	null	6	981.78	1	41.168724	15.52385
1050	2024-02-13 17:00:00	22	candela_ex_comes	8.7	1	83.38	1	0.6	1	9.28	1	320.21	1	null	6	982.32	1	41.168724	15.52385
1051	2024-02-13 18:00:00	22	candela_ex_comes	8.77	1	87.08	1	1.2	1	8.41	1	323.65	1	null	6	983.01	1	41.168724	15.52385
1052	2024-02-13 19:00:00	22	candela_ex_comes	8.8	1	85.53	1	0.0	1	7.19	1	330.33	1	null	6	983.95	1	41.168724	15.52385
1053	2024-02-13 20:00:00	22	candela_ex_comes	7.93	1	85.68	1	0.0	1	4.26	1	308.89	1	null	6	984.41	1	41.168724	15.52385
1054	2024-02-13 21:00:00	22	candela_ex_comes	7.92	1	81.95	1	0.0	1	4.31	1	339.25	1	null	6	984.84	1	41.168724	15.52385
1055	2024-02-13 22:00:00	22	candela_ex_comes	7.5	1	83.15	1	0.0	1	2.6	1	35.83	1	null	6	985.29	1	41.168724	15.52385
1056	2024-02-13 23:00:00	22	candela_ex_comes	7.66	1	86.72	1	0.0	1	6.51	1	316.96	1	null	6	985.44	1	41.168724	15.52385
1057	2024-02-14 00:00:00	22	candela_ex_comes	7.46	1	87.25	1	0.0	1	6.13	1	311.76	1	null	6	985.71	1	41.168724	15.52385
1058	2024-02-14 01:00:00	22	candela_ex_comes	7.19	1	76.67	1	0.0	1	6.26	1	308.76	1	null	6	986.13	1	41.168724	15.52385
1059	2024-02-14 02:00:00	22	candela_ex_comes	6.96	1	75.53	1	0.0	1	1.68	1	349.25	1	null	6	986.51	1	41.168724	15.52385
1060	2024-02-14 03:00:00	22	candela_ex_comes	6.7	1	78.53	1	0.0	1	4.58	1	309.02	1	null	6	986.59	1	41.168724	15.52385
1061	2024-02-14 04:00:00	22	candela_ex_comes	6.77	1	79.27	1	0.0	1	5.32	1	301.05	1	null	6	986.54	1	41.168724	15.52385
1062	2024-02-14 05:00:00	22	candela_ex_comes	6.6	1	79.03	1	0.0	1	5.08	1	299.19	1	null	6	987.08	1	41.168724	15.52385
1063	2024-02-14 06:00:00	22	candela_ex_comes	5.97	1	79.37	1	0.0	1	3.83	1	309.03	1	null	6	987.66	1	41.168724	15.52385
1064	2024-02-14 07:00:00	22	candela_ex_comes	6.08	1	79.46	1	0.0	1	2.23	1	314.01	1	null	6	988.01	1	41.168724	15.52385
1065	2024-02-14 08:00:00	22	candela_ex_comes	6.53	1	80.17	1	0.0	1	2.7	1	309.75	1	null	6	988.42	1	41.168724	15.52385
1066	2024-02-14 09:00:00	22	candela_ex_comes	7.84	1	75.6	1	0.0	1	4.89	1	319.02	1	null	6	988.84	1	41.168724	15.52385
1067	2024-02-14 10:00:00	22	candela_ex_comes	8.95	1	68.93	1	0.0	1	7.11	1	325.1	1	null	6	988.78	1	41.168724	15.52385
1068	2024-02-14 11:00:00	22	candela_ex_comes	9.91	1	60.25	1	0.0	1	9.45	1	336.5	1	null	6	989.12	1	41.168724	15.52385
1069	2024-02-14 12:00:00	22	candela_ex_comes	10.72	1	52.72	1	0.0	1	9.54	1	341.16	1	null	6	989.27	1	41.168724	15.52385
1070	2024-02-14 13:00:00	22	candela_ex_comes	11.21	1	46.14	1	0.0	1	10.83	1	339.6	1	null	6	988.97	1	41.168724	15.52385
1071	2024-02-14 14:00:00	22	candela_ex_comes	11.37	1	45.26	1	0.0	1	11.37	1	339.45	1	null	6	988.67	1	41.168724	15.52385
1072	2024-02-14 15:00:00	22	candela_ex_comes	11.37	1	45.07	1	0.0	1	10.7	1	338.56	1	null	6	988.6	1	41.168724	15.52385
1073	2024-02-14 16:00:00	22	candela_ex_comes	11.04	1	45.34	1	0.0	1	9.4	1	342.56	1	null	6	988.97	1	41.168724	15.52385
1074	2024-02-14 17:00:00	22	candela_ex_comes	10.47	1	50.97	1	0.0	1	6.04	1	339.41	1	null	6	989.28	1	41.168724	15.52385
1075	2024-02-14 18:00:00	22	candela_ex_comes	9.28	1	57.57	1	0.0	1	2.93	1	334.61	1	null	6	989.54	1	41.168724	15.52385
1076	2024-02-14 19:00:00	22	candela_ex_comes	8.04	1	64.39	1	0.0	1	4.17	1	304.26	1	null	6	989.67	1	41.168724	15.52385
1077	2024-02-14 20:00:00	22	candela_ex_comes	7.26	1	71.15	1	0.0	1	2.96	1	301.54	1	null	6	990.04	1	41.168724	15.52385
1078	2024-02-14 21:00:00	22	candela_ex_comes	7.71	1	67.61	1	0.0	1	3.78	1	308.51	1	null	6	990.46	1	41.168724	15.52385
1079	2024-02-14 22:00:00	22	candela_ex_comes	7.97	1	62.21	1	0.0	1	3.79	1	318.07	1	null	6	990.4	1	41.168724	15.52385
1080	2024-02-14 23:00:00	22	candela_ex_comes	7.74	1	58.08	1	0.0	1	4.12	1	320.04	1	null	6	990.34	1	41.168724	15.52385
1081	2024-02-15 00:00:00	22	candela_ex_comes	8.3	1	56.2	1	0.0	1	3.7	1	318.26	1	null	6	990.3	1	41.168724	15.52385
1082	2024-02-15 01:00:00	22	candela_ex_comes	7.62	1	56.2	1	0.0	1	5.45	1	314.5	1	null	6	990.02	1	41.168724	15.52385
1083	2024-02-15 02:00:00	22	candela_ex_comes	6.88	1	57.99	1	0.0	1	4.47	1	308.13	1	null	6	989.93	1	41.168724	15.52385
1084	2024-02-15 03:00:00	22	candela_ex_comes	7.3	1	55.8	1	0.0	1	3.82	1	294.0	1	null	6	989.96	1	41.168724	15.52385
1085	2024-02-15 04:00:00	22	candela_ex_comes	6.96	1	54.58	1	0.0	1	4.32	1	283.62	1	null	6	989.68	1	41.168724	15.52385
1086	2024-02-15 05:00:00	22	candela_ex_comes	7.43	1	51.63	1	0.0	1	2.88	1	282.15	1	null	6	989.83	1	41.168724	15.52385
1087	2024-02-15 06:00:00	22	candela_ex_comes	7.41	1	51.18	1	0.0	1	1.82	1	280.12	1	null	6	990.01	1	41.168724	15.52385
1088	2024-02-15 07:00:00	22	candela_ex_comes	8.1	1	47.34	1	0.0	1	2.88	1	254.23	1	null	6	989.94	1	41.168724	15.52385
1089	2024-02-15 08:00:00	22	candela_ex_comes	7.07	1	51.51	1	0.0	1	3.38	1	246.04	1	null	6	990.34	1	41.168724	15.52385
1090	2024-02-15 09:00:00	22	candela_ex_comes	8.91	1	49.65	1	0.0	1	1.95	1	249.07	1	null	6	990.52	1	41.168724	15.52385
1091	2024-02-15 10:00:00	22	candela_ex_comes	10.35	1	52.19	1	0.0	1	3.96	1	317.65	1	null	6	990.38	1	41.168724	15.52385
1092	2024-02-15 11:00:00	22	candela_ex_comes	11.76	1	46.51	1	0.0	1	5.39	1	333.48	1	null	6	990.36	1	41.168724	15.52385
1093	2024-02-15 12:00:00	22	candela_ex_comes	12.66	1	42.28	1	0.0	1	6.16	1	338.32	1	null	6	990.2	1	41.168724	15.52385
1094	2024-02-15 13:00:00	22	candela_ex_comes	13.45	1	39.01	1	0.0	1	6.55	1	313.33	1	null	6	989.36	1	41.168724	15.52385
1095	2024-02-15 14:00:00	22	candela_ex_comes	14.15	1	36.31	1	0.0	1	7.04	1	325.14	1	null	6	988.68	1	41.168724	15.52385
1096	2024-02-15 15:00:00	22	candela_ex_comes	14.35	1	35.79	1	0.0	1	8.27	1	327.09	1	null	6	988.05	1	41.168724	15.52385
1097	2024-02-15 16:00:00	22	candela_ex_comes	14.36	1	35.87	1	0.0	1	6.05	1	327.43	1	null	6	987.96	1	41.168724	15.52385
1098	2024-02-15 17:00:00	22	candela_ex_comes	13.73	1	38.82	1	0.0	1	5.02	1	332.72	1	null	6	987.92	1	41.168724	15.52385
1099	2024-02-15 18:00:00	22	candela_ex_comes	11.33	1	43.73	1	0.0	1	4.4	1	338.73	1	null	6	987.85	1	41.168724	15.52385
1100	2024-02-15 19:00:00	22	candela_ex_comes	10.52	1	44.94	1	0.0	1	1.83	1	280.77	1	null	6	988.15	1	41.168724	15.52385
1101	2024-02-15 20:00:00	22	candela_ex_comes	9.95	1	45.9	1	0.0	1	1.75	1	257.7	1	null	6	988.41	1	41.168724	15.52385
1102	2024-02-15 21:00:00	22	candela_ex_comes	8.62	1	51.46	1	0.0	1	2.84	1	253.02	1	null	6	988.44	1	41.168724	15.52385
1103	2024-02-15 22:00:00	22	candela_ex_comes	7.62	1	55.83	1	0.0	1	2.46	1	259.0	1	null	6	988.67	1	41.168724	15.52385
1104	2024-02-15 23:00:00	22	candela_ex_comes	7.26	1	58.6	1	0.0	1	2.61	1	258.96	1	null	6	988.66	1	41.168724	15.52385
1105	2024-02-16 00:00:00	22	candela_ex_comes	7.17	1	59.71	1	0.0	1	2.67	1	252.29	1	null	6	988.47	1	41.168724	15.52385
1106	2024-02-16 01:00:00	22	candela_ex_comes	6.98	1	60.4	1	0.0	1	2.67	1	248.73	1	null	6	988.42	1	41.168724	15.52385
1107	2024-02-16 02:00:00	22	candela_ex_comes	6.72	1	62.85	1	0.0	1	2.46	1	248.57	1	null	6	988.17	1	41.168724	15.52385
1108	2024-02-16 03:00:00	22	candela_ex_comes	6.33	1	63.7	1	0.0	1	1.86	1	188.47	1	null	6	987.86	1	41.168724	15.52385
1109	2024-02-16 04:00:00	22	candela_ex_comes	6.38	1	62.93	1	0.0	1	2.16	1	171.3	1	null	6	987.51	1	41.168724	15.52385
1110	2024-02-16 05:00:00	22	candela_ex_comes	6.22	1	65.65	1	0.0	1	2.62	1	158.63	1	null	6	987.46	1	41.168724	15.52385
1111	2024-02-16 06:00:00	22	candela_ex_comes	6.06	1	66.48	1	0.0	1	2.18	1	156.22	1	null	6	987.58	1	41.168724	15.52385
1112	2024-02-16 07:00:00	22	candela_ex_comes	6.56	1	65.75	1	0.0	1	2.17	1	163.82	1	null	6	987.68	1	41.168724	15.52385
1113	2024-02-16 08:00:00	22	candela_ex_comes	7.24	1	64.09	1	0.0	1	1.71	1	171.61	1	null	6	987.86	1	41.168724	15.52385
1114	2024-02-16 09:00:00	22	candela_ex_comes	8.51	1	64.96	1	0.0	1	1.87	1	166.35	1	null	6	987.93	1	41.168724	15.52385
1115	2024-02-16 10:00:00	22	candela_ex_comes	11.31	1	61.38	1	0.0	1	2.39	1	142.29	1	null	6	987.76	1	41.168724	15.52385
1116	2024-02-16 11:00:00	22	candela_ex_comes	14.19	1	49.19	1	0.0	1	1.96	1	132.31	1	null	6	987.79	1	41.168724	15.52385
1117	2024-02-16 12:00:00	22	candela_ex_comes	15.51	1	41.45	1	0.0	1	1.71	1	347.38	1	null	6	987.52	1	41.168724	15.52385
1118	2024-02-16 13:00:00	22	candela_ex_comes	15.98	1	41.15	1	0.0	1	1.91	1	21.59	1	null	6	986.94	1	41.168724	15.52385
1119	2024-02-16 14:00:00	22	candela_ex_comes	16.29	1	42.93	1	0.0	1	2.83	1	359.98	1	null	6	986.58	1	41.168724	15.52385
1120	2024-02-16 15:00:00	22	candela_ex_comes	16.5	1	41.39	1	0.0	1	2.35	1	12.98	1	null	6	986.25	1	41.168724	15.52385
1121	2024-02-16 16:00:00	22	candela_ex_comes	16.52	1	40.79	1	0.0	1	2.15	1	62.09	1	null	6	986.19	1	41.168724	15.52385
1122	2024-02-16 17:00:00	22	candela_ex_comes	15.93	1	44.76	1	0.0	1	2.05	1	113.89	1	null	6	986.33	1	41.168724	15.52385
1123	2024-02-16 18:00:00	22	candela_ex_comes	13.59	1	57.12	1	0.0	1	1.74	1	124.88	1	null	6	986.68	1	41.168724	15.52385
1124	2024-02-16 19:00:00	22	candela_ex_comes	11.97	1	62.96	1	0.0	1	1.98	1	162.31	1	null	6	987.23	1	41.168724	15.52385
1125	2024-02-16 20:00:00	22	candela_ex_comes	10.8	1	66.57	1	0.0	1	1.58	1	166.59	1	null	6	987.72	1	41.168724	15.52385
1126	2024-02-16 21:00:00	22	candela_ex_comes	9.65	1	67.63	1	0.0	1	2.78	1	254.72	1	null	6	987.98	1	41.168724	15.52385
1127	2024-02-16 22:00:00	22	candela_ex_comes	8.67	1	69.9	1	0.0	1	2.68	1	258.75	1	null	6	988.41	1	41.168724	15.52385
1128	2024-02-16 23:00:00	22	candela_ex_comes	7.75	1	72.0	1	0.0	1	3.68	1	259.44	1	null	6	988.63	1	41.168724	15.52385
1129	2024-02-17 00:00:00	22	candela_ex_comes	7.03	1	73.8	1	0.0	1	2.4	1	263.27	1	null	6	988.88	1	41.168724	15.52385
1130	2024-02-17 01:00:00	22	candela_ex_comes	6.92	1	74.35	1	0.0	1	3.93	1	254.18	1	null	6	989.16	1	41.168724	15.52385
1131	2024-02-17 02:00:00	22	candela_ex_comes	6.34	1	76.18	1	0.0	1	2.65	1	255.99	1	null	6	989.37	1	41.168724	15.52385
1132	2024-02-17 03:00:00	22	candela_ex_comes	6.24	1	77.68	1	0.0	1	2.36	1	257.48	1	null	6	989.4	1	41.168724	15.52385
1133	2024-02-17 04:00:00	22	candela_ex_comes	6.45	1	76.68	1	0.0	1	2.45	1	245.87	1	null	6	989.4	1	41.168724	15.52385
1134	2024-02-17 05:00:00	22	candela_ex_comes	5.67	1	78.06	1	0.0	1	2.5	1	255.08	1	null	6	989.49	1	41.168724	15.52385
1135	2024-02-17 06:00:00	22	candela_ex_comes	6.11	1	78.7	1	0.0	1	1.76	1	228.1	1	null	6	990.02	1	41.168724	15.52385
1136	2024-02-17 07:00:00	22	candela_ex_comes	5.68	1	80.69	1	0.0	1	1.86	1	175.94	1	null	6	990.35	1	41.168724	15.52385
1137	2024-02-17 08:00:00	22	candela_ex_comes	6.32	1	78.98	1	0.0	1	0.86	1	172.4	1	null	6	991.01	1	41.168724	15.52385
1138	2024-02-17 09:00:00	22	candela_ex_comes	7.06	1	77.44	1	0.0	1	0.95	1	264.75	1	null	6	991.61	1	41.168724	15.52385
1139	2024-02-17 10:00:00	22	candela_ex_comes	8.91	1	73.8	1	0.0	1	1.0	1	278.09	1	null	6	991.96	1	41.168724	15.52385
1140	2024-02-17 11:00:00	22	candela_ex_comes	10.28	1	69.2	1	0.0	1	1.84	1	340.66	1	null	6	992.21	1	41.168724	15.52385
1141	2024-02-17 12:00:00	22	candela_ex_comes	11.91	1	67.38	1	0.0	1	1.94	1	6.78	1	null	6	992.31	1	41.168724	15.52385
1142	2024-02-17 13:00:00	22	candela_ex_comes	13.42	1	62.23	1	0.0	1	2.07	1	9.63	1	null	6	992.04	1	41.168724	15.52385
1143	2024-02-17 14:00:00	22	candela_ex_comes	14.36	1	51.61	1	0.0	1	2.5	1	357.56	1	null	6	991.7	1	41.168724	15.52385
1144	2024-02-17 15:00:00	22	candela_ex_comes	14.7	1	49.34	1	0.0	1	2.86	1	356.93	1	null	6	991.68	1	41.168724	15.52385
1145	2024-02-17 16:00:00	22	candela_ex_comes	14.81	1	50.65	1	0.0	1	2.93	1	7.39	1	null	6	992.18	1	41.168724	15.52385
1146	2024-02-17 17:00:00	22	candela_ex_comes	14.32	1	53.04	1	0.0	1	2.17	1	18.35	1	null	6	992.66	1	41.168724	15.52385
1147	2024-02-17 18:00:00	22	candela_ex_comes	13.19	1	59.67	1	0.0	1	1.41	1	34.99	1	null	6	993.19	1	41.168724	15.52385
1148	2024-02-17 19:00:00	22	candela_ex_comes	10.17	1	73.54	1	0.0	1	2.89	1	344.27	1	null	6	994.15	1	41.168724	15.52385
1149	2024-02-17 20:00:00	22	candela_ex_comes	8.88	1	84.48	1	0.0	1	2.38	1	25.34	1	null	6	994.75	1	41.168724	15.52385
1150	2024-02-17 21:00:00	22	candela_ex_comes	8.2	1	89.36	1	0.0	1	2.66	1	21.8	1	null	6	995.19	1	41.168724	15.52385
1151	2024-02-17 22:00:00	22	candela_ex_comes	6.89	1	92.05	1	0.0	1	1.29	1	310.54	1	null	6	995.7	1	41.168724	15.52385
1152	2024-02-17 23:00:00	22	candela_ex_comes	6.21	1	93.42	1	0.0	1	1.03	1	308.03	1	null	6	996.1	1	41.168724	15.52385
1153	2024-02-18 00:00:00	22	candela_ex_comes	6.05	1	94.19	1	0.0	1	1.51	1	161.79	1	null	6	996.23	1	41.168724	15.52385
1154	2024-02-18 01:00:00	22	candela_ex_comes	5.77	1	95.64	1	0.0	1	1.64	1	183.95	1	null	6	996.34	1	41.168724	15.52385
1155	2024-02-18 02:00:00	22	candela_ex_comes	6.04	1	96.42	1	0.0	1	1.46	1	232.0	1	null	6	996.27	1	41.168724	15.52385
1156	2024-02-18 03:00:00	22	candela_ex_comes	5.88	1	96.17	1	0.0	1	1.17	1	203.48	1	null	6	996.24	1	41.168724	15.52385
1157	2024-02-18 04:00:00	22	candela_ex_comes	5.56	1	95.24	1	0.0	1	1.26	1	210.28	1	null	6	996.1	1	41.168724	15.52385
1158	2024-02-18 05:00:00	22	candela_ex_comes	5.5	1	92.71	1	0.0	1	2.07	1	246.84	1	null	6	996.14	1	41.168724	15.52385
1159	2024-02-18 06:00:00	22	candela_ex_comes	5.9	1	88.64	1	0.0	1	1.97	1	241.46	1	null	6	996.24	1	41.168724	15.52385
1160	2024-02-18 07:00:00	22	candela_ex_comes	5.88	1	87.18	1	0.0	1	1.6	1	162.95	1	null	6	996.34	1	41.168724	15.52385
1161	2024-02-18 08:00:00	22	candela_ex_comes	6.09	1	87.24	1	0.0	1	0.85	1	195.1	1	null	6	996.84	1	41.168724	15.52385
1162	2024-02-18 09:00:00	22	candela_ex_comes	7.27	1	79.46	1	0.0	1	0.96	1	259.64	1	null	6	997.37	1	41.168724	15.52385
1163	2024-02-18 10:00:00	22	candela_ex_comes	9.75	1	70.74	1	0.0	1	1.17	1	334.6	1	null	6	997.18	1	41.168724	15.52385
1164	2024-02-18 11:00:00	22	candela_ex_comes	10.83	1	67.26	1	0.0	1	2.19	1	349.5	1	null	6	996.93	1	41.168724	15.52385
1165	2024-02-18 12:00:00	22	candela_ex_comes	12.7	1	60.25	1	0.0	1	3.84	1	357.37	1	null	6	996.82	1	41.168724	15.52385
1166	2024-02-18 13:00:00	22	candela_ex_comes	13.55	1	54.81	1	0.0	1	3.35	1	355.93	1	null	6	996.17	1	41.168724	15.52385
1167	2024-02-18 14:00:00	22	candela_ex_comes	14.42	1	50.43	1	0.0	1	3.46	1	353.58	1	null	6	995.3	1	41.168724	15.52385
1168	2024-02-18 15:00:00	22	candela_ex_comes	15.09	1	46.62	1	0.0	1	3.58	1	7.67	1	null	6	994.54	1	41.168724	15.52385
1169	2024-02-18 16:00:00	22	candela_ex_comes	15.31	1	46.57	1	0.0	1	2.74	1	12.37	1	null	6	994.24	1	41.168724	15.52385
1170	2024-02-18 17:00:00	22	candela_ex_comes	14.32	1	51.31	1	0.0	1	2.38	1	22.42	1	null	6	993.98	1	41.168724	15.52385
1171	2024-02-18 18:00:00	22	candela_ex_comes	13.23	1	55.99	1	0.0	1	2.25	1	12.57	1	null	6	993.86	1	41.168724	15.52385
1172	2024-02-18 19:00:00	22	candela_ex_comes	11.52	1	64.72	1	0.0	1	1.34	1	292.68	1	null	6	994.12	1	41.168724	15.52385
1173	2024-02-18 20:00:00	22	candela_ex_comes	10.04	1	68.11	1	0.0	1	2.82	1	243.15	1	null	6	993.99	1	41.168724	15.52385
1174	2024-02-18 21:00:00	22	candela_ex_comes	9.25	1	70.83	1	0.0	1	3.03	1	254.36	1	null	6	993.6	1	41.168724	15.52385
1175	2024-02-18 22:00:00	22	candela_ex_comes	9.64	1	70.81	1	0.0	1	3.3	1	243.74	1	null	6	993.47	1	41.168724	15.52385
1176	2024-02-18 23:00:00	22	candela_ex_comes	9.25	1	71.14	1	0.0	1	2.59	1	242.75	1	null	6	992.92	1	41.168724	15.52385
1177	2024-02-19 00:00:00	22	candela_ex_comes	8.72	1	73.96	1	0.0	1	3.02	1	242.7	1	null	6	992.65	1	41.168724	15.52385
1178	2024-02-19 01:00:00	22	candela_ex_comes	8.36	1	77.7	1	0.0	1	2.36	1	131.31	1	null	6	992.38	1	41.168724	15.52385
1179	2024-02-19 02:00:00	22	candela_ex_comes	8.42	1	80.84	1	0.0	1	2.45	1	128.7	1	null	6	991.87	1	41.168724	15.52385
1180	2024-02-19 03:00:00	22	candela_ex_comes	9.74	1	78.01	1	0.0	1	4.25	1	235.72	1	null	6	991.21	1	41.168724	15.52385
1181	2024-02-19 04:00:00	22	candela_ex_comes	9.11	1	80.7	1	0.0	1	7.74	1	249.85	1	null	6	990.63	1	41.168724	15.52385
1182	2024-02-19 05:00:00	22	candela_ex_comes	9.14	1	81.98	1	0.0	1	6.45	1	249.35	1	null	6	990.4	1	41.168724	15.52385
1183	2024-02-19 06:00:00	22	candela_ex_comes	9.27	1	79.18	1	0.0	1	4.83	1	231.17	1	null	6	990.38	1	41.168724	15.52385
1184	2024-02-19 07:00:00	22	candela_ex_comes	8.73	1	78.63	1	0.0	1	4.95	1	240.13	1	null	6	990.06	1	41.168724	15.52385
1185	2024-02-19 08:00:00	22	candela_ex_comes	9.54	1	76.73	1	0.0	1	5.83	1	240.81	1	null	6	990.06	1	41.168724	15.52385
1186	2024-02-19 09:00:00	22	candela_ex_comes	11.15	1	74.58	1	0.0	1	7.46	1	252.23	1	null	6	990.03	1	41.168724	15.52385
1187	2024-02-19 10:00:00	22	candela_ex_comes	12.51	1	70.7	1	0.0	1	7.98	1	255.36	1	null	6	989.78	1	41.168724	15.52385
1188	2024-02-19 11:00:00	22	candela_ex_comes	13.29	1	67.39	1	0.0	1	8.2	1	256.09	1	null	6	989.49	1	41.168724	15.52385
1189	2024-02-19 12:00:00	22	candela_ex_comes	14.41	1	63.0	1	0.0	1	6.94	1	254.92	1	null	6	989.16	1	41.168724	15.52385
1190	2024-02-19 13:00:00	22	candela_ex_comes	15.02	1	58.6	1	0.0	1	5.89	1	252.76	1	null	6	988.28	1	41.168724	15.52385
1191	2024-02-19 14:00:00	22	candela_ex_comes	14.83	1	58.32	1	0.0	1	6.19	1	255.46	1	null	6	987.53	1	41.168724	15.52385
1192	2024-02-19 15:00:00	22	candela_ex_comes	15.4	1	55.16	1	0.0	1	4.57	1	272.22	1	null	6	987.07	1	41.168724	15.52385
1193	2024-02-19 16:00:00	22	candela_ex_comes	15.29	1	54.71	1	0.0	1	3.39	1	327.67	1	null	6	987.07	1	41.168724	15.52385
1194	2024-02-19 17:00:00	22	candela_ex_comes	14.03	1	62.42	1	0.0	1	5.88	1	316.36	1	null	6	987.39	1	41.168724	15.52385
1195	2024-02-19 18:00:00	22	candela_ex_comes	11.57	1	76.16	1	0.0	1	4.33	1	351.87	1	null	6	988.14	1	41.168724	15.52385
1196	2024-02-19 19:00:00	22	candela_ex_comes	10.91	1	78.86	1	0.0	1	2.37	1	11.33	1	null	6	988.57	1	41.168724	15.52385
1197	2024-02-19 20:00:00	22	candela_ex_comes	10.34	1	83.09	1	0.0	1	1.29	1	33.54	1	null	6	988.8	1	41.168724	15.52385
1198	2024-02-19 21:00:00	22	candela_ex_comes	10.29	1	85.69	1	0.0	1	2.26	1	355.54	1	null	6	988.93	1	41.168724	15.52385
1199	2024-02-19 22:00:00	22	candela_ex_comes	9.85	1	87.64	1	0.0	1	2.87	1	348.39	1	null	6	988.89	1	41.168724	15.52385
1200	2024-02-19 23:00:00	22	candela_ex_comes	9.66	1	87.35	1	0.0	1	2.77	1	349.8	1	null	6	988.91	1	41.168724	15.52385
1201	2024-02-20 00:00:00	22	candela_ex_comes	9.5	1	87.22	1	0.0	1	2.82	1	358.89	1	null	6	988.71	1	41.168724	15.52385
1202	2024-02-20 01:00:00	22	candela_ex_comes	9.52	1	86.47	1	0.0	1	2.24	1	345.68	1	null	6	988.61	1	41.168724	15.52385
1203	2024-02-20 02:00:00	22	candela_ex_comes	9.44	1	82.37	1	0.0	1	3.29	1	356.36	1	null	6	988.27	1	41.168724	15.52385
1204	2024-02-20 03:00:00	22	candela_ex_comes	9.16	1	79.28	1	0.0	1	3.92	1	357.26	1	null	6	987.89	1	41.168724	15.52385
1205	2024-02-20 04:00:00	22	candela_ex_comes	8.97	1	80.28	1	0.0	1	3.43	1	339.12	1	null	6	987.57	1	41.168724	15.52385
1206	2024-02-20 05:00:00	22	candela_ex_comes	8.87	1	79.48	1	0.0	1	3.42	1	349.64	1	null	6	987.44	1	41.168724	15.52385
1207	2024-02-20 06:00:00	22	candela_ex_comes	8.88	1	77.57	1	0.0	1	2.9	1	349.49	1	null	6	987.48	1	41.168724	15.52385
1208	2024-02-20 07:00:00	22	candela_ex_comes	8.49	1	81.6	1	0.0	1	3.01	1	1.14	1	null	6	987.51	1	41.168724	15.52385
1209	2024-02-20 08:00:00	22	candela_ex_comes	8.75	1	84.32	1	0.0	1	2.68	1	6.03	1	null	6	987.93	1	41.168724	15.52385
1210	2024-02-20 09:00:00	22	candela_ex_comes	9.21	1	84.85	1	0.0	1	3.0	1	347.98	1	null	6	988.21	1	41.168724	15.52385
1211	2024-02-20 10:00:00	22	candela_ex_comes	9.64	1	83.51	1	0.0	1	3.56	1	4.76	1	null	6	988.43	1	41.168724	15.52385
1212	2024-02-20 11:00:00	22	candela_ex_comes	10.39	1	82.55	1	0.0	1	5.32	1	350.66	1	null	6	988.56	1	41.168724	15.52385
1213	2024-02-20 12:00:00	22	candela_ex_comes	11.09	1	75.8	1	0.0	1	5.7	1	339.37	1	null	6	988.33	1	41.168724	15.52385
1214	2024-02-20 13:00:00	22	candela_ex_comes	12.15	1	65.17	1	0.0	1	5.69	1	346.72	1	null	6	987.73	1	41.168724	15.52385
1215	2024-02-20 14:00:00	22	candela_ex_comes	12.26	1	64.16	1	0.0	1	5.59	1	351.55	1	null	6	987.15	1	41.168724	15.52385
1216	2024-02-20 15:00:00	22	candela_ex_comes	11.89	1	64.69	1	0.0	1	5.51	1	334.35	1	null	6	986.95	1	41.168724	15.52385
1217	2024-02-20 16:00:00	22	candela_ex_comes	12.15	1	67.43	1	0.0	1	5.78	1	339.06	1	null	6	986.86	1	41.168724	15.52385
1218	2024-02-20 17:00:00	22	candela_ex_comes	11.67	1	73.26	1	0.0	1	6.36	1	334.83	1	null	6	986.96	1	41.168724	15.52385
1219	2024-02-20 18:00:00	22	candela_ex_comes	10.69	1	79.35	1	2.4	1	6.12	1	352.19	1	null	6	987.73	1	41.168724	15.52385
1220	2024-02-20 19:00:00	22	candela_ex_comes	9.69	1	85.51	1	0.6	1	2.87	1	351.84	1	null	6	988.53	1	41.168724	15.52385
1221	2024-02-20 20:00:00	22	candela_ex_comes	9.04	1	87.61	1	0.0	1	3.39	1	2.06	1	null	6	988.89	1	41.168724	15.52385
1222	2024-02-20 21:00:00	22	candela_ex_comes	8.49	1	88.43	1	0.0	1	2.63	1	7.22	1	null	6	989.18	1	41.168724	15.52385
1223	2024-02-20 22:00:00	22	candela_ex_comes	8.34	1	90.04	1	0.0	1	1.88	1	24.32	1	null	6	989.79	1	41.168724	15.52385
1224	2024-02-20 23:00:00	22	candela_ex_comes	8.31	1	91.58	1	0.0	1	1.98	1	23.48	1	null	6	989.92	1	41.168724	15.52385
1225	2024-02-21 00:00:00	22	candela_ex_comes	8.36	1	92.17	1	0.0	1	1.44	1	30.15	1	null	6	990.12	1	41.168724	15.52385
1226	2024-02-21 01:00:00	22	candela_ex_comes	8.46	1	92.04	1	0.0	1	2.14	1	1.32	1	null	6	990.18	1	41.168724	15.52385
1227	2024-02-21 02:00:00	22	candela_ex_comes	8.56	1	91.87	1	0.0	1	2.12	1	4.94	1	null	6	990.02	1	41.168724	15.52385
1228	2024-02-21 03:00:00	22	candela_ex_comes	8.42	1	90.3	1	0.0	1	1.95	1	16.57	1	null	6	989.35	1	41.168724	15.52385
1229	2024-02-21 04:00:00	22	candela_ex_comes	7.62	1	87.56	1	0.0	1	1.24	1	309.11	1	null	6	988.77	1	41.168724	15.52385
1230	2024-02-21 05:00:00	22	candela_ex_comes	6.79	1	89.19	1	0.0	1	1.38	1	276.0	1	null	6	988.94	1	41.168724	15.52385
1231	2024-02-21 06:00:00	22	candela_ex_comes	6.17	1	90.08	1	0.0	1	1.49	1	270.08	1	null	6	989.25	1	41.168724	15.52385
1232	2024-02-21 07:00:00	22	candela_ex_comes	6.55	1	89.07	1	0.0	1	1.5	1	275.87	1	null	6	989.6	1	41.168724	15.52385
1233	2024-02-21 08:00:00	22	candela_ex_comes	7.17	1	85.58	1	0.0	1	1.29	1	336.8	1	null	6	990.32	1	41.168724	15.52385
1234	2024-02-21 09:00:00	22	candela_ex_comes	8.43	1	86.03	1	0.0	1	2.11	1	340.39	1	null	6	990.76	1	41.168724	15.52385
1235	2024-02-21 10:00:00	22	candela_ex_comes	9.82	1	83.72	1	0.0	1	3.49	1	356.49	1	null	6	990.99	1	41.168724	15.52385
1236	2024-02-21 11:00:00	22	candela_ex_comes	10.57	1	81.65	1	0.0	1	4.15	1	354.74	1	null	6	991.15	1	41.168724	15.52385
1237	2024-02-21 12:00:00	22	candela_ex_comes	11.33	1	73.67	1	0.2	1	2.33	1	1.66	1	null	6	991.2	1	41.168724	15.52385
1238	2024-02-21 13:00:00	22	candela_ex_comes	12.38	1	59.74	1	0.0	1	2.08	1	42.08	1	null	6	990.41	1	41.168724	15.52385
1239	2024-02-21 14:00:00	22	candela_ex_comes	13.1	1	53.58	1	0.0	1	1.83	1	340.58	1	null	6	989.8	1	41.168724	15.52385
1240	2024-02-21 15:00:00	22	candela_ex_comes	13.09	1	52.76	1	0.0	1	2.86	1	345.86	1	null	6	989.36	1	41.168724	15.52385
1241	2024-02-21 16:00:00	22	candela_ex_comes	12.8	1	55.84	1	0.0	1	4.07	1	10.89	1	null	6	989.07	1	41.168724	15.52385
1242	2024-02-21 17:00:00	22	candela_ex_comes	12.13	1	57.74	1	0.0	1	3.46	1	355.76	1	null	6	988.8	1	41.168724	15.52385
1243	2024-02-21 18:00:00	22	candela_ex_comes	10.71	1	61.65	1	0.0	1	3.18	1	1.71	1	null	6	988.84	1	41.168724	15.52385
1244	2024-02-21 19:00:00	22	candela_ex_comes	9.29	1	67.51	1	0.0	1	2.55	1	358.21	1	null	6	989.33	1	41.168724	15.52385
1245	2024-02-21 20:00:00	22	candela_ex_comes	8.22	1	69.67	1	0.0	1	1.74	1	256.32	1	null	6	989.53	1	41.168724	15.52385
1246	2024-02-21 21:00:00	22	candela_ex_comes	6.72	1	73.97	1	0.0	1	3.22	1	250.82	1	null	6	989.54	1	41.168724	15.52385
1247	2024-02-21 22:00:00	22	candela_ex_comes	6.12	1	77.07	1	0.0	1	4.08	1	248.69	1	null	6	989.69	1	41.168724	15.52385
1248	2024-02-21 23:00:00	22	candela_ex_comes	5.53	1	79.19	1	0.0	1	3.0	1	247.78	1	null	6	989.55	1	41.168724	15.52385
1249	2024-02-22 00:00:00	22	candela_ex_comes	5.04	1	81.07	1	0.0	1	2.67	1	250.22	1	null	6	989.07	1	41.168724	15.52385
1250	2024-02-22 01:00:00	22	candela_ex_comes	5.3	1	78.84	1	0.0	1	2.59	1	250.89	1	null	6	988.9	1	41.168724	15.52385
1251	2024-02-22 02:00:00	22	candela_ex_comes	5.08	1	81.02	1	0.0	1	2.26	1	161.6	1	null	6	988.44	1	41.168724	15.52385
1252	2024-02-22 03:00:00	22	candela_ex_comes	4.5	1	83.02	1	0.0	1	2.82	1	144.28	1	null	6	987.68	1	41.168724	15.52385
1253	2024-02-22 04:00:00	22	candela_ex_comes	4.5	1	82.12	1	0.0	1	3.35	1	147.69	1	null	6	987.09	1	41.168724	15.52385
1254	2024-02-22 05:00:00	22	candela_ex_comes	4.69	1	80.7	1	0.0	1	2.97	1	145.52	1	null	6	986.87	1	41.168724	15.52385
1255	2024-02-22 06:00:00	22	candela_ex_comes	5.94	1	74.55	1	0.0	1	2.6	1	150.08	1	null	6	986.64	1	41.168724	15.52385
1256	2024-02-22 07:00:00	22	candela_ex_comes	7.14	1	68.21	1	0.0	1	2.07	1	154.04	1	null	6	986.14	1	41.168724	15.52385
1257	2024-02-22 08:00:00	22	candela_ex_comes	7.51	1	67.71	1	0.0	1	1.7	1	144.43	1	null	6	986.08	1	41.168724	15.52385
1258	2024-02-22 09:00:00	22	candela_ex_comes	10.51	1	61.98	1	0.0	1	3.42	1	221.94	1	null	6	985.91	1	41.168724	15.52385
1259	2024-02-22 10:00:00	22	candela_ex_comes	12.23	1	53.95	1	0.0	1	5.69	1	235.6	1	null	6	985.61	1	41.168724	15.52385
1260	2024-02-22 11:00:00	22	candela_ex_comes	13.22	1	47.33	1	0.0	1	10.43	1	256.79	1	null	6	985.08	1	41.168724	15.52385
1261	2024-02-22 12:00:00	22	candela_ex_comes	13.45	1	49.19	1	0.0	1	10.34	1	258.44	1	null	6	984.73	1	41.168724	15.52385
1262	2024-02-22 13:00:00	22	candela_ex_comes	14.27	1	48.29	1	0.0	1	9.03	1	247.96	1	null	6	983.79	1	41.168724	15.52385
1263	2024-02-22 14:00:00	22	candela_ex_comes	14.75	1	44.99	1	0.0	1	7.57	1	234.91	1	null	6	983.16	1	41.168724	15.52385
1264	2024-02-22 15:00:00	22	candela_ex_comes	14.37	1	48.31	1	0.0	1	9.26	1	254.38	1	null	6	982.28	1	41.168724	15.52385
1265	2024-02-22 16:00:00	22	candela_ex_comes	14.02	1	47.35	1	0.0	1	8.3	1	252.01	1	null	6	981.48	1	41.168724	15.52385
1266	2024-02-22 17:00:00	22	candela_ex_comes	13.3	1	45.58	1	0.0	1	10.77	1	254.41	1	null	6	981.6	1	41.168724	15.52385
1267	2024-02-22 18:00:00	22	candela_ex_comes	12.03	1	51.32	1	0.0	1	8.04	1	239.96	1	null	6	981.42	1	41.168724	15.52385
1268	2024-02-22 19:00:00	22	candela_ex_comes	10.86	1	57.14	1	0.0	1	5.05	1	216.51	1	null	6	981.37	1	41.168724	15.52385
1269	2024-02-22 20:00:00	22	candela_ex_comes	10.27	1	59.25	1	0.0	1	6.07	1	220.7	1	null	6	981.19	1	41.168724	15.52385
1270	2024-02-22 21:00:00	22	candela_ex_comes	9.54	1	59.57	1	0.0	1	5.24	1	212.39	1	null	6	980.62	1	41.168724	15.52385
1271	2024-02-22 22:00:00	22	candela_ex_comes	9.34	1	62.66	1	0.0	1	3.26	1	192.8	1	null	6	980.13	1	41.168724	15.52385
1272	2024-02-22 23:00:00	22	candela_ex_comes	8.93	1	68.47	1	0.0	1	3.83	1	161.9	1	null	6	979.44	1	41.168724	15.52385
1273	2024-02-23 00:00:00	22	candela_ex_comes	10.06	1	62.73	1	0.0	1	3.57	1	202.8	1	null	6	979.01	1	41.168724	15.52385
1274	2024-02-23 01:00:00	22	candela_ex_comes	10.69	1	59.76	1	0.0	1	2.97	1	216.96	1	null	6	978.73	1	41.168724	15.52385
1275	2024-02-23 02:00:00	22	candela_ex_comes	10.6	1	62.25	1	0.0	1	2.48	1	211.09	1	null	6	978.31	1	41.168724	15.52385
1276	2024-02-23 03:00:00	22	candela_ex_comes	10.53	1	64.12	1	0.0	1	3.69	1	208.54	1	null	6	977.83	1	41.168724	15.52385
1277	2024-02-23 04:00:00	22	candela_ex_comes	10.59	1	63.86	1	0.0	1	4.84	1	227.88	1	null	6	977.03	1	41.168724	15.52385
1278	2024-02-23 05:00:00	22	candela_ex_comes	10.73	1	65.84	1	0.0	1	3.97	1	214.3	1	null	6	976.71	1	41.168724	15.52385
1279	2024-02-23 06:00:00	22	candela_ex_comes	11.09	1	66.39	1	0.0	1	4.57	1	206.32	1	null	6	976.5	1	41.168724	15.52385
1280	2024-02-23 07:00:00	22	candela_ex_comes	11.43	1	64.94	1	0.0	1	4.56	1	192.81	1	null	6	976.46	1	41.168724	15.52385
1281	2024-02-23 08:00:00	22	candela_ex_comes	11.41	1	63.73	1	0.0	1	5.25	1	181.49	1	null	6	976.46	1	41.168724	15.52385
1282	2024-02-23 09:00:00	22	candela_ex_comes	11.62	1	61.87	1	0.0	1	5.18	1	174.0	1	null	6	976.82	1	41.168724	15.52385
1283	2024-02-23 10:00:00	22	candela_ex_comes	12.15	1	60.01	1	0.0	1	5.61	1	171.75	1	null	6	976.57	1	41.168724	15.52385
1284	2024-02-23 11:00:00	22	candela_ex_comes	12.67	1	55.29	1	0.0	1	4.65	1	164.6	1	null	6	976.3	1	41.168724	15.52385
1285	2024-02-23 12:00:00	22	candela_ex_comes	13.33	1	52.7	1	0.0	1	4.65	1	194.21	1	null	6	975.93	1	41.168724	15.52385
1286	2024-02-23 13:00:00	22	candela_ex_comes	13.91	1	50.92	1	0.0	1	4.75	1	168.69	1	null	6	975.44	1	41.168724	15.52385
1287	2024-02-23 14:00:00	22	candela_ex_comes	14.34	1	48.42	1	0.0	1	5.05	1	187.84	1	null	6	974.72	1	41.168724	15.52385
1288	2024-02-23 15:00:00	22	candela_ex_comes	14.97	1	42.39	1	0.0	1	6.26	1	202.16	1	null	6	974.39	1	41.168724	15.52385
1289	2024-02-23 16:00:00	22	candela_ex_comes	14.72	1	41.06	1	0.0	1	6.39	1	201.05	1	null	6	974.4	1	41.168724	15.52385
1290	2024-02-23 17:00:00	22	candela_ex_comes	14.73	1	42.32	1	0.0	1	5.41	1	213.97	1	null	6	974.3	1	41.168724	15.52385
1291	2024-02-23 18:00:00	22	candela_ex_comes	14.02	1	45.52	1	0.0	1	4.59	1	200.45	1	null	6	974.07	1	41.168724	15.52385
1292	2024-02-23 19:00:00	22	candela_ex_comes	13.4	1	49.93	1	0.0	1	3.18	1	166.66	1	null	6	973.86	1	41.168724	15.52385
1293	2024-02-23 20:00:00	22	candela_ex_comes	12.84	1	51.46	1	0.0	1	2.55	1	152.0	1	null	6	973.75	1	41.168724	15.52385
1294	2024-02-23 21:00:00	22	candela_ex_comes	13.0	1	52.9	1	0.0	1	5.59	1	186.37	1	null	6	973.66	1	41.168724	15.52385
1295	2024-02-23 22:00:00	22	candela_ex_comes	13.83	1	56.2	1	0.0	1	6.98	1	187.95	1	null	6	973.63	1	41.168724	15.52385
1296	2024-02-23 23:00:00	22	candela_ex_comes	13.84	1	60.69	1	0.0	1	7.21	1	191.97	1	null	6	973.61	1	41.168724	15.52385
1297	2024-02-24 00:00:00	22	candela_ex_comes	13.53	1	61.76	1	0.0	1	7.9	1	201.39	1	null	6	973.56	1	41.168724	15.52385
1298	2024-02-24 01:00:00	22	candela_ex_comes	12.93	1	67.22	1	0.0	1	6.38	1	168.79	1	null	6	973.63	1	41.168724	15.52385
1299	2024-02-24 02:00:00	22	candela_ex_comes	11.6	1	76.57	1	1.8	1	4.23	1	157.75	1	null	6	974.71	1	41.168724	15.52385
1300	2024-02-24 03:00:00	22	candela_ex_comes	9.89	1	85.79	1	1.6	1	3.92	1	241.23	1	null	6	975.37	1	41.168724	15.52385
1301	2024-02-24 04:00:00	22	candela_ex_comes	9.25	1	85.95	1	0.2	1	4.23	1	227.13	1	null	6	975.34	1	41.168724	15.52385
1302	2024-02-24 05:00:00	22	candela_ex_comes	9.81	1	82.18	1	0.0	1	3.27	1	204.73	1	null	6	975.25	1	41.168724	15.52385
1303	2024-02-24 06:00:00	22	candela_ex_comes	9.74	1	77.92	1	0.0	1	2.33	1	206.85	1	null	6	975.77	1	41.168724	15.52385
1304	2024-02-24 07:00:00	22	candela_ex_comes	9.24	1	79.31	1	0.0	1	2.7	1	265.13	1	null	6	976.19	1	41.168724	15.52385
1305	2024-02-24 08:00:00	22	candela_ex_comes	9.42	1	76.5	1	0.0	1	2.66	1	238.61	1	null	6	976.83	1	41.168724	15.52385
1306	2024-02-24 09:00:00	22	candela_ex_comes	9.8	1	74.43	1	0.0	1	2.69	1	221.57	1	null	6	977.67	1	41.168724	15.52385
1307	2024-02-24 10:00:00	22	candela_ex_comes	9.98	1	75.92	1	0.0	1	2.05	1	145.97	1	null	6	978.02	1	41.168724	15.52385
1308	2024-02-24 11:00:00	22	candela_ex_comes	10.52	1	72.86	1	0.0	1	3.19	1	221.73	1	null	6	978.16	1	41.168724	15.52385
1309	2024-02-24 12:00:00	22	candela_ex_comes	10.81	1	71.09	1	0.0	1	2.88	1	224.7	1	null	6	977.95	1	41.168724	15.52385
1310	2024-02-24 13:00:00	22	candela_ex_comes	11.21	1	71.52	1	0.0	1	4.27	1	132.75	1	null	6	977.34	1	41.168724	15.52385
1311	2024-02-24 14:00:00	22	candela_ex_comes	11.74	1	68.74	1	0.0	1	3.39	1	201.76	1	null	6	977.31	1	41.168724	15.52385
1312	2024-02-24 15:00:00	22	candela_ex_comes	12.56	1	61.94	1	0.0	1	3.33	1	241.24	1	null	6	976.93	1	41.168724	15.52385
1313	2024-02-24 16:00:00	22	candela_ex_comes	12.89	1	61.29	1	0.0	1	2.51	1	257.63	1	null	6	976.94	1	41.168724	15.52385
1314	2024-02-24 17:00:00	22	candela_ex_comes	12.55	1	63.02	1	0.0	1	2.23	1	121.51	1	null	6	977.11	1	41.168724	15.52385
1315	2024-02-24 18:00:00	22	candela_ex_comes	11.93	1	66.09	1	0.0	1	3.28	1	240.07	1	null	6	977.42	1	41.168724	15.52385
1316	2024-02-24 19:00:00	22	candela_ex_comes	10.35	1	71.68	1	0.0	1	3.65	1	246.67	1	null	6	977.9	1	41.168724	15.52385
1317	2024-02-24 20:00:00	22	candela_ex_comes	9.37	1	75.02	1	0.0	1	3.26	1	228.51	1	null	6	978.16	1	41.168724	15.52385
1318	2024-02-24 21:00:00	22	candela_ex_comes	8.82	1	78.8	1	0.0	1	2.68	1	224.01	1	null	6	978.57	1	41.168724	15.52385
1319	2024-02-24 22:00:00	22	candela_ex_comes	7.89	1	78.52	1	0.0	1	3.58	1	255.59	1	null	6	978.89	1	41.168724	15.52385
1320	2024-02-24 23:00:00	22	candela_ex_comes	7.42	1	81.69	1	0.0	1	5.43	1	246.29	1	null	6	978.58	1	41.168724	15.52385
1321	2024-02-25 00:00:00	22	candela_ex_comes	7.11	1	81.33	1	0.0	1	3.37	1	243.02	1	null	6	978.32	1	41.168724	15.52385
1322	2024-02-25 01:00:00	22	candela_ex_comes	7.27	1	82.14	1	0.0	1	1.66	1	241.67	1	null	6	978.71	1	41.168724	15.52385
1323	2024-02-25 02:00:00	22	candela_ex_comes	7.63	1	81.82	1	0.0	1	2.24	1	156.35	1	null	6	978.18	1	41.168724	15.52385
1324	2024-02-25 03:00:00	22	candela_ex_comes	7.17	1	84.57	1	0.0	1	2.64	1	136.54	1	null	6	977.62	1	41.168724	15.52385
1325	2024-02-25 04:00:00	22	candela_ex_comes	7.2	1	87.84	1	0.0	1	2.32	1	150.5	1	null	6	976.91	1	41.168724	15.52385
1326	2024-02-25 05:00:00	22	candela_ex_comes	7.3	1	87.38	1	0.0	1	3.64	1	244.76	1	null	6	977.11	1	41.168724	15.52385
1327	2024-02-25 06:00:00	22	candela_ex_comes	7.75	1	85.0	1	0.4	1	2.84	1	236.33	1	null	6	977.03	1	41.168724	15.52385
1328	2024-02-25 07:00:00	22	candela_ex_comes	7.55	1	86.13	1	0.0	1	0.9	1	124.92	1	null	6	976.78	1	41.168724	15.52385
1329	2024-02-25 08:00:00	22	candela_ex_comes	7.24	1	88.39	1	0.0	1	2.26	1	150.27	1	null	6	976.68	1	41.168724	15.52385
1330	2024-02-25 09:00:00	22	candela_ex_comes	7.3	1	90.61	1	0.8	1	3.32	1	248.92	1	null	6	977.2	1	41.168724	15.52385
1331	2024-02-25 10:00:00	22	candela_ex_comes	7.9	1	88.49	1	0.2	1	3.25	1	256.6	1	null	6	977.04	1	41.168724	15.52385
1332	2024-02-25 11:00:00	22	candela_ex_comes	8.08	1	88.31	1	0.4	1	2.3	1	256.51	1	null	6	976.65	1	41.168724	15.52385
1333	2024-02-25 12:00:00	22	candela_ex_comes	9.04	1	83.33	1	0.0	1	1.1	1	10.3	1	null	6	976.38	1	41.168724	15.52385
1334	2024-02-25 13:00:00	22	candela_ex_comes	9.42	1	82.45	1	0.0	1	2.42	1	355.38	1	null	6	975.47	1	41.168724	15.52385
1335	2024-02-25 14:00:00	22	candela_ex_comes	9.71	1	80.84	1	0.0	1	2.91	1	18.12	1	null	6	974.66	1	41.168724	15.52385
1336	2024-02-25 15:00:00	22	candela_ex_comes	9.77	1	80.01	1	0.0	1	2.85	1	58.43	1	null	6	974.8	1	41.168724	15.52385
1337	2024-02-25 16:00:00	22	candela_ex_comes	9.07	1	85.84	1	0.0	1	2.07	1	65.17	1	null	6	974.74	1	41.168724	15.52385
1338	2024-02-25 17:00:00	22	candela_ex_comes	8.72	1	90.53	1	0.0	1	1.87	1	348.0	1	null	6	974.73	1	41.168724	15.52385
1339	2024-02-25 18:00:00	22	candela_ex_comes	8.51	1	93.6	1	0.0	1	1.34	1	329.5	1	null	6	974.87	1	41.168724	15.52385
1340	2024-02-25 19:00:00	22	candela_ex_comes	8.31	1	95.11	1	0.0	1	1.41	1	4.38	1	null	6	975.21	1	41.168724	15.52385
1341	2024-02-25 20:00:00	22	candela_ex_comes	8.18	1	96.12	1	0.0	1	1.07	1	283.12	1	null	6	975.46	1	41.168724	15.52385
1342	2024-02-25 21:00:00	22	candela_ex_comes	8.05	1	96.73	1	0.2	1	0.8	1	249.36	1	null	6	975.33	1	41.168724	15.52385
1343	2024-02-25 22:00:00	22	candela_ex_comes	7.87	1	97.05	1	0.0	1	1.46	1	263.39	1	null	6	975.38	1	41.168724	15.52385
1344	2024-02-25 23:00:00	22	candela_ex_comes	7.49	1	97.12	1	0.0	1	1.85	1	234.68	1	null	6	975.34	1	41.168724	15.52385
1345	2024-02-26 00:00:00	22	candela_ex_comes	7.35	1	96.86	1	0.0	1	2.74	1	254.06	1	null	6	975.2	1	41.168724	15.52385
1346	2024-02-26 01:00:00	22	candela_ex_comes	7.46	1	95.88	1	0.0	1	3.27	1	251.12	1	null	6	975.21	1	41.168724	15.52385
1347	2024-02-26 02:00:00	22	candela_ex_comes	7.51	1	92.79	1	0.0	1	2.24	1	259.43	1	null	6	975.12	1	41.168724	15.52385
1348	2024-02-26 03:00:00	22	candela_ex_comes	7.6	1	89.36	1	0.0	1	2.17	1	237.8	1	null	6	975.04	1	41.168724	15.52385
1349	2024-02-26 04:00:00	22	candela_ex_comes	7.54	1	88.69	1	0.0	1	1.44	1	250.41	1	null	6	974.73	1	41.168724	15.52385
1350	2024-02-26 05:00:00	22	candela_ex_comes	7.66	1	87.99	1	0.0	1	0.94	1	212.93	1	null	6	974.68	1	41.168724	15.52385
1351	2024-02-26 06:00:00	22	candela_ex_comes	7.4	1	88.21	1	0.0	1	1.83	1	246.54	1	null	6	974.49	1	41.168724	15.52385
1352	2024-02-26 07:00:00	22	candela_ex_comes	7.14	1	90.04	1	0.0	1	2.4	1	242.31	1	null	6	974.7	1	41.168724	15.52385
1353	2024-02-26 08:00:00	22	candela_ex_comes	7.3	1	90.67	1	0.0	1	2.61	1	251.19	1	null	6	974.91	1	41.168724	15.52385
1354	2024-02-26 09:00:00	22	candela_ex_comes	9.24	1	85.0	1	0.2	1	1.96	1	139.91	1	null	6	974.94	1	41.168724	15.52385
1355	2024-02-26 10:00:00	22	candela_ex_comes	10.69	1	72.41	1	0.0	1	2.43	1	132.75	1	null	6	974.85	1	41.168724	15.52385
1356	2024-02-26 11:00:00	22	candela_ex_comes	12.19	1	66.11	1	0.0	1	3.24	1	139.67	1	null	6	974.57	1	41.168724	15.52385
1357	2024-02-26 12:00:00	22	candela_ex_comes	13.38	1	68.41	1	0.0	1	4.06	1	129.35	1	null	6	974.29	1	41.168724	15.52385
1358	2024-02-26 13:00:00	22	candela_ex_comes	14.96	1	53.07	1	0.0	1	3.36	1	261.79	1	null	6	973.85	1	41.168724	15.52385
1359	2024-02-26 14:00:00	22	candela_ex_comes	15.32	1	49.95	1	0.0	1	4.82	1	253.97	1	null	6	973.56	1	41.168724	15.52385
1360	2024-02-26 15:00:00	22	candela_ex_comes	15.71	1	50.14	1	0.0	1	5.38	1	261.19	1	null	6	973.4	1	41.168724	15.52385
1361	2024-02-26 16:00:00	22	candela_ex_comes	15.07	1	46.94	1	0.0	1	4.97	1	253.22	1	null	6	973.53	1	41.168724	15.52385
1362	2024-02-26 17:00:00	22	candela_ex_comes	13.8	1	49.17	1	0.0	1	4.77	1	230.25	1	null	6	973.73	1	41.168724	15.52385
1363	2024-02-26 18:00:00	22	candela_ex_comes	12.99	1	50.26	1	0.0	1	4.16	1	227.36	1	null	6	974.05	1	41.168724	15.52385
1364	2024-02-26 19:00:00	22	candela_ex_comes	11.98	1	56.18	1	0.0	1	2.93	1	221.27	1	null	6	974.64	1	41.168724	15.52385
1365	2024-02-26 20:00:00	22	candela_ex_comes	11.71	1	59.98	1	0.0	1	3.88	1	234.17	1	null	6	974.88	1	41.168724	15.52385
1366	2024-02-26 21:00:00	22	candela_ex_comes	11.87	1	54.45	1	0.0	1	4.03	1	227.98	1	null	6	975.43	1	41.168724	15.52385
1367	2024-02-26 22:00:00	22	candela_ex_comes	11.79	1	56.63	1	0.0	1	3.53	1	220.43	1	null	6	975.62	1	41.168724	15.52385
1368	2024-02-26 23:00:00	22	candela_ex_comes	10.78	1	60.75	1	0.0	1	2.61	1	224.48	1	null	6	975.67	1	41.168724	15.52385
1369	2024-02-27 00:00:00	22	candela_ex_comes	10.27	1	63.89	1	0.0	1	3.43	1	244.68	1	null	6	975.69	1	41.168724	15.52385
1370	2024-02-27 01:00:00	22	candela_ex_comes	9.23	1	64.78	1	0.0	1	4.56	1	252.67	1	null	6	975.76	1	41.168724	15.52385
1371	2024-02-27 02:00:00	22	candela_ex_comes	8.96	1	65.34	1	0.0	1	3.03	1	258.02	1	null	6	975.79	1	41.168724	15.52385
1372	2024-02-27 03:00:00	22	candela_ex_comes	9.24	1	64.91	1	0.0	1	1.96	1	158.56	1	null	6	975.6	1	41.168724	15.52385
1373	2024-02-27 04:00:00	22	candela_ex_comes	8.17	1	70.32	1	0.0	1	2.69	1	135.52	1	null	6	975.25	1	41.168724	15.52385
1374	2024-02-27 05:00:00	22	candela_ex_comes	8.02	1	74.84	1	0.0	1	1.77	1	137.08	1	null	6	975.26	1	41.168724	15.52385
1375	2024-02-27 06:00:00	22	candela_ex_comes	7.82	1	75.44	1	0.0	1	2.9	1	139.16	1	null	6	975.21	1	41.168724	15.52385
1376	2024-02-27 07:00:00	22	candela_ex_comes	7.45	1	76.74	1	0.0	1	3.14	1	131.39	1	null	6	975.16	1	41.168724	15.52385
1377	2024-02-27 08:00:00	22	candela_ex_comes	7.44	1	80.85	1	0.0	1	3.66	1	142.93	1	null	6	975.5	1	41.168724	15.52385
1378	2024-02-27 09:00:00	22	candela_ex_comes	9.43	1	76.89	1	0.0	1	2.81	1	138.3	1	null	6	975.76	1	41.168724	15.52385
1379	2024-02-27 10:00:00	22	candela_ex_comes	11.22	1	70.63	1	0.0	1	4.01	1	134.78	1	null	6	975.9	1	41.168724	15.52385
1380	2024-02-27 11:00:00	22	candela_ex_comes	12.9	1	64.77	1	0.0	1	4.73	1	134.48	1	null	6	975.77	1	41.168724	15.52385
1381	2024-02-27 12:00:00	22	candela_ex_comes	14.97	1	56.53	1	0.0	1	4.72	1	128.97	1	null	6	975.62	1	41.168724	15.52385
1382	2024-02-27 13:00:00	22	candela_ex_comes	15.73	1	56.52	1	0.0	1	6.02	1	126.41	1	null	6	974.96	1	41.168724	15.52385
1383	2024-02-27 14:00:00	22	candela_ex_comes	16.29	1	54.59	1	0.0	1	5.33	1	124.45	1	null	6	974.37	1	41.168724	15.52385
1384	2024-02-27 15:00:00	22	candela_ex_comes	16.64	1	53.38	1	0.0	1	6.54	1	124.28	1	null	6	974.01	1	41.168724	15.52385
1385	2024-02-27 16:00:00	22	candela_ex_comes	16.0	1	58.93	1	0.0	1	7.87	1	119.79	1	null	6	973.64	1	41.168724	15.52385
1386	2024-02-27 17:00:00	22	candela_ex_comes	14.73	1	65.33	1	0.0	1	7.4	1	124.11	1	null	6	974.01	1	41.168724	15.52385
1387	2024-02-27 18:00:00	22	candela_ex_comes	13.45	1	70.88	1	0.0	1	5.67	1	128.2	1	null	6	974.65	1	41.168724	15.52385
1388	2024-02-27 19:00:00	22	candela_ex_comes	12.66	1	77.45	1	0.0	1	6.02	1	133.83	1	null	6	975.24	1	41.168724	15.52385
1389	2024-02-27 20:00:00	22	candela_ex_comes	12.35	1	81.29	1	0.0	1	5.37	1	132.79	1	null	6	975.97	1	41.168724	15.52385
1390	2024-02-27 21:00:00	22	candela_ex_comes	12.03	1	82.63	1	0.0	1	4.34	1	137.47	1	null	6	976.44	1	41.168724	15.52385
1391	2024-02-27 22:00:00	22	candela_ex_comes	11.53	1	85.23	1	0.0	1	4.13	1	140.7	1	null	6	976.83	1	41.168724	15.52385
1392	2024-02-27 23:00:00	22	candela_ex_comes	11.24	1	87.18	1	0.0	1	3.19	1	151.64	1	null	6	977.12	1	41.168724	15.52385
1393	2024-02-28 00:00:00	22	candela_ex_comes	11.14	1	85.09	1	0.0	1	2.13	1	233.8	1	null	6	977.43	1	41.168724	15.52385
1394	2024-02-28 01:00:00	22	candela_ex_comes	11.49	1	83.81	1	0.0	1	1.1	1	186.22	1	null	6	977.62	1	41.168724	15.52385
1395	2024-02-28 02:00:00	22	candela_ex_comes	10.83	1	86.85	1	0.0	1	2.26	1	142.05	1	null	6	977.77	1	41.168724	15.52385
1396	2024-02-28 03:00:00	22	candela_ex_comes	10.5	1	88.21	1	0.0	1	1.4	1	146.89	1	null	6	977.65	1	41.168724	15.52385
1397	2024-02-28 04:00:00	22	candela_ex_comes	9.7	1	89.44	1	0.0	1	1.22	1	282.99	1	null	6	977.77	1	41.168724	15.52385
1398	2024-02-28 05:00:00	22	candela_ex_comes	9.8	1	90.84	1	0.0	1	1.67	1	233.14	1	null	6	977.8	1	41.168724	15.52385
1399	2024-02-28 06:00:00	22	candela_ex_comes	10.03	1	90.42	1	0.0	1	1.74	1	242.49	1	null	6	977.91	1	41.168724	15.52385
1400	2024-02-28 07:00:00	22	candela_ex_comes	9.99	1	89.04	1	0.0	1	1.74	1	234.56	1	null	6	978.14	1	41.168724	15.52385
1401	2024-02-28 08:00:00	22	candela_ex_comes	11.47	1	83.6	1	0.0	1	2.57	1	155.89	1	null	6	978.54	1	41.168724	15.52385
1402	2024-02-28 09:00:00	22	candela_ex_comes	12.26	1	77.71	1	0.0	1	7.3	1	119.32	1	null	6	978.36	1	41.168724	15.52385
1403	2024-02-28 10:00:00	22	candela_ex_comes	12.79	1	79.06	1	0.0	1	7.3	1	110.67	1	null	6	978.4	1	41.168724	15.52385
1404	2024-02-28 11:00:00	22	candela_ex_comes	13.1	5	null	6	0.0	5	null	6	null	6	null	6	978.32	5	41.168724	15.52385
1405	2024-02-28 12:00:00	22	candela_ex_comes	13.42	5	null	6	0.0	5	null	6	null	6	null	6	978.23	5	41.168724	15.52385
1406	2024-02-28 13:00:00	22	candela_ex_comes	13.73	5	null	6	0.0	5	null	6	null	6	null	6	978.15	5	41.168724	15.52385
1407	2024-02-28 14:00:00	22	candela_ex_comes	14.04	1	70.03	1	0.0	1	8.09	1	108.55	1	null	6	978.06	1	41.168724	15.52385
1408	2024-02-28 15:00:00	22	candela_ex_comes	13.89	1	72.39	1	0.0	1	7.41	1	106.08	1	null	6	977.54	1	41.168724	15.52385
1409	2024-02-28 16:00:00	22	candela_ex_comes	13.84	1	74.17	1	0.0	1	7.15	1	103.58	1	null	6	977.31	1	41.168724	15.52385
1410	2024-02-28 17:00:00	22	candela_ex_comes	13.62	1	76.18	1	0.0	1	9.21	1	102.58	1	null	6	977.06	1	41.168724	15.52385
1411	2024-02-28 18:00:00	22	candela_ex_comes	13.42	1	76.92	1	0.0	1	9.6	1	98.55	1	null	6	977.04	1	41.168724	15.52385
1412	2024-02-28 19:00:00	22	candela_ex_comes	13.16	1	78.69	1	0.0	1	8.27	1	94.77	1	null	6	977.34	1	41.168724	15.52385
1413	2024-02-28 20:00:00	22	candela_ex_comes	13.04	1	79.84	1	0.0	1	7.74	1	90.5	1	null	6	977.6	1	41.168724	15.52385
1414	2024-02-28 21:00:00	22	candela_ex_comes	13.17	1	78.77	1	0.0	1	7.83	1	93.95	1	null	6	977.61	1	41.168724	15.52385
1415	2024-02-28 22:00:00	22	candela_ex_comes	13.14	1	78.65	1	0.0	1	8.25	1	108.42	1	null	6	977.74	1	41.168724	15.52385
1416	2024-02-28 23:00:00	22	candela_ex_comes	13.11	1	78.59	1	0.0	1	7.35	1	114.75	1	null	6	977.65	1	41.168724	15.52385
1417	2024-02-29 00:00:00	22	candela_ex_comes	13.24	1	76.97	1	0.0	1	6.25	1	116.11	1	null	6	977.45	1	41.168724	15.52385
1418	2024-02-29 01:00:00	22	candela_ex_comes	13.17	1	76.59	1	0.0	1	9.47	1	118.23	1	null	6	977.02	1	41.168724	15.52385
1419	2024-02-29 02:00:00	22	candela_ex_comes	12.98	1	78.75	1	0.0	1	10.68	1	118.26	1	null	6	976.63	1	41.168724	15.52385
1420	2024-02-29 03:00:00	22	candela_ex_comes	12.99	1	78.11	1	0.0	1	9.8	1	115.89	1	null	6	976.24	1	41.168724	15.52385
1421	2024-02-29 04:00:00	22	candela_ex_comes	12.83	1	81.11	1	0.0	1	10.1	1	111.89	1	null	6	975.44	1	41.168724	15.52385
1422	2024-02-29 05:00:00	22	candela_ex_comes	12.81	1	83.12	1	0.0	1	11.81	1	108.26	1	null	6	974.97	1	41.168724	15.52385
1423	2024-02-29 06:00:00	22	candela_ex_comes	12.32	1	87.5	1	0.2	1	10.68	1	102.75	1	null	6	974.81	1	41.168724	15.52385
1424	2024-02-29 07:00:00	22	candela_ex_comes	11.72	1	85.6	1	0.6	1	10.42	1	108.27	1	null	6	974.74	1	41.168724	15.52385
1425	2024-02-29 08:00:00	22	candela_ex_comes	7.56	1	89.16	1	7.8	1	8.88	1	248.2	1	null	6	976.14	1	41.168724	15.52385
1426	2024-02-29 09:00:00	22	candela_ex_comes	7.32	1	90.84	1	4.8	1	5.25	1	232.8	1	null	6	976.87	1	41.168724	15.52385
1427	2024-02-29 10:00:00	22	candela_ex_comes	7.54	1	90.69	1	3.0	1	4.05	1	227.54	1	null	6	977.06	1	41.168724	15.52385
1428	2024-02-29 11:00:00	22	candela_ex_comes	7.67	1	89.82	1	4.6	1	2.42	1	217.21	1	null	6	977.33	1	41.168724	15.52385
1429	2024-02-29 12:00:00	22	candela_ex_comes	7.78	1	92.09	1	1.8	1	1.64	1	70.0	1	null	6	976.94	1	41.168724	15.52385
1430	2024-02-29 13:00:00	22	candela_ex_comes	7.35	1	91.61	1	0.2	1	2.17	1	26.88	1	null	6	975.85	1	41.168724	15.52385
1431	2024-02-29 14:00:00	22	candela_ex_comes	8.23	1	92.59	1	0.2	1	3.19	1	12.32	1	null	6	975.09	1	41.168724	15.52385
1432	2024-02-29 15:00:00	22	candela_ex_comes	8.15	1	94.83	1	0.0	1	2.6	1	10.71	1	null	6	974.66	1	41.168724	15.52385
1433	2024-02-29 16:00:00	22	candela_ex_comes	8.4	1	95.17	1	0.0	1	1.81	1	359.59	1	null	6	974.35	1	41.168724	15.52385
1434	2024-02-29 17:00:00	22	candela_ex_comes	8.62	1	94.72	1	0.0	1	0.79	1	0.33	1	null	6	974.15	1	41.168724	15.52385
1435	2024-02-29 18:00:00	22	candela_ex_comes	8.76	1	94.45	1	0.0	1	0.92	1	265.63	1	null	6	973.45	1	41.168724	15.52385
1436	2024-02-29 19:00:00	22	candela_ex_comes	8.67	1	94.63	1	0.0	1	1.31	1	6.0	1	null	6	973.02	1	41.168724	15.52385
1437	2024-02-29 20:00:00	22	candela_ex_comes	8.79	1	94.78	1	0.2	1	0.69	1	104.28	1	null	6	973.04	1	41.168724	15.52385
1438	2024-02-29 21:00:00	22	candela_ex_comes	8.64	1	94.88	1	0.4	1	1.75	1	241.03	1	null	6	972.83	1	41.168724	15.52385
1439	2024-02-29 22:00:00	22	candela_ex_comes	9.56	1	95.48	1	0.0	1	1.86	1	256.28	1	null	6	972.5	1	41.168724	15.52385
1440	2024-02-29 23:00:00	22	candela_ex_comes	10.18	1	95.75	1	0.0	1	1.51	1	261.09	1	null	6	972.31	1	41.168724	15.52385
1441	2024-03-01 00:00:00	22	candela_ex_comes	10.24	1	95.65	1	0.4	1	1.77	1	252.56	1	null	6	972.0	1	41.168724	15.52385
1442	2024-03-01 01:00:00	22	candela_ex_comes	10.2	1	95.39	1	0.2	1	1.95	1	243.97	1	null	6	971.57	1	41.168724	15.52385
1443	2024-03-01 02:00:00	22	candela_ex_comes	5.16	1	89.82	1	0.6	1	6.94	1	249.37	1	null	6	971.76	1	41.168724	15.52385
1444	2024-03-01 03:00:00	22	candela_ex_comes	7.87	1	83.0	1	0.0	1	8.19	1	255.96	1	null	6	971.49	1	41.168724	15.52385
1445	2024-03-01 04:00:00	22	candela_ex_comes	7.95	1	81.47	1	0.0	1	3.24	1	245.97	1	null	6	971.4	1	41.168724	15.52385
1446	2024-03-01 05:00:00	22	candela_ex_comes	8.13	1	79.82	1	0.0	1	2.43	1	149.29	1	null	6	971.36	1	41.168724	15.52385
1447	2024-03-01 06:00:00	22	candela_ex_comes	7.59	1	79.32	1	0.0	1	2.23	1	152.55	1	null	6	971.7	1	41.168724	15.52385
1448	2024-03-01 07:00:00	22	candela_ex_comes	6.85	1	82.15	1	0.0	1	3.39	1	161.73	1	null	6	972.42	1	41.168724	15.52385
1449	2024-03-01 08:00:00	22	candela_ex_comes	7.59	1	83.18	1	0.0	1	3.34	1	134.59	1	null	6	972.77	1	41.168724	15.52385
1450	2024-03-01 09:00:00	22	candela_ex_comes	10.01	1	72.91	1	0.0	1	3.7	1	208.3	1	null	6	972.93	1	41.168724	15.52385
1451	2024-03-01 10:00:00	22	candela_ex_comes	11.48	1	66.46	1	0.0	1	4.33	1	212.56	1	null	6	973.04	1	41.168724	15.52385
1452	2024-03-01 11:00:00	22	candela_ex_comes	12.51	1	61.71	1	0.0	1	4.25	1	212.43	1	null	6	973.21	1	41.168724	15.52385
1453	2024-03-01 12:00:00	22	candela_ex_comes	13.39	1	57.23	1	0.0	1	4.07	1	209.52	1	null	6	973.51	1	41.168724	15.52385
1454	2024-03-01 13:00:00	22	candela_ex_comes	13.41	1	57.24	1	0.0	1	4.45	1	238.71	1	null	6	973.31	1	41.168724	15.52385
1455	2024-03-01 14:00:00	22	candela_ex_comes	14.03	1	54.03	1	0.0	1	5.36	1	238.36	1	null	6	973.29	1	41.168724	15.52385
1456	2024-03-01 15:00:00	22	candela_ex_comes	14.18	1	54.16	1	0.0	1	5.01	1	232.28	1	null	6	973.11	1	41.168724	15.52385
1457	2024-03-01 16:00:00	22	candela_ex_comes	14.54	1	52.2	1	0.0	1	5.33	1	239.1	1	null	6	973.05	1	41.168724	15.52385
1458	2024-03-01 17:00:00	22	candela_ex_comes	14.09	1	54.85	1	0.0	1	4.55	1	243.14	1	null	6	973.29	1	41.168724	15.52385
1459	2024-03-01 18:00:00	22	candela_ex_comes	12.11	1	65.92	1	0.0	1	3.17	1	249.65	1	null	6	973.9	1	41.168724	15.52385
1460	2024-03-01 19:00:00	22	candela_ex_comes	10.91	1	69.59	1	0.0	1	3.91	1	224.19	1	null	6	974.38	1	41.168724	15.52385
1461	2024-03-01 20:00:00	22	candela_ex_comes	10.6	1	65.91	1	0.0	1	1.81	1	197.59	1	null	6	974.67	1	41.168724	15.52385
1462	2024-03-01 21:00:00	22	candela_ex_comes	9.84	1	66.78	1	0.0	1	2.56	1	207.16	1	null	6	974.88	1	41.168724	15.52385
1463	2024-03-01 22:00:00	22	candela_ex_comes	8.85	1	71.33	1	0.0	1	3.14	1	237.33	1	null	6	975.23	1	41.168724	15.52385
1464	2024-03-01 23:00:00	22	candela_ex_comes	7.89	1	76.72	1	0.0	1	2.57	1	243.79	1	null	6	975.33	1	41.168724	15.52385
1465	2024-03-02 00:00:00	22	candela_ex_comes	7.75	1	77.91	1	0.0	1	1.43	1	137.63	1	null	6	975.47	1	41.168724	15.52385
1466	2024-03-02 01:00:00	22	candela_ex_comes	7.38	1	79.33	1	0.0	1	1.75	1	222.58	1	null	6	975.47	1	41.168724	15.52385
1467	2024-03-02 02:00:00	22	candela_ex_comes	6.97	1	79.96	1	0.0	1	3.13	1	240.86	1	null	6	975.71	1	41.168724	15.52385
1468	2024-03-02 03:00:00	22	candela_ex_comes	6.52	1	82.91	1	0.0	1	2.0	1	247.1	1	null	6	975.77	1	41.168724	15.52385
1469	2024-03-02 04:00:00	22	candela_ex_comes	7.57	1	80.87	1	0.0	1	3.59	1	239.83	1	null	6	975.69	1	41.168724	15.52385
1470	2024-03-02 05:00:00	22	candela_ex_comes	7.59	1	75.87	1	0.0	1	3.06	1	226.37	1	null	6	975.72	1	41.168724	15.52385
1471	2024-03-02 06:00:00	22	candela_ex_comes	7.34	1	74.43	1	0.0	1	1.53	1	116.9	1	null	6	975.91	1	41.168724	15.52385
1472	2024-03-02 07:00:00	22	candela_ex_comes	7.53	1	77.3	1	0.0	1	1.18	1	142.76	1	null	6	976.27	1	41.168724	15.52385
1473	2024-03-02 08:00:00	22	candela_ex_comes	7.32	1	78.38	1	0.0	1	2.75	1	230.59	1	null	6	976.86	1	41.168724	15.52385
1474	2024-03-02 09:00:00	22	candela_ex_comes	9.32	1	76.44	1	0.0	1	2.26	1	235.96	1	null	6	977.35	1	41.168724	15.52385
1475	2024-03-02 10:00:00	22	candela_ex_comes	11.75	1	70.15	1	0.0	1	2.68	1	239.87	1	null	6	977.59	1	41.168724	15.52385
1476	2024-03-02 11:00:00	22	candela_ex_comes	12.64	1	66.26	1	0.0	1	3.85	1	251.81	1	null	6	977.68	1	41.168724	15.52385
1477	2024-03-02 12:00:00	22	candela_ex_comes	13.32	1	65.75	1	0.0	1	3.39	1	252.22	1	null	6	977.73	1	41.168724	15.52385
1478	2024-03-02 13:00:00	22	candela_ex_comes	14.14	1	62.62	1	0.0	1	6.61	1	252.77	1	null	6	977.54	1	41.168724	15.52385
1479	2024-03-02 14:00:00	22	candela_ex_comes	14.01	1	63.85	1	0.0	1	4.97	1	236.36	1	null	6	977.43	1	41.168724	15.52385
1480	2024-03-02 15:00:00	22	candela_ex_comes	14.43	1	62.06	1	0.0	1	7.15	1	248.69	1	null	6	977.52	1	41.168724	15.52385
1481	2024-03-02 16:00:00	22	candela_ex_comes	14.32	1	61.74	1	0.0	1	7.79	1	253.69	1	null	6	977.54	1	41.168724	15.52385
1482	2024-03-02 17:00:00	22	candela_ex_comes	13.58	1	64.56	1	0.0	1	7.81	1	254.25	1	null	6	977.69	1	41.168724	15.52385
1483	2024-03-02 18:00:00	22	candela_ex_comes	12.09	1	70.34	1	0.0	1	8.74	1	245.24	1	null	6	978.12	1	41.168724	15.52385
1484	2024-03-02 19:00:00	22	candela_ex_comes	11.07	1	76.28	1	0.0	1	4.89	1	228.26	1	null	6	978.5	1	41.168724	15.52385
1485	2024-03-02 20:00:00	22	candela_ex_comes	10.29	1	75.35	1	0.0	1	5.2	1	244.71	1	null	6	978.84	1	41.168724	15.52385
1486	2024-03-02 21:00:00	22	candela_ex_comes	9.41	1	78.04	1	0.0	1	7.42	1	243.3	1	null	6	979.09	1	41.168724	15.52385
1487	2024-03-02 22:00:00	22	candela_ex_comes	9.17	1	78.05	1	0.0	1	6.16	1	255.61	1	null	6	979.62	1	41.168724	15.52385
1488	2024-03-02 23:00:00	22	candela_ex_comes	8.93	1	76.87	1	0.0	1	5.75	1	247.32	1	null	6	980.01	1	41.168724	15.52385
1489	2024-03-03 00:00:00	22	candela_ex_comes	9.04	1	70.89	1	0.0	1	4.52	1	218.56	1	null	6	980.12	1	41.168724	15.52385
1490	2024-03-03 01:00:00	22	candela_ex_comes	8.07	1	75.93	1	0.0	1	4.47	1	241.3	1	null	6	979.94	1	41.168724	15.52385
1491	2024-03-03 02:00:00	22	candela_ex_comes	7.7	1	78.56	1	0.0	1	4.93	1	248.05	1	null	6	979.89	1	41.168724	15.52385
1492	2024-03-03 03:00:00	22	candela_ex_comes	7.55	1	77.87	1	0.0	1	5.74	1	250.88	1	null	6	979.49	1	41.168724	15.52385
1493	2024-03-03 04:00:00	22	candela_ex_comes	8.0	1	75.37	1	0.0	1	5.97	1	236.58	1	null	6	978.97	1	41.168724	15.52385
1494	2024-03-03 05:00:00	22	candela_ex_comes	8.03	1	75.15	1	0.0	1	7.02	1	236.24	1	null	6	978.76	1	41.168724	15.52385
1495	2024-03-03 06:00:00	22	candela_ex_comes	7.65	1	76.36	1	0.0	1	6.5	1	249.54	1	null	6	978.72	1	41.168724	15.52385
1496	2024-03-03 07:00:00	22	candela_ex_comes	7.39	1	77.23	1	0.0	1	4.98	1	237.61	1	null	6	978.73	1	41.168724	15.52385
1497	2024-03-03 08:00:00	22	candela_ex_comes	7.63	1	77.0	1	0.0	1	4.74	1	232.33	1	null	6	978.96	1	41.168724	15.52385
1498	2024-03-03 09:00:00	22	candela_ex_comes	9.38	1	71.75	1	0.0	1	1.85	1	246.36	1	null	6	979.29	1	41.168724	15.52385
1499	2024-03-03 10:00:00	22	candela_ex_comes	11.5	1	66.87	1	0.0	1	2.91	1	227.82	1	null	6	978.68	1	41.168724	15.52385
1500	2024-03-03 11:00:00	22	candela_ex_comes	12.84	1	57.71	1	0.0	1	3.88	1	233.93	1	null	6	978.28	1	41.168724	15.52385
1501	2024-03-03 12:00:00	22	candela_ex_comes	13.93	1	54.32	1	0.0	1	5.03	1	245.15	1	null	6	977.91	1	41.168724	15.52385
1502	2024-03-03 13:00:00	22	candela_ex_comes	14.78	1	52.85	1	0.0	1	3.63	1	247.99	1	null	6	976.97	1	41.168724	15.52385
1503	2024-03-03 14:00:00	22	candela_ex_comes	16.07	1	48.53	1	0.0	1	2.48	1	243.72	1	null	6	975.99	1	41.168724	15.52385
1504	2024-03-03 15:00:00	22	candela_ex_comes	16.64	1	45.61	1	0.0	1	2.73	1	169.7	1	null	6	975.28	1	41.168724	15.52385
1505	2024-03-03 16:00:00	22	candela_ex_comes	16.4	1	47.75	1	0.0	1	3.06	1	125.61	1	null	6	974.97	1	41.168724	15.52385
1506	2024-03-03 17:00:00	22	candela_ex_comes	15.82	1	53.87	1	0.0	1	3.65	1	107.89	1	null	6	974.45	1	41.168724	15.52385
1507	2024-03-03 18:00:00	22	candela_ex_comes	14.22	1	69.06	1	0.0	1	2.38	1	123.68	1	null	6	974.39	1	41.168724	15.52385
1508	2024-03-03 19:00:00	22	candela_ex_comes	12.94	1	56.54	1	0.0	1	2.27	1	214.57	1	null	6	974.48	1	41.168724	15.52385
1509	2024-03-03 20:00:00	22	candela_ex_comes	11.04	1	71.15	1	0.0	1	3.52	1	140.26	1	null	6	974.67	1	41.168724	15.52385
1510	2024-03-03 21:00:00	22	candela_ex_comes	9.6	1	85.39	1	0.0	1	3.12	1	154.76	1	null	6	974.42	1	41.168724	15.52385
1511	2024-03-03 22:00:00	22	candela_ex_comes	9.1	1	87.38	1	0.0	1	2.96	1	157.43	1	null	6	974.05	1	41.168724	15.52385
1512	2024-03-03 23:00:00	22	candela_ex_comes	8.95	1	85.9	1	0.0	1	3.59	1	143.23	1	null	6	973.65	1	41.168724	15.52385
1513	2024-03-04 00:00:00	22	candela_ex_comes	8.53	1	88.2	1	0.0	1	4.52	1	145.92	1	null	6	973.15	1	41.168724	15.52385
1514	2024-03-04 01:00:00	22	candela_ex_comes	8.63	1	88.28	1	0.0	1	4.33	1	153.21	1	null	6	972.78	1	41.168724	15.52385
1515	2024-03-04 02:00:00	22	candela_ex_comes	9.02	1	83.48	1	0.0	1	4.55	1	152.66	1	null	6	972.68	1	41.168724	15.52385
1516	2024-03-04 03:00:00	22	candela_ex_comes	8.95	1	82.52	1	0.0	1	4.8	1	251.35	1	null	6	972.53	1	41.168724	15.52385
1517	2024-03-04 04:00:00	22	candela_ex_comes	8.87	1	82.87	1	0.0	1	5.62	1	246.91	1	null	6	972.33	1	41.168724	15.52385
1518	2024-03-04 05:00:00	22	candela_ex_comes	8.19	1	84.05	1	0.0	1	4.39	1	254.73	1	null	6	972.29	1	41.168724	15.52385
1519	2024-03-04 06:00:00	22	candela_ex_comes	8.25	1	83.8	1	0.0	1	4.63	1	227.84	1	null	6	972.63	1	41.168724	15.52385
1520	2024-03-04 07:00:00	22	candela_ex_comes	7.78	1	78.01	1	0.0	1	4.07	1	245.49	1	null	6	972.12	1	41.168724	15.52385
1521	2024-03-04 08:00:00	22	candela_ex_comes	7.35	1	80.76	1	0.0	1	4.79	1	257.15	1	null	6	972.18	1	41.168724	15.52385
1522	2024-03-04 09:00:00	22	candela_ex_comes	7.37	1	81.45	1	0.0	1	6.88	1	251.58	1	null	6	972.14	1	41.168724	15.52385
1523	2024-03-04 10:00:00	22	candela_ex_comes	7.1	1	76.86	1	0.0	1	7.82	1	244.9	1	null	6	972.4	1	41.168724	15.52385
1524	2024-03-04 11:00:00	22	candela_ex_comes	7.78	1	74.52	1	0.0	1	5.01	1	246.77	1	null	6	971.59	1	41.168724	15.52385
1525	2024-03-04 12:00:00	22	candela_ex_comes	8.22	1	70.14	1	0.0	1	4.26	1	256.37	1	null	6	971.92	1	41.168724	15.52385
1526	2024-03-04 13:00:00	22	candela_ex_comes	9.01	1	69.9	1	0.0	1	3.24	1	257.91	1	null	6	971.66	1	41.168724	15.52385
1527	2024-03-04 14:00:00	22	candela_ex_comes	10.23	1	64.8	1	0.0	1	6.96	1	260.62	1	null	6	971.03	1	41.168724	15.52385
1528	2024-03-04 15:00:00	22	candela_ex_comes	11.52	1	57.75	1	0.0	1	8.85	1	264.18	1	null	6	970.26	1	41.168724	15.52385
1529	2024-03-04 16:00:00	22	candela_ex_comes	12.05	1	51.67	1	0.0	1	7.54	1	275.97	1	null	6	970.32	1	41.168724	15.52385
1530	2024-03-04 17:00:00	22	candela_ex_comes	10.15	1	65.29	1	0.0	1	7.3	1	325.08	1	null	6	970.43	1	41.168724	15.52385
1531	2024-03-04 18:00:00	22	candela_ex_comes	8.48	1	78.51	1	0.0	1	4.65	1	333.07	1	null	6	971.1	1	41.168724	15.52385
1532	2024-03-04 19:00:00	22	candela_ex_comes	7.77	1	82.67	1	0.0	1	2.59	1	16.41	1	null	6	971.49	1	41.168724	15.52385
1533	2024-03-04 20:00:00	22	candela_ex_comes	7.24	1	86.36	1	0.0	1	1.44	1	22.69	1	null	6	971.72	1	41.168724	15.52385
1534	2024-03-04 21:00:00	22	candela_ex_comes	7.01	1	88.66	1	0.0	1	0.66	1	96.96	1	null	6	972.14	1	41.168724	15.52385
1535	2024-03-04 22:00:00	22	candela_ex_comes	5.45	1	90.28	1	0.0	1	1.95	1	155.45	1	null	6	972.78	1	41.168724	15.52385
1536	2024-03-04 23:00:00	22	candela_ex_comes	4.76	1	90.01	1	0.0	1	2.69	1	244.24	1	null	6	973.24	1	41.168724	15.52385
1537	2024-03-05 00:00:00	22	candela_ex_comes	4.27	1	87.87	1	0.0	1	1.76	1	216.89	1	null	6	973.38	1	41.168724	15.52385
1538	2024-03-05 01:00:00	22	candela_ex_comes	4.65	1	86.07	1	0.0	1	1.36	1	209.57	1	null	6	973.68	1	41.168724	15.52385
1539	2024-03-05 02:00:00	22	candela_ex_comes	4.72	1	85.07	1	0.0	1	2.28	1	150.54	1	null	6	974.14	1	41.168724	15.52385
1540	2024-03-05 03:00:00	22	candela_ex_comes	5.61	1	80.79	1	0.0	1	3.58	1	219.69	1	null	6	974.48	1	41.168724	15.52385
1541	2024-03-05 04:00:00	22	candela_ex_comes	5.48	1	79.02	1	0.0	1	2.97	1	235.08	1	null	6	974.82	1	41.168724	15.52385
1542	2024-03-05 05:00:00	22	candela_ex_comes	4.6	1	82.71	1	0.0	1	2.3	1	252.06	1	null	6	975.3	1	41.168724	15.52385
1543	2024-03-05 06:00:00	22	candela_ex_comes	3.75	1	85.48	1	0.0	1	3.37	1	257.82	1	null	6	976.02	1	41.168724	15.52385
1544	2024-03-05 07:00:00	22	candela_ex_comes	3.89	1	86.1	1	0.0	1	4.67	1	248.1	1	null	6	976.5	1	41.168724	15.52385
1545	2024-03-05 08:00:00	22	candela_ex_comes	4.56	1	87.43	1	0.0	1	4.87	1	251.35	1	null	6	977.24	1	41.168724	15.52385
1546	2024-03-05 09:00:00	22	candela_ex_comes	7.18	1	85.17	1	0.0	1	2.77	1	260.01	1	null	6	977.56	1	41.168724	15.52385
1547	2024-03-05 10:00:00	22	candela_ex_comes	9.55	1	74.33	1	0.0	1	4.46	1	313.46	1	null	6	977.75	1	41.168724	15.52385
1548	2024-03-05 11:00:00	22	candela_ex_comes	10.63	1	73.93	1	0.0	1	4.74	1	315.89	1	null	6	978.0	1	41.168724	15.52385
1549	2024-03-05 12:00:00	22	candela_ex_comes	11.2	1	73.8	1	0.0	1	4.84	1	327.1	1	null	6	978.25	1	41.168724	15.52385
1550	2024-03-05 13:00:00	22	candela_ex_comes	11.51	1	75.74	1	0.0	1	4.03	1	320.49	1	null	6	978.4	1	41.168724	15.52385
1551	2024-03-05 14:00:00	22	candela_ex_comes	10.95	1	82.84	1	0.0	1	3.63	1	328.85	1	null	6	978.49	1	41.168724	15.52385
1552	2024-03-05 15:00:00	22	candela_ex_comes	11.57	1	81.29	1	0.0	1	4.06	1	324.63	1	null	6	978.42	1	41.168724	15.52385
1553	2024-03-05 16:00:00	22	candela_ex_comes	11.91	1	76.29	1	0.0	1	3.61	1	252.75	1	null	6	978.52	1	41.168724	15.52385
1554	2024-03-05 17:00:00	22	candela_ex_comes	12.49	1	72.95	1	0.0	1	2.83	1	253.59	1	null	6	978.83	1	41.168724	15.52385
1555	2024-03-05 18:00:00	22	candela_ex_comes	11.7	1	74.9	1	0.0	1	3.72	1	250.27	1	null	6	979.2	1	41.168724	15.52385
1556	2024-03-05 19:00:00	22	candela_ex_comes	10.56	1	76.55	1	0.0	1	4.23	1	243.82	1	null	6	979.59	1	41.168724	15.52385
1557	2024-03-05 20:00:00	22	candela_ex_comes	10.05	1	78.71	1	0.0	1	5.31	1	250.12	1	null	6	979.88	1	41.168724	15.52385
1558	2024-03-05 21:00:00	22	candela_ex_comes	9.89	1	76.62	1	0.0	1	6.56	1	243.58	1	null	6	980.06	1	41.168724	15.52385
1559	2024-03-05 22:00:00	22	candela_ex_comes	9.55	1	75.68	1	0.0	1	6.58	1	247.05	1	null	6	980.22	1	41.168724	15.52385
1560	2024-03-05 23:00:00	22	candela_ex_comes	9.03	1	73.49	1	0.0	1	7.13	1	250.64	1	null	6	980.67	1	41.168724	15.52385
1561	2024-03-06 00:00:00	22	candela_ex_comes	8.72	1	73.46	1	0.0	1	6.57	1	248.56	1	null	6	981.09	1	41.168724	15.52385
1562	2024-03-06 01:00:00	22	candela_ex_comes	8.08	1	75.84	1	0.0	1	6.46	1	251.51	1	null	6	981.38	1	41.168724	15.52385
1563	2024-03-06 02:00:00	22	candela_ex_comes	8.28	1	74.7	1	0.0	1	7.45	1	250.12	1	null	6	981.55	1	41.168724	15.52385
1564	2024-03-06 03:00:00	22	candela_ex_comes	9.47	1	73.28	1	0.0	1	9.2	1	247.63	1	null	6	981.62	1	41.168724	15.52385
1565	2024-03-06 04:00:00	22	candela_ex_comes	9.1	1	76.25	1	0.0	1	8.19	1	246.39	1	null	6	981.42	1	41.168724	15.52385
1566	2024-03-06 05:00:00	22	candela_ex_comes	8.59	1	80.81	1	0.0	1	8.06	1	254.33	1	null	6	981.1	1	41.168724	15.52385
1567	2024-03-06 06:00:00	22	candela_ex_comes	8.52	1	81.38	1	0.0	1	8.4	1	248.22	1	null	6	981.16	1	41.168724	15.52385
1568	2024-03-06 07:00:00	22	candela_ex_comes	8.4	1	81.28	1	0.0	1	6.47	1	241.94	1	null	6	981.51	1	41.168724	15.52385
1569	2024-03-06 08:00:00	22	candela_ex_comes	8.93	1	80.16	1	0.0	1	3.64	1	236.91	1	null	6	981.99	1	41.168724	15.52385
1570	2024-03-06 09:00:00	22	candela_ex_comes	10.88	1	75.59	1	0.0	1	6.69	1	242.34	1	null	6	982.07	1	41.168724	15.52385
1571	2024-03-06 10:00:00	22	candela_ex_comes	12.3	1	68.68	1	0.0	1	9.37	1	253.29	1	null	6	982.08	1	41.168724	15.52385
1572	2024-03-06 11:00:00	22	candela_ex_comes	13.22	1	63.83	1	0.0	1	9.44	1	257.02	1	null	6	982.2	1	41.168724	15.52385
1573	2024-03-06 12:00:00	22	candela_ex_comes	14.08	1	58.76	1	0.0	1	10.24	1	261.27	1	null	6	982.18	1	41.168724	15.52385
1574	2024-03-06 13:00:00	22	candela_ex_comes	14.53	1	54.96	1	0.0	1	10.13	1	257.14	1	null	6	982.04	1	41.168724	15.52385
1575	2024-03-06 14:00:00	22	candela_ex_comes	15.04	1	49.23	1	0.0	1	9.28	1	259.07	1	null	6	981.04	1	41.168724	15.52385
1576	2024-03-06 15:00:00	22	candela_ex_comes	14.01	1	49.62	1	0.0	1	13.66	1	262.06	1	null	6	980.63	1	41.168724	15.52385
1577	2024-03-06 16:00:00	22	candela_ex_comes	12.8	1	49.34	1	0.0	1	16.39	1	257.33	1	null	6	980.39	1	41.168724	15.52385
1578	2024-03-06 17:00:00	22	candela_ex_comes	11.68	1	50.69	1	0.0	1	15.91	1	256.85	1	null	6	980.59	1	41.168724	15.52385
1579	2024-03-06 18:00:00	22	candela_ex_comes	10.68	1	52.8	1	0.0	1	14.99	1	252.58	1	null	6	981.37	1	41.168724	15.52385
1580	2024-03-06 19:00:00	22	candela_ex_comes	9.69	1	58.58	1	0.0	1	11.39	1	247.29	1	null	6	982.05	1	41.168724	15.52385
1581	2024-03-06 20:00:00	22	candela_ex_comes	8.79	1	61.36	1	0.0	1	10.6	1	246.23	1	null	6	982.07	1	41.168724	15.52385
1582	2024-03-06 21:00:00	22	candela_ex_comes	8.52	1	65.76	1	0.0	1	8.16	1	258.13	1	null	6	982.83	1	41.168724	15.52385
1583	2024-03-06 22:00:00	22	candela_ex_comes	8.11	1	68.33	1	0.0	1	3.15	1	255.89	1	null	6	983.21	1	41.168724	15.52385
1584	2024-03-06 23:00:00	22	candela_ex_comes	7.39	1	68.13	1	0.0	1	1.68	1	130.91	1	null	6	982.84	1	41.168724	15.52385
1585	2024-03-07 00:00:00	22	candela_ex_comes	7.01	1	70.18	1	0.0	1	2.52	1	152.0	1	null	6	982.54	1	41.168724	15.52385
1586	2024-03-07 01:00:00	22	candela_ex_comes	7.16	1	69.59	1	0.0	1	3.23	1	222.7	1	null	6	982.06	1	41.168724	15.52385
1587	2024-03-07 02:00:00	22	candela_ex_comes	6.74	1	72.98	1	0.0	1	3.29	1	293.56	1	null	6	982.06	1	41.168724	15.52385
1588	2024-03-07 03:00:00	22	candela_ex_comes	7.06	1	70.68	1	0.0	1	4.85	1	239.04	1	null	6	981.83	1	41.168724	15.52385
1589	2024-03-07 04:00:00	22	candela_ex_comes	6.44	1	70.88	1	0.0	1	4.91	1	225.48	1	null	6	981.58	1	41.168724	15.52385
1590	2024-03-07 05:00:00	22	candela_ex_comes	6.58	1	73.55	1	0.0	1	7.56	1	240.53	1	null	6	981.48	1	41.168724	15.52385
1591	2024-03-07 06:00:00	22	candela_ex_comes	5.98	1	76.51	1	0.0	1	7.21	1	244.68	1	null	6	981.6	1	41.168724	15.52385
1592	2024-03-07 07:00:00	22	candela_ex_comes	5.07	1	80.48	1	0.0	1	5.11	1	262.68	1	null	6	981.88	1	41.168724	15.52385
1593	2024-03-07 08:00:00	22	candela_ex_comes	6.07	1	80.65	1	0.0	1	2.34	1	278.91	1	null	6	982.29	1	41.168724	15.52385
1594	2024-03-07 09:00:00	22	candela_ex_comes	7.84	1	75.3	1	0.0	1	1.78	1	328.3	1	null	6	982.28	1	41.168724	15.52385
1595	2024-03-07 10:00:00	22	candela_ex_comes	9.63	1	65.55	1	0.0	1	3.04	1	308.79	1	null	6	982.0	1	41.168724	15.52385
1596	2024-03-07 11:00:00	22	candela_ex_comes	10.32	1	54.77	1	0.0	1	6.3	1	281.08	1	null	6	981.87	1	41.168724	15.52385
1597	2024-03-07 12:00:00	22	candela_ex_comes	10.67	1	53.36	1	0.0	1	6.03	1	271.8	1	null	6	981.98	1	41.168724	15.52385
1598	2024-03-07 13:00:00	22	candela_ex_comes	10.69	1	53.86	1	0.0	1	3.38	1	358.02	1	null	6	981.76	1	41.168724	15.52385
1599	2024-03-07 14:00:00	22	candela_ex_comes	11.04	1	54.26	1	0.0	1	2.98	1	4.79	1	null	6	981.42	1	41.168724	15.52385
1600	2024-03-07 15:00:00	22	candela_ex_comes	11.25	1	54.02	1	0.0	1	3.91	1	345.86	1	null	6	981.36	1	41.168724	15.52385
1601	2024-03-07 16:00:00	22	candela_ex_comes	10.17	1	67.98	1	0.0	1	6.29	1	349.27	1	null	6	981.7	1	41.168724	15.52385
1602	2024-03-07 17:00:00	22	candela_ex_comes	9.41	1	70.42	1	0.0	1	4.65	1	353.31	1	null	6	981.95	1	41.168724	15.52385
1603	2024-03-07 18:00:00	22	candela_ex_comes	8.64	1	75.14	1	0.0	1	3.04	1	4.35	1	null	6	982.4	1	41.168724	15.52385
1604	2024-03-07 19:00:00	22	candela_ex_comes	7.98	1	78.44	1	0.0	1	3.51	1	357.11	1	null	6	982.98	1	41.168724	15.52385
1605	2024-03-07 20:00:00	22	candela_ex_comes	7.28	1	80.99	1	0.0	1	2.54	1	329.14	1	null	6	983.43	1	41.168724	15.52385
1606	2024-03-07 21:00:00	22	candela_ex_comes	6.86	1	84.26	1	0.0	1	2.08	1	285.52	1	null	6	983.68	1	41.168724	15.52385
1607	2024-03-07 22:00:00	22	candela_ex_comes	6.44	1	82.94	1	0.0	1	2.67	1	260.59	1	null	6	983.77	1	41.168724	15.52385
1608	2024-03-07 23:00:00	22	candela_ex_comes	4.96	1	86.14	1	0.0	1	3.48	1	246.38	1	null	6	983.81	1	41.168724	15.52385
1609	2024-03-08 00:00:00	22	candela_ex_comes	5.23	1	87.45	1	0.0	1	2.26	1	239.61	1	null	6	984.0	1	41.168724	15.52385
1610	2024-03-08 01:00:00	22	candela_ex_comes	5.26	1	87.41	1	0.0	1	1.7	1	240.19	1	null	6	983.84	1	41.168724	15.52385
1611	2024-03-08 02:00:00	22	candela_ex_comes	5.51	1	85.98	1	0.0	1	2.12	1	240.28	1	null	6	983.82	1	41.168724	15.52385
1612	2024-03-08 03:00:00	22	candela_ex_comes	5.0	1	86.0	1	0.0	1	3.6	1	243.9	1	null	6	983.51	1	41.168724	15.52385
1613	2024-03-08 04:00:00	22	candela_ex_comes	4.82	1	85.2	1	0.0	1	2.36	1	165.57	1	null	6	983.28	1	41.168724	15.52385
1614	2024-03-08 05:00:00	22	candela_ex_comes	4.54	1	87.63	1	0.0	1	1.29	1	207.54	1	null	6	983.27	1	41.168724	15.52385
1615	2024-03-08 06:00:00	22	candela_ex_comes	4.12	1	86.47	1	0.0	1	2.64	1	157.38	1	null	6	983.05	1	41.168724	15.52385
1616	2024-03-08 07:00:00	22	candela_ex_comes	3.45	1	87.0	1	0.0	1	2.43	1	142.69	1	null	6	983.23	1	41.168724	15.52385
1617	2024-03-08 08:00:00	22	candela_ex_comes	4.6	1	86.44	1	0.0	1	2.42	1	131.71	1	null	6	983.31	1	41.168724	15.52385
1618	2024-03-08 09:00:00	22	candela_ex_comes	6.87	1	82.36	1	0.0	1	2.44	1	118.3	1	null	6	983.52	1	41.168724	15.52385
1619	2024-03-08 10:00:00	22	candela_ex_comes	9.78	1	69.73	1	0.0	1	2.65	1	123.43	1	null	6	983.2	1	41.168724	15.52385
1620	2024-03-08 11:00:00	22	candela_ex_comes	11.48	1	57.04	1	0.0	1	3.29	1	117.83	1	null	6	982.81	1	41.168724	15.52385
1621	2024-03-08 12:00:00	22	candela_ex_comes	12.31	1	47.41	1	0.0	1	3.38	1	124.11	1	null	6	982.71	1	41.168724	15.52385
1622	2024-03-08 13:00:00	22	candela_ex_comes	13.11	1	44.97	1	0.0	1	3.08	1	117.16	1	null	6	982.25	1	41.168724	15.52385
1623	2024-03-08 14:00:00	22	candela_ex_comes	13.47	1	45.67	1	0.0	1	3.65	1	125.87	1	null	6	981.56	1	41.168724	15.52385
1624	2024-03-08 15:00:00	22	candela_ex_comes	13.77	1	45.29	1	0.0	1	4.03	1	117.88	1	null	6	981.12	1	41.168724	15.52385
1625	2024-03-08 16:00:00	22	candela_ex_comes	13.66	1	49.5	1	0.0	1	4.07	1	94.47	1	null	6	980.73	1	41.168724	15.52385
1626	2024-03-08 17:00:00	22	candela_ex_comes	12.33	1	63.58	1	0.0	1	5.93	1	76.21	1	null	6	980.66	1	41.168724	15.52385
1627	2024-03-08 18:00:00	22	candela_ex_comes	11.05	1	69.51	1	0.0	1	5.32	1	81.41	1	null	6	980.91	1	41.168724	15.52385
1628	2024-03-08 19:00:00	22	candela_ex_comes	10.21	1	75.41	1	0.0	1	3.66	1	89.07	1	null	6	981.3	1	41.168724	15.52385
1629	2024-03-08 20:00:00	22	candela_ex_comes	9.57	1	79.06	1	0.0	1	1.56	1	320.74	1	null	6	981.7	1	41.168724	15.52385
1630	2024-03-08 21:00:00	22	candela_ex_comes	8.81	1	82.39	1	0.0	1	1.61	1	289.96	1	null	6	981.73	1	41.168724	15.52385
1631	2024-03-08 22:00:00	22	candela_ex_comes	8.72	1	83.35	1	0.0	1	1.65	1	257.28	1	null	6	981.38	1	41.168724	15.52385
1632	2024-03-08 23:00:00	22	candela_ex_comes	8.32	1	84.97	1	0.0	1	2.35	1	251.8	1	null	6	981.22	1	41.168724	15.52385
1633	2024-03-09 00:00:00	22	candela_ex_comes	7.96	1	86.75	1	0.0	1	3.26	1	143.36	1	null	6	980.68	1	41.168724	15.52385
1634	2024-03-09 01:00:00	22	candela_ex_comes	8.05	1	87.72	1	0.0	1	3.5	1	135.95	1	null	6	980.44	1	41.168724	15.52385
1635	2024-03-09 02:00:00	22	candela_ex_comes	8.11	1	86.71	1	0.0	1	3.03	1	144.08	1	null	6	980.26	1	41.168724	15.52385
1636	2024-03-09 03:00:00	22	candela_ex_comes	7.97	1	86.58	1	0.0	1	4.61	1	140.76	1	null	6	979.47	1	41.168724	15.52385
1637	2024-03-09 04:00:00	22	candela_ex_comes	7.86	1	87.08	1	0.0	1	2.88	1	131.31	1	null	6	979.21	1	41.168724	15.52385
1638	2024-03-09 05:00:00	22	candela_ex_comes	8.08	1	86.21	1	0.0	1	2.53	1	174.97	1	null	6	979.16	1	41.168724	15.52385
1639	2024-03-09 06:00:00	22	candela_ex_comes	8.08	1	84.32	1	0.0	1	3.22	1	148.24	1	null	6	978.99	1	41.168724	15.52385
1640	2024-03-09 07:00:00	22	candela_ex_comes	7.58	1	85.92	1	0.0	1	4.11	1	142.51	1	null	6	978.63	1	41.168724	15.52385
1641	2024-03-09 08:00:00	22	candela_ex_comes	8.13	1	85.51	1	0.0	1	4.27	1	142.83	1	null	6	978.88	1	41.168724	15.52385
1642	2024-03-09 09:00:00	22	candela_ex_comes	9.5	1	85.16	1	0.0	1	3.28	1	140.06	1	null	6	979.09	1	41.168724	15.52385
1643	2024-03-09 10:00:00	22	candela_ex_comes	11.06	1	82.88	1	0.0	1	3.7	1	147.87	1	null	6	979.15	1	41.168724	15.52385
1644	2024-03-09 11:00:00	22	candela_ex_comes	11.26	1	81.59	1	0.0	1	3.15	1	151.92	1	null	6	979.41	1	41.168724	15.52385
1645	2024-03-09 12:00:00	22	candela_ex_comes	11.71	1	82.2	1	1.0	1	2.55	1	234.8	1	null	6	979.75	1	41.168724	15.52385
1646	2024-03-09 13:00:00	22	candela_ex_comes	11.23	1	86.17	1	0.8	1	1.58	1	241.33	1	null	6	979.65	1	41.168724	15.52385
1647	2024-03-09 14:00:00	22	candela_ex_comes	10.81	1	85.04	1	1.0	1	4.02	1	233.38	1	null	6	979.38	1	41.168724	15.52385
1648	2024-03-09 15:00:00	22	candela_ex_comes	12.02	1	80.03	1	0.0	1	3.82	1	244.75	1	null	6	978.92	1	41.168724	15.52385
1649	2024-03-09 16:00:00	22	candela_ex_comes	13.74	1	69.5	1	0.0	1	4.38	1	232.4	1	null	6	978.4	1	41.168724	15.52385
1650	2024-03-09 17:00:00	22	candela_ex_comes	14.11	1	65.12	1	0.0	1	3.59	1	211.47	1	null	6	977.94	1	41.168724	15.52385
1651	2024-03-09 18:00:00	22	candela_ex_comes	13.49	1	63.25	1	0.0	1	3.38	1	207.07	1	null	6	978.17	1	41.168724	15.52385
1652	2024-03-09 19:00:00	22	candela_ex_comes	12.43	1	66.49	1	0.0	1	3.17	1	194.76	1	null	6	978.26	1	41.168724	15.52385
1653	2024-03-09 20:00:00	22	candela_ex_comes	11.72	1	68.54	1	0.0	1	2.33	1	247.66	1	null	6	978.5	1	41.168724	15.52385
1654	2024-03-09 21:00:00	22	candela_ex_comes	10.53	1	71.82	1	0.0	1	2.55	1	251.16	1	null	6	978.88	1	41.168724	15.52385
1655	2024-03-09 22:00:00	22	candela_ex_comes	9.34	1	78.11	1	0.0	1	3.26	1	245.56	1	null	6	978.72	1	41.168724	15.52385
1656	2024-03-09 23:00:00	22	candela_ex_comes	8.52	1	80.5	1	0.0	1	3.37	1	244.68	1	null	6	978.26	1	41.168724	15.52385
1657	2024-03-10 00:00:00	22	candela_ex_comes	8.0	1	82.07	1	0.0	1	3.52	1	245.71	1	null	6	977.93	1	41.168724	15.52385
1658	2024-03-10 01:00:00	22	candela_ex_comes	7.61	1	81.04	1	0.0	1	2.6	1	244.22	1	null	6	977.71	1	41.168724	15.52385
1659	2024-03-10 02:00:00	22	candela_ex_comes	7.85	1	80.38	1	0.0	1	2.24	1	240.22	1	null	6	977.51	1	41.168724	15.52385
1660	2024-03-10 03:00:00	22	candela_ex_comes	7.97	1	77.98	1	0.0	1	2.46	1	233.56	1	null	6	977.05	1	41.168724	15.52385
1661	2024-03-10 04:00:00	22	candela_ex_comes	6.81	1	83.61	1	0.0	1	2.7	1	158.68	1	null	6	976.55	1	41.168724	15.52385
1662	2024-03-10 05:00:00	22	candela_ex_comes	5.98	1	85.79	1	0.0	1	4.13	1	149.04	1	null	6	976.14	1	41.168724	15.52385
1663	2024-03-10 06:00:00	22	candela_ex_comes	5.88	1	86.78	1	0.0	1	3.72	1	152.1	1	null	6	975.94	1	41.168724	15.52385
1664	2024-03-10 07:00:00	22	candela_ex_comes	6.38	1	86.39	1	0.0	1	3.74	1	143.01	1	null	6	975.71	1	41.168724	15.52385
1665	2024-03-10 08:00:00	22	candela_ex_comes	7.39	1	85.75	1	0.0	1	4.21	1	147.44	1	null	6	975.6	1	41.168724	15.52385
1666	2024-03-10 09:00:00	22	candela_ex_comes	8.21	1	87.5	1	0.0	1	4.55	1	143.46	1	null	6	975.59	1	41.168724	15.52385
1667	2024-03-10 10:00:00	22	candela_ex_comes	9.48	1	84.9	1	0.0	1	4.73	1	145.62	1	null	6	975.47	1	41.168724	15.52385
1668	2024-03-10 11:00:00	22	candela_ex_comes	11.37	1	83.3	1	0.0	1	4.78	1	140.53	1	null	6	974.5	1	41.168724	15.52385
1669	2024-03-10 12:00:00	22	candela_ex_comes	13.55	1	77.19	1	0.0	1	6.61	1	136.05	1	null	6	973.84	1	41.168724	15.52385
1670	2024-03-10 13:00:00	22	candela_ex_comes	14.6	1	70.75	1	0.0	1	6.37	1	132.56	1	null	6	973.65	1	41.168724	15.52385
1671	2024-03-10 14:00:00	22	candela_ex_comes	17.16	1	55.7	1	0.0	1	7.07	1	195.72	1	null	6	972.92	1	41.168724	15.52385
1672	2024-03-10 15:00:00	22	candela_ex_comes	17.65	1	39.47	1	0.0	1	8.75	1	202.19	1	null	6	972.35	1	41.168724	15.52385
1673	2024-03-10 16:00:00	22	candela_ex_comes	17.21	1	43.57	1	0.0	1	8.73	1	200.49	1	null	6	972.09	1	41.168724	15.52385
1674	2024-03-10 17:00:00	22	candela_ex_comes	17.54	1	46.31	1	0.0	1	7.67	1	196.35	1	null	6	972.04	1	41.168724	15.52385
1675	2024-03-10 18:00:00	22	candela_ex_comes	16.9	1	50.18	1	0.0	1	7.1	1	211.32	1	null	6	972.55	1	41.168724	15.52385
1676	2024-03-10 19:00:00	22	candela_ex_comes	16.45	1	52.5	1	0.0	1	5.84	1	200.32	1	null	6	972.77	1	41.168724	15.52385
1677	2024-03-10 20:00:00	22	candela_ex_comes	15.93	1	54.06	1	0.0	1	6.18	1	199.48	1	null	6	972.6	1	41.168724	15.52385
1678	2024-03-10 21:00:00	22	candela_ex_comes	12.3	1	74.79	1	0.0	1	4.26	1	127.31	1	null	6	973.19	1	41.168724	15.52385
1679	2024-03-10 22:00:00	22	candela_ex_comes	11.78	1	80.19	1	0.0	1	4.86	1	139.81	1	null	6	973.2	1	41.168724	15.52385
1680	2024-03-10 23:00:00	22	candela_ex_comes	11.22	1	84.16	1	0.0	1	5.2	1	142.44	1	null	6	972.96	1	41.168724	15.52385
1681	2024-03-11 00:00:00	22	candela_ex_comes	10.69	1	87.83	1	0.0	1	5.53	1	143.13	1	null	6	972.0	1	41.168724	15.52385
1682	2024-03-11 01:00:00	22	candela_ex_comes	10.5	1	90.55	1	0.0	1	6.11	1	143.73	1	null	6	971.01	1	41.168724	15.52385
1683	2024-03-11 02:00:00	22	candela_ex_comes	10.92	1	89.39	1	0.2	1	5.0	1	152.04	1	null	6	971.02	1	41.168724	15.52385
1684	2024-03-11 03:00:00	22	candela_ex_comes	11.19	1	86.93	1	0.0	1	1.73	1	311.19	1	null	6	970.56	1	41.168724	15.52385
1685	2024-03-11 04:00:00	22	candela_ex_comes	10.13	1	88.02	1	1.0	1	2.11	1	302.51	1	null	6	970.01	1	41.168724	15.52385
1686	2024-03-11 05:00:00	22	candela_ex_comes	9.6	1	91.95	1	1.0	1	6.2	1	262.31	1	null	6	970.34	1	41.168724	15.52385
1687	2024-03-11 06:00:00	22	candela_ex_comes	9.17	1	87.41	1	2.6	1	3.43	1	247.58	1	null	6	970.82	1	41.168724	15.52385
1688	2024-03-11 07:00:00	22	candela_ex_comes	9.18	1	87.42	1	0.0	1	2.41	1	252.03	1	null	6	970.99	1	41.168724	15.52385
1689	2024-03-11 08:00:00	22	candela_ex_comes	9.41	1	83.09	1	0.0	1	6.2	1	257.41	1	null	6	971.79	1	41.168724	15.52385
1690	2024-03-11 09:00:00	22	candela_ex_comes	9.98	1	75.63	1	0.0	1	8.03	1	253.0	1	null	6	972.45	1	41.168724	15.52385
1691	2024-03-11 10:00:00	22	candela_ex_comes	11.14	1	69.59	1	0.0	1	7.34	1	244.1	1	null	6	973.15	1	41.168724	15.52385
1692	2024-03-11 11:00:00	22	candela_ex_comes	12.74	1	62.74	1	0.0	1	9.07	1	263.6	1	null	6	973.15	1	41.168724	15.52385
1693	2024-03-11 12:00:00	22	candela_ex_comes	13.66	1	59.43	1	0.0	1	8.21	1	262.9	1	null	6	972.86	1	41.168724	15.52385
1694	2024-03-11 13:00:00	22	candela_ex_comes	14.09	1	54.73	1	0.0	1	9.15	1	260.79	1	null	6	972.57	1	41.168724	15.52385
1695	2024-03-11 14:00:00	22	candela_ex_comes	14.29	1	53.37	1	0.0	1	8.85	1	256.28	1	null	6	972.6	1	41.168724	15.52385
1696	2024-03-11 15:00:00	22	candela_ex_comes	13.62	1	59.77	1	0.0	1	6.59	1	262.25	1	null	6	972.96	1	41.168724	15.52385
1697	2024-03-11 16:00:00	22	candela_ex_comes	9.84	1	75.72	1	1.2	1	7.26	1	239.56	1	null	6	974.1	1	41.168724	15.52385
1698	2024-03-11 17:00:00	22	candela_ex_comes	10.68	1	73.79	1	0.0	1	2.39	1	200.3	1	null	6	973.47	1	41.168724	15.52385
1699	2024-03-11 18:00:00	22	candela_ex_comes	10.84	1	69.45	1	0.0	1	3.38	1	199.97	1	null	6	973.64	1	41.168724	15.52385
1700	2024-03-11 19:00:00	22	candela_ex_comes	10.03	1	72.87	1	0.0	1	4.25	1	212.19	1	null	6	974.21	1	41.168724	15.52385
1701	2024-03-11 20:00:00	22	candela_ex_comes	9.77	1	73.79	1	0.0	1	4.25	1	231.24	1	null	6	974.74	1	41.168724	15.52385
1702	2024-03-11 21:00:00	22	candela_ex_comes	9.31	1	75.17	1	0.0	1	4.18	1	232.36	1	null	6	974.91	1	41.168724	15.52385
1703	2024-03-11 22:00:00	22	candela_ex_comes	9.08	1	73.83	1	0.0	1	2.62	1	221.52	1	null	6	975.13	1	41.168724	15.52385
1704	2024-03-11 23:00:00	22	candela_ex_comes	8.92	1	74.99	1	0.0	1	5.0	1	255.49	1	null	6	975.76	1	41.168724	15.52385
1705	2024-03-12 00:00:00	22	candela_ex_comes	8.43	1	77.97	1	0.0	1	7.7	1	251.8	1	null	6	975.29	1	41.168724	15.52385
1706	2024-03-12 01:00:00	22	candela_ex_comes	8.66	1	71.29	1	0.0	1	8.65	1	246.38	1	null	6	974.8	1	41.168724	15.52385
1707	2024-03-12 02:00:00	22	candela_ex_comes	8.76	1	69.4	1	0.0	1	9.53	1	252.19	1	null	6	974.84	1	41.168724	15.52385
1708	2024-03-12 03:00:00	22	candela_ex_comes	8.65	1	72.02	1	0.0	1	8.46	1	262.7	1	null	6	975.22	1	41.168724	15.52385
1709	2024-03-12 04:00:00	22	candela_ex_comes	8.62	1	73.38	1	0.0	1	9.18	1	245.12	1	null	6	975.28	1	41.168724	15.52385
1710	2024-03-12 05:00:00	22	candela_ex_comes	8.3	1	75.95	1	0.0	1	9.32	1	241.02	1	null	6	975.13	1	41.168724	15.52385
1711	2024-03-12 06:00:00	22	candela_ex_comes	8.31	1	77.6	1	0.0	1	10.24	1	248.54	1	null	6	975.3	1	41.168724	15.52385
1712	2024-03-12 07:00:00	22	candela_ex_comes	8.12	1	78.34	1	0.0	1	8.88	1	257.02	1	null	6	975.79	1	41.168724	15.52385
1713	2024-03-12 08:00:00	22	candela_ex_comes	8.73	1	77.04	1	0.0	1	3.91	1	292.76	1	null	6	976.64	1	41.168724	15.52385
1714	2024-03-12 09:00:00	22	candela_ex_comes	10.31	1	70.78	1	0.0	1	3.13	1	276.3	1	null	6	977.25	1	41.168724	15.52385
1715	2024-03-12 10:00:00	22	candela_ex_comes	11.26	1	67.47	1	0.0	1	5.67	1	288.12	1	null	6	977.47	1	41.168724	15.52385
1716	2024-03-12 11:00:00	22	candela_ex_comes	10.91	1	66.86	1	0.0	1	5.72	1	341.31	1	null	6	977.71	1	41.168724	15.52385
1717	2024-03-12 12:00:00	22	candela_ex_comes	11.16	1	67.13	1	0.0	1	4.56	1	331.04	1	null	6	977.99	1	41.168724	15.52385
1718	2024-03-12 13:00:00	22	candela_ex_comes	11.2	1	66.78	1	0.0	1	7.47	1	323.64	1	null	6	978.17	1	41.168724	15.52385
1719	2024-03-12 14:00:00	22	candela_ex_comes	10.82	1	68.53	1	0.0	1	9.74	1	326.77	1	null	6	978.4	1	41.168724	15.52385
1720	2024-03-12 15:00:00	22	candela_ex_comes	10.95	1	66.92	1	0.0	1	6.93	1	325.75	1	null	6	978.55	1	41.168724	15.52385
1721	2024-03-12 16:00:00	22	candela_ex_comes	11.04	1	68.54	1	0.0	1	6.42	1	328.04	1	null	6	978.82	1	41.168724	15.52385
1722	2024-03-12 17:00:00	22	candela_ex_comes	11.2	1	68.74	1	0.0	1	5.44	1	327.67	1	null	6	979.02	1	41.168724	15.52385
1723	2024-03-12 18:00:00	22	candela_ex_comes	10.85	1	70.27	1	0.0	1	3.62	1	341.34	1	null	6	979.56	1	41.168724	15.52385
1724	2024-03-12 19:00:00	22	candela_ex_comes	9.44	1	80.11	1	0.0	1	1.67	1	298.33	1	null	6	980.12	1	41.168724	15.52385
1725	2024-03-12 20:00:00	22	candela_ex_comes	8.84	1	82.87	1	0.0	1	3.04	1	251.9	1	null	6	980.57	1	41.168724	15.52385
1726	2024-03-12 21:00:00	22	candela_ex_comes	7.39	1	83.52	1	0.0	1	3.75	1	247.07	1	null	6	980.75	1	41.168724	15.52385
1727	2024-03-12 22:00:00	22	candela_ex_comes	7.39	1	82.92	1	0.0	1	3.51	1	242.73	1	null	6	981.27	1	41.168724	15.52385
1728	2024-03-12 23:00:00	22	candela_ex_comes	7.33	1	79.75	1	0.0	1	4.0	1	250.0	1	null	6	981.71	1	41.168724	15.52385
1729	2024-03-13 00:00:00	22	candela_ex_comes	6.67	1	85.84	1	0.0	1	4.37	1	251.13	1	null	6	981.9	1	41.168724	15.52385
1730	2024-03-13 01:00:00	22	candela_ex_comes	6.23	1	88.12	1	0.0	1	4.85	1	252.02	1	null	6	982.05	1	41.168724	15.52385
1731	2024-03-13 02:00:00	22	candela_ex_comes	6.77	1	88.21	1	0.0	1	6.45	1	248.9	1	null	6	982.05	1	41.168724	15.52385
1732	2024-03-13 03:00:00	22	candela_ex_comes	7.13	1	85.97	1	0.0	1	6.47	1	253.87	1	null	6	982.06	1	41.168724	15.52385
1733	2024-03-13 04:00:00	22	candela_ex_comes	6.62	1	83.8	1	0.0	1	3.81	1	262.81	1	null	6	982.27	1	41.168724	15.52385
1734	2024-03-13 05:00:00	22	candela_ex_comes	6.0	1	86.87	1	0.0	1	4.4	1	260.55	1	null	6	982.07	1	41.168724	15.52385
1735	2024-03-13 06:00:00	22	candela_ex_comes	5.56	1	88.22	1	0.0	1	5.0	1	250.22	1	null	6	981.89	1	41.168724	15.52385
1736	2024-03-13 07:00:00	22	candela_ex_comes	5.35	1	88.33	1	0.0	1	5.45	1	242.2	1	null	6	982.11	1	41.168724	15.52385
1737	2024-03-13 08:00:00	22	candela_ex_comes	6.12	1	85.24	1	0.0	1	4.6	1	242.58	1	null	6	982.5	1	41.168724	15.52385
1738	2024-03-13 09:00:00	22	candela_ex_comes	9.21	1	79.12	1	0.0	1	2.91	1	259.98	1	null	6	983.03	1	41.168724	15.52385
1739	2024-03-13 10:00:00	22	candela_ex_comes	12.11	1	58.17	1	0.0	1	1.5	1	272.97	1	null	6	983.21	1	41.168724	15.52385
1740	2024-03-13 11:00:00	22	candela_ex_comes	12.73	1	50.8	1	0.0	1	1.86	1	1.52	1	null	6	983.07	1	41.168724	15.52385
1741	2024-03-13 12:00:00	22	candela_ex_comes	13.21	1	51.33	1	0.0	1	2.32	1	338.84	1	null	6	983.0	1	41.168724	15.52385
1742	2024-03-13 13:00:00	22	candela_ex_comes	13.96	1	50.08	1	0.0	1	3.07	1	339.66	1	null	6	982.57	1	41.168724	15.52385
1743	2024-03-13 14:00:00	22	candela_ex_comes	14.4	1	47.28	1	0.0	1	3.7	1	338.17	1	null	6	982.12	1	41.168724	15.52385
1744	2024-03-13 15:00:00	22	candela_ex_comes	14.88	1	47.66	1	0.0	1	4.58	1	353.92	1	null	6	981.98	1	41.168724	15.52385
1745	2024-03-13 16:00:00	22	candela_ex_comes	14.56	1	51.37	1	0.0	1	4.44	1	3.39	1	null	6	982.02	1	41.168724	15.52385
1746	2024-03-13 17:00:00	22	candela_ex_comes	13.7	1	54.98	1	0.0	1	3.62	1	10.26	1	null	6	982.11	1	41.168724	15.52385
1747	2024-03-13 18:00:00	22	candela_ex_comes	12.32	1	59.62	1	0.0	1	2.59	1	19.96	1	null	6	982.39	1	41.168724	15.52385
1748	2024-03-13 19:00:00	22	candela_ex_comes	10.88	1	66.49	1	0.0	1	1.02	1	316.21	1	null	6	982.84	1	41.168724	15.52385
1749	2024-03-13 20:00:00	22	candela_ex_comes	9.35	1	72.55	1	0.0	1	3.01	1	256.87	1	null	6	983.36	1	41.168724	15.52385
1750	2024-03-13 21:00:00	22	candela_ex_comes	7.45	1	77.72	1	0.0	1	2.1	1	263.14	1	null	6	983.9	1	41.168724	15.52385
1751	2024-03-13 22:00:00	22	candela_ex_comes	6.7	1	81.83	1	0.0	1	3.46	1	253.66	1	null	6	984.25	1	41.168724	15.52385
1752	2024-03-13 23:00:00	22	candela_ex_comes	6.47	1	81.56	1	0.0	1	5.32	1	250.74	1	null	6	984.27	1	41.168724	15.52385
1753	2024-03-14 00:00:00	22	candela_ex_comes	6.61	1	80.66	1	0.0	1	3.91	1	250.79	1	null	6	984.43	1	41.168724	15.52385
1754	2024-03-14 01:00:00	22	candela_ex_comes	6.63	1	80.0	1	0.0	1	2.62	1	247.3	1	null	6	984.47	1	41.168724	15.52385
1755	2024-03-14 02:00:00	22	candela_ex_comes	6.74	1	77.44	1	0.0	1	1.73	1	250.26	1	null	6	984.43	1	41.168724	15.52385
1756	2024-03-14 03:00:00	22	candela_ex_comes	6.26	1	77.27	1	0.0	1	2.69	1	243.66	1	null	6	984.27	1	41.168724	15.52385
1757	2024-03-14 04:00:00	22	candela_ex_comes	5.76	1	78.8	1	0.0	1	1.48	1	194.04	1	null	6	984.27	1	41.168724	15.52385
1758	2024-03-14 05:00:00	22	candela_ex_comes	5.85	1	74.71	1	0.0	1	1.84	1	215.07	1	null	6	984.28	1	41.168724	15.52385
1759	2024-03-14 06:00:00	22	candela_ex_comes	5.83	1	73.46	1	0.0	1	1.31	1	215.72	1	null	6	984.54	1	41.168724	15.52385
1760	2024-03-14 07:00:00	22	candela_ex_comes	5.86	1	73.36	1	0.0	1	1.26	1	182.91	1	null	6	984.76	1	41.168724	15.52385
1761	2024-03-14 08:00:00	22	candela_ex_comes	6.25	1	73.83	1	0.0	1	1.76	1	156.54	1	null	6	985.11	1	41.168724	15.52385
1762	2024-03-14 09:00:00	22	candela_ex_comes	9.18	1	72.24	1	0.0	1	1.77	1	154.47	1	null	6	985.26	1	41.168724	15.52385
1763	2024-03-14 10:00:00	22	candela_ex_comes	12.34	1	61.11	1	0.0	1	1.73	1	136.3	1	null	6	985.24	1	41.168724	15.52385
1764	2024-03-14 11:00:00	22	candela_ex_comes	14.11	1	45.65	1	0.0	1	1.52	1	307.94	1	null	6	985.24	1	41.168724	15.52385
1765	2024-03-14 12:00:00	22	candela_ex_comes	15.03	1	38.18	1	0.0	1	2.32	1	331.82	1	null	6	984.91	1	41.168724	15.52385
1766	2024-03-14 13:00:00	22	candela_ex_comes	15.52	1	37.76	1	0.0	1	3.49	1	346.53	1	null	6	984.57	1	41.168724	15.52385
1767	2024-03-14 14:00:00	22	candela_ex_comes	15.88	1	37.15	1	0.0	1	3.39	1	5.3	1	null	6	984.09	1	41.168724	15.52385
1768	2024-03-14 15:00:00	22	candela_ex_comes	15.71	1	39.74	1	0.0	1	2.86	1	354.7	1	null	6	983.83	1	41.168724	15.52385
1769	2024-03-14 16:00:00	22	candela_ex_comes	15.56	1	42.64	1	0.0	1	2.2	1	3.26	1	null	6	983.78	1	41.168724	15.52385
1770	2024-03-14 17:00:00	22	candela_ex_comes	15.51	1	43.65	1	0.0	1	2.04	1	4.05	1	null	6	983.78	1	41.168724	15.52385
1771	2024-03-14 18:00:00	22	candela_ex_comes	14.37	1	47.4	1	0.0	1	2.45	1	0.72	1	null	6	983.89	1	41.168724	15.52385
1772	2024-03-14 19:00:00	22	candela_ex_comes	12.85	1	56.94	1	0.0	1	3.34	1	244.97	1	null	6	984.39	1	41.168724	15.52385
1773	2024-03-14 20:00:00	22	candela_ex_comes	11.88	1	65.36	1	0.0	1	4.01	1	245.16	1	null	6	984.81	1	41.168724	15.52385
1774	2024-03-14 21:00:00	22	candela_ex_comes	10.9	1	73.27	1	0.0	1	2.93	1	241.44	1	null	6	984.84	1	41.168724	15.52385
1775	2024-03-14 22:00:00	22	candela_ex_comes	10.07	1	76.91	1	0.0	1	2.48	1	224.58	1	null	6	984.98	1	41.168724	15.52385
1776	2024-03-14 23:00:00	22	candela_ex_comes	10.91	1	75.56	1	0.0	1	5.88	1	239.56	1	null	6	984.81	1	41.168724	15.52385
1777	2024-03-15 00:00:00	22	candela_ex_comes	10.32	1	78.84	1	0.0	1	7.21	1	243.23	1	null	6	984.58	1	41.168724	15.52385
1778	2024-03-15 01:00:00	22	candela_ex_comes	10.4	1	79.91	1	0.0	1	8.74	1	248.68	1	null	6	984.56	1	41.168724	15.52385
1779	2024-03-15 02:00:00	22	candela_ex_comes	10.77	1	78.55	1	0.0	1	8.23	1	245.66	1	null	6	984.49	1	41.168724	15.52385
1780	2024-03-15 03:00:00	22	candela_ex_comes	10.65	1	78.02	1	0.0	1	7.71	1	243.52	1	null	6	984.2	1	41.168724	15.52385
1781	2024-03-15 04:00:00	22	candela_ex_comes	10.42	1	78.76	1	0.0	1	7.28	1	239.73	1	null	6	984.09	1	41.168724	15.52385
1782	2024-03-15 05:00:00	22	candela_ex_comes	10.27	1	78.15	1	0.0	1	8.49	1	246.32	1	null	6	984.01	1	41.168724	15.52385
1783	2024-03-15 06:00:00	22	candela_ex_comes	9.95	1	79.93	1	0.0	1	8.5	1	246.39	1	null	6	984.06	1	41.168724	15.52385
1784	2024-03-15 07:00:00	22	candela_ex_comes	10.02	1	79.69	1	0.0	1	9.05	1	250.18	1	null	6	984.31	1	41.168724	15.52385
1785	2024-03-15 08:00:00	22	candela_ex_comes	10.69	1	77.48	1	0.0	1	9.63	1	248.53	1	null	6	984.53	1	41.168724	15.52385
1786	2024-03-15 09:00:00	22	candela_ex_comes	11.83	1	72.97	1	0.0	1	10.25	1	249.22	1	null	6	984.72	1	41.168724	15.52385
1787	2024-03-15 10:00:00	22	candela_ex_comes	13.06	1	66.46	1	0.0	1	9.65	1	251.1	1	null	6	985.03	1	41.168724	15.52385
1788	2024-03-15 11:00:00	22	candela_ex_comes	14.35	1	57.65	1	0.0	1	8.91	1	251.49	1	null	6	984.95	1	41.168724	15.52385
1789	2024-03-15 12:00:00	22	candela_ex_comes	15.56	1	53.58	1	0.0	1	7.39	1	252.57	1	null	6	984.71	1	41.168724	15.52385
1790	2024-03-15 13:00:00	22	candela_ex_comes	16.33	1	48.8	1	0.0	1	6.63	1	259.65	1	null	6	984.31	1	41.168724	15.52385
1791	2024-03-15 14:00:00	22	candela_ex_comes	16.83	1	46.9	1	0.0	1	6.78	1	259.22	1	null	6	983.74	1	41.168724	15.52385
1792	2024-03-15 15:00:00	22	candela_ex_comes	17.42	1	44.9	1	0.0	1	6.72	1	262.68	1	null	6	983.32	1	41.168724	15.52385
1793	2024-03-15 16:00:00	22	candela_ex_comes	17.15	1	45.35	1	0.0	1	7.52	1	257.84	1	null	6	983.16	1	41.168724	15.52385
1794	2024-03-15 17:00:00	22	candela_ex_comes	16.13	1	52.07	1	0.0	1	8.33	1	254.38	1	null	6	983.21	1	41.168724	15.52385
1795	2024-03-15 18:00:00	22	candela_ex_comes	14.97	1	57.71	1	0.0	1	8.53	1	255.16	1	null	6	983.51	1	41.168724	15.52385
1796	2024-03-15 19:00:00	22	candela_ex_comes	13.3	1	65.95	1	0.0	1	7.86	1	252.43	1	null	6	983.92	1	41.168724	15.52385
1797	2024-03-15 20:00:00	22	candela_ex_comes	12.22	1	70.35	1	0.0	1	8.7	1	251.33	1	null	6	984.45	1	41.168724	15.52385
1798	2024-03-15 21:00:00	22	candela_ex_comes	11.61	1	74.32	1	0.0	1	8.26	1	245.09	1	null	6	984.91	1	41.168724	15.52385
1799	2024-03-15 22:00:00	22	candela_ex_comes	11.11	1	74.84	1	0.0	1	7.64	1	248.02	1	null	6	985.2	1	41.168724	15.52385
1800	2024-03-15 23:00:00	22	candela_ex_comes	10.62	1	76.63	1	0.0	1	7.71	1	251.84	1	null	6	985.48	1	41.168724	15.52385
1801	2024-03-16 00:00:00	22	candela_ex_comes	10.25	1	77.93	1	0.0	1	6.81	1	249.48	1	null	6	985.71	1	41.168724	15.52385
1802	2024-03-16 01:00:00	22	candela_ex_comes	10.23	1	76.74	1	0.0	1	7.57	1	247.97	1	null	6	985.77	1	41.168724	15.52385
1803	2024-03-16 02:00:00	22	candela_ex_comes	10.03	1	78.26	1	0.0	1	6.54	1	244.62	1	null	6	985.62	1	41.168724	15.52385
1804	2024-03-16 03:00:00	22	candela_ex_comes	9.67	1	78.78	1	0.0	1	5.61	1	243.76	1	null	6	985.45	1	41.168724	15.52385
1805	2024-03-16 04:00:00	22	candela_ex_comes	9.61	1	78.63	1	0.0	1	6.34	1	241.11	1	null	6	985.2	1	41.168724	15.52385
1806	2024-03-16 05:00:00	22	candela_ex_comes	9.62	1	77.74	1	0.0	1	6.88	1	245.21	1	null	6	985.28	1	41.168724	15.52385
1807	2024-03-16 06:00:00	22	candela_ex_comes	9.69	1	76.12	1	0.0	1	5.83	1	244.71	1	null	6	985.39	1	41.168724	15.52385
1808	2024-03-16 07:00:00	22	candela_ex_comes	9.89	1	75.78	1	0.0	1	6.46	1	244.19	1	null	6	985.26	1	41.168724	15.52385
1809	2024-03-16 08:00:00	22	candela_ex_comes	10.41	1	76.29	1	0.0	1	6.61	1	246.18	1	null	6	985.51	1	41.168724	15.52385
1810	2024-03-16 09:00:00	22	candela_ex_comes	11.93	1	72.47	1	0.0	1	7.02	1	250.24	1	null	6	985.75	1	41.168724	15.52385
1811	2024-03-16 10:00:00	22	candela_ex_comes	12.75	1	68.67	1	0.0	1	8.27	1	259.26	1	null	6	985.91	1	41.168724	15.52385
1812	2024-03-16 11:00:00	22	candela_ex_comes	12.94	1	69.28	1	0.0	1	7.51	1	261.23	1	null	6	985.82	1	41.168724	15.52385
1813	2024-03-16 12:00:00	22	candela_ex_comes	13.39	1	67.22	1	0.0	1	7.65	1	272.73	1	null	6	985.72	1	41.168724	15.52385
1814	2024-03-16 13:00:00	22	candela_ex_comes	14.2	1	63.06	1	0.0	1	4.24	1	285.51	1	null	6	985.35	1	41.168724	15.52385
1815	2024-03-16 14:00:00	22	candela_ex_comes	14.71	1	57.38	1	0.0	1	4.05	1	286.04	1	null	6	984.86	1	41.168724	15.52385
1816	2024-03-16 15:00:00	22	candela_ex_comes	11.89	1	75.01	1	0.0	1	3.37	1	38.68	1	null	6	985.08	1	41.168724	15.52385
1817	2024-03-16 16:00:00	22	candela_ex_comes	12.4	1	76.41	1	0.0	1	1.95	1	300.23	1	null	6	984.92	1	41.168724	15.52385
1818	2024-03-16 17:00:00	22	candela_ex_comes	12.73	1	76.1	1	0.0	1	2.43	1	330.82	1	null	6	984.73	1	41.168724	15.52385
1819	2024-03-16 18:00:00	22	candela_ex_comes	12.32	1	79.25	1	0.0	1	1.39	1	293.04	1	null	6	985.04	1	41.168724	15.52385
1820	2024-03-16 19:00:00	22	candela_ex_comes	11.54	1	82.47	1	0.0	1	1.6	1	170.56	1	null	6	985.52	1	41.168724	15.52385
1821	2024-03-16 20:00:00	22	candela_ex_comes	11.14	1	85.58	1	0.0	1	1.29	1	130.09	1	null	6	986.05	1	41.168724	15.52385
1822	2024-03-16 21:00:00	22	candela_ex_comes	10.77	1	88.61	1	0.0	1	1.25	1	133.99	1	null	6	986.44	1	41.168724	15.52385
1823	2024-03-16 22:00:00	22	candela_ex_comes	11.0	1	88.83	1	0.0	1	1.36	1	248.42	1	null	6	986.66	1	41.168724	15.52385
1824	2024-03-16 23:00:00	22	candela_ex_comes	10.78	1	86.98	1	0.0	1	1.99	1	249.2	1	null	6	986.97	1	41.168724	15.52385
1825	2024-03-17 00:00:00	22	candela_ex_comes	9.9	1	86.01	1	0.0	1	2.86	1	241.69	1	null	6	987.05	1	41.168724	15.52385
1826	2024-03-17 01:00:00	22	candela_ex_comes	9.92	1	85.91	1	0.0	1	2.65	1	244.6	1	null	6	986.93	1	41.168724	15.52385
1827	2024-03-17 02:00:00	22	candela_ex_comes	10.0	1	87.76	1	0.0	1	3.42	1	244.12	1	null	6	987.01	1	41.168724	15.52385
1828	2024-03-17 03:00:00	22	candela_ex_comes	10.17	1	87.45	1	0.0	1	2.8	1	251.04	1	null	6	986.79	1	41.168724	15.52385
1829	2024-03-17 04:00:00	22	candela_ex_comes	9.99	1	88.1	1	0.0	1	2.79	1	251.43	1	null	6	986.47	1	41.168724	15.52385
1830	2024-03-17 05:00:00	22	candela_ex_comes	9.28	1	88.47	1	0.0	1	3.45	1	247.39	1	null	6	986.49	1	41.168724	15.52385
1831	2024-03-17 06:00:00	22	candela_ex_comes	8.63	1	88.52	1	0.0	1	2.94	1	250.8	1	null	6	986.9	1	41.168724	15.52385
1832	2024-03-17 07:00:00	22	candela_ex_comes	7.95	1	89.31	1	0.0	1	4.28	1	248.62	1	null	6	987.42	1	41.168724	15.52385
1833	2024-03-17 08:00:00	22	candela_ex_comes	8.49	1	89.03	1	0.0	1	3.12	1	252.57	1	null	6	987.87	1	41.168724	15.52385
1834	2024-03-17 09:00:00	22	candela_ex_comes	11.19	1	82.4	1	0.0	1	2.98	1	321.1	1	null	6	988.26	1	41.168724	15.52385
1835	2024-03-17 10:00:00	22	candela_ex_comes	12.59	1	71.31	1	0.0	1	4.8	1	317.83	1	null	6	988.64	1	41.168724	15.52385
1836	2024-03-17 11:00:00	22	candela_ex_comes	13.3	1	68.63	1	0.0	1	5.65	1	333.19	1	null	6	988.61	1	41.168724	15.52385
1837	2024-03-17 12:00:00	22	candela_ex_comes	13.85	1	67.22	1	0.0	1	4.8	1	350.86	1	null	6	988.41	1	41.168724	15.52385
1838	2024-03-17 13:00:00	22	candela_ex_comes	14.0	1	66.17	1	0.0	1	4.43	1	332.22	1	null	6	988.26	1	41.168724	15.52385
1839	2024-03-17 14:00:00	22	candela_ex_comes	14.55	1	64.68	1	0.0	1	4.7	1	334.99	1	null	6	987.77	1	41.168724	15.52385
1840	2024-03-17 15:00:00	22	candela_ex_comes	15.05	1	62.88	1	0.0	1	4.24	1	344.2	1	null	6	987.35	1	41.168724	15.52385
1841	2024-03-17 16:00:00	22	candela_ex_comes	15.29	1	59.77	1	0.0	1	4.81	1	331.62	1	null	6	986.98	1	41.168724	15.52385
1842	2024-03-17 17:00:00	22	candela_ex_comes	15.24	1	60.12	1	0.0	1	3.77	1	329.05	1	null	6	986.95	1	41.168724	15.52385
1843	2024-03-17 18:00:00	22	candela_ex_comes	14.72	1	63.1	1	0.0	1	2.33	1	343.74	1	null	6	986.87	1	41.168724	15.52385
1844	2024-03-17 19:00:00	22	candela_ex_comes	12.89	1	66.78	1	0.0	1	2.07	1	319.45	1	null	6	986.97	1	41.168724	15.52385
1845	2024-03-17 20:00:00	22	candela_ex_comes	11.61	1	70.23	1	0.0	1	2.84	1	246.24	1	null	6	987.12	1	41.168724	15.52385
1846	2024-03-17 21:00:00	22	candela_ex_comes	10.17	1	77.79	1	0.0	1	3.63	1	251.51	1	null	6	987.08	1	41.168724	15.52385
1847	2024-03-17 22:00:00	22	candela_ex_comes	10.33	1	78.71	1	0.0	1	2.49	1	241.92	1	null	6	987.05	1	41.168724	15.52385
1848	2024-03-17 23:00:00	22	candela_ex_comes	11.52	1	77.98	1	0.0	1	3.71	1	241.61	1	null	6	986.79	1	41.168724	15.52385
1849	2024-03-18 00:00:00	22	candela_ex_comes	11.57	1	76.35	1	0.0	1	4.9	1	247.22	1	null	6	986.39	1	41.168724	15.52385
1850	2024-03-18 01:00:00	22	candela_ex_comes	12.08	1	70.73	1	0.0	1	6.34	1	242.84	1	null	6	986.17	1	41.168724	15.52385
1851	2024-03-18 02:00:00	22	candela_ex_comes	11.71	1	70.6	1	0.0	1	6.18	1	246.34	1	null	6	985.57	1	41.168724	15.52385
1852	2024-03-18 03:00:00	22	candela_ex_comes	12.14	1	69.72	1	0.0	1	6.66	1	245.14	1	null	6	984.96	1	41.168724	15.52385
1853	2024-03-18 04:00:00	22	candela_ex_comes	12.55	1	64.71	1	0.0	1	6.61	1	249.16	1	null	6	984.29	1	41.168724	15.52385
1854	2024-03-18 05:00:00	22	candela_ex_comes	11.86	1	66.41	1	0.0	1	6.14	1	243.89	1	null	6	984.07	1	41.168724	15.52385
1855	2024-03-18 06:00:00	22	candela_ex_comes	11.18	1	69.29	1	0.0	1	5.04	1	238.66	1	null	6	983.81	1	41.168724	15.52385
1856	2024-03-18 07:00:00	22	candela_ex_comes	11.16	1	69.75	1	0.0	1	5.66	1	239.16	1	null	6	983.72	1	41.168724	15.52385
1857	2024-03-18 08:00:00	22	candela_ex_comes	11.95	1	72.2	1	0.0	1	9.58	1	250.6	1	null	6	983.49	1	41.168724	15.52385
1858	2024-03-18 09:00:00	22	candela_ex_comes	13.37	1	70.23	1	0.0	1	10.33	1	248.27	1	null	6	983.42	1	41.168724	15.52385
1859	2024-03-18 10:00:00	22	candela_ex_comes	14.42	1	66.63	1	0.0	1	10.43	1	250.64	1	null	6	983.31	1	41.168724	15.52385
1860	2024-03-18 11:00:00	22	candela_ex_comes	15.23	1	61.99	1	0.0	1	10.8	1	256.08	1	null	6	982.87	1	41.168724	15.52385
1861	2024-03-18 12:00:00	22	candela_ex_comes	15.9	1	59.22	1	0.0	1	11.24	1	256.32	1	null	6	982.5	1	41.168724	15.52385
1862	2024-03-18 13:00:00	22	candela_ex_comes	15.71	1	61.24	1	0.0	1	12.57	1	259.23	1	null	6	981.78	1	41.168724	15.52385
1863	2024-03-18 14:00:00	22	candela_ex_comes	15.51	1	64.13	1	0.0	1	11.73	1	253.04	1	null	6	981.19	1	41.168724	15.52385
1864	2024-03-18 15:00:00	22	candela_ex_comes	14.75	1	67.58	1	0.0	1	12.14	1	250.6	1	null	6	980.63	1	41.168724	15.52385
1865	2024-03-18 16:00:00	22	candela_ex_comes	13.79	1	73.18	1	0.2	1	11.46	1	246.24	1	null	6	980.65	1	41.168724	15.52385
1866	2024-03-18 17:00:00	22	candela_ex_comes	12.71	1	80.4	1	0.2	1	7.11	1	247.68	1	null	6	980.78	1	41.168724	15.52385
1867	2024-03-18 18:00:00	22	candela_ex_comes	11.92	1	83.23	1	1.0	1	7.03	1	244.25	1	null	6	980.52	1	41.168724	15.52385
1868	2024-03-18 19:00:00	22	candela_ex_comes	8.52	1	85.26	1	0.4	1	5.47	1	240.12	1	null	6	980.21	1	41.168724	15.52385
1869	2024-03-18 20:00:00	22	candela_ex_comes	8.47	1	85.3	1	0.2	1	4.46	1	227.09	1	null	6	979.98	1	41.168724	15.52385
1870	2024-03-18 21:00:00	22	candela_ex_comes	7.81	1	84.38	1	1.0	1	4.3	1	236.29	1	null	6	979.77	1	41.168724	15.52385
1871	2024-03-18 22:00:00	22	candela_ex_comes	1.44	1	83.41	1	0.8	1	5.63	1	248.98	1	null	6	979.63	1	41.168724	15.52385
1872	2024-03-18 23:00:00	22	candela_ex_comes	-2.89	1	82.5	1	0.0	1	3.75	1	252.33	1	null	6	979.49	1	41.168724	15.52385
1873	2024-03-19 00:00:00	22	candela_ex_comes	-2.82	1	80.12	1	0.0	1	1.22	1	125.22	1	null	6	979.21	1	41.168724	15.52385
1874	2024-03-19 01:00:00	22	candela_ex_comes	-3.68	1	78.77	1	0.0	1	1.78	1	180.28	1	null	6	978.81	1	41.168724	15.52385
1875	2024-03-19 02:00:00	22	candela_ex_comes	-3.25	1	78.28	1	0.0	1	1.56	1	275.82	1	null	6	978.51	1	41.168724	15.52385
1876	2024-03-19 03:00:00	22	candela_ex_comes	-2.43	1	78.42	1	0.0	1	4.6	1	292.25	1	null	6	978.17	1	41.168724	15.52385
1877	2024-03-19 04:00:00	22	candela_ex_comes	-4.82	1	82.99	1	0.0	1	3.78	1	345.03	1	null	6	977.97	1	41.168724	15.52385
1878	2024-03-19 05:00:00	22	candela_ex_comes	10.22	1	91.06	1	0.0	1	3.3	1	347.83	1	null	6	978.22	1	41.168724	15.52385
1879	2024-03-19 06:00:00	22	candela_ex_comes	9.83	1	94.87	1	1.2	1	6.39	1	327.31	1	null	6	979.02	1	41.168724	15.52385
1880	2024-03-19 07:00:00	22	candela_ex_comes	9.64	1	96.02	1	0.0	1	5.78	1	331.76	1	null	6	979.69	1	41.168724	15.52385
1881	2024-03-19 08:00:00	22	candela_ex_comes	9.89	1	96.4	1	0.0	1	5.24	1	329.4	1	null	6	980.43	1	41.168724	15.52385
1882	2024-03-19 09:00:00	22	candela_ex_comes	10.13	1	96.43	1	1.0	1	4.51	1	325.88	1	null	6	981.07	1	41.168724	15.52385
1883	2024-03-19 10:00:00	22	candela_ex_comes	10.62	1	96.15	1	0.2	1	5.57	1	335.21	1	null	6	981.68	1	41.168724	15.52385
1884	2024-03-19 11:00:00	22	candela_ex_comes	10.85	1	94.4	1	0.0	1	4.63	1	332.28	1	null	6	982.04	1	41.168724	15.52385
1885	2024-03-19 12:00:00	22	candela_ex_comes	11.24	1	91.3	1	0.2	1	6.08	1	326.82	1	null	6	982.06	1	41.168724	15.52385
1886	2024-03-19 13:00:00	22	candela_ex_comes	11.61	1	88.26	1	0.0	1	4.76	1	325.96	1	null	6	982.06	1	41.168724	15.52385
1887	2024-03-19 14:00:00	22	candela_ex_comes	11.51	1	87.77	1	0.0	1	5.87	1	325.17	1	null	6	982.08	1	41.168724	15.52385
1888	2024-03-19 15:00:00	22	candela_ex_comes	12.1	1	88.27	1	0.0	1	5.27	1	331.9	1	null	6	981.95	1	41.168724	15.52385
1889	2024-03-19 16:00:00	22	candela_ex_comes	13.14	1	75.6	1	0.0	1	7.23	1	339.49	1	null	6	981.94	1	41.168724	15.52385
1890	2024-03-19 17:00:00	22	candela_ex_comes	12.87	1	71.85	1	0.0	1	7.03	1	340.99	1	null	6	982.46	1	41.168724	15.52385
1891	2024-03-19 18:00:00	22	candela_ex_comes	11.74	1	74.62	1	0.0	1	5.03	1	330.51	1	null	6	983.07	1	41.168724	15.52385
1892	2024-03-19 19:00:00	22	candela_ex_comes	10.19	1	81.3	1	0.0	1	2.55	1	326.13	1	null	6	983.81	1	41.168724	15.52385
1893	2024-03-19 20:00:00	22	candela_ex_comes	9.25	5	null	6	0.0	5	null	6	null	6	null	6	984.4	5	41.168724	15.52385
1894	2024-03-19 21:00:00	22	candela_ex_comes	8.3	1	86.74	1	0.0	1	4.09	1	257.43	1	null	6	984.99	1	41.168724	15.52385
1895	2024-03-19 22:00:00	22	candela_ex_comes	8.26	1	82.81	1	0.0	1	4.83	1	267.44	1	null	6	985.43	1	41.168724	15.52385
1896	2024-03-19 23:00:00	22	candela_ex_comes	8.65	1	82.25	1	0.0	1	5.03	1	295.77	1	null	6	985.62	1	41.168724	15.52385
1897	2024-03-20 00:00:00	22	candela_ex_comes	8.88	1	84.42	1	0.0	1	5.32	1	301.24	1	null	6	985.72	1	41.168724	15.52385
1898	2024-03-20 01:00:00	22	candela_ex_comes	8.7	1	85.85	1	0.0	1	4.4	1	306.43	1	null	6	986.0	1	41.168724	15.52385
1899	2024-03-20 02:00:00	22	candela_ex_comes	8.43	1	88.07	1	0.0	1	2.24	1	309.96	1	null	6	986.21	1	41.168724	15.52385
1900	2024-03-20 03:00:00	22	candela_ex_comes	8.44	1	88.02	1	0.0	1	2.13	1	291.92	1	null	6	985.96	1	41.168724	15.52385
1901	2024-03-20 04:00:00	22	candela_ex_comes	7.46	1	90.93	1	0.0	1	1.67	1	283.0	1	null	6	985.81	1	41.168724	15.52385
1902	2024-03-20 05:00:00	22	candela_ex_comes	6.66	1	91.05	1	0.0	1	3.0	1	253.02	1	null	6	985.86	1	41.168724	15.52385
1903	2024-03-20 06:00:00	22	candela_ex_comes	5.75	1	85.56	1	0.0	1	3.86	1	249.56	1	null	6	986.14	1	41.168724	15.52385
1904	2024-03-20 07:00:00	22	candela_ex_comes	4.62	1	84.03	1	0.0	1	2.77	1	252.6	1	null	6	986.71	1	41.168724	15.52385
1905	2024-03-20 08:00:00	22	candela_ex_comes	6.01	1	84.88	1	0.0	1	4.2	1	248.14	1	null	6	987.26	1	41.168724	15.52385
1906	2024-03-20 09:00:00	22	candela_ex_comes	9.06	1	75.89	1	0.0	1	5.07	1	315.73	1	null	6	987.71	1	41.168724	15.52385
1907	2024-03-20 10:00:00	22	candela_ex_comes	10.27	1	67.02	1	0.0	1	5.92	1	323.62	1	null	6	988.03	1	41.168724	15.52385
1908	2024-03-20 11:00:00	22	candela_ex_comes	11.26	1	59.39	1	0.0	1	5.46	1	335.64	1	null	6	988.3	1	41.168724	15.52385
1909	2024-03-20 12:00:00	22	candela_ex_comes	12.25	1	55.92	1	0.0	1	5.42	1	335.47	1	null	6	988.18	1	41.168724	15.52385
1910	2024-03-20 13:00:00	22	candela_ex_comes	12.84	1	54.05	1	0.0	1	5.89	1	333.69	1	null	6	988.02	1	41.168724	15.52385
1911	2024-03-20 14:00:00	22	candela_ex_comes	13.41	1	49.31	1	0.0	1	5.81	1	339.8	1	null	6	987.86	1	41.168724	15.52385
1912	2024-03-20 15:00:00	22	candela_ex_comes	13.56	1	45.86	1	0.0	1	5.95	1	344.12	1	null	6	987.92	1	41.168724	15.52385
1913	2024-03-20 16:00:00	22	candela_ex_comes	13.38	1	44.09	1	0.0	1	5.14	1	342.29	1	null	6	987.87	1	41.168724	15.52385
1914	2024-03-20 17:00:00	22	candela_ex_comes	13.14	1	46.06	1	0.0	1	4.15	1	340.19	1	null	6	987.98	1	41.168724	15.52385
1915	2024-03-20 18:00:00	22	candela_ex_comes	12.11	1	51.43	1	0.0	1	2.91	1	354.67	1	null	6	988.34	1	41.168724	15.52385
1916	2024-03-20 19:00:00	22	candela_ex_comes	10.28	1	54.62	1	0.0	1	1.22	1	288.91	1	null	6	988.72	1	41.168724	15.52385
1917	2024-03-20 20:00:00	22	candela_ex_comes	8.29	1	58.36	1	0.0	1	4.34	1	244.97	1	null	6	989.01	1	41.168724	15.52385
1918	2024-03-20 21:00:00	22	candela_ex_comes	7.11	1	65.08	1	0.0	1	5.76	1	244.87	1	null	6	989.48	1	41.168724	15.52385
1919	2024-03-20 22:00:00	22	candela_ex_comes	5.71	1	70.58	1	0.0	1	5.61	1	249.09	1	null	6	989.64	1	41.168724	15.52385
1920	2024-03-20 23:00:00	22	candela_ex_comes	5.27	1	71.77	1	0.0	1	5.73	1	248.06	1	null	6	989.88	1	41.168724	15.52385
1921	2024-03-21 00:00:00	22	candela_ex_comes	5.01	1	70.54	1	0.0	1	6.47	1	246.23	1	null	6	990.13	1	41.168724	15.52385
1922	2024-03-21 01:00:00	22	candela_ex_comes	6.14	1	66.17	1	0.0	1	4.4	1	240.36	1	null	6	990.13	1	41.168724	15.52385
1923	2024-03-21 02:00:00	22	candela_ex_comes	7.02	1	62.26	1	0.0	1	2.5	1	237.56	1	null	6	989.74	1	41.168724	15.52385
1924	2024-03-21 03:00:00	22	candela_ex_comes	7.1	1	61.56	1	0.0	1	2.2	1	221.8	1	null	6	989.65	1	41.168724	15.52385
1925	2024-03-21 04:00:00	22	candela_ex_comes	7.11	1	61.44	1	0.0	1	1.78	1	160.66	1	null	6	989.3	1	41.168724	15.52385
1926	2024-03-21 05:00:00	22	candela_ex_comes	7.01	1	63.76	1	0.0	1	2.15	1	166.49	1	null	6	989.31	1	41.168724	15.52385
1927	2024-03-21 06:00:00	22	candela_ex_comes	8.01	1	65.58	1	0.0	1	2.27	1	235.79	1	null	6	989.43	1	41.168724	15.52385
1928	2024-03-21 07:00:00	22	candela_ex_comes	7.63	1	68.73	1	0.0	1	3.52	1	240.65	1	null	6	989.67	1	41.168724	15.52385
1929	2024-03-21 08:00:00	22	candela_ex_comes	11.04	1	64.23	1	0.0	1	2.83	1	244.59	1	null	6	989.67	1	41.168724	15.52385
1930	2024-03-21 09:00:00	22	candela_ex_comes	13.97	1	57.37	1	0.0	1	4.99	1	254.31	1	null	6	989.47	1	41.168724	15.52385
1931	2024-03-21 10:00:00	22	candela_ex_comes	15.94	1	53.65	1	0.0	1	5.13	1	263.04	1	null	6	989.51	1	41.168724	15.52385
1932	2024-03-21 11:00:00	22	candela_ex_comes	17.09	1	50.21	1	0.0	1	2.72	1	343.49	1	null	6	989.63	1	41.168724	15.52385
1933	2024-03-21 12:00:00	22	candela_ex_comes	17.8	1	46.16	1	0.0	1	5.93	1	274.53	1	null	6	989.29	1	41.168724	15.52385
1934	2024-03-21 13:00:00	22	candela_ex_comes	18.43	1	41.89	1	0.0	1	4.43	1	262.98	1	null	6	988.57	1	41.168724	15.52385
1935	2024-03-21 14:00:00	22	candela_ex_comes	18.85	1	40.31	1	0.0	1	3.24	1	270.34	1	null	6	987.94	1	41.168724	15.52385
1936	2024-03-21 15:00:00	22	candela_ex_comes	19.28	1	39.61	1	0.0	1	3.47	1	271.67	1	null	6	987.21	1	41.168724	15.52385
1937	2024-03-21 16:00:00	22	candela_ex_comes	19.1	1	41.57	1	0.0	1	5.02	1	260.45	1	null	6	986.35	1	41.168724	15.52385
1938	2024-03-21 17:00:00	22	candela_ex_comes	18.29	1	49.44	1	0.0	1	6.36	1	263.8	1	null	6	985.86	1	41.168724	15.52385
1939	2024-03-21 18:00:00	22	candela_ex_comes	16.49	1	57.5	1	0.0	1	6.54	1	256.56	1	null	6	985.8	1	41.168724	15.52385
1940	2024-03-21 19:00:00	22	candela_ex_comes	14.57	1	64.75	1	0.0	1	7.24	1	254.0	1	null	6	985.54	1	41.168724	15.52385
1941	2024-03-21 20:00:00	22	candela_ex_comes	13.54	1	69.08	1	0.0	1	9.67	1	251.64	1	null	6	985.63	1	41.168724	15.52385
1942	2024-03-21 21:00:00	22	candela_ex_comes	12.47	1	72.61	1	0.0	1	8.84	1	253.37	1	null	6	985.73	1	41.168724	15.52385
1943	2024-03-21 22:00:00	22	candela_ex_comes	12.02	1	73.35	1	0.0	1	9.0	1	252.25	1	null	6	985.69	1	41.168724	15.52385
1944	2024-03-21 23:00:00	22	candela_ex_comes	12.54	1	68.81	1	0.0	1	10.0	1	248.33	1	null	6	985.65	1	41.168724	15.52385
1945	2024-03-22 00:00:00	22	candela_ex_comes	12.4	1	69.32	1	0.0	1	8.64	1	245.67	1	null	6	985.5	1	41.168724	15.52385
1946	2024-03-22 01:00:00	22	candela_ex_comes	11.73	1	75.02	1	1.4	1	7.24	1	250.82	1	null	6	985.45	1	41.168724	15.52385
1947	2024-03-22 02:00:00	22	candela_ex_comes	11.77	1	76.44	1	0.0	1	7.85	1	246.8	1	null	6	985.08	1	41.168724	15.52385
1948	2024-03-22 03:00:00	22	candela_ex_comes	11.59	1	77.62	1	3.0	1	5.69	1	229.41	1	null	6	984.68	1	41.168724	15.52385
1949	2024-03-22 04:00:00	22	candela_ex_comes	11.92	1	76.03	1	0.0	1	5.92	1	233.55	1	null	6	984.18	1	41.168724	15.52385
1950	2024-03-22 05:00:00	22	candela_ex_comes	11.32	1	80.2	1	0.0	1	3.84	1	261.08	1	null	6	984.57	1	41.168724	15.52385
1951	2024-03-22 06:00:00	22	candela_ex_comes	11.25	1	82.08	1	0.0	1	1.41	1	331.15	1	null	6	984.79	1	41.168724	15.52385
1952	2024-03-22 07:00:00	22	candela_ex_comes	11.15	1	82.21	1	0.0	1	3.25	1	343.5	1	null	6	985.13	1	41.168724	15.52385
1953	2024-03-22 08:00:00	22	candela_ex_comes	10.78	1	85.08	1	0.0	1	3.2	1	333.98	1	null	6	985.29	1	41.168724	15.52385
1954	2024-03-22 09:00:00	22	candela_ex_comes	10.92	1	88.67	1	0.0	1	3.55	1	334.49	1	null	6	985.58	1	41.168724	15.52385
1955	2024-03-22 10:00:00	22	candela_ex_comes	11.34	1	88.74	1	0.0	1	4.71	1	338.09	1	null	6	985.97	1	41.168724	15.52385
1956	2024-03-22 11:00:00	22	candela_ex_comes	11.84	1	88.27	1	0.0	1	4.79	1	341.24	1	null	6	985.94	1	41.168724	15.52385
1957	2024-03-22 12:00:00	22	candela_ex_comes	12.26	1	86.18	1	0.0	1	4.72	1	335.05	1	null	6	985.71	1	41.168724	15.52385
1958	2024-03-22 13:00:00	22	candela_ex_comes	12.94	1	82.89	1	0.2	1	4.4	1	352.41	1	null	6	985.32	1	41.168724	15.52385
1959	2024-03-22 14:00:00	22	candela_ex_comes	13.68	1	77.75	1	0.0	1	4.33	1	349.12	1	null	6	984.87	1	41.168724	15.52385
1960	2024-03-22 15:00:00	22	candela_ex_comes	14.33	1	72.19	1	0.0	1	4.24	1	6.62	1	null	6	984.42	1	41.168724	15.52385
1961	2024-03-22 16:00:00	22	candela_ex_comes	14.52	1	67.93	1	0.0	1	5.17	1	334.03	1	null	6	984.02	1	41.168724	15.52385
1962	2024-03-22 17:00:00	22	candela_ex_comes	14.32	1	69.71	1	0.0	1	5.44	1	341.81	1	null	6	983.85	1	41.168724	15.52385
1963	2024-03-22 18:00:00	22	candela_ex_comes	13.42	1	74.51	1	0.0	1	4.06	1	346.4	1	null	6	983.84	1	41.168724	15.52385
1964	2024-03-22 19:00:00	22	candela_ex_comes	12.18	1	81.15	1	0.0	1	2.95	1	1.1	1	null	6	984.01	1	41.168724	15.52385
1965	2024-03-22 20:00:00	22	candela_ex_comes	11.58	1	83.17	1	0.0	1	2.34	1	337.67	1	null	6	984.18	1	41.168724	15.52385
1966	2024-03-22 21:00:00	22	candela_ex_comes	9.93	1	86.2	1	0.0	1	1.54	1	261.59	1	null	6	984.27	1	41.168724	15.52385
1967	2024-03-22 22:00:00	22	candela_ex_comes	8.27	1	88.38	1	0.0	1	2.45	1	262.26	1	null	6	984.29	1	41.168724	15.52385
1968	2024-03-22 23:00:00	22	candela_ex_comes	7.85	1	89.08	1	0.0	1	4.91	1	252.28	1	null	6	984.3	1	41.168724	15.52385
1969	2024-03-23 00:00:00	22	candela_ex_comes	7.41	1	87.8	1	0.0	1	6.16	1	246.91	1	null	6	984.19	1	41.168724	15.52385
1970	2024-03-23 01:00:00	22	candela_ex_comes	6.96	1	87.13	1	0.0	1	3.22	1	255.95	1	null	6	984.09	1	41.168724	15.52385
1971	2024-03-23 02:00:00	22	candela_ex_comes	7.58	1	86.28	1	0.0	1	2.52	1	242.74	1	null	6	983.97	1	41.168724	15.52385
1972	2024-03-23 03:00:00	22	candela_ex_comes	8.28	1	82.15	1	0.0	1	1.92	1	241.68	1	null	6	983.66	1	41.168724	15.52385
1973	2024-03-23 04:00:00	22	candela_ex_comes	7.84	1	81.06	1	0.0	1	1.63	1	246.3	1	null	6	983.39	1	41.168724	15.52385
1974	2024-03-23 05:00:00	22	candela_ex_comes	7.16	1	82.93	1	0.0	1	2.33	1	167.25	1	null	6	983.23	1	41.168724	15.52385
1975	2024-03-23 06:00:00	22	candela_ex_comes	6.75	1	85.77	1	0.0	1	2.41	1	158.97	1	null	6	983.27	1	41.168724	15.52385
1976	2024-03-23 07:00:00	22	candela_ex_comes	6.99	1	84.0	1	0.0	1	2.14	1	164.79	1	null	6	983.27	1	41.168724	15.52385
1977	2024-03-23 08:00:00	22	candela_ex_comes	8.39	1	83.37	1	0.0	1	2.29	1	146.16	1	null	6	983.21	1	41.168724	15.52385
1978	2024-03-23 09:00:00	22	candela_ex_comes	11.98	1	74.25	1	0.0	1	2.52	1	150.49	1	null	6	982.95	1	41.168724	15.52385
1979	2024-03-23 10:00:00	22	candela_ex_comes	14.74	1	62.15	1	0.0	1	2.8	1	131.38	1	null	6	982.78	1	41.168724	15.52385
1980	2024-03-23 11:00:00	22	candela_ex_comes	16.17	1	57.19	1	0.0	1	7.12	1	248.61	1	null	6	982.33	1	41.168724	15.52385
1981	2024-03-23 12:00:00	22	candela_ex_comes	16.95	1	56.89	1	0.0	1	7.86	1	256.83	1	null	6	981.62	1	41.168724	15.52385
1982	2024-03-23 13:00:00	22	candela_ex_comes	17.48	1	55.4	1	0.0	1	8.65	1	254.27	1	null	6	980.92	1	41.168724	15.52385
1983	2024-03-23 14:00:00	22	candela_ex_comes	17.78	1	53.84	1	0.0	1	9.36	1	260.01	1	null	6	980.03	1	41.168724	15.52385
1984	2024-03-23 15:00:00	22	candela_ex_comes	17.72	1	53.0	1	0.0	1	9.43	1	255.27	1	null	6	979.4	1	41.168724	15.52385
1985	2024-03-23 16:00:00	22	candela_ex_comes	17.47	1	53.16	1	0.0	1	10.03	1	256.27	1	null	6	979.3	1	41.168724	15.52385
1986	2024-03-23 17:00:00	22	candela_ex_comes	16.46	1	57.08	1	0.0	1	10.01	1	252.1	1	null	6	979.17	1	41.168724	15.52385
1987	2024-03-23 18:00:00	22	candela_ex_comes	15.32	1	61.43	1	0.0	1	10.28	1	254.06	1	null	6	978.76	1	41.168724	15.52385
1988	2024-03-23 19:00:00	22	candela_ex_comes	14.25	1	66.62	1	0.0	1	11.18	1	254.83	1	null	6	978.34	1	41.168724	15.52385
1989	2024-03-23 20:00:00	22	candela_ex_comes	13.34	1	69.79	1	0.0	1	13.15	1	254.46	1	null	6	978.28	1	41.168724	15.52385
1990	2024-03-23 21:00:00	22	candela_ex_comes	12.7	1	71.72	1	0.0	1	15.76	1	250.92	1	null	6	978.31	1	41.168724	15.52385
1991	2024-03-23 22:00:00	22	candela_ex_comes	12.31	1	71.7	1	0.0	1	14.93	1	250.53	1	null	6	978.21	1	41.168724	15.52385
1992	2024-03-23 23:00:00	22	candela_ex_comes	11.96	1	69.97	1	0.0	1	13.69	1	247.67	1	null	6	978.2	1	41.168724	15.52385
1993	2024-03-24 00:00:00	22	candela_ex_comes	11.58	1	73.52	1	0.0	1	14.37	1	243.23	1	null	6	977.8	1	41.168724	15.52385
1994	2024-03-24 01:00:00	22	candela_ex_comes	11.37	1	72.07	1	0.0	1	14.49	1	249.66	1	null	6	977.17	1	41.168724	15.52385
1995	2024-03-24 02:00:00	22	candela_ex_comes	11.64	1	70.91	1	0.0	1	13.84	1	251.86	1	null	6	976.85	1	41.168724	15.52385
1996	2024-03-24 03:00:00	22	candela_ex_comes	12.35	1	69.41	1	0.0	1	15.36	1	256.95	1	null	6	976.3	1	41.168724	15.52385
1997	2024-03-24 04:00:00	22	candela_ex_comes	12.71	1	69.25	1	0.0	1	16.28	1	254.42	1	null	6	975.99	1	41.168724	15.52385
1998	2024-03-24 05:00:00	22	candela_ex_comes	12.02	1	72.21	1	0.0	1	10.46	1	247.63	1	null	6	975.84	1	41.168724	15.52385
1999	2024-03-24 06:00:00	22	candela_ex_comes	11.82	1	72.06	1	0.0	1	7.52	1	239.23	1	null	6	975.97	1	41.168724	15.52385
2000	2024-03-24 07:00:00	22	candela_ex_comes	12.52	1	68.49	1	0.0	1	14.31	1	253.29	1	null	6	975.01	1	41.168724	15.52385
2001	2024-03-24 08:00:00	22	candela_ex_comes	13.04	1	66.58	1	0.0	1	13.7	1	250.29	1	null	6	974.9	1	41.168724	15.52385
2002	2024-03-24 09:00:00	22	candela_ex_comes	13.53	1	67.42	1	0.0	1	12.33	1	248.02	1	null	6	975.64	1	41.168724	15.52385
2003	2024-03-24 10:00:00	22	candela_ex_comes	14.12	1	66.82	1	0.0	1	7.03	1	221.15	1	null	6	976.12	1	41.168724	15.52385
2004	2024-03-24 11:00:00	22	candela_ex_comes	14.24	1	60.85	1	0.0	1	5.49	1	212.66	1	null	6	975.91	1	41.168724	15.52385
2005	2024-03-24 12:00:00	22	candela_ex_comes	14.71	1	45.43	1	0.0	1	10.02	1	251.14	1	null	6	975.14	1	41.168724	15.52385
2006	2024-03-24 13:00:00	22	candela_ex_comes	17.06	1	43.08	1	0.0	1	10.88	1	252.4	1	null	6	973.93	1	41.168724	15.52385
2007	2024-03-24 14:00:00	22	candela_ex_comes	17.5	1	44.73	1	0.0	1	11.51	1	251.49	1	null	6	973.43	1	41.168724	15.52385
2008	2024-03-24 15:00:00	22	candela_ex_comes	17.29	1	45.95	1	0.0	1	13.95	1	250.03	1	null	6	972.29	1	41.168724	15.52385
2009	2024-03-24 16:00:00	22	candela_ex_comes	16.53	1	46.52	1	0.0	1	14.63	1	249.47	1	null	6	971.59	1	41.168724	15.52385
2010	2024-03-24 17:00:00	22	candela_ex_comes	15.5	1	48.61	1	0.0	1	12.17	1	249.49	1	null	6	971.65	1	41.168724	15.52385
2011	2024-03-24 18:00:00	22	candela_ex_comes	14.24	1	50.71	1	0.0	1	10.63	1	249.36	1	null	6	971.78	1	41.168724	15.52385
2012	2024-03-24 19:00:00	22	candela_ex_comes	13.08	1	49.1	1	0.0	1	12.34	1	268.18	1	null	6	972.13	1	41.168724	15.52385
2013	2024-03-24 20:00:00	22	candela_ex_comes	12.46	1	58.99	1	0.0	1	13.65	1	271.18	1	null	6	972.29	1	41.168724	15.52385
2014	2024-03-24 21:00:00	22	candela_ex_comes	11.89	1	65.6	1	0.0	1	11.28	1	262.22	1	null	6	972.58	1	41.168724	15.52385
2015	2024-03-24 22:00:00	22	candela_ex_comes	10.99	1	67.7	1	0.0	1	7.81	1	256.16	1	null	6	973.12	1	41.168724	15.52385
2016	2024-03-24 23:00:00	22	candela_ex_comes	8.92	1	72.55	1	0.0	1	3.48	1	4.51	1	null	6	973.69	1	41.168724	15.52385
2017	2024-03-25 00:00:00	22	candela_ex_comes	8.15	1	86.27	1	0.0	1	5.64	1	326.22	1	null	6	974.01	1	41.168724	15.52385
2018	2024-03-25 01:00:00	22	candela_ex_comes	8.06	1	89.6	1	0.0	1	2.47	1	344.85	1	null	6	974.2	1	41.168724	15.52385
2019	2024-03-25 02:00:00	22	candela_ex_comes	9.04	1	82.93	1	0.0	1	1.49	1	338.03	1	null	6	974.16	1	41.168724	15.52385
2020	2024-03-25 03:00:00	22	candela_ex_comes	8.94	1	79.4	1	0.0	1	1.95	1	242.47	1	null	6	973.82	1	41.168724	15.52385
2021	2024-03-25 04:00:00	22	candela_ex_comes	8.1	1	84.09	1	0.0	1	2.6	1	252.66	1	null	6	973.68	1	41.168724	15.52385
2022	2024-03-25 05:00:00	22	candela_ex_comes	8.11	1	80.77	1	0.0	1	3.01	1	245.18	1	null	6	974.0	1	41.168724	15.52385
2023	2024-03-25 06:00:00	22	candela_ex_comes	6.34	1	75.11	1	0.0	1	3.11	1	250.71	1	null	6	974.47	1	41.168724	15.52385
2024	2024-03-25 07:00:00	22	candela_ex_comes	6.57	1	80.77	1	0.0	1	2.39	1	247.79	1	null	6	975.28	1	41.168724	15.52385
2025	2024-03-25 08:00:00	22	candela_ex_comes	8.5	1	75.52	1	0.0	1	1.81	1	241.31	1	null	6	976.06	1	41.168724	15.52385
2026	2024-03-25 09:00:00	22	candela_ex_comes	10.38	1	68.27	1	0.0	1	1.65	1	304.14	1	null	6	976.63	1	41.168724	15.52385
2027	2024-03-25 10:00:00	22	candela_ex_comes	11.17	1	61.11	1	0.0	1	2.81	1	318.53	1	null	6	977.22	1	41.168724	15.52385
2028	2024-03-25 11:00:00	22	candela_ex_comes	12.09	1	53.97	1	0.0	1	3.99	1	325.57	1	null	6	977.31	1	41.168724	15.52385
2029	2024-03-25 12:00:00	22	candela_ex_comes	12.86	1	50.24	1	0.0	1	2.47	1	329.14	1	null	6	977.17	1	41.168724	15.52385
2030	2024-03-25 13:00:00	22	candela_ex_comes	13.49	1	44.49	1	0.0	1	2.05	1	356.11	1	null	6	976.66	1	41.168724	15.52385
2031	2024-03-25 14:00:00	22	candela_ex_comes	14.16	1	40.91	1	0.0	1	1.99	1	357.52	1	null	6	975.96	1	41.168724	15.52385
2032	2024-03-25 15:00:00	22	candela_ex_comes	14.67	1	41.09	1	0.0	1	2.13	1	76.53	1	null	6	975.43	1	41.168724	15.52385
2033	2024-03-25 16:00:00	22	candela_ex_comes	14.26	1	42.15	1	0.0	1	2.79	1	61.98	1	null	6	974.86	1	41.168724	15.52385
2034	2024-03-25 17:00:00	22	candela_ex_comes	14.11	1	42.85	1	0.0	1	1.89	1	65.08	1	null	6	975.18	1	41.168724	15.52385
2035	2024-03-25 18:00:00	22	candela_ex_comes	12.24	1	56.03	1	0.0	1	5.54	1	94.91	1	null	6	974.85	1	41.168724	15.52385
2036	2024-03-25 19:00:00	22	candela_ex_comes	11.11	1	56.76	1	0.0	1	5.67	1	98.43	1	null	6	974.9	1	41.168724	15.52385
2037	2024-03-25 20:00:00	22	candela_ex_comes	10.55	1	60.06	1	0.0	1	2.15	1	137.48	1	null	6	975.33	1	41.168724	15.52385
2038	2024-03-25 21:00:00	22	candela_ex_comes	10.34	1	60.63	1	0.0	1	1.17	1	146.86	1	null	6	975.19	1	41.168724	15.52385
2039	2024-03-25 22:00:00	22	candela_ex_comes	9.99	1	61.61	1	0.0	1	1.23	1	164.42	1	null	6	975.25	1	41.168724	15.52385
2040	2024-03-25 23:00:00	22	candela_ex_comes	9.55	1	63.88	1	0.0	1	1.09	1	174.83	1	null	6	974.89	1	41.168724	15.52385
2041	2024-03-26 00:00:00	22	candela_ex_comes	9.32	1	64.21	1	0.0	1	1.08	1	287.9	1	null	6	974.51	1	41.168724	15.52385
2042	2024-03-26 01:00:00	22	candela_ex_comes	8.82	1	68.38	1	0.0	1	1.24	1	265.62	1	null	6	973.77	1	41.168724	15.52385
2043	2024-03-26 02:00:00	22	candela_ex_comes	8.8	1	71.57	1	0.0	1	2.05	1	238.49	1	null	6	973.27	1	41.168724	15.52385
2044	2024-03-26 03:00:00	22	candela_ex_comes	8.36	1	74.3	1	0.0	1	1.63	1	257.4	1	null	6	972.4	1	41.168724	15.52385
2045	2024-03-26 04:00:00	22	candela_ex_comes	7.89	1	81.17	1	0.0	1	1.68	1	269.67	1	null	6	971.24	1	41.168724	15.52385
2046	2024-03-26 05:00:00	22	candela_ex_comes	7.85	1	82.99	1	0.0	1	2.82	1	253.69	1	null	6	971.43	1	41.168724	15.52385
2047	2024-03-26 06:00:00	22	candela_ex_comes	7.83	1	87.31	1	0.0	1	2.96	1	32.24	1	null	6	971.45	1	41.168724	15.52385
2048	2024-03-26 07:00:00	22	candela_ex_comes	7.55	1	89.01	1	0.0	1	1.4	1	295.03	1	null	6	970.92	1	41.168724	15.52385
2049	2024-03-26 08:00:00	22	candela_ex_comes	7.91	1	89.94	1	0.0	1	1.19	1	304.65	1	null	6	970.81	1	41.168724	15.52385
2050	2024-03-26 09:00:00	22	candela_ex_comes	8.46	1	90.7	1	0.0	1	2.62	1	254.57	1	null	6	970.39	1	41.168724	15.52385
2051	2024-03-26 10:00:00	22	candela_ex_comes	9.23	1	89.47	1	0.0	1	1.86	1	273.57	1	null	6	969.69	1	41.168724	15.52385
2052	2024-03-26 11:00:00	22	candela_ex_comes	9.71	1	89.39	1	0.6	1	1.41	1	306.19	1	null	6	969.09	1	41.168724	15.52385
2053	2024-03-26 12:00:00	22	candela_ex_comes	9.85	1	91.3	1	0.4	1	2.28	1	337.8	1	null	6	968.66	1	41.168724	15.52385
2054	2024-03-26 13:00:00	22	candela_ex_comes	9.96	1	92.6	1	0.0	1	2.08	1	315.13	1	null	6	967.79	1	41.168724	15.52385
2055	2024-03-26 14:00:00	22	candela_ex_comes	10.59	1	92.74	1	0.2	1	1.4	1	293.75	1	null	6	966.9	1	41.168724	15.52385
2056	2024-03-26 15:00:00	22	candela_ex_comes	11.87	1	91.55	1	0.2	1	1.67	1	276.78	1	null	6	966.23	1	41.168724	15.52385
2057	2024-03-26 16:00:00	22	candela_ex_comes	11.68	1	93.22	1	0.6	1	2.27	1	268.87	1	null	6	966.04	1	41.168724	15.52385
2058	2024-03-26 17:00:00	22	candela_ex_comes	11.74	1	95.26	1	0.0	1	1.89	1	334.22	1	null	6	965.37	1	41.168724	15.52385
2059	2024-03-26 18:00:00	22	candela_ex_comes	11.73	1	95.74	1	0.0	1	1.56	1	290.59	1	null	6	964.76	1	41.168724	15.52385
2060	2024-03-26 19:00:00	22	candela_ex_comes	11.39	1	95.78	1	0.0	1	2.08	1	13.79	1	null	6	965.17	1	41.168724	15.52385
2061	2024-03-26 20:00:00	22	candela_ex_comes	11.17	1	96.53	1	0.0	1	0.98	1	67.24	1	null	6	965.36	1	41.168724	15.52385
2062	2024-03-26 21:00:00	22	candela_ex_comes	12.13	1	93.39	1	0.0	1	3.42	1	215.5	1	null	6	966.03	1	41.168724	15.52385
2063	2024-03-26 22:00:00	22	candela_ex_comes	12.78	1	83.94	1	0.0	1	3.84	1	222.43	1	null	6	966.32	1	41.168724	15.52385
2064	2024-03-26 23:00:00	22	candela_ex_comes	11.9	1	84.58	1	0.0	1	1.78	1	168.38	1	null	6	966.5	1	41.168724	15.52385
2065	2024-03-27 00:00:00	22	candela_ex_comes	13.1	1	81.93	1	0.0	1	2.79	1	202.28	1	null	6	966.56	1	41.168724	15.52385
2066	2024-03-27 01:00:00	22	candela_ex_comes	13.61	1	79.53	1	0.0	1	3.22	1	232.55	1	null	6	966.46	1	41.168724	15.52385
2067	2024-03-27 02:00:00	22	candela_ex_comes	12.77	1	78.91	1	0.0	1	2.48	1	158.33	1	null	6	966.28	1	41.168724	15.52385
2068	2024-03-27 03:00:00	22	candela_ex_comes	13.0	1	82.97	1	0.0	1	3.4	1	204.24	1	null	6	965.99	1	41.168724	15.52385
2069	2024-03-27 04:00:00	22	candela_ex_comes	13.45	1	79.75	1	0.0	1	3.3	1	203.6	1	null	6	965.76	1	41.168724	15.52385
2070	2024-03-27 05:00:00	22	candela_ex_comes	11.55	1	85.23	1	0.0	1	1.73	1	128.58	1	null	6	965.99	1	41.168724	15.52385
2071	2024-03-27 06:00:00	22	candela_ex_comes	9.88	1	87.95	1	0.0	1	4.01	1	144.98	1	null	6	965.94	1	41.168724	15.52385
2072	2024-03-27 07:00:00	22	candela_ex_comes	9.61	1	91.93	1	0.0	1	3.51	1	151.87	1	null	6	965.91	1	41.168724	15.52385
2073	2024-03-27 08:00:00	22	candela_ex_comes	9.85	1	92.55	1	0.0	1	4.16	1	153.09	1	null	6	965.65	1	41.168724	15.52385
2074	2024-03-27 09:00:00	22	candela_ex_comes	11.02	1	92.7	1	0.0	1	2.75	1	144.94	1	null	6	965.39	1	41.168724	15.52385
2075	2024-03-27 10:00:00	22	candela_ex_comes	12.39	1	91.13	1	0.0	1	4.58	1	142.16	1	null	6	965.1	1	41.168724	15.52385
2076	2024-03-27 11:00:00	22	candela_ex_comes	14.84	1	84.56	1	0.0	1	5.06	1	135.06	1	null	6	964.74	1	41.168724	15.52385
2077	2024-03-27 12:00:00	22	candela_ex_comes	16.82	1	75.76	1	0.0	1	4.68	1	129.79	1	null	6	964.21	1	41.168724	15.52385
2078	2024-03-27 13:00:00	22	candela_ex_comes	18.49	1	70.85	1	0.0	1	4.04	1	123.93	1	null	6	963.22	1	41.168724	15.52385
2079	2024-03-27 14:00:00	22	candela_ex_comes	19.88	1	58.01	1	0.0	1	5.3	1	225.29	1	null	6	962.62	1	41.168724	15.52385
2080	2024-03-27 15:00:00	22	candela_ex_comes	19.54	1	55.19	1	0.0	1	6.09	1	232.61	1	null	6	962.1	1	41.168724	15.52385
2081	2024-03-27 16:00:00	22	candela_ex_comes	18.18	1	59.26	1	0.0	1	8.16	1	226.82	1	null	6	961.53	1	41.168724	15.52385
2082	2024-03-27 17:00:00	22	candela_ex_comes	13.82	1	70.7	1	0.2	1	13.65	1	261.56	1	null	6	963.08	1	41.168724	15.52385
2083	2024-03-27 18:00:00	22	candela_ex_comes	10.36	1	82.21	1	0.6	1	12.29	1	252.91	1	null	6	964.44	1	41.168724	15.52385
2084	2024-03-27 19:00:00	22	candela_ex_comes	9.4	1	80.82	1	1.8	1	8.16	1	240.98	1	null	6	965.76	1	41.168724	15.52385
2085	2024-03-27 20:00:00	22	candela_ex_comes	9.6	1	80.0	1	0.2	1	5.53	1	223.27	1	null	6	966.48	1	41.168724	15.52385
2086	2024-03-27 21:00:00	22	candela_ex_comes	9.27	1	78.07	1	0.0	1	10.41	1	244.57	1	null	6	966.54	1	41.168724	15.52385
2087	2024-03-27 22:00:00	22	candela_ex_comes	9.51	1	76.08	1	0.0	1	14.51	1	247.22	1	null	6	967.27	1	41.168724	15.52385
2088	2024-03-27 23:00:00	22	candela_ex_comes	9.33	1	78.1	1	0.0	1	10.34	1	244.07	1	null	6	968.6	1	41.168724	15.52385
2089	2024-03-28 00:00:00	22	candela_ex_comes	9.31	1	76.22	1	0.0	1	3.87	1	211.55	1	null	6	970.19	1	41.168724	15.52385
2090	2024-03-28 01:00:00	22	candela_ex_comes	9.67	1	70.62	1	0.0	1	2.29	1	100.15	1	null	6	970.96	1	41.168724	15.52385
2091	2024-03-28 02:00:00	22	candela_ex_comes	9.21	1	72.37	1	0.0	1	6.81	1	242.68	1	null	6	971.54	1	41.168724	15.52385
2092	2024-03-28 03:00:00	22	candela_ex_comes	8.83	1	75.95	1	0.0	1	9.17	1	241.56	1	null	6	971.84	1	41.168724	15.52385
2093	2024-03-28 04:00:00	22	candela_ex_comes	8.96	1	76.72	1	0.0	1	5.3	1	235.0	1	null	6	973.07	1	41.168724	15.52385
2094	2024-03-28 05:00:00	22	candela_ex_comes	10.01	1	71.19	1	0.0	1	2.78	1	192.36	1	null	6	973.59	1	41.168724	15.52385
2095	2024-03-28 06:00:00	22	candela_ex_comes	9.31	1	75.11	1	0.0	1	3.44	1	143.54	1	null	6	974.28	1	41.168724	15.52385
2096	2024-03-28 07:00:00	22	candela_ex_comes	10.38	1	70.0	1	0.0	1	2.92	1	170.01	1	null	6	975.09	1	41.168724	15.52385
2097	2024-03-28 08:00:00	22	candela_ex_comes	11.28	1	66.92	1	0.0	1	7.13	1	252.62	1	null	6	975.73	1	41.168724	15.52385
2098	2024-03-28 09:00:00	22	candela_ex_comes	12.01	1	64.83	1	0.0	1	7.05	1	260.2	1	null	6	976.7	1	41.168724	15.52385
2099	2024-03-28 10:00:00	22	candela_ex_comes	13.32	1	62.34	1	0.0	1	3.03	1	173.2	1	null	6	977.04	1	41.168724	15.52385
2100	2024-03-28 11:00:00	22	candela_ex_comes	13.94	1	65.4	1	0.0	1	4.52	1	197.4	1	null	6	977.53	1	41.168724	15.52385
2101	2024-03-28 12:00:00	22	candela_ex_comes	15.03	1	60.05	1	0.0	1	4.97	1	207.69	1	null	6	977.62	1	41.168724	15.52385
2102	2024-03-28 13:00:00	22	candela_ex_comes	16.27	1	57.51	1	0.0	1	7.96	1	219.0	1	null	6	977.59	1	41.168724	15.52385
2103	2024-03-28 14:00:00	22	candela_ex_comes	16.49	1	56.18	1	0.0	1	8.49	1	216.04	1	null	6	977.45	1	41.168724	15.52385
2104	2024-03-28 15:00:00	22	candela_ex_comes	16.72	1	58.27	1	0.0	1	9.48	1	217.78	1	null	6	977.24	1	41.168724	15.52385
2105	2024-03-28 16:00:00	22	candela_ex_comes	16.39	1	58.61	1	0.0	1	16.58	1	235.66	1	null	6	976.12	1	41.168724	15.52385
2106	2024-03-28 17:00:00	22	candela_ex_comes	15.82	1	60.12	1	0.0	1	14.77	1	239.72	1	null	6	976.97	1	41.168724	15.52385
2107	2024-03-28 18:00:00	22	candela_ex_comes	15.51	1	59.39	1	0.0	1	8.98	1	228.85	1	null	6	977.76	1	41.168724	15.52385
2108	2024-03-28 19:00:00	22	candela_ex_comes	14.99	1	59.74	1	0.0	1	11.05	1	236.1	1	null	6	977.67	1	41.168724	15.52385
2109	2024-03-28 20:00:00	22	candela_ex_comes	15.05	5	null	6	0.0	5	null	6	null	6	null	6	979.24	5	41.168724	15.52385
2110	2024-03-28 21:00:00	22	candela_ex_comes	15.1	1	60.35	1	0.0	1	3.4	1	231.21	1	null	6	980.8	1	41.168724	15.52385
2111	2024-03-28 22:00:00	22	candela_ex_comes	null	6	null	6	null	6	null	6	null	6	null	6	null	6	41.168724	15.52385
2112	2024-03-28 23:00:00	22	candela_ex_comes	null	6	null	6	null	6	null	6	null	6	null	6	null	6	41.168724	15.52385
2113	2024-03-29 00:00:00	22	candela_ex_comes	null	6	null	6	null	6	null	6	null	6	null	6	null	6	41.168724	15.52385
2114	2024-03-29 01:00:00	22	candela_ex_comes	null	6	null	6	null	6	null	6	null	6	null	6	null	6	41.168724	15.52385
2115	2024-03-29 02:00:00	22	candela_ex_comes	null	6	null	6	null	6	null	6	null	6	null	6	null	6	41.168724	15.52385
2116	2024-03-29 03:00:00	22	candela_ex_comes	null	6	null	6	null	6	null	6	null	6	null	6	null	6	41.168724	15.52385
2117	2024-03-29 04:00:00	22	candela_ex_comes	null	6	null	6	null	6	null	6	null	6	null	6	null	6	41.168724	15.52385
2118	2024-03-29 05:00:00	22	candela_ex_comes	null	6	null	6	null	6	null	6	null	6	null	6	null	6	41.168724	15.52385
2119	2024-03-29 06:00:00	22	candela_ex_comes	null	6	null	6	null	6	null	6	null	6	null	6	null	6	41.168724	15.52385
2120	2024-03-29 07:00:00	22	candela_ex_comes	null	6	null	6	null	6	null	6	null	6	null	6	null	6	41.168724	15.52385
2121	2024-03-29 08:00:00	22	candela_ex_comes	null	6	null	6	null	6	null	6	null	6	null	6	null	6	41.168724	15.52385
2122	2024-03-29 09:00:00	22	candela_ex_comes	null	6	null	6	null	6	null	6	null	6	null	6	null	6	41.168724	15.52385
2123	2024-03-29 10:00:00	22	candela_ex_comes	null	6	null	6	null	6	null	6	null	6	null	6	null	6	41.168724	15.52385
2124	2024-03-29 11:00:00	22	candela_ex_comes	null	6	null	6	null	6	null	6	null	6	null	6	null	6	41.168724	15.52385
2125	2024-03-29 12:00:00	22	candela_ex_comes	null	6	null	6	null	6	null	6	null	6	null	6	null	6	41.168724	15.52385
2126	2024-03-29 13:00:00	22	candela_ex_comes	null	6	null	6	null	6	null	6	null	6	null	6	null	6	41.168724	15.52385
2127	2024-03-29 14:00:00	22	candela_ex_comes	null	6	null	6	null	6	null	6	null	6	null	6	null	6	41.168724	15.52385
2128	2024-03-29 15:00:00	22	candela_ex_comes	null	6	null	6	null	6	null	6	null	6	null	6	null	6	41.168724	15.52385
2129	2024-03-29 16:00:00	22	candela_ex_comes	null	6	null	6	null	6	null	6	null	6	null	6	null	6	41.168724	15.52385
2130	2024-03-29 17:00:00	22	candela_ex_comes	null	6	null	6	null	6	null	6	null	6	null	6	null	6	41.168724	15.52385
2131	2024-03-29 18:00:00	22	candela_ex_comes	20.66	1	51.62	1	0.0	1	1.25	1	206.46	1	null	6	980.09	1	41.168724	15.52385
2132	2024-03-29 19:00:00	22	candela_ex_comes	18.69	1	58.59	1	0.0	1	2.34	1	108.4	1	null	6	980.2	1	41.168724	15.52385
2133	2024-03-29 20:00:00	22	candela_ex_comes	16.3	1	58.18	1	0.0	1	3.29	1	141.56	1	null	6	980.46	1	41.168724	15.52385
2134	2024-03-29 21:00:00	22	candela_ex_comes	14.93	1	61.99	1	0.0	1	2.9	1	152.85	1	null	6	980.71	1	41.168724	15.52385
2135	2024-03-29 22:00:00	22	candela_ex_comes	13.65	1	66.84	1	0.0	1	2.72	1	148.93	1	null	6	980.55	1	41.168724	15.52385
2136	2024-03-29 23:00:00	22	candela_ex_comes	13.09	1	69.93	1	0.0	1	2.76	1	149.76	1	null	6	980.57	1	41.168724	15.52385
2137	2024-03-30 00:00:00	22	candela_ex_comes	13.05	1	68.75	1	0.0	1	2.06	1	153.18	1	null	6	980.6	1	41.168724	15.52385
2138	2024-03-30 01:00:00	22	candela_ex_comes	11.78	1	70.35	1	0.0	1	2.83	1	157.19	1	null	6	980.26	1	41.168724	15.52385
2139	2024-03-30 02:00:00	22	candela_ex_comes	12.19	1	69.0	1	0.0	1	2.12	1	162.55	1	null	6	979.6	1	41.168724	15.52385
2140	2024-03-30 03:00:00	22	candela_ex_comes	12.31	1	65.8	1	0.0	1	1.94	1	172.04	1	null	6	978.81	1	41.168724	15.52385
2141	2024-03-30 04:00:00	22	candela_ex_comes	10.93	1	68.77	1	0.0	1	4.56	1	145.64	1	null	6	978.36	1	41.168724	15.52385
2142	2024-03-30 05:00:00	22	candela_ex_comes	8.54	1	82.72	1	0.0	1	4.93	1	141.74	1	null	6	978.16	1	41.168724	15.52385
2143	2024-03-30 06:00:00	22	candela_ex_comes	8.36	1	82.18	1	0.0	1	4.42	1	145.47	1	null	6	978.01	1	41.168724	15.52385
2144	2024-03-30 07:00:00	22	candela_ex_comes	7.25	1	85.46	1	0.0	1	4.78	1	144.93	1	null	6	978.23	1	41.168724	15.52385
2145	2024-03-30 08:00:00	22	candela_ex_comes	9.35	1	86.91	1	0.0	1	5.46	1	135.01	1	null	6	978.2	1	41.168724	15.52385
2146	2024-03-30 09:00:00	22	candela_ex_comes	11.36	1	86.32	1	0.0	1	5.1	1	134.7	1	null	6	977.81	1	41.168724	15.52385
2147	2024-03-30 10:00:00	22	candela_ex_comes	13.59	1	82.08	1	0.0	1	4.45	1	138.31	1	null	6	977.69	1	41.168724	15.52385
2148	2024-03-30 11:00:00	22	candela_ex_comes	16.4	1	72.2	1	0.0	1	3.61	1	132.54	1	null	6	977.59	1	41.168724	15.52385
2149	2024-03-30 12:00:00	22	candela_ex_comes	18.39	1	64.34	1	0.0	1	2.43	1	122.81	1	null	6	977.14	1	41.168724	15.52385
2150	2024-03-30 13:00:00	22	candela_ex_comes	19.96	1	57.65	1	0.0	1	2.63	1	123.92	1	null	6	976.74	1	41.168724	15.52385
2151	2024-03-30 14:00:00	22	candela_ex_comes	21.17	1	54.47	1	0.0	1	3.15	1	126.84	1	null	6	976.01	1	41.168724	15.52385
2152	2024-03-30 15:00:00	22	candela_ex_comes	21.7	1	53.95	1	0.0	1	3.81	1	124.4	1	null	6	975.57	1	41.168724	15.52385
2153	2024-03-30 16:00:00	22	candela_ex_comes	21.57	1	54.64	1	0.0	1	5.2	1	131.05	1	null	6	974.84	1	41.168724	15.52385
2154	2024-03-30 17:00:00	22	candela_ex_comes	19.73	1	60.3	1	0.0	1	5.25	1	118.58	1	null	6	974.52	1	41.168724	15.52385
2155	2024-03-30 18:00:00	22	candela_ex_comes	18.08	1	62.27	1	0.0	1	5.63	1	149.81	1	null	6	974.53	1	41.168724	15.52385
2156	2024-03-30 19:00:00	22	candela_ex_comes	16.33	1	62.74	1	0.0	1	3.66	1	108.8	1	null	6	975.05	1	41.168724	15.52385
2157	2024-03-30 20:00:00	22	candela_ex_comes	14.3	1	68.09	1	0.0	1	5.48	1	147.51	1	null	6	975.48	1	41.168724	15.52385
2158	2024-03-30 21:00:00	22	candela_ex_comes	13.39	1	72.42	1	0.0	1	4.38	1	140.55	1	null	6	975.89	1	41.168724	15.52385
2159	2024-03-30 22:00:00	22	candela_ex_comes	13.12	1	72.77	1	0.0	1	4.88	1	153.48	1	null	6	976.19	1	41.168724	15.52385
2160	2024-03-30 23:00:00	22	candela_ex_comes	12.17	1	77.89	1	0.0	1	4.77	1	154.86	1	null	6	976.52	1	41.168724	15.52385
2161	2024-03-31 00:00:00	22	candela_ex_comes	11.88	1	79.76	1	0.0	1	5.52	1	150.26	1	null	6	976.68	1	41.168724	15.52385
2162	2024-03-31 01:00:00	22	candela_ex_comes	10.98	1	83.13	1	0.0	1	5.85	1	145.31	1	null	6	976.34	1	41.168724	15.52385
2163	2024-03-31 03:00:00	22	candela_ex_comes	10.24	1	87.19	1	0.0	1	4.01	1	140.88	1	null	6	976.22	1	41.168724	15.52385
2164	2024-03-31 03:00:00	22	candela_ex_comes	10.82	1	85.11	1	0.0	1	4.81	1	138.65	1	null	6	976.34	1	41.168724	15.52385
2165	2024-03-31 04:00:00	22	candela_ex_comes	10.21	1	87.45	1	0.0	1	7.65	1	139.05	1	null	6	975.57	1	41.168724	15.52385
2166	2024-03-31 05:00:00	22	candela_ex_comes	11.45	1	85.58	1	0.0	1	6.35	1	138.74	1	null	6	975.6	1	41.168724	15.52385
2167	2024-03-31 06:00:00	22	candela_ex_comes	11.37	1	83.24	1	0.0	1	3.8	1	148.8	1	null	6	975.48	1	41.168724	15.52385
2168	2024-03-31 07:00:00	22	candela_ex_comes	11.28	1	83.65	1	0.0	1	4.88	1	135.01	1	null	6	975.97	1	41.168724	15.52385
2169	2024-03-31 08:00:00	22	candela_ex_comes	11.94	1	86.25	1	0.0	1	4.47	1	140.64	1	null	6	976.54	1	41.168724	15.52385
2170	2024-03-31 09:00:00	22	candela_ex_comes	13.62	1	81.64	1	0.0	1	4.98	1	146.15	1	null	6	976.91	1	41.168724	15.52385
2171	2024-03-31 10:00:00	22	candela_ex_comes	16.21	1	75.33	1	0.0	1	5.52	1	136.53	1	null	6	977.41	1	41.168724	15.52385
2172	2024-03-31 11:00:00	22	candela_ex_comes	18.4	1	68.74	1	0.0	1	5.96	1	131.87	1	null	6	977.22	1	41.168724	15.52385
2173	2024-03-31 12:00:00	22	candela_ex_comes	20.55	1	62.38	1	0.0	1	5.36	1	128.72	1	null	6	977.22	1	41.168724	15.52385
2174	2024-03-31 13:00:00	22	candela_ex_comes	21.5	1	59.52	1	0.0	1	4.63	1	119.97	1	null	6	977.09	1	41.168724	15.52385
2175	2024-03-31 14:00:00	22	candela_ex_comes	22.05	1	59.54	1	0.0	1	5.65	1	121.24	1	null	6	976.56	1	41.168724	15.52385
2176	2024-03-31 15:00:00	22	candela_ex_comes	23.89	1	43.08	1	0.0	1	4.83	1	198.95	1	null	6	976.65	1	41.168724	15.52385
2177	2024-03-31 16:00:00	22	candela_ex_comes	24.29	1	34.27	1	0.0	1	5.17	1	212.22	1	null	6	976.58	1	41.168724	15.52385
2178	2024-03-31 17:00:00	22	candela_ex_comes	22.96	1	36.8	1	0.0	1	3.74	1	207.75	1	null	6	977.04	1	41.168724	15.52385
2179	2024-03-31 18:00:00	22	candela_ex_comes	21.49	1	39.77	1	0.0	1	4.24	1	221.28	1	null	6	977.6	1	41.168724	15.52385
2180	2024-03-31 19:00:00	22	candela_ex_comes	19.64	1	52.54	1	0.0	1	2.78	1	143.56	1	null	6	978.1	1	41.168724	15.52385
2181	2024-03-31 20:00:00	22	candela_ex_comes	17.24	1	73.02	1	0.0	1	3.84	1	158.0	1	null	6	978.82	1	41.168724	15.52385
2182	2024-03-31 21:00:00	22	candela_ex_comes	16.23	1	76.65	1	0.0	1	3.26	1	140.51	1	null	6	979.32	1	41.168724	15.52385
2183	2024-03-31 22:00:00	22	candela_ex_comes	14.16	1	86.51	1	0.0	1	2.96	1	150.2	1	null	6	979.36	1	41.168724	15.52385
2184	2024-03-31 23:00:00	22	candela_ex_comes	13.77	1	89.14	1	0.0	1	4.21	1	151.05	1	null	6	979.37	1	41.168724	15.52385
2185	2024-04-01 00:00:00	22	candela_ex_comes	13.38	1	90.53	1	0.0	1	4.82	1	145.61	1	null	6	979.08	1	41.168724	15.52385
2186	2024-04-01 01:00:00	22	candela_ex_comes	13.02	1	92.21	1	0.0	1	4.83	1	153.79	1	null	6	978.79	1	41.168724	15.52385
2187	2024-04-01 02:00:00	22	candela_ex_comes	12.35	1	92.7	1	0.0	1	3.95	1	142.45	1	null	6	978.29	1	41.168724	15.52385
2188	2024-04-01 03:00:00	22	candela_ex_comes	11.6	1	91.09	1	0.0	1	4.81	1	139.22	1	null	6	977.7	1	41.168724	15.52385
2189	2024-04-01 04:00:00	22	candela_ex_comes	11.6	1	86.38	1	0.0	1	4.26	1	148.04	1	null	6	977.4	1	41.168724	15.52385
2190	2024-04-01 05:00:00	22	candela_ex_comes	10.84	1	84.42	1	0.0	1	4.23	1	145.03	1	null	6	977.01	1	41.168724	15.52385
2191	2024-04-01 06:00:00	22	candela_ex_comes	11.04	1	87.39	1	0.0	1	4.23	1	146.69	1	null	6	976.69	1	41.168724	15.52385
2192	2024-04-01 07:00:00	22	candela_ex_comes	11.79	1	86.17	1	0.0	1	3.4	1	154.13	1	null	6	976.54	1	41.168724	15.52385
2193	2024-04-01 08:00:00	22	candela_ex_comes	15.67	1	64.29	1	0.0	1	3.52	1	137.24	1	null	6	976.29	1	41.168724	15.52385
2194	2024-04-01 09:00:00	22	candela_ex_comes	17.57	1	60.83	1	0.0	1	5.2	1	137.8	1	null	6	976.11	1	41.168724	15.52385
2195	2024-04-01 10:00:00	22	candela_ex_comes	20.34	1	58.01	1	0.0	1	4.25	1	140.53	1	null	6	976.23	1	41.168724	15.52385
2196	2024-04-01 11:00:00	22	candela_ex_comes	24.03	1	37.15	1	0.0	1	6.91	1	197.04	1	null	6	975.97	1	41.168724	15.52385
2197	2024-04-01 12:00:00	22	candela_ex_comes	25.86	1	23.84	1	0.0	1	7.88	1	200.54	1	null	6	975.75	1	41.168724	15.52385
2198	2024-04-01 13:00:00	22	candela_ex_comes	25.83	1	23.88	1	0.0	1	8.62	1	204.98	1	null	6	975.23	1	41.168724	15.52385
2199	2024-04-01 14:00:00	22	candela_ex_comes	25.09	1	27.16	1	0.0	1	9.58	1	208.52	1	null	6	974.65	1	41.168724	15.52385
2200	2024-04-01 15:00:00	22	candela_ex_comes	24.27	1	31.4	1	0.0	1	7.33	1	194.9	1	null	6	973.94	1	41.168724	15.52385
2201	2024-04-01 16:00:00	22	candela_ex_comes	23.78	1	35.32	1	0.0	1	6.34	1	199.42	1	null	6	973.31	1	41.168724	15.52385
2202	2024-04-01 17:00:00	22	candela_ex_comes	22.88	1	38.85	1	0.0	1	5.74	1	192.36	1	null	6	972.49	1	41.168724	15.52385
2203	2024-04-01 18:00:00	22	candela_ex_comes	21.72	1	41.4	1	0.0	1	5.17	1	198.04	1	null	6	972.31	1	41.168724	15.52385
2204	2024-04-01 19:00:00	22	candela_ex_comes	17.89	1	60.24	1	0.0	1	11.4	1	254.99	1	null	6	973.9	1	41.168724	15.52385
2205	2024-04-01 20:00:00	22	candela_ex_comes	15.14	1	57.77	1	0.0	1	12.08	1	256.7	1	null	6	976.34	1	41.168724	15.52385
2206	2024-04-01 21:00:00	22	candela_ex_comes	12.99	1	66.05	1	0.0	1	10.27	1	283.29	1	null	6	979.35	1	41.168724	15.52385
2207	2024-04-01 22:00:00	22	candela_ex_comes	11.0	1	79.9	1	0.8	1	6.35	1	259.7	1	null	6	979.33	1	41.168724	15.52385
2208	2024-04-01 23:00:00	22	candela_ex_comes	11.51	1	82.12	1	0.0	1	6.52	1	257.33	1	null	6	978.97	1	41.168724	15.52385
2209	2024-04-02 00:00:00	22	candela_ex_comes	10.92	1	79.33	1	0.0	1	10.34	1	252.84	1	null	6	979.21	1	41.168724	15.52385
2210	2024-04-02 01:00:00	22	candela_ex_comes	10.83	1	77.48	1	0.0	1	13.29	1	248.06	1	null	6	979.64	1	41.168724	15.52385
2211	2024-04-02 02:00:00	22	candela_ex_comes	11.32	1	71.55	1	0.0	1	16.48	1	246.03	1	null	6	979.26	1	41.168724	15.52385
2212	2024-04-02 03:00:00	22	candela_ex_comes	10.9	1	74.48	1	0.0	1	14.2	1	259.79	1	null	6	980.17	1	41.168724	15.52385
2213	2024-04-02 04:00:00	22	candela_ex_comes	10.67	1	77.17	1	0.0	1	5.66	1	283.14	1	null	6	981.61	1	41.168724	15.52385
2214	2024-04-02 05:00:00	22	candela_ex_comes	10.83	1	72.63	1	0.0	1	9.17	1	252.34	1	null	6	981.59	1	41.168724	15.52385
2215	2024-04-02 06:00:00	22	candela_ex_comes	9.42	1	71.21	1	0.0	1	3.8	1	252.44	1	null	6	982.14	1	41.168724	15.52385
2216	2024-04-02 07:00:00	22	candela_ex_comes	11.08	1	71.3	1	0.0	1	4.42	1	235.48	1	null	6	982.58	1	41.168724	15.52385
2217	2024-04-02 08:00:00	22	candela_ex_comes	11.57	1	69.41	1	0.0	1	4.06	1	249.71	1	null	6	982.86	1	41.168724	15.52385
2218	2024-04-02 09:00:00	22	candela_ex_comes	12.52	1	65.8	1	0.0	1	9.46	1	253.78	1	null	6	982.96	1	41.168724	15.52385
2219	2024-04-02 10:00:00	22	candela_ex_comes	13.94	1	57.2	1	0.0	1	13.1	1	254.52	1	null	6	983.13	1	41.168724	15.52385
2220	2024-04-02 11:00:00	22	candela_ex_comes	14.93	1	50.21	1	0.0	1	14.06	1	253.52	1	null	6	982.94	1	41.168724	15.52385
2221	2024-04-02 12:00:00	22	candela_ex_comes	15.5	1	44.67	1	0.0	1	14.66	1	258.79	1	null	6	982.8	1	41.168724	15.52385
2222	2024-04-02 13:00:00	22	candela_ex_comes	16.35	1	43.11	1	0.0	1	12.48	1	256.6	1	null	6	982.97	1	41.168724	15.52385
2223	2024-04-02 14:00:00	22	candela_ex_comes	16.65	1	40.94	1	0.0	1	11.77	1	265.88	1	null	6	983.23	1	41.168724	15.52385
2224	2024-04-02 15:00:00	22	candela_ex_comes	16.49	1	42.41	1	0.0	1	12.71	1	259.73	1	null	6	982.97	1	41.168724	15.52385
2225	2024-04-02 16:00:00	22	candela_ex_comes	16.31	1	45.24	1	0.0	1	13.07	1	262.77	1	null	6	982.78	1	41.168724	15.52385
2226	2024-04-02 17:00:00	22	candela_ex_comes	15.75	1	47.62	1	0.0	1	12.75	1	268.46	1	null	6	982.85	1	41.168724	15.52385
2227	2024-04-02 18:00:00	22	candela_ex_comes	14.84	1	53.44	1	0.0	1	9.9	1	263.04	1	null	6	983.18	1	41.168724	15.52385
2228	2024-04-02 19:00:00	22	candela_ex_comes	13.43	1	60.29	1	0.0	1	8.61	1	261.72	1	null	6	983.49	1	41.168724	15.52385
2229	2024-04-02 20:00:00	22	candela_ex_comes	12.39	1	67.62	1	0.0	1	8.01	1	252.41	1	null	6	984.11	1	41.168724	15.52385
2230	2024-04-02 21:00:00	22	candela_ex_comes	12.01	1	69.4	1	0.0	1	8.54	1	246.99	1	null	6	984.4	1	41.168724	15.52385
2231	2024-04-02 22:00:00	22	candela_ex_comes	11.8	1	69.7	1	0.0	1	8.95	1	239.72	1	null	6	984.73	1	41.168724	15.52385
2232	2024-04-02 23:00:00	22	candela_ex_comes	11.67	1	69.93	1	0.0	1	9.33	1	252.84	1	null	6	984.99	1	41.168724	15.52385
2233	2024-04-03 00:00:00	22	candela_ex_comes	11.28	1	74.0	1	0.0	1	8.38	1	243.51	1	null	6	985.23	1	41.168724	15.52385
2234	2024-04-03 01:00:00	22	candela_ex_comes	11.09	1	75.29	1	0.0	1	8.05	1	244.25	1	null	6	985.17	1	41.168724	15.52385
2235	2024-04-03 02:00:00	22	candela_ex_comes	10.92	1	75.81	1	0.0	1	9.6	1	244.12	1	null	6	985.04	1	41.168724	15.52385
2236	2024-04-03 03:00:00	22	candela_ex_comes	10.29	1	77.08	1	0.0	1	7.77	1	245.39	1	null	6	984.72	1	41.168724	15.52385
2237	2024-04-03 04:00:00	22	candela_ex_comes	10.37	1	75.63	1	0.0	1	7.19	1	243.65	1	null	6	984.3	1	41.168724	15.52385
2238	2024-04-03 05:00:00	22	candela_ex_comes	10.61	1	72.36	1	0.0	1	6.67	1	246.17	1	null	6	984.01	1	41.168724	15.52385
2239	2024-04-03 06:00:00	22	candela_ex_comes	10.64	1	72.24	1	0.0	1	5.09	1	245.14	1	null	6	983.96	1	41.168724	15.52385
2240	2024-04-03 07:00:00	22	candela_ex_comes	10.88	1	69.15	1	0.0	1	3.03	1	236.48	1	null	6	984.06	1	41.168724	15.52385
2241	2024-04-03 08:00:00	22	candela_ex_comes	12.27	1	65.75	1	0.0	1	3.04	1	227.56	1	null	6	984.11	1	41.168724	15.52385
2242	2024-04-03 09:00:00	22	candela_ex_comes	13.7	1	60.9	1	0.0	1	6.88	1	247.51	1	null	6	984.25	1	41.168724	15.52385
2243	2024-04-03 10:00:00	22	candela_ex_comes	15.1	1	54.39	1	0.0	1	7.44	1	254.66	1	null	6	984.5	1	41.168724	15.52385
2244	2024-04-03 11:00:00	22	candela_ex_comes	15.46	1	50.39	1	0.0	1	8.17	1	262.08	1	null	6	984.74	1	41.168724	15.52385
2245	2024-04-03 12:00:00	22	candela_ex_comes	15.58	1	51.33	1	0.0	1	9.96	1	265.14	1	null	6	984.76	1	41.168724	15.52385
2246	2024-04-03 13:00:00	22	candela_ex_comes	16.03	1	50.17	1	0.0	1	9.86	1	258.01	1	null	6	984.48	1	41.168724	15.52385
2247	2024-04-03 14:00:00	22	candela_ex_comes	16.43	1	47.6	1	0.0	1	10.39	1	259.37	1	null	6	984.16	1	41.168724	15.52385
2248	2024-04-03 15:00:00	22	candela_ex_comes	15.99	1	49.78	1	0.0	1	9.28	1	257.81	1	null	6	983.84	1	41.168724	15.52385
2249	2024-04-03 16:00:00	22	candela_ex_comes	16.32	1	48.44	1	0.0	1	8.94	1	258.38	1	null	6	983.51	1	41.168724	15.52385
2250	2024-04-03 17:00:00	22	candela_ex_comes	16.4	1	47.2	1	0.0	1	9.18	1	257.28	1	null	6	983.52	1	41.168724	15.52385
2251	2024-04-03 18:00:00	22	candela_ex_comes	15.57	1	48.64	1	0.0	1	7.34	1	259.85	1	null	6	983.73	1	41.168724	15.52385
2252	2024-04-03 19:00:00	22	candela_ex_comes	13.86	1	53.48	1	0.0	1	5.97	1	259.85	1	null	6	983.76	1	41.168724	15.52385
2253	2024-04-03 20:00:00	22	candela_ex_comes	13.24	1	56.03	1	0.0	1	7.23	1	253.59	1	null	6	984.1	1	41.168724	15.52385
2254	2024-04-03 21:00:00	22	candela_ex_comes	12.79	1	58.82	1	0.0	1	8.07	1	244.2	1	null	6	984.34	1	41.168724	15.52385
2255	2024-04-03 22:00:00	22	candela_ex_comes	12.42	1	60.18	1	0.0	1	9.26	1	241.68	1	null	6	984.55	1	41.168724	15.52385
2256	2024-04-03 23:00:00	22	candela_ex_comes	11.93	1	63.62	1	0.0	1	9.83	1	251.0	1	null	6	984.74	1	41.168724	15.52385
2257	2024-04-04 00:00:00	22	candela_ex_comes	11.65	1	70.39	1	0.0	1	10.26	1	246.3	1	null	6	985.0	1	41.168724	15.52385
2258	2024-04-04 01:00:00	22	candela_ex_comes	11.38	1	74.63	1	0.0	1	10.13	1	244.82	1	null	6	985.29	1	41.168724	15.52385
2259	2024-04-04 02:00:00	22	candela_ex_comes	11.62	1	73.34	1	0.0	1	11.3	1	251.67	1	null	6	985.31	1	41.168724	15.52385
2260	2024-04-04 03:00:00	22	candela_ex_comes	10.78	1	76.73	1	0.0	1	9.15	1	251.98	1	null	6	985.35	1	41.168724	15.52385
2261	2024-04-04 04:00:00	22	candela_ex_comes	11.07	1	77.34	1	0.0	1	9.15	1	244.11	1	null	6	985.53	1	41.168724	15.52385
2262	2024-04-04 05:00:00	22	candela_ex_comes	10.85	1	77.68	1	0.0	1	9.33	1	244.17	1	null	6	985.72	1	41.168724	15.52385
2263	2024-04-04 06:00:00	22	candela_ex_comes	10.47	1	79.42	1	0.0	1	8.25	1	245.69	1	null	6	985.98	1	41.168724	15.52385
2264	2024-04-04 07:00:00	22	candela_ex_comes	11.01	1	78.22	1	0.0	1	7.91	1	244.23	1	null	6	986.48	1	41.168724	15.52385
2265	2024-04-04 08:00:00	22	candela_ex_comes	12.24	1	74.89	1	0.0	1	7.14	1	246.67	1	null	6	986.79	1	41.168724	15.52385
2266	2024-04-04 09:00:00	22	candela_ex_comes	14.07	1	67.67	1	0.0	1	6.59	1	247.97	1	null	6	987.04	1	41.168724	15.52385
2267	2024-04-04 10:00:00	22	candela_ex_comes	16.11	1	51.49	1	0.0	1	4.23	1	252.82	1	null	6	987.35	1	41.168724	15.52385
2268	2024-04-04 11:00:00	22	candela_ex_comes	17.8	1	39.33	1	0.0	1	1.73	1	265.16	1	null	6	987.13	1	41.168724	15.52385
2269	2024-04-04 12:00:00	22	candela_ex_comes	18.63	1	39.21	1	0.0	1	1.64	1	279.3	1	null	6	986.8	1	41.168724	15.52385
2270	2024-04-04 13:00:00	22	candela_ex_comes	19.46	1	38.23	1	0.0	1	3.21	1	238.98	1	null	6	986.41	1	41.168724	15.52385
2271	2024-04-04 14:00:00	22	candela_ex_comes	19.95	1	33.5	1	0.0	1	5.82	1	251.71	1	null	6	986.05	1	41.168724	15.52385
2272	2024-04-04 15:00:00	22	candela_ex_comes	20.17	1	31.11	1	0.0	1	7.25	1	266.4	1	null	6	985.97	1	41.168724	15.52385
2273	2024-04-04 16:00:00	22	candela_ex_comes	19.68	1	39.23	1	0.0	1	7.19	1	278.23	1	null	6	985.99	1	41.168724	15.52385
2274	2024-04-04 17:00:00	22	candela_ex_comes	18.41	1	47.54	1	0.0	1	7.13	1	265.25	1	null	6	986.37	1	41.168724	15.52385
2275	2024-04-04 18:00:00	22	candela_ex_comes	17.51	1	50.99	1	0.0	1	6.83	1	250.62	1	null	6	986.4	1	41.168724	15.52385
2276	2024-04-04 19:00:00	22	candela_ex_comes	15.6	1	57.1	1	0.0	1	6.19	1	256.09	1	null	6	986.77	1	41.168724	15.52385
2277	2024-04-04 20:00:00	22	candela_ex_comes	15.86	1	61.22	1	0.0	1	7.44	1	251.3	1	null	6	987.39	1	41.168724	15.52385
2278	2024-04-04 21:00:00	22	candela_ex_comes	12.67	1	63.45	1	0.0	1	7.13	1	247.39	1	null	6	987.85	1	41.168724	15.52385
2279	2024-04-04 22:00:00	22	candela_ex_comes	12.57	1	64.66	1	0.0	1	6.26	1	246.49	1	null	6	988.22	1	41.168724	15.52385
2280	2024-04-04 23:00:00	22	candela_ex_comes	12.27	1	63.42	1	0.0	1	5.4	1	241.33	1	null	6	988.42	1	41.168724	15.52385
2281	2024-04-05 00:00:00	22	candela_ex_comes	12.68	1	59.67	1	0.0	1	2.03	1	171.65	1	null	6	988.41	1	41.168724	15.52385
2282	2024-04-05 01:00:00	22	candela_ex_comes	11.93	1	59.43	1	0.0	1	3.24	1	246.68	1	null	6	988.45	1	41.168724	15.52385
2283	2024-04-05 02:00:00	22	candela_ex_comes	11.9	1	58.05	1	0.0	1	2.35	1	216.49	1	null	6	988.43	1	41.168724	15.52385
2284	2024-04-05 03:00:00	22	candela_ex_comes	11.99	1	56.59	1	0.0	1	2.69	1	236.87	1	null	6	988.36	1	41.168724	15.52385
2285	2024-04-05 04:00:00	22	candela_ex_comes	11.77	1	56.88	1	0.0	1	2.59	1	235.79	1	null	6	988.42	1	41.168724	15.52385
2286	2024-04-05 05:00:00	22	candela_ex_comes	11.26	1	59.12	1	0.0	1	4.19	1	239.66	1	null	6	988.44	1	41.168724	15.52385
2287	2024-04-05 06:00:00	22	candela_ex_comes	11.07	1	59.88	1	0.0	1	5.29	1	248.3	1	null	6	988.95	1	41.168724	15.52385
2288	2024-04-05 07:00:00	22	candela_ex_comes	11.86	1	61.15	1	0.0	1	4.98	1	250.94	1	null	6	989.57	1	41.168724	15.52385
2289	2024-04-05 08:00:00	22	candela_ex_comes	14.21	1	57.25	1	0.0	1	4.89	1	250.29	1	null	6	989.96	1	41.168724	15.52385
2290	2024-04-05 09:00:00	22	candela_ex_comes	15.94	1	55.54	1	0.0	1	3.25	1	261.14	1	null	6	990.6	1	41.168724	15.52385
2291	2024-04-05 10:00:00	22	candela_ex_comes	17.71	1	50.87	1	0.0	1	1.5	1	284.89	1	null	6	990.76	1	41.168724	15.52385
2292	2024-04-05 11:00:00	22	candela_ex_comes	18.81	1	46.91	1	0.0	1	1.28	1	50.25	1	null	6	990.66	1	41.168724	15.52385
2293	2024-04-05 12:00:00	22	candela_ex_comes	19.48	1	44.52	1	0.0	1	1.56	1	74.23	1	null	6	990.46	1	41.168724	15.52385
2294	2024-04-05 13:00:00	22	candela_ex_comes	20.05	1	42.64	1	0.0	1	1.98	1	30.73	1	null	6	990.18	1	41.168724	15.52385
2295	2024-04-05 14:00:00	22	candela_ex_comes	20.59	1	42.63	1	0.0	1	2.16	1	358.96	1	null	6	989.91	1	41.168724	15.52385
2296	2024-04-05 15:00:00	22	candela_ex_comes	21.02	1	42.63	1	0.0	1	1.77	1	10.91	1	null	6	989.33	1	41.168724	15.52385
2297	2024-04-05 16:00:00	22	candela_ex_comes	21.01	1	44.4	1	0.0	1	1.93	1	344.53	1	null	6	989.13	1	41.168724	15.52385
2298	2024-04-05 17:00:00	22	candela_ex_comes	20.57	1	44.11	1	0.0	1	3.68	1	78.5	1	null	6	988.95	1	41.168724	15.52385
2299	2024-04-05 18:00:00	22	candela_ex_comes	18.88	1	46.06	1	0.0	1	3.97	1	100.5	1	null	6	989.21	1	41.168724	15.52385
2300	2024-04-05 19:00:00	22	candela_ex_comes	17.19	1	52.14	1	0.0	1	1.44	1	149.81	1	null	6	989.56	1	41.168724	15.52385
2301	2024-04-05 20:00:00	22	candela_ex_comes	15.35	1	58.11	1	0.0	1	2.76	1	256.73	1	null	6	990.1	1	41.168724	15.52385
2302	2024-04-05 21:00:00	22	candela_ex_comes	13.54	1	66.09	1	0.0	1	2.38	1	262.57	1	null	6	990.79	1	41.168724	15.52385
2303	2024-04-05 22:00:00	22	candela_ex_comes	12.55	1	71.07	1	0.0	1	3.19	1	247.82	1	null	6	990.72	1	41.168724	15.52385
2304	2024-04-05 23:00:00	22	candela_ex_comes	11.77	1	78.05	1	0.0	1	4.16	1	245.9	1	null	6	990.62	1	41.168724	15.52385
2305	2024-04-06 00:00:00	22	candela_ex_comes	11.7	1	81.7	1	0.0	1	1.56	1	154.23	1	null	6	990.42	1	41.168724	15.52385
2306	2024-04-06 01:00:00	22	candela_ex_comes	12.28	1	78.62	1	0.0	1	2.17	1	144.53	1	null	6	990.28	1	41.168724	15.52385
2307	2024-04-06 02:00:00	22	candela_ex_comes	11.98	1	78.36	1	0.0	1	2.27	1	159.1	1	null	6	990.25	1	41.168724	15.52385
2308	2024-04-06 03:00:00	22	candela_ex_comes	11.46	1	80.01	1	0.0	1	1.75	1	166.67	1	null	6	990.02	1	41.168724	15.52385
2309	2024-04-06 04:00:00	22	candela_ex_comes	11.56	1	82.14	1	0.0	1	1.64	1	183.65	1	null	6	990.0	1	41.168724	15.52385
2310	2024-04-06 05:00:00	22	candela_ex_comes	11.49	1	81.75	1	0.0	1	1.94	1	158.59	1	null	6	990.01	1	41.168724	15.52385
2311	2024-04-06 06:00:00	22	candela_ex_comes	11.37	1	80.93	1	0.0	1	2.06	1	154.28	1	null	6	990.11	1	41.168724	15.52385
2312	2024-04-06 07:00:00	22	candela_ex_comes	11.3	1	80.23	1	0.0	1	2.26	1	154.72	1	null	6	990.32	1	41.168724	15.52385
2313	2024-04-06 08:00:00	22	candela_ex_comes	13.98	1	75.86	1	0.0	1	2.03	1	149.59	1	null	6	990.26	1	41.168724	15.52385
2314	2024-04-06 09:00:00	22	candela_ex_comes	17.25	1	65.08	1	0.0	1	2.29	1	135.58	1	null	6	990.52	1	41.168724	15.52385
2315	2024-04-06 10:00:00	22	candela_ex_comes	19.48	1	54.31	1	0.0	1	3.14	1	253.21	1	null	6	990.7	1	41.168724	15.52385
2316	2024-04-06 11:00:00	22	candela_ex_comes	20.15	1	51.08	1	0.0	1	2.56	1	21.71	1	null	6	990.61	1	41.168724	15.52385
2317	2024-04-06 12:00:00	22	candela_ex_comes	20.77	1	48.37	1	0.0	1	2.99	1	27.24	1	null	6	990.42	1	41.168724	15.52385
2318	2024-04-06 13:00:00	22	candela_ex_comes	21.46	1	45.34	1	0.0	1	1.75	1	305.37	1	null	6	989.97	1	41.168724	15.52385
2319	2024-04-06 14:00:00	22	candela_ex_comes	22.01	1	44.53	1	0.0	1	2.16	1	331.34	1	null	6	989.38	1	41.168724	15.52385
2320	2024-04-06 15:00:00	22	candela_ex_comes	22.57	1	43.41	1	0.0	1	1.98	1	29.54	1	null	6	988.73	1	41.168724	15.52385
2321	2024-04-06 16:00:00	22	candela_ex_comes	22.8	1	44.28	1	0.0	1	2.25	1	0.02	1	null	6	988.24	1	41.168724	15.52385
2322	2024-04-06 17:00:00	22	candela_ex_comes	22.66	1	45.76	1	0.0	1	2.29	1	345.7	1	null	6	988.14	1	41.168724	15.52385
2323	2024-04-06 18:00:00	22	candela_ex_comes	21.56	1	48.72	1	0.0	1	2.05	1	91.48	1	null	6	988.06	1	41.168724	15.52385
2324	2024-04-06 19:00:00	22	candela_ex_comes	19.03	1	53.02	1	0.0	1	2.23	1	108.19	1	null	6	988.52	1	41.168724	15.52385
2325	2024-04-06 20:00:00	22	candela_ex_comes	16.64	1	62.0	1	0.0	1	1.63	1	322.51	1	null	6	989.33	1	41.168724	15.52385
2326	2024-04-06 21:00:00	22	candela_ex_comes	15.19	1	63.75	1	0.0	1	0.74	1	302.18	1	null	6	989.73	1	41.168724	15.52385
2327	2024-04-06 22:00:00	22	candela_ex_comes	14.37	1	72.81	1	0.0	1	2.7	1	253.03	1	null	6	989.6	1	41.168724	15.52385
2328	2024-04-06 23:00:00	22	candela_ex_comes	13.36	1	80.53	1	0.0	1	3.39	1	244.24	1	null	6	989.43	1	41.168724	15.52385
2329	2024-04-07 00:00:00	22	candela_ex_comes	14.44	1	76.22	1	0.0	1	4.25	1	242.12	1	null	6	988.95	1	41.168724	15.52385
2330	2024-04-07 01:00:00	22	candela_ex_comes	14.37	1	71.74	1	0.0	1	3.2	1	248.13	1	null	6	988.74	1	41.168724	15.52385
2331	2024-04-07 02:00:00	22	candela_ex_comes	14.22	1	67.64	1	0.0	1	2.32	1	142.21	1	null	6	988.57	1	41.168724	15.52385
2332	2024-04-07 03:00:00	22	candela_ex_comes	13.85	1	68.93	1	0.0	1	1.53	1	225.9	1	null	6	988.34	1	41.168724	15.52385
2333	2024-04-07 04:00:00	22	candela_ex_comes	13.82	1	66.65	1	0.0	1	1.3	1	231.8	1	null	6	988.14	1	41.168724	15.52385
2334	2024-04-07 05:00:00	22	candela_ex_comes	12.88	1	70.94	1	0.0	1	2.11	1	226.41	1	null	6	987.9	1	41.168724	15.52385
2335	2024-04-07 06:00:00	22	candela_ex_comes	12.49	1	72.51	1	0.0	1	2.52	1	233.62	1	null	6	987.91	1	41.168724	15.52385
2336	2024-04-07 07:00:00	22	candela_ex_comes	12.77	1	74.05	1	0.0	1	1.4	1	157.78	1	null	6	988.52	1	41.168724	15.52385
2337	2024-04-07 08:00:00	22	candela_ex_comes	15.32	1	69.1	1	0.0	1	1.28	1	148.39	1	null	6	988.31	1	41.168724	15.52385
2338	2024-04-07 09:00:00	22	candela_ex_comes	18.55	1	59.99	1	0.0	1	1.61	1	262.66	1	null	6	988.38	1	41.168724	15.52385
2339	2024-04-07 10:00:00	22	candela_ex_comes	20.12	1	52.9	1	0.0	1	1.61	1	350.67	1	null	6	988.25	1	41.168724	15.52385
2340	2024-04-07 11:00:00	22	candela_ex_comes	21.43	1	42.44	1	0.0	1	2.04	1	339.79	1	null	6	987.92	1	41.168724	15.52385
2341	2024-04-07 12:00:00	22	candela_ex_comes	22.81	1	36.77	1	0.0	1	2.78	1	345.9	1	null	6	987.23	1	41.168724	15.52385
2342	2024-04-07 13:00:00	22	candela_ex_comes	23.8	1	34.54	1	0.0	1	4.11	1	355.48	1	null	6	986.86	1	41.168724	15.52385
2343	2024-04-07 14:00:00	22	candela_ex_comes	24.34	1	29.68	1	0.0	1	4.34	1	349.48	1	null	6	986.23	1	41.168724	15.52385
2344	2024-04-07 15:00:00	22	candela_ex_comes	24.46	1	30.17	1	0.0	1	4.62	1	345.13	1	null	6	985.79	1	41.168724	15.52385
2345	2024-04-07 16:00:00	22	candela_ex_comes	24.22	1	33.05	1	0.0	1	4.53	1	358.67	1	null	6	985.47	1	41.168724	15.52385
2346	2024-04-07 17:00:00	22	candela_ex_comes	23.2	1	34.84	1	0.0	1	4.77	1	355.04	1	null	6	985.3	1	41.168724	15.52385
2347	2024-04-07 18:00:00	22	candela_ex_comes	21.31	1	40.62	1	0.0	1	3.94	1	359.84	1	null	6	985.48	1	41.168724	15.52385
2348	2024-04-07 19:00:00	22	candela_ex_comes	19.29	1	45.25	1	0.0	1	3.66	1	357.53	1	null	6	985.58	1	41.168724	15.52385
2349	2024-04-07 20:00:00	22	candela_ex_comes	17.87	1	46.2	1	0.0	1	2.18	1	342.76	1	null	6	985.88	1	41.168724	15.52385
2350	2024-04-07 21:00:00	22	candela_ex_comes	14.38	1	60.35	1	0.0	1	3.0	1	249.86	1	null	6	986.03	1	41.168724	15.52385
2351	2024-04-07 22:00:00	22	candela_ex_comes	13.01	1	67.54	1	0.0	1	4.12	1	249.58	1	null	6	985.96	1	41.168724	15.52385
2352	2024-04-07 23:00:00	22	candela_ex_comes	12.3	1	70.09	1	0.0	1	4.52	1	249.86	1	null	6	985.69	1	41.168724	15.52385
2353	2024-04-08 00:00:00	22	candela_ex_comes	12.62	1	68.23	1	0.0	1	2.92	1	248.15	1	null	6	985.5	1	41.168724	15.52385
2354	2024-04-08 01:00:00	22	candela_ex_comes	13.18	1	64.36	1	0.0	1	3.06	1	233.76	1	null	6	985.4	1	41.168724	15.52385
2355	2024-04-08 02:00:00	22	candela_ex_comes	12.79	1	63.54	1	0.0	1	2.42	1	244.66	1	null	6	985.23	1	41.168724	15.52385
2356	2024-04-08 03:00:00	22	candela_ex_comes	12.35	1	65.32	1	0.0	1	2.24	1	235.4	1	null	6	985.27	1	41.168724	15.52385
2357	2024-04-08 04:00:00	22	candela_ex_comes	12.34	1	61.71	1	0.0	1	2.2	1	244.11	1	null	6	984.87	1	41.168724	15.52385
2358	2024-04-08 05:00:00	22	candela_ex_comes	11.38	1	61.01	1	0.0	1	2.54	1	252.26	1	null	6	984.75	1	41.168724	15.52385
2359	2024-04-08 06:00:00	22	candela_ex_comes	11.71	1	64.35	1	0.0	1	3.96	1	250.18	1	null	6	984.84	1	41.168724	15.52385
2360	2024-04-08 07:00:00	22	candela_ex_comes	12.06	1	63.95	1	0.0	1	2.0	1	152.31	1	null	6	985.26	1	41.168724	15.52385
2361	2024-04-08 08:00:00	22	candela_ex_comes	14.67	1	59.83	1	0.0	1	1.98	1	149.38	1	null	6	985.55	1	41.168724	15.52385
2362	2024-04-08 09:00:00	22	candela_ex_comes	17.33	1	51.22	1	0.0	1	2.48	1	131.37	1	null	6	985.65	1	41.168724	15.52385
2363	2024-04-08 10:00:00	22	candela_ex_comes	19.82	1	40.63	1	0.0	1	2.34	1	123.44	1	null	6	985.69	1	41.168724	15.52385
2364	2024-04-08 11:00:00	22	candela_ex_comes	21.77	1	33.13	1	0.0	1	2.12	1	120.03	1	null	6	985.44	1	41.168724	15.52385
2365	2024-04-08 12:00:00	22	candela_ex_comes	23.29	1	28.46	1	0.0	1	2.56	1	131.12	1	null	6	984.79	1	41.168724	15.52385
2366	2024-04-08 13:00:00	22	candela_ex_comes	24.69	1	28.29	1	0.0	1	2.04	1	128.08	1	null	6	984.22	1	41.168724	15.52385
2367	2024-04-08 14:00:00	22	candela_ex_comes	25.81	1	29.1	1	0.0	1	1.82	1	101.23	1	null	6	983.74	1	41.168724	15.52385
2368	2024-04-08 15:00:00	22	candela_ex_comes	25.97	1	30.92	1	0.0	1	2.82	1	46.48	1	null	6	983.23	1	41.168724	15.52385
2369	2024-04-08 16:00:00	22	candela_ex_comes	24.85	1	39.14	1	0.0	1	3.26	1	65.69	1	null	6	983.12	1	41.168724	15.52385
2370	2024-04-08 17:00:00	22	candela_ex_comes	23.98	1	41.14	1	0.0	1	2.64	1	87.52	1	null	6	983.06	1	41.168724	15.52385
2371	2024-04-08 18:00:00	22	candela_ex_comes	21.65	1	49.3	1	0.0	1	1.86	1	184.6	1	null	6	983.32	1	41.168724	15.52385
2372	2024-04-08 19:00:00	22	candela_ex_comes	18.79	1	58.19	1	0.0	1	2.43	1	279.99	1	null	6	983.5	1	41.168724	15.52385
2373	2024-04-08 20:00:00	22	candela_ex_comes	17.44	1	62.43	1	0.0	1	1.57	1	283.28	1	null	6	983.69	1	41.168724	15.52385
2374	2024-04-08 21:00:00	22	candela_ex_comes	15.75	1	70.27	1	0.0	1	3.28	1	259.17	1	null	6	983.99	1	41.168724	15.52385
2375	2024-04-08 22:00:00	22	candela_ex_comes	15.21	1	74.03	1	0.0	1	3.56	1	253.12	1	null	6	983.99	1	41.168724	15.52385
2376	2024-04-08 23:00:00	22	candela_ex_comes	15.63	1	71.77	1	0.0	1	2.46	1	153.83	1	null	6	983.73	1	41.168724	15.52385
2377	2024-04-09 00:00:00	22	candela_ex_comes	15.14	1	73.56	1	0.0	1	2.8	1	149.15	1	null	6	983.52	1	41.168724	15.52385
2378	2024-04-09 01:00:00	22	candela_ex_comes	14.71	1	73.76	1	0.0	1	2.84	1	140.4	1	null	6	983.4	1	41.168724	15.52385
2379	2024-04-09 02:00:00	22	candela_ex_comes	16.03	1	67.39	1	0.0	1	2.37	1	153.1	1	null	6	983.18	1	41.168724	15.52385
2380	2024-04-09 03:00:00	22	candela_ex_comes	17.82	1	54.36	1	0.0	1	3.37	1	228.93	1	null	6	982.95	1	41.168724	15.52385
2381	2024-04-09 04:00:00	22	candela_ex_comes	17.09	1	54.4	1	0.0	1	3.0	1	216.93	1	null	6	982.99	1	41.168724	15.52385
2382	2024-04-09 05:00:00	22	candela_ex_comes	16.84	1	55.07	1	0.0	1	3.39	1	185.21	1	null	6	983.05	1	41.168724	15.52385
2383	2024-04-09 06:00:00	22	candela_ex_comes	17.0	1	54.54	1	0.0	1	3.87	1	199.51	1	null	6	983.12	1	41.168724	15.52385
2384	2024-04-09 07:00:00	22	candela_ex_comes	17.38	1	53.72	1	0.0	1	4.46	1	221.37	1	null	6	983.28	1	41.168724	15.52385
2385	2024-04-09 08:00:00	22	candela_ex_comes	18.67	1	51.15	1	0.0	1	4.44	1	226.21	1	null	6	983.25	1	41.168724	15.52385
2386	2024-04-09 09:00:00	22	candela_ex_comes	20.53	1	46.35	1	0.0	1	4.91	1	239.53	1	null	6	983.22	1	41.168724	15.52385
2387	2024-04-09 10:00:00	22	candela_ex_comes	22.32	1	38.88	1	0.0	1	5.6	1	240.94	1	null	6	983.28	1	41.168724	15.52385
2388	2024-04-09 11:00:00	22	candela_ex_comes	23.28	1	31.02	1	0.0	1	7.18	1	252.85	1	null	6	983.22	1	41.168724	15.52385
2389	2024-04-09 12:00:00	22	candela_ex_comes	23.95	1	27.32	1	0.0	1	8.01	1	255.07	1	null	6	982.96	1	41.168724	15.52385
2390	2024-04-09 13:00:00	22	candela_ex_comes	24.49	1	29.54	1	0.0	1	7.61	1	260.92	1	null	6	982.58	1	41.168724	15.52385
2391	2024-04-09 14:00:00	22	candela_ex_comes	24.77	1	32.03	1	0.0	1	6.93	1	254.97	1	null	6	982.11	1	41.168724	15.52385
2392	2024-04-09 15:00:00	22	candela_ex_comes	24.96	1	29.03	1	0.0	1	7.23	1	263.3	1	null	6	981.83	1	41.168724	15.52385
2393	2024-04-09 16:00:00	22	candela_ex_comes	24.52	1	30.08	1	0.0	1	6.96	1	255.81	1	null	6	981.6	1	41.168724	15.52385
2394	2024-04-09 17:00:00	22	candela_ex_comes	23.64	1	32.3	1	0.0	1	6.13	1	253.64	1	null	6	981.56	1	41.168724	15.52385
2395	2024-04-09 18:00:00	22	candela_ex_comes	22.19	1	34.7	1	0.0	1	5.02	1	244.72	1	null	6	981.54	1	41.168724	15.52385
2396	2024-04-09 19:00:00	22	candela_ex_comes	20.03	1	35.58	1	0.0	1	2.89	1	213.64	1	null	6	981.74	1	41.168724	15.52385
2397	2024-04-09 20:00:00	22	candela_ex_comes	19.25	1	40.75	1	0.0	1	4.73	1	226.46	1	null	6	981.91	1	41.168724	15.52385
2398	2024-04-09 21:00:00	22	candela_ex_comes	18.24	1	45.42	1	0.0	1	5.42	1	223.61	1	null	6	982.06	1	41.168724	15.52385
2399	2024-04-09 22:00:00	22	candela_ex_comes	17.66	1	45.38	1	0.0	1	5.81	1	221.01	1	null	6	982.07	1	41.168724	15.52385
2400	2024-04-09 23:00:00	22	candela_ex_comes	17.04	1	46.18	1	0.0	1	3.74	1	191.44	1	null	6	982.25	1	41.168724	15.52385
2401	2024-04-10 00:00:00	22	candela_ex_comes	16.69	1	47.17	1	0.0	1	5.39	1	210.64	1	null	6	982.02	1	41.168724	15.52385
2402	2024-04-10 01:00:00	22	candela_ex_comes	16.48	1	46.91	1	0.0	1	4.85	1	208.76	1	null	6	981.66	1	41.168724	15.52385
2403	2024-04-10 02:00:00	22	candela_ex_comes	16.1	1	47.87	1	0.0	1	4.99	1	209.82	1	null	6	981.32	1	41.168724	15.52385
2404	2024-04-10 03:00:00	22	candela_ex_comes	15.62	1	51.81	1	0.0	1	6.69	1	211.67	1	null	6	981.1	1	41.168724	15.52385
2405	2024-04-10 04:00:00	22	candela_ex_comes	15.5	1	52.57	1	0.0	1	5.71	1	224.11	1	null	6	980.59	1	41.168724	15.52385
2406	2024-04-10 05:00:00	22	candela_ex_comes	14.71	1	59.61	1	0.0	1	4.37	1	228.94	1	null	6	980.67	1	41.168724	15.52385
2407	2024-04-10 06:00:00	22	candela_ex_comes	14.76	1	64.34	1	0.0	1	3.99	1	211.15	1	null	6	981.12	1	41.168724	15.52385
2408	2024-04-10 07:00:00	22	candela_ex_comes	14.63	1	71.4	1	0.0	1	4.67	1	221.69	1	null	6	981.68	1	41.168724	15.52385
2409	2024-04-10 08:00:00	22	candela_ex_comes	15.61	1	69.52	1	0.0	1	2.21	1	214.11	1	null	6	981.81	1	41.168724	15.52385
2410	2024-04-10 09:00:00	22	candela_ex_comes	16.76	1	67.08	1	0.0	1	4.1	1	267.42	1	null	6	981.94	1	41.168724	15.52385
2411	2024-04-10 10:00:00	22	candela_ex_comes	16.73	1	72.55	1	0.0	1	7.56	1	257.02	1	null	6	982.49	1	41.168724	15.52385
2412	2024-04-10 11:00:00	22	candela_ex_comes	16.22	1	72.57	1	0.0	1	7.66	1	255.24	1	null	6	982.99	1	41.168724	15.52385
2413	2024-04-10 12:00:00	22	candela_ex_comes	17.19	1	62.86	1	0.0	1	6.22	1	254.11	1	null	6	983.17	1	41.168724	15.52385
2414	2024-04-10 13:00:00	22	candela_ex_comes	17.98	1	55.86	1	0.0	1	7.29	1	264.66	1	null	6	983.23	1	41.168724	15.52385
2415	2024-04-10 14:00:00	22	candela_ex_comes	17.5	1	56.66	1	0.0	1	8.93	1	264.11	1	null	6	983.46	1	41.168724	15.52385
2416	2024-04-10 15:00:00	22	candela_ex_comes	16.67	1	55.76	1	0.0	1	9.15	1	263.3	1	null	6	983.89	1	41.168724	15.52385
2417	2024-04-10 16:00:00	22	candela_ex_comes	15.9	1	55.94	1	0.0	1	8.13	1	258.64	1	null	6	984.27	1	41.168724	15.52385
2418	2024-04-10 17:00:00	22	candela_ex_comes	15.49	1	57.28	1	0.0	1	8.64	1	270.73	1	null	6	984.56	1	41.168724	15.52385
2419	2024-04-10 18:00:00	22	candela_ex_comes	14.69	1	58.35	1	0.0	1	9.94	1	274.63	1	null	6	984.21	1	41.168724	15.52385
2420	2024-04-10 19:00:00	22	candela_ex_comes	13.77	1	60.05	1	0.0	1	7.23	1	268.02	1	null	6	984.83	1	41.168724	15.52385
2421	2024-04-10 20:00:00	22	candela_ex_comes	13.31	1	62.0	1	0.0	1	6.66	1	245.46	1	null	6	985.57	1	41.168724	15.52385
2422	2024-04-10 21:00:00	22	candela_ex_comes	12.85	1	60.16	1	0.0	1	4.91	1	244.69	1	null	6	986.44	1	41.168724	15.52385
2423	2024-04-10 22:00:00	22	candela_ex_comes	12.57	1	59.51	1	0.0	1	5.53	1	241.79	1	null	6	986.93	1	41.168724	15.52385
2424	2024-04-10 23:00:00	22	candela_ex_comes	12.23	1	62.57	1	0.0	1	7.35	1	242.58	1	null	6	987.11	1	41.168724	15.52385
2425	2024-04-11 00:00:00	22	candela_ex_comes	11.86	1	64.46	1	0.0	1	6.94	1	245.21	1	null	6	987.6	1	41.168724	15.52385
2426	2024-04-11 01:00:00	22	candela_ex_comes	11.6	1	65.55	1	0.0	1	6.71	1	245.18	1	null	6	987.71	1	41.168724	15.52385
2427	2024-04-11 02:00:00	22	candela_ex_comes	11.68	1	64.12	1	0.0	1	6.8	1	245.69	1	null	6	987.53	1	41.168724	15.52385
2428	2024-04-11 03:00:00	22	candela_ex_comes	11.29	1	64.66	1	0.0	1	5.62	1	247.15	1	null	6	987.69	1	41.168724	15.52385
2429	2024-04-11 04:00:00	22	candela_ex_comes	10.8	1	65.94	1	0.0	1	4.23	1	265.04	1	null	6	987.85	1	41.168724	15.52385
2430	2024-04-11 05:00:00	22	candela_ex_comes	10.57	1	68.6	1	0.0	1	3.83	1	262.84	1	null	6	988.1	1	41.168724	15.52385
2431	2024-04-11 06:00:00	22	candela_ex_comes	10.58	1	68.69	1	0.0	1	4.43	1	267.57	1	null	6	988.2	1	41.168724	15.52385
2432	2024-04-11 07:00:00	22	candela_ex_comes	11.01	1	67.04	1	0.0	1	4.04	1	272.67	1	null	6	988.75	1	41.168724	15.52385
2433	2024-04-11 08:00:00	22	candela_ex_comes	12.74	1	66.9	1	0.0	1	3.83	1	267.66	1	null	6	989.11	1	41.168724	15.52385
2434	2024-04-11 09:00:00	22	candela_ex_comes	14.22	1	75.82	1	0.0	1	5.54	1	328.9	1	null	6	989.57	1	41.168724	15.52385
2435	2024-04-11 10:00:00	22	candela_ex_comes	15.21	1	73.59	1	0.0	1	6.56	1	335.59	1	null	6	990.05	1	41.168724	15.52385
2436	2024-04-11 11:00:00	22	candela_ex_comes	15.68	1	72.88	1	0.0	1	6.41	1	337.74	1	null	6	990.44	1	41.168724	15.52385
2437	2024-04-11 12:00:00	22	candela_ex_comes	16.12	1	71.49	1	0.0	1	6.2	1	334.14	1	null	6	990.59	1	41.168724	15.52385
2438	2024-04-11 13:00:00	22	candela_ex_comes	16.46	1	70.75	1	0.0	1	6.98	1	335.85	1	null	6	990.73	1	41.168724	15.52385
2439	2024-04-11 14:00:00	22	candela_ex_comes	16.69	1	68.4	1	0.0	1	7.66	1	336.31	1	null	6	990.64	1	41.168724	15.52385
2440	2024-04-11 15:00:00	22	candela_ex_comes	17.04	1	66.89	1	0.0	1	6.36	1	341.93	1	null	6	990.76	1	41.168724	15.52385
2441	2024-04-11 16:00:00	22	candela_ex_comes	16.96	1	65.92	1	0.0	1	5.89	1	344.06	1	null	6	990.64	1	41.168724	15.52385
2442	2024-04-11 17:00:00	22	candela_ex_comes	16.38	1	65.19	1	0.0	1	6.16	1	336.64	1	null	6	990.75	1	41.168724	15.52385
2443	2024-04-11 18:00:00	22	candela_ex_comes	16.12	1	64.63	1	0.0	1	6.96	1	337.06	1	null	6	990.8	1	41.168724	15.52385
2444	2024-04-11 19:00:00	22	candela_ex_comes	15.07	1	71.58	1	0.0	1	5.43	1	337.58	1	null	6	991.05	1	41.168724	15.52385
2445	2024-04-11 20:00:00	22	candela_ex_comes	14.29	1	76.31	1	0.0	1	5.67	1	324.58	1	null	6	991.68	1	41.168724	15.52385
2446	2024-04-11 21:00:00	22	candela_ex_comes	13.69	1	73.3	1	0.0	1	5.0	1	330.47	1	null	6	992.17	1	41.168724	15.52385
2447	2024-04-11 22:00:00	22	candela_ex_comes	13.42	1	74.52	1	0.0	1	4.4	1	332.01	1	null	6	992.76	1	41.168724	15.52385
2448	2024-04-11 23:00:00	22	candela_ex_comes	13.31	1	73.38	1	0.0	1	4.42	1	336.18	1	null	6	993.01	1	41.168724	15.52385
2449	2024-04-12 00:00:00	22	candela_ex_comes	13.65	1	68.96	1	0.0	1	4.07	1	336.38	1	null	6	993.05	1	41.168724	15.52385
2450	2024-04-12 01:00:00	22	candela_ex_comes	13.08	1	68.09	1	0.0	1	2.63	1	302.39	1	null	6	993.15	1	41.168724	15.52385
2451	2024-04-12 02:00:00	22	candela_ex_comes	12.49	1	69.16	1	0.0	1	2.73	1	282.82	1	null	6	992.75	1	41.168724	15.52385
2452	2024-04-12 03:00:00	22	candela_ex_comes	11.9	1	72.31	1	0.0	1	3.19	1	269.01	1	null	6	992.54	1	41.168724	15.52385
2453	2024-04-12 04:00:00	22	candela_ex_comes	12.83	1	68.93	1	0.0	1	2.51	1	296.81	1	null	6	992.54	1	41.168724	15.52385
2454	2024-04-12 05:00:00	22	candela_ex_comes	13.82	1	65.52	1	0.0	1	3.89	1	329.65	1	null	6	992.55	1	41.168724	15.52385
2455	2024-04-12 06:00:00	22	candela_ex_comes	13.63	1	67.54	1	0.0	1	3.78	1	326.01	1	null	6	992.77	1	41.168724	15.52385
2456	2024-04-12 07:00:00	22	candela_ex_comes	14.6	1	66.47	1	0.0	1	5.37	1	326.05	1	null	6	993.13	1	41.168724	15.52385
2457	2024-04-12 08:00:00	22	candela_ex_comes	15.93	1	60.55	1	0.0	1	6.71	1	330.62	1	null	6	993.34	1	41.168724	15.52385
2458	2024-04-12 09:00:00	22	candela_ex_comes	17.02	1	57.16	1	0.0	1	7.88	1	335.68	1	null	6	993.52	1	41.168724	15.52385
2459	2024-04-12 10:00:00	22	candela_ex_comes	18.16	1	55.09	1	0.0	1	8.39	1	339.22	1	null	6	993.68	1	41.168724	15.52385
2460	2024-04-12 11:00:00	22	candela_ex_comes	19.18	1	53.13	1	0.0	1	7.49	1	341.11	1	null	6	993.69	1	41.168724	15.52385
2461	2024-04-12 12:00:00	22	candela_ex_comes	20.01	1	51.6	1	0.0	1	7.44	1	331.84	1	null	6	993.38	1	41.168724	15.52385
2462	2024-04-12 13:00:00	22	candela_ex_comes	21.06	1	48.86	1	0.0	1	6.72	1	335.29	1	null	6	992.93	1	41.168724	15.52385
2463	2024-04-12 14:00:00	22	candela_ex_comes	21.72	1	46.87	1	0.0	1	6.62	1	344.99	1	null	6	992.56	1	41.168724	15.52385
2464	2024-04-12 15:00:00	22	candela_ex_comes	21.59	1	46.81	1	0.0	1	7.35	1	337.64	1	null	6	992.19	1	41.168724	15.52385
2465	2024-04-12 16:00:00	22	candela_ex_comes	21.26	1	48.37	1	0.0	1	7.35	1	328.49	1	null	6	991.83	1	41.168724	15.52385
2466	2024-04-12 17:00:00	22	candela_ex_comes	20.85	1	48.09	1	0.0	1	6.96	1	332.8	1	null	6	991.58	1	41.168724	15.52385
2467	2024-04-12 18:00:00	22	candela_ex_comes	19.78	1	50.6	1	0.0	1	5.29	1	332.73	1	null	6	991.58	1	41.168724	15.52385
2468	2024-04-12 19:00:00	22	candela_ex_comes	18.06	1	54.76	1	0.0	1	5.42	1	348.6	1	null	6	991.72	1	41.168724	15.52385
2469	2024-04-12 20:00:00	22	candela_ex_comes	16.88	1	64.39	1	0.0	1	3.7	1	359.73	1	null	6	992.1	1	41.168724	15.52385
2470	2024-04-12 21:00:00	22	candela_ex_comes	15.43	1	70.62	1	0.0	1	2.59	1	21.67	1	null	6	992.33	1	41.168724	15.52385
2471	2024-04-12 22:00:00	22	candela_ex_comes	13.99	1	76.27	1	0.0	1	1.81	1	342.86	1	null	6	992.63	1	41.168724	15.52385
2472	2024-04-12 23:00:00	22	candela_ex_comes	13.69	1	74.7	1	0.0	1	2.38	1	274.21	1	null	6	992.91	1	41.168724	15.52385
2473	2024-04-13 00:00:00	22	candela_ex_comes	13.19	1	71.27	1	0.0	1	2.88	1	279.37	1	null	6	993.28	1	41.168724	15.52385
2474	2024-04-13 01:00:00	22	candela_ex_comes	12.09	1	73.77	1	0.0	1	2.73	1	279.86	1	null	6	993.18	1	41.168724	15.52385
2475	2024-04-13 02:00:00	22	candela_ex_comes	10.12	1	78.88	1	0.0	1	2.68	1	266.66	1	null	6	992.81	1	41.168724	15.52385
2476	2024-04-13 03:00:00	22	candela_ex_comes	9.61	1	82.06	1	0.0	1	4.04	1	255.25	1	null	6	992.62	1	41.168724	15.52385
2477	2024-04-13 04:00:00	22	candela_ex_comes	9.6	1	82.09	1	0.0	1	4.69	1	250.17	1	null	6	992.41	1	41.168724	15.52385
2478	2024-04-13 05:00:00	22	candela_ex_comes	9.51	1	81.87	1	0.0	1	4.87	1	251.07	1	null	6	992.36	1	41.168724	15.52385
2479	2024-04-13 06:00:00	22	candela_ex_comes	9.55	1	82.0	1	0.0	1	4.31	1	251.96	1	null	6	992.43	1	41.168724	15.52385
2480	2024-04-13 07:00:00	22	candela_ex_comes	10.91	1	79.9	1	0.0	1	3.09	1	257.57	1	null	6	992.79	1	41.168724	15.52385
2481	2024-04-13 08:00:00	22	candela_ex_comes	15.4	1	67.31	1	0.0	1	3.53	1	263.65	1	null	6	992.99	1	41.168724	15.52385
2482	2024-04-13 09:00:00	22	candela_ex_comes	18.88	1	51.26	1	0.0	1	5.43	1	330.98	1	null	6	993.06	1	41.168724	15.52385
2483	2024-04-13 10:00:00	22	candela_ex_comes	20.21	1	46.99	1	0.0	1	5.83	1	334.05	1	null	6	993.07	1	41.168724	15.52385
2484	2024-04-13 11:00:00	22	candela_ex_comes	21.24	1	44.57	1	0.0	1	6.1	1	339.53	1	null	6	992.87	1	41.168724	15.52385
2485	2024-04-13 12:00:00	22	candela_ex_comes	22.46	1	42.89	1	0.0	1	6.07	1	334.69	1	null	6	992.51	1	41.168724	15.52385
2486	2024-04-13 13:00:00	22	candela_ex_comes	23.27	1	41.89	1	0.0	1	5.84	1	337.36	1	null	6	992.25	1	41.168724	15.52385
2487	2024-04-13 14:00:00	22	candela_ex_comes	23.68	1	39.54	1	0.0	1	6.07	1	331.93	1	null	6	991.83	1	41.168724	15.52385
2488	2024-04-13 15:00:00	22	candela_ex_comes	23.68	1	38.27	1	0.0	1	6.13	1	327.07	1	null	6	991.26	1	41.168724	15.52385
2489	2024-04-13 16:00:00	22	candela_ex_comes	23.78	1	38.9	1	0.0	1	5.42	1	345.5	1	null	6	990.79	1	41.168724	15.52385
2490	2024-04-13 17:00:00	22	candela_ex_comes	22.99	1	41.95	1	0.0	1	5.8	1	344.75	1	null	6	990.6	1	41.168724	15.52385
2491	2024-04-13 18:00:00	22	candela_ex_comes	21.66	1	43.37	1	0.0	1	5.95	1	337.52	1	null	6	990.71	1	41.168724	15.52385
2492	2024-04-13 19:00:00	22	candela_ex_comes	20.09	1	47.58	1	0.0	1	4.66	1	348.12	1	null	6	990.91	1	41.168724	15.52385
2493	2024-04-13 20:00:00	22	candela_ex_comes	18.21	1	53.67	1	0.0	1	3.86	1	6.39	1	null	6	991.28	1	41.168724	15.52385
2494	2024-04-13 21:00:00	22	candela_ex_comes	14.78	1	65.53	1	0.0	1	3.9	1	255.02	1	null	6	991.66	1	41.168724	15.52385
2495	2024-04-13 22:00:00	22	candela_ex_comes	12.86	1	73.23	1	0.0	1	4.44	1	254.16	1	null	6	991.77	1	41.168724	15.52385
2496	2024-04-13 23:00:00	22	candela_ex_comes	11.87	1	75.79	1	0.0	1	4.91	1	253.4	1	null	6	991.66	1	41.168724	15.52385
2497	2024-04-14 00:00:00	22	candela_ex_comes	12.25	1	72.1	1	0.0	1	3.08	1	253.62	1	null	6	991.73	1	41.168724	15.52385
2498	2024-04-14 01:00:00	22	candela_ex_comes	12.29	1	68.26	1	0.0	1	2.77	1	253.97	1	null	6	991.58	1	41.168724	15.52385
2499	2024-04-14 02:00:00	22	candela_ex_comes	11.16	1	70.9	1	0.0	1	2.31	1	265.94	1	null	6	991.35	1	41.168724	15.52385
2500	2024-04-14 03:00:00	22	candela_ex_comes	11.0	1	72.01	1	0.0	1	2.26	1	263.73	1	null	6	991.32	1	41.168724	15.52385
2501	2024-04-14 04:00:00	22	candela_ex_comes	10.61	1	73.2	1	0.0	1	2.96	1	260.83	1	null	6	991.18	1	41.168724	15.52385
2502	2024-04-14 05:00:00	22	candela_ex_comes	11.04	1	73.53	1	0.0	1	2.07	1	239.64	1	null	6	991.11	1	41.168724	15.52385
2503	2024-04-14 06:00:00	22	candela_ex_comes	12.13	1	68.12	1	0.0	1	4.36	1	245.11	1	null	6	991.15	1	41.168724	15.52385
2504	2024-04-14 07:00:00	22	candela_ex_comes	12.54	1	68.56	1	0.0	1	1.55	1	167.58	1	null	6	991.33	1	41.168724	15.52385
2505	2024-04-14 08:00:00	22	candela_ex_comes	15.17	1	64.09	1	0.0	1	1.99	1	155.77	1	null	6	991.13	1	41.168724	15.52385
2506	2024-04-14 09:00:00	22	candela_ex_comes	19.67	1	50.16	1	0.0	1	1.46	1	148.37	1	null	6	991.32	1	41.168724	15.52385
2507	2024-04-14 10:00:00	22	candela_ex_comes	22.88	1	35.12	1	0.0	1	1.04	1	101.55	1	null	6	991.34	1	41.168724	15.52385
2508	2024-04-14 11:00:00	22	candela_ex_comes	24.08	1	30.47	1	0.0	1	1.29	1	17.51	1	null	6	991.21	1	41.168724	15.52385
2509	2024-04-14 12:00:00	22	candela_ex_comes	24.94	1	29.78	1	0.0	1	2.18	1	75.3	1	null	6	990.68	1	41.168724	15.52385
2510	2024-04-14 13:00:00	22	candela_ex_comes	25.9	1	23.81	1	0.0	1	1.86	1	90.57	1	null	6	990.17	1	41.168724	15.52385
2511	2024-04-14 14:00:00	22	candela_ex_comes	26.79	1	20.85	1	0.0	1	1.7	1	94.8	1	null	6	989.44	1	41.168724	15.52385
2512	2024-04-14 15:00:00	22	candela_ex_comes	27.61	1	19.16	1	0.0	1	1.27	1	null	3	null	6	988.65	1	41.168724	15.52385
2513	2024-04-14 16:00:00	22	candela_ex_comes	27.8	1	19.68	1	0.0	1	1.65	1	258.86	1	null	6	988.0	1	41.168724	15.52385
2514	2024-04-14 17:00:00	22	candela_ex_comes	26.87	1	28.26	1	0.0	1	4.08	1	77.91	1	null	6	987.69	1	41.168724	15.52385
2515	2024-04-14 18:00:00	22	candela_ex_comes	24.49	1	37.4	1	0.0	1	5.0	1	87.82	1	null	6	987.68	1	41.168724	15.52385
2516	2024-04-14 19:00:00	22	candela_ex_comes	22.11	1	44.71	1	0.0	1	1.91	1	302.36	1	null	6	987.96	1	41.168724	15.52385
2517	2024-04-14 20:00:00	22	candela_ex_comes	20.0	1	52.02	1	0.0	1	3.16	1	240.9	1	null	6	988.32	1	41.168724	15.52385
2518	2024-04-14 21:00:00	22	candela_ex_comes	18.72	1	54.42	1	0.0	1	4.28	1	241.47	1	null	6	988.71	1	41.168724	15.52385
2519	2024-04-14 22:00:00	22	candela_ex_comes	17.94	1	58.64	1	0.0	1	3.58	1	242.58	1	null	6	988.61	1	41.168724	15.52385
2520	2024-04-14 23:00:00	22	candela_ex_comes	18.65	1	57.57	1	0.0	1	3.59	1	234.24	1	null	6	988.09	1	41.168724	15.52385
2521	2024-04-15 00:00:00	22	candela_ex_comes	17.35	1	61.03	1	0.0	1	2.21	1	149.74	1	null	6	987.57	1	41.168724	15.52385
2522	2024-04-15 01:00:00	22	candela_ex_comes	17.2	1	60.72	1	0.0	1	2.34	1	157.32	1	null	6	987.06	1	41.168724	15.52385
2523	2024-04-15 02:00:00	22	candela_ex_comes	15.26	1	67.06	1	0.0	1	2.74	1	142.03	1	null	6	986.53	1	41.168724	15.52385
2524	2024-04-15 03:00:00	22	candela_ex_comes	16.36	1	65.93	1	0.0	1	2.57	1	157.13	1	null	6	986.05	1	41.168724	15.52385
2525	2024-04-15 04:00:00	22	candela_ex_comes	16.27	1	63.82	1	0.0	1	2.13	1	161.66	1	null	6	985.66	1	41.168724	15.52385
2526	2024-04-15 05:00:00	22	candela_ex_comes	16.94	1	61.83	1	0.0	1	2.79	1	246.57	1	null	6	985.28	1	41.168724	15.52385
2527	2024-04-15 06:00:00	22	candela_ex_comes	17.19	1	57.13	1	0.0	1	2.84	1	202.88	1	null	6	985.25	1	41.168724	15.52385
2528	2024-04-15 07:00:00	22	candela_ex_comes	17.85	1	53.6	1	0.0	1	2.02	1	176.59	1	null	6	985.14	1	41.168724	15.52385
2529	2024-04-15 08:00:00	22	candela_ex_comes	18.63	1	54.58	1	0.0	1	1.7	1	139.93	1	null	6	984.94	1	41.168724	15.52385
2530	2024-04-15 09:00:00	22	candela_ex_comes	21.24	1	47.36	1	0.0	1	4.05	1	235.02	1	null	6	984.93	1	41.168724	15.52385
2531	2024-04-15 10:00:00	22	candela_ex_comes	21.49	1	42.57	1	0.0	1	6.05	1	236.32	1	null	6	985.02	1	41.168724	15.52385
2532	2024-04-15 11:00:00	22	candela_ex_comes	22.57	1	39.94	1	0.0	1	5.53	1	231.83	1	null	6	984.96	1	41.168724	15.52385
2533	2024-04-15 12:00:00	22	candela_ex_comes	23.74	1	37.07	1	0.0	1	7.77	1	244.97	1	null	6	984.12	1	41.168724	15.52385
2534	2024-04-15 13:00:00	22	candela_ex_comes	23.5	1	38.73	1	0.0	1	5.42	1	248.66	1	null	6	982.92	1	41.168724	15.52385
2535	2024-04-15 14:00:00	22	candela_ex_comes	24.2	1	37.47	1	0.0	1	4.43	1	267.82	1	null	6	982.49	1	41.168724	15.52385
2536	2024-04-15 15:00:00	22	candela_ex_comes	25.06	1	35.73	1	0.0	1	5.07	1	274.97	1	null	6	981.87	1	41.168724	15.52385
2537	2024-04-15 16:00:00	22	candela_ex_comes	24.23	1	41.05	1	0.0	1	5.13	1	254.15	1	null	6	981.48	1	41.168724	15.52385
2538	2024-04-15 17:00:00	22	candela_ex_comes	23.33	1	42.29	1	0.0	1	6.3	1	250.49	1	null	6	980.93	1	41.168724	15.52385
2539	2024-04-15 18:00:00	22	candela_ex_comes	22.14	1	44.44	1	0.0	1	8.97	1	251.79	1	null	6	980.55	1	41.168724	15.52385
2540	2024-04-15 19:00:00	22	candela_ex_comes	21.61	1	42.4	1	0.0	1	11.88	1	253.49	1	null	6	980.07	1	41.168724	15.52385
2541	2024-04-15 20:00:00	22	candela_ex_comes	20.92	1	43.98	1	0.0	1	11.2	1	249.52	1	null	6	980.31	1	41.168724	15.52385
2542	2024-04-15 21:00:00	22	candela_ex_comes	20.41	1	44.38	1	0.0	1	9.67	1	240.73	1	null	6	980.37	1	41.168724	15.52385
2543	2024-04-15 22:00:00	22	candela_ex_comes	19.81	1	44.89	1	0.0	1	9.19	1	255.86	1	null	6	979.92	1	41.168724	15.52385
2544	2024-04-15 23:00:00	22	candela_ex_comes	19.96	1	41.49	1	0.0	1	5.68	1	242.76	1	null	6	979.48	1	41.168724	15.52385
2545	2024-04-16 00:00:00	22	candela_ex_comes	20.1	1	40.24	1	0.0	1	3.46	1	161.1	1	null	6	978.84	1	41.168724	15.52385
2546	2024-04-16 01:00:00	22	candela_ex_comes	19.4	1	42.4	1	0.0	1	5.27	1	248.43	1	null	6	977.88	1	41.168724	15.52385
2547	2024-04-16 02:00:00	22	candela_ex_comes	20.09	1	39.23	1	0.0	1	6.61	1	239.19	1	null	6	977.18	1	41.168724	15.52385
2548	2024-04-16 03:00:00	22	candela_ex_comes	19.25	1	42.13	1	0.0	1	9.41	1	244.44	1	null	6	976.63	1	41.168724	15.52385
2549	2024-04-16 04:00:00	22	candela_ex_comes	18.96	1	42.78	1	0.0	1	8.13	1	243.61	1	null	6	975.52	1	41.168724	15.52385
2550	2024-04-16 05:00:00	22	candela_ex_comes	19.13	1	41.61	1	0.0	1	2.72	1	226.93	1	null	6	974.74	1	41.168724	15.52385
2551	2024-04-16 06:00:00	22	candela_ex_comes	19.31	1	39.59	1	0.0	1	1.7	1	143.21	1	null	6	974.13	1	41.168724	15.52385
2552	2024-04-16 07:00:00	22	candela_ex_comes	20.23	1	36.51	1	0.0	1	1.9	1	70.06	1	null	6	973.53	1	41.168724	15.52385
2553	2024-04-16 08:00:00	22	candela_ex_comes	20.37	1	38.81	1	0.0	1	2.32	1	134.7	1	null	6	972.94	1	41.168724	15.52385
2554	2024-04-16 09:00:00	22	candela_ex_comes	21.73	1	37.24	1	0.0	1	4.96	1	245.71	1	null	6	973.16	1	41.168724	15.52385
2555	2024-04-16 10:00:00	22	candela_ex_comes	22.41	1	38.32	1	0.0	1	6.28	1	245.19	1	null	6	973.03	1	41.168724	15.52385
2556	2024-04-16 11:00:00	22	candela_ex_comes	23.67	1	37.69	1	0.0	1	7.19	1	254.23	1	null	6	972.71	1	41.168724	15.52385
2557	2024-04-16 12:00:00	22	candela_ex_comes	24.29	1	34.4	1	0.0	1	6.69	1	207.7	1	null	6	972.19	1	41.168724	15.52385
2558	2024-04-16 13:00:00	22	candela_ex_comes	23.43	1	38.25	1	0.0	1	9.11	1	219.93	1	null	6	971.59	1	41.168724	15.52385
2559	2024-04-16 14:00:00	22	candela_ex_comes	21.49	1	44.94	1	0.0	1	6.05	1	207.8	1	null	6	971.5	1	41.168724	15.52385
2560	2024-04-16 15:00:00	22	candela_ex_comes	19.61	1	52.54	1	0.0	1	7.08	1	219.92	1	null	6	970.53	1	41.168724	15.52385
2561	2024-04-16 16:00:00	22	candela_ex_comes	18.89	1	55.89	1	0.0	1	10.87	1	231.62	1	null	6	969.65	1	41.168724	15.52385
2562	2024-04-16 17:00:00	22	candela_ex_comes	18.92	1	55.54	1	0.0	1	4.42	1	176.04	1	null	6	969.59	1	41.168724	15.52385
2563	2024-04-16 18:00:00	22	candela_ex_comes	18.13	1	57.37	1	0.0	1	4.72	1	192.39	1	null	6	969.35	1	41.168724	15.52385
2564	2024-04-16 19:00:00	22	candela_ex_comes	17.15	1	62.48	1	0.0	1	5.07	1	204.75	1	null	6	968.84	1	41.168724	15.52385
2565	2024-04-16 20:00:00	22	candela_ex_comes	16.51	1	68.91	1	0.0	1	5.5	1	208.76	1	null	6	968.44	1	41.168724	15.52385
2566	2024-04-16 21:00:00	22	candela_ex_comes	16.26	1	68.4	1	0.0	1	7.41	1	225.47	1	null	6	968.3	1	41.168724	15.52385
2567	2024-04-16 22:00:00	22	candela_ex_comes	16.39	1	66.94	1	0.0	1	9.25	1	246.87	1	null	6	967.84	1	41.168724	15.52385
2568	2024-04-16 23:00:00	22	candela_ex_comes	16.16	1	69.92	1	0.0	1	10.92	1	246.06	1	null	6	967.35	1	41.168724	15.52385
2569	2024-04-17 00:00:00	22	candela_ex_comes	16.07	1	70.13	1	0.0	1	9.95	1	251.36	1	null	6	966.99	1	41.168724	15.52385
2570	2024-04-17 01:00:00	22	candela_ex_comes	15.0	1	72.5	1	0.0	1	10.64	1	254.48	1	null	6	966.93	1	41.168724	15.52385
2571	2024-04-17 02:00:00	22	candela_ex_comes	13.48	1	72.86	1	0.0	1	4.87	1	255.97	1	null	6	967.31	1	41.168724	15.52385
2572	2024-04-17 03:00:00	22	candela_ex_comes	12.99	1	71.96	1	0.0	1	7.51	1	286.85	1	null	6	967.55	1	41.168724	15.52385
2573	2024-04-17 04:00:00	22	candela_ex_comes	12.47	1	68.21	1	0.0	1	6.41	1	290.51	1	null	6	967.59	1	41.168724	15.52385
2574	2024-04-17 05:00:00	22	candela_ex_comes	12.08	1	66.03	1	0.0	1	5.34	1	297.52	1	null	6	967.51	1	41.168724	15.52385
2575	2024-04-17 06:00:00	22	candela_ex_comes	11.45	1	69.75	1	0.0	1	3.61	1	267.75	1	null	6	968.06	1	41.168724	15.52385
2576	2024-04-17 07:00:00	22	candela_ex_comes	11.12	1	70.37	1	0.0	1	3.04	1	244.75	1	null	6	968.61	1	41.168724	15.52385
2577	2024-04-17 08:00:00	22	candela_ex_comes	11.74	1	69.01	1	0.0	1	1.53	1	351.62	1	null	6	969.05	1	41.168724	15.52385
2578	2024-04-17 09:00:00	22	candela_ex_comes	12.48	1	64.87	1	0.0	1	3.22	1	334.67	1	null	6	968.88	1	41.168724	15.52385
2579	2024-04-17 10:00:00	22	candela_ex_comes	13.32	1	60.98	1	0.0	1	6.34	1	312.82	1	null	6	969.01	1	41.168724	15.52385
2580	2024-04-17 11:00:00	22	candela_ex_comes	13.93	1	54.8	1	0.0	1	6.19	1	333.43	1	null	6	969.11	1	41.168724	15.52385
2581	2024-04-17 12:00:00	22	candela_ex_comes	13.98	1	55.38	1	0.0	1	7.49	1	338.63	1	null	6	969.17	1	41.168724	15.52385
2582	2024-04-17 13:00:00	22	candela_ex_comes	14.17	1	53.61	1	0.0	1	7.47	1	340.0	1	null	6	968.91	1	41.168724	15.52385
2583	2024-04-17 14:00:00	22	candela_ex_comes	13.85	1	52.94	1	0.0	1	9.34	1	340.69	1	null	6	969.11	1	41.168724	15.52385
2584	2024-04-17 15:00:00	22	candela_ex_comes	11.5	1	62.41	1	0.2	1	9.4	1	335.34	1	null	6	969.56	1	41.168724	15.52385
2585	2024-04-17 16:00:00	22	candela_ex_comes	9.08	1	72.14	1	1.2	1	7.53	1	318.41	1	null	6	970.5	1	41.168724	15.52385
2586	2024-04-17 17:00:00	22	candela_ex_comes	7.89	1	77.77	1	0.8	1	5.53	1	296.61	1	null	6	971.59	1	41.168724	15.52385
2587	2024-04-17 18:00:00	22	candela_ex_comes	7.76	1	80.79	1	0.2	1	5.81	1	264.82	1	null	6	971.95	1	41.168724	15.52385
2588	2024-04-17 19:00:00	22	candela_ex_comes	7.59	1	80.06	1	0.2	1	5.06	1	228.68	1	null	6	972.16	1	41.168724	15.52385
2589	2024-04-17 20:00:00	22	candela_ex_comes	7.34	1	80.17	1	0.0	1	4.48	1	252.14	1	null	6	972.29	1	41.168724	15.52385
2590	2024-04-17 21:00:00	22	candela_ex_comes	6.67	1	82.23	1	0.0	1	3.73	1	253.98	1	null	6	972.61	1	41.168724	15.52385
2591	2024-04-17 22:00:00	22	candela_ex_comes	5.82	1	85.8	1	0.0	1	4.85	1	252.54	1	null	6	972.62	1	41.168724	15.52385
2592	2024-04-17 23:00:00	22	candela_ex_comes	6.28	1	85.68	1	0.0	1	3.83	1	243.92	1	null	6	972.86	1	41.168724	15.52385
2593	2024-04-18 00:00:00	22	candela_ex_comes	6.77	1	79.28	1	0.0	1	4.33	1	256.0	1	null	6	973.06	1	41.168724	15.52385
2594	2024-04-18 01:00:00	22	candela_ex_comes	5.64	1	81.98	1	0.0	1	4.02	1	249.27	1	null	6	973.11	1	41.168724	15.52385
2595	2024-04-18 02:00:00	22	candela_ex_comes	5.31	1	82.33	1	0.0	1	4.85	1	246.26	1	null	6	973.04	1	41.168724	15.52385
2596	2024-04-18 03:00:00	22	candela_ex_comes	4.65	1	83.26	1	0.0	1	4.94	1	246.34	1	null	6	973.21	1	41.168724	15.52385
2597	2024-04-18 04:00:00	22	candela_ex_comes	5.02	1	82.49	1	0.0	1	4.5	1	243.33	1	null	6	973.02	1	41.168724	15.52385
2598	2024-04-18 05:00:00	22	candela_ex_comes	4.61	1	82.99	1	0.0	1	3.69	1	243.5	1	null	6	973.13	1	41.168724	15.52385
2599	2024-04-18 06:00:00	22	candela_ex_comes	5.26	1	82.39	1	0.0	1	1.37	1	236.99	1	null	6	973.49	1	41.168724	15.52385
2600	2024-04-18 07:00:00	22	candela_ex_comes	6.1	1	81.1	1	0.0	1	1.36	1	162.23	1	null	6	973.76	1	41.168724	15.52385
2601	2024-04-18 08:00:00	22	candela_ex_comes	9.03	1	77.93	1	0.0	1	1.29	1	156.82	1	null	6	973.87	1	41.168724	15.52385
2602	2024-04-18 09:00:00	22	candela_ex_comes	11.82	1	66.87	1	0.0	1	0.98	1	70.57	1	null	6	973.81	1	41.168724	15.52385
2603	2024-04-18 10:00:00	22	candela_ex_comes	12.25	1	59.51	1	0.0	1	1.41	1	135.51	1	null	6	973.85	1	41.168724	15.52385
2604	2024-04-18 11:00:00	22	candela_ex_comes	12.78	1	57.34	1	0.0	1	2.24	1	39.73	1	null	6	974.02	1	41.168724	15.52385
2605	2024-04-18 12:00:00	22	candela_ex_comes	13.18	1	51.59	1	0.2	1	2.16	1	22.85	1	null	6	973.73	1	41.168724	15.52385
2606	2024-04-18 13:00:00	22	candela_ex_comes	13.31	1	50.95	1	0.0	1	2.58	1	353.71	1	null	6	973.35	1	41.168724	15.52385
2607	2024-04-18 14:00:00	22	candela_ex_comes	12.37	1	55.84	1	1.6	1	4.42	1	161.14	1	null	6	973.64	1	41.168724	15.52385
2608	2024-04-18 15:00:00	22	candela_ex_comes	10.74	1	70.03	1	0.8	1	3.67	1	139.22	1	null	6	973.82	1	41.168724	15.52385
2609	2024-04-18 16:00:00	22	candela_ex_comes	11.82	1	69.41	1	0.0	1	2.95	1	125.73	1	null	6	973.78	1	41.168724	15.52385
2610	2024-04-18 17:00:00	22	candela_ex_comes	9.69	1	79.1	1	0.2	1	4.32	1	2.31	1	null	6	974.82	1	41.168724	15.52385
2611	2024-04-18 18:00:00	22	candela_ex_comes	8.7	1	84.46	1	0.0	1	3.62	1	329.66	1	null	6	975.55	1	41.168724	15.52385
2612	2024-04-18 19:00:00	22	candela_ex_comes	8.24	1	87.62	1	0.4	1	2.23	1	16.42	1	null	6	975.94	1	41.168724	15.52385
2613	2024-04-18 20:00:00	22	candela_ex_comes	7.86	1	89.06	1	0.4	1	1.24	1	342.87	1	null	6	976.29	1	41.168724	15.52385
2614	2024-04-18 21:00:00	22	candela_ex_comes	7.87	1	89.02	1	0.0	1	1.93	1	222.1	1	null	6	976.77	1	41.168724	15.52385
2615	2024-04-18 22:00:00	22	candela_ex_comes	7.55	1	89.17	1	0.0	1	2.52	1	235.92	1	null	6	976.62	1	41.168724	15.52385
2616	2024-04-18 23:00:00	22	candela_ex_comes	6.75	1	90.08	1	0.0	1	1.21	1	203.08	1	null	6	976.2	1	41.168724	15.52385
2617	2024-04-19 00:00:00	22	candela_ex_comes	5.93	1	91.83	1	0.0	1	2.49	1	233.85	1	null	6	976.32	1	41.168724	15.52385
2618	2024-04-19 01:00:00	22	candela_ex_comes	5.74	1	93.06	1	0.0	1	2.83	1	243.61	1	null	6	976.08	1	41.168724	15.52385
2619	2024-04-19 02:00:00	22	candela_ex_comes	5.86	1	93.44	1	0.0	1	0.96	1	154.86	1	null	6	975.67	1	41.168724	15.52385
2620	2024-04-19 03:00:00	22	candela_ex_comes	5.81	1	92.55	1	0.0	1	2.49	1	271.32	1	null	6	975.47	1	41.168724	15.52385
2621	2024-04-19 04:00:00	22	candela_ex_comes	6.11	1	92.91	1	0.2	1	1.45	1	297.76	1	null	6	975.73	1	41.168724	15.52385
2622	2024-04-19 05:00:00	22	candela_ex_comes	6.16	1	91.78	1	1.0	1	5.3	1	260.2	1	null	6	975.46	1	41.168724	15.52385
2623	2024-04-19 06:00:00	22	candela_ex_comes	5.11	1	91.26	1	0.4	1	5.05	1	256.14	1	null	6	975.84	1	41.168724	15.52385
2624	2024-04-19 07:00:00	22	candela_ex_comes	5.02	1	90.34	1	1.2	1	1.94	1	260.53	1	null	6	976.29	1	41.168724	15.52385
2625	2024-04-19 08:00:00	22	candela_ex_comes	5.72	1	89.48	1	2.8	1	1.63	1	332.25	1	null	6	976.63	1	41.168724	15.52385
2626	2024-04-19 09:00:00	22	candela_ex_comes	6.45	1	92.12	1	1.8	1	3.25	1	335.2	1	null	6	976.8	1	41.168724	15.52385
2627	2024-04-19 10:00:00	22	candela_ex_comes	6.9	1	92.15	1	1.4	1	4.29	1	331.41	1	null	6	977.23	1	41.168724	15.52385
2628	2024-04-19 11:00:00	22	candela_ex_comes	7.06	1	93.26	1	2.2	1	3.07	1	348.55	1	null	6	977.66	1	41.168724	15.52385
2629	2024-04-19 12:00:00	22	candela_ex_comes	7.47	1	94.31	1	2.4	1	4.47	1	356.94	1	null	6	977.92	1	41.168724	15.52385
2630	2024-04-19 13:00:00	22	candela_ex_comes	8.25	1	93.05	1	0.6	1	5.14	1	4.18	1	null	6	978.05	1	41.168724	15.52385
2631	2024-04-19 14:00:00	22	candela_ex_comes	9.92	1	82.93	1	0.0	1	4.23	1	7.66	1	null	6	977.7	1	41.168724	15.52385
2632	2024-04-19 15:00:00	22	candela_ex_comes	9.9	1	76.12	1	0.0	1	6.08	1	351.53	1	null	6	977.62	1	41.168724	15.52385
2633	2024-04-19 16:00:00	22	candela_ex_comes	9.19	1	80.04	1	0.0	1	1.83	1	311.99	1	null	6	977.75	1	41.168724	15.52385
2634	2024-04-19 17:00:00	22	candela_ex_comes	10.83	1	70.2	1	0.2	1	7.13	1	338.48	1	null	6	977.86	1	41.168724	15.52385
2635	2024-04-19 18:00:00	22	candela_ex_comes	10.72	1	58.92	1	0.0	1	7.55	1	331.92	1	null	6	978.39	1	41.168724	15.52385
2636	2024-04-19 19:00:00	22	candela_ex_comes	9.08	1	60.41	1	0.0	1	4.61	1	316.62	1	null	6	979.07	1	41.168724	15.52385
2637	2024-04-19 20:00:00	22	candela_ex_comes	7.41	1	65.21	1	0.0	1	3.14	1	289.56	1	null	6	979.18	1	41.168724	15.52385
2638	2024-04-19 21:00:00	22	candela_ex_comes	5.48	1	72.37	1	0.0	1	4.11	1	251.11	1	null	6	979.56	1	41.168724	15.52385
2639	2024-04-19 22:00:00	22	candela_ex_comes	4.42	1	80.44	1	0.0	1	4.6	1	243.37	1	null	6	979.63	1	41.168724	15.52385
2640	2024-04-19 23:00:00	22	candela_ex_comes	4.05	1	81.17	1	0.0	1	5.27	1	244.23	1	null	6	979.59	1	41.168724	15.52385
2641	2024-04-20 00:00:00	22	candela_ex_comes	5.66	1	75.32	1	0.0	1	4.27	1	238.58	1	null	6	979.18	1	41.168724	15.52385
2642	2024-04-20 01:00:00	22	candela_ex_comes	4.26	1	75.69	1	0.0	1	2.55	1	141.27	1	null	6	978.47	1	41.168724	15.52385
2643	2024-04-20 02:00:00	22	candela_ex_comes	4.7	1	74.89	1	0.0	1	2.41	1	139.94	1	null	6	977.62	1	41.168724	15.52385
2644	2024-04-20 03:00:00	22	candela_ex_comes	5.41	1	68.84	1	0.0	1	1.98	1	236.21	1	null	6	977.2	1	41.168724	15.52385
2645	2024-04-20 04:00:00	22	candela_ex_comes	6.64	1	69.79	1	0.0	1	3.85	1	241.5	1	null	6	976.82	1	41.168724	15.52385
2646	2024-04-20 05:00:00	22	candela_ex_comes	7.09	1	71.87	1	0.0	1	4.41	1	251.72	1	null	6	976.37	1	41.168724	15.52385
2647	2024-04-20 06:00:00	22	candela_ex_comes	8.04	1	71.0	1	0.0	1	6.01	1	247.3	1	null	6	976.0	1	41.168724	15.52385
2648	2024-04-20 07:00:00	22	candela_ex_comes	8.5	1	74.19	1	0.0	1	4.86	1	251.96	1	null	6	975.99	1	41.168724	15.52385
2649	2024-04-20 08:00:00	22	candela_ex_comes	11.01	1	61.41	1	0.0	1	7.33	1	250.66	1	null	6	975.45	1	41.168724	15.52385
2650	2024-04-20 09:00:00	22	candela_ex_comes	12.14	1	47.72	1	0.0	1	9.41	1	255.64	1	null	6	975.58	1	41.168724	15.52385
2651	2024-04-20 10:00:00	22	candela_ex_comes	12.26	1	51.5	1	0.0	1	9.83	1	255.59	1	null	6	975.88	1	41.168724	15.52385
2652	2024-04-20 11:00:00	22	candela_ex_comes	13.54	1	46.13	1	0.0	1	9.92	1	255.85	1	null	6	975.82	1	41.168724	15.52385
2653	2024-04-20 12:00:00	22	candela_ex_comes	14.03	1	49.77	1	0.0	1	8.04	1	255.39	1	null	6	975.61	1	41.168724	15.52385
2654	2024-04-20 13:00:00	22	candela_ex_comes	14.1	1	47.98	1	0.0	1	9.03	1	264.85	1	null	6	975.25	1	41.168724	15.52385
2655	2024-04-20 14:00:00	22	candela_ex_comes	13.1	1	56.46	1	0.0	1	6.55	1	258.87	1	null	6	975.48	1	41.168724	15.52385
2656	2024-04-20 15:00:00	22	candela_ex_comes	11.68	1	68.31	1	0.0	1	4.46	1	253.13	1	null	6	975.41	1	41.168724	15.52385
2657	2024-04-20 16:00:00	22	candela_ex_comes	11.45	1	69.17	1	0.0	1	4.7	1	255.84	1	null	6	975.22	1	41.168724	15.52385
2658	2024-04-20 17:00:00	22	candela_ex_comes	11.41	1	69.49	1	0.0	1	3.51	1	251.6	1	null	6	974.93	1	41.168724	15.52385
2659	2024-04-20 18:00:00	22	candela_ex_comes	10.33	1	78.92	1	0.8	1	2.41	1	247.73	1	null	6	974.76	1	41.168724	15.52385
2660	2024-04-20 19:00:00	22	candela_ex_comes	9.97	1	86.34	1	0.0	1	0.88	1	323.18	1	null	6	974.74	1	41.168724	15.52385
2661	2024-04-20 20:00:00	22	candela_ex_comes	9.12	1	87.95	1	1.0	1	1.58	1	83.84	1	null	6	975.07	1	41.168724	15.52385
2662	2024-04-20 21:00:00	22	candela_ex_comes	8.98	1	89.04	1	0.0	1	1.99	1	98.34	1	null	6	975.19	1	41.168724	15.52385
2663	2024-04-20 22:00:00	22	candela_ex_comes	8.25	1	91.21	1	0.2	1	1.85	1	348.92	1	null	6	975.34	1	41.168724	15.52385
2664	2024-04-20 23:00:00	22	candela_ex_comes	7.97	1	93.04	1	0.8	1	3.83	1	353.54	1	null	6	975.42	1	41.168724	15.52385
2665	2024-04-21 00:00:00	22	candela_ex_comes	7.0	1	94.53	1	0.0	1	3.45	1	11.66	1	null	6	975.64	1	41.168724	15.52385
2666	2024-04-21 01:00:00	22	candela_ex_comes	6.8	1	95.15	1	0.0	1	2.62	1	13.22	1	null	6	975.31	1	41.168724	15.52385
2667	2024-04-21 02:00:00	22	candela_ex_comes	6.68	1	94.53	1	0.4	1	2.71	1	6.13	1	null	6	975.09	1	41.168724	15.52385
2668	2024-04-21 03:00:00	22	candela_ex_comes	6.57	1	89.28	1	0.0	1	3.6	1	353.38	1	null	6	974.85	1	41.168724	15.52385
2669	2024-04-21 04:00:00	22	candela_ex_comes	6.29	1	85.46	1	0.0	1	3.24	1	1.37	1	null	6	974.74	1	41.168724	15.52385
2670	2024-04-21 05:00:00	22	candela_ex_comes	6.38	1	85.32	1	0.0	1	2.22	1	298.92	1	null	6	974.84	1	41.168724	15.52385
2671	2024-04-21 06:00:00	22	candela_ex_comes	7.01	1	82.13	1	0.0	1	4.45	1	302.75	1	null	6	975.03	1	41.168724	15.52385
2672	2024-04-21 07:00:00	22	candela_ex_comes	7.21	1	81.61	1	0.0	1	3.63	1	314.15	1	null	6	975.39	1	41.168724	15.52385
2673	2024-04-21 08:00:00	22	candela_ex_comes	7.39	1	80.74	1	0.0	1	8.44	1	307.98	1	null	6	975.9	1	41.168724	15.52385
2674	2024-04-21 09:00:00	22	candela_ex_comes	7.55	1	79.95	1	0.0	1	10.82	1	311.65	1	null	6	976.57	1	41.168724	15.52385
2675	2024-04-21 10:00:00	22	candela_ex_comes	7.97	1	80.63	1	0.0	1	10.25	1	316.25	1	null	6	977.49	1	41.168724	15.52385
2676	2024-04-21 11:00:00	22	candela_ex_comes	8.59	1	79.49	1	0.0	1	8.14	1	332.07	1	null	6	978.21	1	41.168724	15.52385
2677	2024-04-21 12:00:00	22	candela_ex_comes	8.59	1	80.37	1	0.0	1	7.24	1	332.22	1	null	6	978.72	1	41.168724	15.52385
2678	2024-04-21 13:00:00	22	candela_ex_comes	8.76	1	80.15	1	0.0	1	5.45	1	322.43	1	null	6	979.14	1	41.168724	15.52385
2679	2024-04-21 14:00:00	22	candela_ex_comes	9.53	1	73.99	1	0.0	1	5.32	1	324.06	1	null	6	979.22	1	41.168724	15.52385
2680	2024-04-21 15:00:00	22	candela_ex_comes	9.32	1	74.58	1	0.0	1	3.45	1	320.56	1	null	6	979.07	1	41.168724	15.52385
2681	2024-04-21 16:00:00	22	candela_ex_comes	10.75	1	69.29	1	0.0	1	5.14	1	335.11	1	null	6	978.89	1	41.168724	15.52385
2682	2024-04-21 17:00:00	22	candela_ex_comes	11.19	1	64.95	1	0.0	1	4.45	1	342.24	1	null	6	978.86	1	41.168724	15.52385
2683	2024-04-21 18:00:00	22	candela_ex_comes	11.33	1	58.65	1	0.0	1	3.5	1	348.13	1	null	6	978.96	1	41.168724	15.52385
2684	2024-04-21 19:00:00	22	candela_ex_comes	10.52	1	64.1	1	0.0	1	1.49	1	34.1	1	null	6	979.42	1	41.168724	15.52385
2685	2024-04-21 20:00:00	22	candela_ex_comes	9.2	1	69.75	1	0.0	1	1.03	1	122.43	1	null	6	980.04	1	41.168724	15.52385
2686	2024-04-21 21:00:00	22	candela_ex_comes	7.1	1	74.34	1	0.0	1	3.66	1	248.13	1	null	6	980.58	1	41.168724	15.52385
2687	2024-04-21 22:00:00	22	candela_ex_comes	6.36	1	81.03	1	0.0	1	4.09	1	244.71	1	null	6	981.01	1	41.168724	15.52385
2688	2024-04-21 23:00:00	22	candela_ex_comes	5.19	1	83.62	1	0.0	1	3.19	1	249.45	1	null	6	981.27	1	41.168724	15.52385
2689	2024-04-22 00:00:00	22	candela_ex_comes	5.19	1	84.81	1	0.0	1	3.07	1	241.47	1	null	6	981.41	1	41.168724	15.52385
2690	2024-04-22 01:00:00	22	candela_ex_comes	5.14	1	85.58	1	0.0	1	2.17	1	248.82	1	null	6	981.28	1	41.168724	15.52385
2691	2024-04-22 02:00:00	22	candela_ex_comes	5.09	1	85.41	1	0.0	1	1.75	1	241.21	1	null	6	980.84	1	41.168724	15.52385
2692	2024-04-22 03:00:00	22	candela_ex_comes	4.58	1	85.75	1	0.0	1	1.26	1	223.85	1	null	6	980.44	1	41.168724	15.52385
2693	2024-04-22 04:00:00	22	candela_ex_comes	4.44	1	87.92	1	0.0	1	1.32	1	241.94	1	null	6	980.24	1	41.168724	15.52385
2694	2024-04-22 05:00:00	22	candela_ex_comes	3.94	1	88.52	1	0.0	1	1.5	1	240.38	1	null	6	979.91	1	41.168724	15.52385
2695	2024-04-22 06:00:00	22	candela_ex_comes	3.55	1	90.39	1	0.0	1	1.52	1	225.21	1	null	6	979.67	1	41.168724	15.52385
2696	2024-04-22 07:00:00	22	candela_ex_comes	4.48	1	90.19	1	0.0	1	2.16	1	151.76	1	null	6	979.6	1	41.168724	15.52385
2697	2024-04-22 08:00:00	22	candela_ex_comes	6.71	1	87.94	1	0.0	1	2.41	1	139.28	1	null	6	979.29	1	41.168724	15.52385
2698	2024-04-22 09:00:00	22	candela_ex_comes	9.31	1	77.56	1	0.0	1	2.88	1	124.13	1	null	6	979.06	1	41.168724	15.52385
2699	2024-04-22 10:00:00	22	candela_ex_comes	11.88	1	66.85	1	0.0	1	2.38	1	130.3	1	null	6	978.88	1	41.168724	15.52385
2700	2024-04-22 11:00:00	22	candela_ex_comes	13.76	1	56.52	1	0.0	1	2.15	1	128.21	1	null	6	978.72	1	41.168724	15.52385
2701	2024-04-22 12:00:00	22	candela_ex_comes	15.34	1	48.02	1	0.0	1	1.48	1	null	3	null	6	978.32	1	41.168724	15.52385
2702	2024-04-22 13:00:00	22	candela_ex_comes	15.84	1	46.71	1	0.0	1	1.61	1	148.24	1	null	6	978.0	1	41.168724	15.52385
2703	2024-04-22 14:00:00	22	candela_ex_comes	16.82	1	43.0	1	0.0	1	2.81	1	127.15	1	null	6	977.37	1	41.168724	15.52385
2704	2024-04-22 15:00:00	22	candela_ex_comes	17.66	1	38.8	1	0.0	1	3.93	1	256.93	1	null	6	976.82	1	41.168724	15.52385
2705	2024-04-22 16:00:00	22	candela_ex_comes	17.31	1	46.6	1	0.0	1	3.25	1	348.46	1	null	6	976.42	1	41.168724	15.52385
2706	2024-04-22 17:00:00	22	candela_ex_comes	16.39	1	57.9	1	0.0	1	4.4	1	54.73	1	null	6	976.15	1	41.168724	15.52385
2707	2024-04-22 18:00:00	22	candela_ex_comes	14.89	1	65.52	1	0.0	1	3.07	1	52.95	1	null	6	976.15	1	41.168724	15.52385
2708	2024-04-22 19:00:00	22	candela_ex_comes	12.86	1	74.99	1	0.0	1	3.04	1	339.81	1	null	6	976.19	1	41.168724	15.52385
2709	2024-04-22 20:00:00	22	candela_ex_comes	10.92	1	84.04	1	0.0	1	2.03	1	322.8	1	null	6	976.42	1	41.168724	15.52385
2710	2024-04-22 21:00:00	22	candela_ex_comes	9.83	1	87.73	1	0.0	1	2.69	1	253.86	1	null	6	976.77	1	41.168724	15.52385
2711	2024-04-22 22:00:00	22	candela_ex_comes	9.36	1	89.31	1	0.0	1	2.3	1	245.31	1	null	6	976.84	1	41.168724	15.52385
2712	2024-04-22 23:00:00	22	candela_ex_comes	8.86	1	89.15	1	0.0	1	2.89	1	256.22	1	null	6	976.39	1	41.168724	15.52385
2713	2024-04-23 00:00:00	22	candela_ex_comes	8.5	1	89.28	1	0.0	1	2.94	1	240.38	1	null	6	976.21	1	41.168724	15.52385
2714	2024-04-23 01:00:00	22	candela_ex_comes	9.55	1	84.19	1	0.0	1	3.72	1	234.18	1	null	6	975.85	1	41.168724	15.52385
2715	2024-04-23 02:00:00	22	candela_ex_comes	10.24	1	71.93	1	0.0	1	4.92	1	226.56	1	null	6	975.31	1	41.168724	15.52385
2716	2024-04-23 03:00:00	22	candela_ex_comes	9.67	1	75.14	1	0.0	1	4.77	1	231.1	1	null	6	975.06	1	41.168724	15.52385
2717	2024-04-23 04:00:00	22	candela_ex_comes	9.58	1	78.43	1	0.0	1	2.44	1	230.32	1	null	6	974.72	1	41.168724	15.52385
2718	2024-04-23 05:00:00	22	candela_ex_comes	9.37	1	80.61	1	0.0	1	2.8	1	200.96	1	null	6	974.21	1	41.168724	15.52385
2719	2024-04-23 06:00:00	22	candela_ex_comes	9.22	1	83.17	1	0.0	1	1.51	1	160.97	1	null	6	974.07	1	41.168724	15.52385
2720	2024-04-23 07:00:00	22	candela_ex_comes	9.93	1	82.56	1	0.0	1	3.82	1	223.14	1	null	6	973.85	1	41.168724	15.52385
2721	2024-04-23 08:00:00	22	candela_ex_comes	11.07	1	76.61	1	0.0	1	5.44	1	245.23	1	null	6	973.49	1	41.168724	15.52385
2722	2024-04-23 09:00:00	22	candela_ex_comes	11.75	1	70.97	1	0.0	1	5.1	1	258.99	1	null	6	973.1	1	41.168724	15.52385
2723	2024-04-23 10:00:00	22	candela_ex_comes	13.89	1	61.28	1	0.0	1	1.67	1	296.28	1	null	6	972.83	1	41.168724	15.52385
2724	2024-04-23 11:00:00	22	candela_ex_comes	15.67	1	48.59	1	0.0	1	5.91	1	266.14	1	null	6	972.49	1	41.168724	15.52385
2725	2024-04-23 12:00:00	22	candela_ex_comes	15.78	1	50.51	1	0.0	1	6.31	1	273.77	1	null	6	972.14	1	41.168724	15.52385
2726	2024-04-23 13:00:00	22	candela_ex_comes	15.56	1	53.92	1	0.0	1	7.44	1	276.74	1	null	6	971.8	1	41.168724	15.52385
2727	2024-04-23 14:00:00	22	candela_ex_comes	14.37	1	60.09	1	0.0	1	8.67	1	263.86	1	null	6	972.16	1	41.168724	15.52385
2728	2024-04-23 15:00:00	22	candela_ex_comes	15.38	1	50.23	1	0.0	1	9.36	1	259.86	1	null	6	971.75	1	41.168724	15.52385
2729	2024-04-23 16:00:00	22	candela_ex_comes	15.15	1	45.41	1	0.0	1	10.54	1	263.1	1	null	6	971.59	1	41.168724	15.52385
2730	2024-04-23 17:00:00	22	candela_ex_comes	14.08	1	47.23	1	0.0	1	10.71	1	271.41	1	null	6	972.0	1	41.168724	15.52385
2731	2024-04-23 18:00:00	22	candela_ex_comes	12.98	1	45.3	1	0.0	1	10.01	1	260.1	1	null	6	972.44	1	41.168724	15.52385
2732	2024-04-23 19:00:00	22	candela_ex_comes	11.47	1	51.43	1	0.0	1	8.73	1	260.73	1	null	6	973.14	1	41.168724	15.52385
2733	2024-04-23 20:00:00	22	candela_ex_comes	10.19	1	57.55	1	0.0	1	3.66	1	260.39	1	null	6	974.23	1	41.168724	15.52385
2734	2024-04-23 21:00:00	22	candela_ex_comes	9.55	1	61.88	1	0.0	1	1.37	1	240.81	1	null	6	975.02	1	41.168724	15.52385
2735	2024-04-23 22:00:00	22	candela_ex_comes	9.08	1	66.92	1	0.0	1	3.11	1	271.56	1	null	6	975.3	1	41.168724	15.52385
2736	2024-04-23 23:00:00	22	candela_ex_comes	8.78	1	67.16	1	0.0	1	4.16	1	267.7	1	null	6	975.54	1	41.168724	15.52385
2737	2024-04-24 00:00:00	22	candela_ex_comes	8.55	1	64.15	1	0.0	1	3.84	1	268.9	1	null	6	975.7	1	41.168724	15.52385
2738	2024-04-24 01:00:00	22	candela_ex_comes	8.03	1	65.98	1	0.0	1	2.81	1	263.02	1	null	6	975.36	1	41.168724	15.52385
2739	2024-04-24 02:00:00	22	candela_ex_comes	7.32	1	68.01	1	0.0	1	2.01	1	226.67	1	null	6	974.99	1	41.168724	15.52385
2740	2024-04-24 03:00:00	22	candela_ex_comes	6.95	1	68.65	1	0.0	1	1.25	1	167.78	1	null	6	974.7	1	41.168724	15.52385
2741	2024-04-24 04:00:00	22	candela_ex_comes	7.26	1	66.86	1	0.0	1	1.05	1	220.87	1	null	6	974.27	1	41.168724	15.52385
2742	2024-04-24 05:00:00	22	candela_ex_comes	5.15	1	71.63	1	0.0	1	2.03	1	144.82	1	null	6	973.98	1	41.168724	15.52385
2743	2024-04-24 06:00:00	22	candela_ex_comes	6.16	1	76.12	1	0.0	1	2.47	1	146.35	1	null	6	973.72	1	41.168724	15.52385
2744	2024-04-24 07:00:00	22	candela_ex_comes	6.82	1	81.0	1	0.0	1	3.94	1	134.88	1	null	6	974.21	1	41.168724	15.52385
2745	2024-04-24 08:00:00	22	candela_ex_comes	8.41	1	75.8	1	0.0	1	1.63	1	18.46	1	null	6	974.41	1	41.168724	15.52385
2746	2024-04-24 09:00:00	22	candela_ex_comes	9.27	1	71.86	1	0.0	1	5.07	1	246.46	1	null	6	974.57	1	41.168724	15.52385
2747	2024-04-24 10:00:00	22	candela_ex_comes	9.68	1	72.72	1	0.2	1	3.27	1	258.26	1	null	6	974.29	1	41.168724	15.52385
2748	2024-04-24 11:00:00	22	candela_ex_comes	10.91	1	61.27	1	0.0	1	8.2	1	263.85	1	null	6	974.32	1	41.168724	15.52385
2749	2024-04-24 12:00:00	22	candela_ex_comes	10.98	1	62.31	1	0.0	1	7.98	1	254.55	1	null	6	974.13	1	41.168724	15.52385
2750	2024-04-24 13:00:00	22	candela_ex_comes	11.95	1	57.17	1	0.0	1	9.49	1	245.83	1	null	6	973.89	1	41.168724	15.52385
2751	2024-04-24 14:00:00	22	candela_ex_comes	11.42	1	58.89	1	0.0	1	8.33	1	244.75	1	null	6	973.98	1	41.168724	15.52385
2752	2024-04-24 15:00:00	22	candela_ex_comes	12.47	1	52.5	1	0.0	1	7.63	1	262.39	1	null	6	973.45	1	41.168724	15.52385
2753	2024-04-24 16:00:00	22	candela_ex_comes	12.9	1	48.92	1	0.0	1	6.88	1	248.78	1	null	6	973.35	1	41.168724	15.52385
2754	2024-04-24 17:00:00	22	candela_ex_comes	12.43	1	48.54	1	0.0	1	5.36	1	233.73	1	null	6	973.16	1	41.168724	15.52385
2755	2024-04-24 18:00:00	22	candela_ex_comes	11.48	1	53.32	1	0.0	1	6.57	1	243.04	1	null	6	973.45	1	41.168724	15.52385
2756	2024-04-24 19:00:00	22	candela_ex_comes	10.15	1	58.92	1	0.0	1	5.05	1	232.58	1	null	6	973.83	1	41.168724	15.52385
2757	2024-04-24 20:00:00	22	candela_ex_comes	9.01	1	63.44	1	0.0	1	3.42	1	242.65	1	null	6	974.1	1	41.168724	15.52385
2758	2024-04-24 21:00:00	22	candela_ex_comes	7.9	1	69.64	1	0.0	1	3.97	1	238.74	1	null	6	974.32	1	41.168724	15.52385
2759	2024-04-24 22:00:00	22	candela_ex_comes	7.59	1	71.03	1	0.0	1	2.75	1	230.89	1	null	6	974.45	1	41.168724	15.52385
2760	2024-04-24 23:00:00	22	candela_ex_comes	7.18	1	73.26	1	0.0	1	3.94	1	255.48	1	null	6	974.12	1	41.168724	15.52385
2761	2024-04-25 00:00:00	22	candela_ex_comes	7.21	1	72.32	1	0.0	1	2.31	1	257.89	1	null	6	974.2	1	41.168724	15.52385
2762	2024-04-25 01:00:00	22	candela_ex_comes	6.93	1	73.43	1	0.0	1	1.2	1	237.3	1	null	6	974.03	1	41.168724	15.52385
2763	2024-04-25 02:00:00	22	candela_ex_comes	6.92	1	74.65	1	0.0	1	1.78	1	222.27	1	null	6	974.02	1	41.168724	15.52385
2764	2024-04-25 03:00:00	22	candela_ex_comes	6.45	1	77.02	1	0.0	1	2.38	1	234.23	1	null	6	974.03	1	41.168724	15.52385
2765	2024-04-25 04:00:00	22	candela_ex_comes	6.26	1	79.14	1	0.0	1	2.5	1	220.02	1	null	6	973.82	1	41.168724	15.52385
2766	2024-04-25 05:00:00	22	candela_ex_comes	5.88	1	82.32	1	0.0	1	2.63	1	207.82	1	null	6	973.75	1	41.168724	15.52385
2767	2024-04-25 06:00:00	22	candela_ex_comes	6.48	1	81.63	1	0.0	1	5.15	1	243.26	1	null	6	973.91	1	41.168724	15.52385
2768	2024-04-25 07:00:00	22	candela_ex_comes	7.75	1	78.65	1	0.0	1	5.18	1	252.12	1	null	6	974.22	1	41.168724	15.52385
2769	2024-04-25 08:00:00	22	candela_ex_comes	9.45	1	70.6	1	0.0	1	6.61	1	248.71	1	null	6	974.27	1	41.168724	15.52385
2770	2024-04-25 09:00:00	22	candela_ex_comes	10.98	1	60.65	1	0.0	1	6.63	1	263.54	1	null	6	974.25	1	41.168724	15.52385
2771	2024-04-25 10:00:00	22	candela_ex_comes	12.27	1	51.62	1	0.0	1	6.92	1	275.15	1	null	6	974.24	1	41.168724	15.52385
2772	2024-04-25 11:00:00	22	candela_ex_comes	13.06	1	48.81	1	0.0	1	5.62	1	276.82	1	null	6	974.33	1	41.168724	15.52385
2773	2024-04-25 12:00:00	22	candela_ex_comes	14.35	1	44.5	1	0.0	1	5.38	1	274.03	1	null	6	974.1	1	41.168724	15.52385
2774	2024-04-25 13:00:00	22	candela_ex_comes	14.15	1	48.03	1	0.0	1	6.53	1	276.81	1	null	6	974.1	1	41.168724	15.52385
2775	2024-04-25 14:00:00	22	candela_ex_comes	13.09	1	54.9	1	0.0	1	8.64	1	262.29	1	null	6	974.54	1	41.168724	15.52385
2776	2024-04-25 15:00:00	22	candela_ex_comes	12.43	1	59.85	1	0.0	1	10.67	1	252.04	1	null	6	974.47	1	41.168724	15.52385
2777	2024-04-25 16:00:00	22	candela_ex_comes	12.91	1	59.99	1	0.0	1	6.44	1	250.55	1	null	6	974.84	1	41.168724	15.52385
2778	2024-04-25 17:00:00	22	candela_ex_comes	13.4	1	55.19	1	0.0	1	6.22	1	259.85	1	null	6	974.83	1	41.168724	15.52385
2779	2024-04-25 18:00:00	22	candela_ex_comes	12.24	1	61.32	1	0.0	1	6.31	1	246.92	1	null	6	975.5	1	41.168724	15.52385
2780	2024-04-25 19:00:00	22	candela_ex_comes	10.93	1	69.27	1	0.0	1	5.82	1	249.72	1	null	6	976.02	1	41.168724	15.52385
2781	2024-04-25 20:00:00	22	candela_ex_comes	9.98	1	73.58	1	0.0	1	3.86	1	241.84	1	null	6	976.44	1	41.168724	15.52385
2782	2024-04-25 21:00:00	22	candela_ex_comes	9.69	1	74.23	1	0.0	1	3.84	1	239.27	1	null	6	977.26	1	41.168724	15.52385
2783	2024-04-25 22:00:00	22	candela_ex_comes	9.26	1	75.68	1	0.0	1	2.99	1	226.23	1	null	6	977.63	1	41.168724	15.52385
2784	2024-04-25 23:00:00	22	candela_ex_comes	9.79	1	71.63	1	0.0	1	3.48	1	243.99	1	null	6	977.82	1	41.168724	15.52385
2785	2024-04-26 00:00:00	22	candela_ex_comes	9.17	1	72.86	1	0.0	1	3.05	1	243.77	1	null	6	977.91	1	41.168724	15.52385
2786	2024-04-26 01:00:00	22	candela_ex_comes	8.24	1	75.56	1	0.0	1	1.59	1	240.18	1	null	6	977.99	1	41.168724	15.52385
2787	2024-04-26 02:00:00	22	candela_ex_comes	7.04	1	78.87	1	0.0	1	2.09	1	252.18	1	null	6	977.92	1	41.168724	15.52385
2788	2024-04-26 03:00:00	22	candela_ex_comes	7.46	1	79.73	1	0.0	1	1.89	1	163.08	1	null	6	978.0	1	41.168724	15.52385
2789	2024-04-26 04:00:00	22	candela_ex_comes	6.69	1	78.71	1	0.0	1	2.24	1	133.54	1	null	6	978.27	1	41.168724	15.52385
2790	2024-04-26 05:00:00	22	candela_ex_comes	6.98	1	82.81	1	0.0	1	2.11	1	173.83	1	null	6	978.37	1	41.168724	15.52385
2791	2024-04-26 06:00:00	22	candela_ex_comes	7.83	1	81.74	1	0.0	1	2.11	1	141.2	1	null	6	978.57	1	41.168724	15.52385
2792	2024-04-26 07:00:00	22	candela_ex_comes	8.74	1	81.93	1	0.0	1	1.29	1	209.95	1	null	6	978.72	1	41.168724	15.52385
2793	2024-04-26 08:00:00	22	candela_ex_comes	10.69	1	75.96	1	0.0	1	2.46	1	134.96	1	null	6	978.94	1	41.168724	15.52385
2794	2024-04-26 09:00:00	22	candela_ex_comes	12.1	1	67.1	1	0.0	1	2.67	1	235.64	1	null	6	979.13	1	41.168724	15.52385
2795	2024-04-26 10:00:00	22	candela_ex_comes	12.92	1	62.51	1	0.0	1	2.49	1	271.85	1	null	6	979.26	1	41.168724	15.52385
2796	2024-04-26 11:00:00	22	candela_ex_comes	13.87	1	57.17	1	0.0	1	3.46	1	269.1	1	null	6	979.37	1	41.168724	15.52385
2797	2024-04-26 12:00:00	22	candela_ex_comes	14.5	1	54.5	1	0.0	1	0.91	1	285.25	1	null	6	979.13	1	41.168724	15.52385
2798	2024-04-26 13:00:00	22	candela_ex_comes	14.47	1	56.43	1	0.0	1	2.62	1	255.75	1	null	6	979.18	1	41.168724	15.52385
2799	2024-04-26 14:00:00	22	candela_ex_comes	14.79	1	54.93	1	0.0	1	3.1	1	272.0	1	null	6	979.45	1	41.168724	15.52385
2800	2024-04-26 15:00:00	22	candela_ex_comes	14.34	1	59.0	1	0.0	1	1.96	1	333.21	1	null	6	979.59	1	41.168724	15.52385
2801	2024-04-26 16:00:00	22	candela_ex_comes	15.59	1	53.53	1	0.0	1	2.07	1	235.26	1	null	6	979.3	1	41.168724	15.52385
2802	2024-04-26 17:00:00	22	candela_ex_comes	15.84	1	53.24	1	0.0	1	2.16	1	192.64	1	null	6	979.14	1	41.168724	15.52385
2803	2024-04-26 18:00:00	22	candela_ex_comes	15.68	1	55.35	1	0.0	1	2.38	1	159.26	1	null	6	979.34	1	41.168724	15.52385
2804	2024-04-26 19:00:00	22	candela_ex_comes	14.73	1	58.64	1	0.0	1	2.38	1	258.81	1	null	6	979.59	1	41.168724	15.52385
2805	2024-04-26 20:00:00	22	candela_ex_comes	13.71	1	64.58	1	0.0	1	1.52	1	240.29	1	null	6	980.32	1	41.168724	15.52385
2806	2024-04-26 21:00:00	22	candela_ex_comes	13.27	1	65.63	1	0.0	1	2.25	1	240.95	1	null	6	980.86	1	41.168724	15.52385
2807	2024-04-26 22:00:00	22	candela_ex_comes	11.74	1	71.43	1	0.0	1	3.36	1	246.13	1	null	6	981.13	1	41.168724	15.52385
2808	2024-04-26 23:00:00	22	candela_ex_comes	10.55	1	73.25	1	0.0	1	3.6	1	241.89	1	null	6	981.21	1	41.168724	15.52385
2809	2024-04-27 00:00:00	22	candela_ex_comes	9.65	1	76.26	1	0.0	1	3.51	1	241.47	1	null	6	981.11	1	41.168724	15.52385
2810	2024-04-27 01:00:00	22	candela_ex_comes	9.27	1	76.1	1	0.0	1	2.41	1	245.05	1	null	6	981.03	1	41.168724	15.52385
2811	2024-04-27 02:00:00	22	candela_ex_comes	7.56	1	79.38	1	0.0	1	3.6	1	252.34	1	null	6	980.66	1	41.168724	15.52385
2812	2024-04-27 03:00:00	22	candela_ex_comes	8.02	1	81.87	1	0.0	1	2.2	1	163.39	1	null	6	980.77	1	41.168724	15.52385
2813	2024-04-27 04:00:00	22	candela_ex_comes	7.84	1	79.41	1	0.0	1	1.56	1	146.77	1	null	6	981.25	1	41.168724	15.52385
2814	2024-04-27 05:00:00	22	candela_ex_comes	7.61	1	80.25	1	0.0	1	2.22	1	234.0	1	null	6	981.61	1	41.168724	15.52385
2815	2024-04-27 06:00:00	22	candela_ex_comes	7.63	1	80.42	1	0.0	1	1.92	1	174.34	1	null	6	982.18	1	41.168724	15.52385
2816	2024-04-27 07:00:00	22	candela_ex_comes	8.75	1	79.23	1	0.0	1	2.51	1	153.58	1	null	6	982.73	1	41.168724	15.52385
2817	2024-04-27 08:00:00	22	candela_ex_comes	11.19	1	76.24	1	0.0	1	2.82	1	131.18	1	null	6	982.8	1	41.168724	15.52385
2818	2024-04-27 09:00:00	22	candela_ex_comes	14.28	1	60.89	1	0.0	1	3.19	1	127.21	1	null	6	982.91	1	41.168724	15.52385
2819	2024-04-27 10:00:00	22	candela_ex_comes	16.09	1	49.0	1	0.0	1	3.09	1	118.99	1	null	6	983.13	1	41.168724	15.52385
2820	2024-04-27 11:00:00	22	candela_ex_comes	17.77	1	41.34	1	0.0	1	1.76	1	141.62	1	null	6	983.04	1	41.168724	15.52385
2821	2024-04-27 12:00:00	22	candela_ex_comes	18.83	1	38.0	1	0.0	1	1.7	1	302.83	1	null	6	983.04	1	41.168724	15.52385
2822	2024-04-27 13:00:00	22	candela_ex_comes	19.74	1	36.95	1	0.0	1	1.83	1	326.96	1	null	6	982.8	1	41.168724	15.52385
2823	2024-04-27 14:00:00	22	candela_ex_comes	20.08	1	35.66	1	0.0	1	2.09	1	176.03	1	null	6	982.54	1	41.168724	15.52385
2824	2024-04-27 15:00:00	22	candela_ex_comes	20.07	1	39.63	1	0.0	1	2.26	1	338.47	1	null	6	982.22	1	41.168724	15.52385
2825	2024-04-27 16:00:00	22	candela_ex_comes	19.59	1	47.05	1	0.0	1	4.64	1	88.71	1	null	6	982.13	1	41.168724	15.52385
2826	2024-04-27 17:00:00	22	candela_ex_comes	19.32	1	50.3	1	0.0	1	4.48	1	76.28	1	null	6	982.51	1	41.168724	15.52385
2827	2024-04-27 18:00:00	22	candela_ex_comes	18.48	1	49.24	1	0.0	1	5.07	1	84.58	1	null	6	982.71	1	41.168724	15.52385
2828	2024-04-27 19:00:00	22	candela_ex_comes	17.19	1	53.14	1	0.0	1	2.18	1	61.82	1	null	6	983.24	1	41.168724	15.52385
2829	2024-04-27 20:00:00	22	candela_ex_comes	15.39	1	58.59	1	0.0	1	1.34	1	302.53	1	null	6	983.82	1	41.168724	15.52385
2830	2024-04-27 21:00:00	22	candela_ex_comes	13.65	1	65.77	1	0.0	1	1.15	1	278.17	1	null	6	984.69	1	41.168724	15.52385
2831	2024-04-27 22:00:00	22	candela_ex_comes	11.66	1	72.29	1	0.0	1	2.06	1	257.44	1	null	6	984.98	1	41.168724	15.52385
2832	2024-04-27 23:00:00	22	candela_ex_comes	10.17	1	79.98	1	0.0	1	3.53	1	256.54	1	null	6	984.97	1	41.168724	15.52385
2833	2024-04-28 00:00:00	22	candela_ex_comes	9.66	1	82.57	1	0.0	1	3.92	1	257.74	1	null	6	984.94	1	41.168724	15.52385
2834	2024-04-28 01:00:00	22	candela_ex_comes	9.88	1	81.71	1	0.0	1	3.1	1	248.82	1	null	6	985.06	1	41.168724	15.52385
2835	2024-04-28 02:00:00	22	candela_ex_comes	10.05	1	80.06	1	0.0	1	2.51	1	251.56	1	null	6	984.81	1	41.168724	15.52385
2836	2024-04-28 03:00:00	22	candela_ex_comes	9.23	1	82.07	1	0.0	1	2.21	1	256.54	1	null	6	984.98	1	41.168724	15.52385
2837	2024-04-28 04:00:00	22	candela_ex_comes	8.9	1	83.16	1	0.0	1	2.34	1	254.51	1	null	6	985.07	1	41.168724	15.52385
2838	2024-04-28 05:00:00	22	candela_ex_comes	8.99	1	82.97	1	0.0	1	1.99	1	248.47	1	null	6	985.23	1	41.168724	15.52385
2839	2024-04-28 06:00:00	22	candela_ex_comes	8.01	1	84.76	1	0.0	1	2.64	1	266.0	1	null	6	985.28	1	41.168724	15.52385
2840	2024-04-28 07:00:00	22	candela_ex_comes	9.44	1	86.01	1	0.0	1	1.3	1	262.62	1	null	6	985.63	1	41.168724	15.52385
2841	2024-04-28 08:00:00	22	candela_ex_comes	13.57	1	76.21	1	0.0	1	1.07	1	155.15	1	null	6	985.95	1	41.168724	15.52385
2842	2024-04-28 09:00:00	22	candela_ex_comes	15.71	1	62.19	1	0.0	1	2.23	1	130.93	1	null	6	986.03	1	41.168724	15.52385
2843	2024-04-28 10:00:00	22	candela_ex_comes	18.18	1	53.72	1	0.0	1	2.76	1	77.81	1	null	6	985.96	1	41.168724	15.52385
2844	2024-04-28 11:00:00	22	candela_ex_comes	19.32	1	45.1	1	0.0	1	3.97	1	100.28	1	null	6	985.69	1	41.168724	15.52385
2845	2024-04-28 12:00:00	22	candela_ex_comes	19.75	1	40.7	1	0.0	1	3.67	1	89.06	1	null	6	985.28	1	41.168724	15.52385
2846	2024-04-28 13:00:00	22	candela_ex_comes	21.34	1	40.98	1	0.0	1	3.98	1	71.61	1	null	6	984.8	1	41.168724	15.52385
2847	2024-04-28 14:00:00	22	candela_ex_comes	21.47	1	45.78	1	0.0	1	4.15	1	60.71	1	null	6	984.61	1	41.168724	15.52385
2848	2024-04-28 15:00:00	22	candela_ex_comes	21.25	1	42.35	1	0.0	1	5.59	1	47.42	1	null	6	984.13	1	41.168724	15.52385
2849	2024-04-28 16:00:00	22	candela_ex_comes	20.91	1	41.19	1	0.0	1	4.52	1	44.31	1	null	6	984.2	1	41.168724	15.52385
2850	2024-04-28 17:00:00	22	candela_ex_comes	20.37	1	42.27	1	0.0	1	4.29	1	47.12	1	null	6	984.18	1	41.168724	15.52385
2851	2024-04-28 18:00:00	22	candela_ex_comes	19.28	1	44.45	1	0.0	1	3.45	1	39.66	1	null	6	984.26	1	41.168724	15.52385
2852	2024-04-28 19:00:00	22	candela_ex_comes	17.3	1	52.62	1	0.0	1	3.08	1	349.07	1	null	6	984.55	1	41.168724	15.52385
2853	2024-04-28 20:00:00	22	candela_ex_comes	14.85	1	62.84	1	0.0	1	2.5	1	349.07	1	null	6	985.04	1	41.168724	15.52385
2854	2024-04-28 21:00:00	22	candela_ex_comes	13.36	1	70.03	1	0.0	1	2.03	1	273.35	1	null	6	985.61	1	41.168724	15.52385
2855	2024-04-28 22:00:00	22	candela_ex_comes	11.59	1	75.27	1	0.0	1	2.53	1	260.94	1	null	6	985.74	1	41.168724	15.52385
2856	2024-04-28 23:00:00	22	candela_ex_comes	9.91	1	81.2	1	0.0	1	3.57	1	249.48	1	null	6	985.77	1	41.168724	15.52385
2857	2024-04-29 00:00:00	22	candela_ex_comes	9.17	1	85.07	1	0.0	1	2.48	1	259.76	1	null	6	985.96	1	41.168724	15.52385
2858	2024-04-29 01:00:00	22	candela_ex_comes	8.72	1	86.02	1	0.0	1	2.42	1	260.05	1	null	6	985.92	1	41.168724	15.52385
2859	2024-04-29 02:00:00	22	candela_ex_comes	8.61	1	85.36	1	0.0	1	2.54	1	258.7	1	null	6	985.74	1	41.168724	15.52385
2860	2024-04-29 03:00:00	22	candela_ex_comes	8.07	1	87.23	1	0.0	1	2.14	1	263.84	1	null	6	985.81	1	41.168724	15.52385
2861	2024-04-29 04:00:00	22	candela_ex_comes	8.42	1	86.98	1	0.0	1	2.3	1	256.48	1	null	6	985.9	1	41.168724	15.52385
2862	2024-04-29 05:00:00	22	candela_ex_comes	7.96	1	87.64	1	0.0	1	1.67	1	270.41	1	null	6	985.86	1	41.168724	15.52385
2863	2024-04-29 06:00:00	22	candela_ex_comes	8.5	1	89.76	1	0.0	1	1.49	1	269.59	1	null	6	986.24	1	41.168724	15.52385
2864	2024-04-29 07:00:00	22	candela_ex_comes	10.1	1	87.23	1	0.0	1	1.29	1	281.49	1	null	6	986.67	1	41.168724	15.52385
2865	2024-04-29 08:00:00	22	candela_ex_comes	13.46	1	79.71	1	0.0	1	2.01	1	15.23	1	null	6	986.83	1	41.168724	15.52385
2866	2024-04-29 09:00:00	22	candela_ex_comes	15.62	1	67.08	1	0.0	1	2.17	1	356.73	1	null	6	986.95	1	41.168724	15.52385
2867	2024-04-29 10:00:00	22	candela_ex_comes	17.62	1	56.75	1	0.0	1	2.18	1	26.67	1	null	6	986.95	1	41.168724	15.52385
2868	2024-04-29 11:00:00	22	candela_ex_comes	19.42	1	49.69	1	0.0	1	2.67	1	4.75	1	null	6	986.9	1	41.168724	15.52385
2869	2024-04-29 12:00:00	22	candela_ex_comes	21.14	1	42.43	1	0.0	1	2.54	1	61.91	1	null	6	986.51	1	41.168724	15.52385
2870	2024-04-29 13:00:00	22	candela_ex_comes	22.14	1	39.99	1	0.0	1	3.42	1	45.9	1	null	6	985.92	1	41.168724	15.52385
2871	2024-04-29 14:00:00	22	candela_ex_comes	22.62	1	38.3	1	0.0	1	3.99	1	41.78	1	null	6	985.61	1	41.168724	15.52385
2872	2024-04-29 15:00:00	22	candela_ex_comes	22.81	1	35.14	1	0.0	1	4.23	1	53.88	1	null	6	985.42	1	41.168724	15.52385
2873	2024-04-29 16:00:00	22	candela_ex_comes	22.5	1	34.23	1	0.0	1	4.34	1	48.21	1	null	6	985.24	1	41.168724	15.52385
2874	2024-04-29 17:00:00	22	candela_ex_comes	21.89	1	34.95	1	0.0	1	3.42	1	40.8	1	null	6	985.31	1	41.168724	15.52385
2875	2024-04-29 18:00:00	22	candela_ex_comes	20.55	1	38.44	1	0.0	1	3.43	1	38.7	1	null	6	985.46	1	41.168724	15.52385
2876	2024-04-29 19:00:00	22	candela_ex_comes	18.89	1	43.04	1	0.0	1	2.22	1	21.74	1	null	6	985.58	1	41.168724	15.52385
2877	2024-04-29 20:00:00	22	candela_ex_comes	16.62	1	52.4	1	0.0	1	3.19	1	14.24	1	null	6	985.91	1	41.168724	15.52385
2878	2024-04-29 21:00:00	22	candela_ex_comes	15.18	1	67.85	1	0.0	1	2.29	1	12.32	1	null	6	986.53	1	41.168724	15.52385
2879	2024-04-29 22:00:00	22	candela_ex_comes	14.28	1	71.93	1	0.0	1	1.77	1	254.82	1	null	6	986.86	1	41.168724	15.52385
2880	2024-04-29 23:00:00	22	candela_ex_comes	12.53	1	79.08	1	0.0	1	2.23	1	259.73	1	null	6	987.12	1	41.168724	15.52385
2881	2024-04-30 00:00:00	22	candela_ex_comes	11.76	1	80.0	1	0.0	1	2.88	1	255.57	1	null	6	987.3	1	41.168724	15.52385
2882	2024-04-30 01:00:00	22	candela_ex_comes	10.45	1	80.79	1	0.0	1	2.74	1	265.29	1	null	6	986.94	1	41.168724	15.52385
2883	2024-04-30 02:00:00	22	candela_ex_comes	11.0	1	79.06	1	0.0	1	2.58	1	254.11	1	null	6	986.46	1	41.168724	15.52385
2884	2024-04-30 03:00:00	22	candela_ex_comes	9.97	1	79.15	1	0.0	1	2.32	1	263.66	1	null	6	986.3	1	41.168724	15.52385
2885	2024-04-30 04:00:00	22	candela_ex_comes	10.28	1	78.28	1	0.0	1	2.48	1	255.27	1	null	6	985.84	1	41.168724	15.52385
2886	2024-04-30 05:00:00	22	candela_ex_comes	9.94	1	79.67	1	0.0	1	2.23	1	245.53	1	null	6	985.5	1	41.168724	15.52385
2887	2024-04-30 06:00:00	22	candela_ex_comes	11.14	1	76.31	1	0.0	1	2.29	1	240.87	1	null	6	985.58	1	41.168724	15.52385
2888	2024-04-30 07:00:00	22	candela_ex_comes	11.1	1	77.46	1	0.0	1	1.15	1	257.72	1	null	6	985.56	1	41.168724	15.52385
2889	2024-04-30 08:00:00	22	candela_ex_comes	14.53	1	70.34	1	0.0	1	1.04	1	281.83	1	null	6	985.71	1	41.168724	15.52385
2890	2024-04-30 09:00:00	22	candela_ex_comes	17.43	1	51.09	1	0.0	1	2.29	1	1.72	1	null	6	985.56	1	41.168724	15.52385
2891	2024-04-30 10:00:00	22	candela_ex_comes	19.62	1	46.14	1	0.0	1	2.34	1	12.63	1	null	6	985.28	1	41.168724	15.52385
2892	2024-04-30 11:00:00	22	candela_ex_comes	21.42	1	39.37	1	0.0	1	2.59	1	103.79	1	null	6	985.04	1	41.168724	15.52385
2893	2024-04-30 12:00:00	22	candela_ex_comes	22.58	1	36.94	1	0.0	1	3.0	1	86.28	1	null	6	984.28	1	41.168724	15.52385
2894	2024-04-30 13:00:00	22	candela_ex_comes	23.28	1	36.16	1	0.0	1	3.73	1	81.48	1	null	6	983.25	1	41.168724	15.52385
2895	2024-04-30 14:00:00	22	candela_ex_comes	23.53	1	36.48	1	0.0	1	4.98	1	47.85	1	null	6	982.59	1	41.168724	15.52385
2896	2024-04-30 15:00:00	22	candela_ex_comes	23.31	1	39.18	1	0.0	1	5.45	1	56.32	1	null	6	981.91	1	41.168724	15.52385
2897	2024-04-30 16:00:00	22	candela_ex_comes	22.45	1	42.43	1	0.0	1	4.7	1	64.56	1	null	6	981.49	1	41.168724	15.52385
2898	2024-04-30 17:00:00	22	candela_ex_comes	20.86	1	49.84	1	0.0	1	4.63	1	342.24	1	null	6	981.24	1	41.168724	15.52385
2899	2024-04-30 18:00:00	22	candela_ex_comes	19.23	1	60.32	1	0.0	1	3.75	1	10.59	1	null	6	980.85	1	41.168724	15.52385
2900	2024-04-30 19:00:00	22	candela_ex_comes	17.55	1	69.1	1	0.0	1	3.36	1	7.78	1	null	6	980.64	1	41.168724	15.52385
2901	2024-04-30 20:00:00	22	candela_ex_comes	15.97	1	78.11	1	0.0	1	2.71	1	13.56	1	null	6	981.08	1	41.168724	15.52385
2902	2024-04-30 21:00:00	22	candela_ex_comes	15.26	1	82.49	1	0.0	1	2.68	1	18.82	1	null	6	981.24	1	41.168724	15.52385
2903	2024-04-30 22:00:00	22	candela_ex_comes	14.38	1	85.77	1	0.0	1	1.85	1	268.56	1	null	6	981.19	1	41.168724	15.52385
2904	2024-04-30 23:00:00	22	candela_ex_comes	14.3	1	86.46	1	0.0	1	1.6	1	255.15	1	null	6	980.86	1	41.168724	15.52385
2905	2024-05-01 00:00:00	22	candela_ex_comes	12.88	1	87.96	1	0.0	1	2.05	1	260.68	1	null	6	980.28	1	41.168724	15.52385
2906	2024-05-01 01:00:00	22	candela_ex_comes	12.34	1	88.55	1	0.0	1	1.97	1	264.3	1	null	6	979.37	1	41.168724	15.52385
2907	2024-05-01 02:00:00	22	candela_ex_comes	12.57	1	83.45	1	0.0	1	2.22	1	246.41	1	null	6	978.86	1	41.168724	15.52385
2908	2024-05-01 03:00:00	22	candela_ex_comes	11.85	1	84.31	1	0.0	1	1.73	1	259.42	1	null	6	978.61	1	41.168724	15.52385
2909	2024-05-01 04:00:00	22	candela_ex_comes	11.76	1	83.77	1	0.0	1	2.28	1	252.7	1	null	6	978.14	1	41.168724	15.52385
2910	2024-05-01 05:00:00	22	candela_ex_comes	11.93	1	83.63	1	0.0	1	1.64	1	216.16	1	null	6	977.56	1	41.168724	15.52385
2911	2024-05-01 06:00:00	22	candela_ex_comes	12.25	1	82.61	1	0.0	1	2.42	1	234.23	1	null	6	977.17	1	41.168724	15.52385
2912	2024-05-01 07:00:00	22	candela_ex_comes	12.67	1	82.78	1	0.0	1	1.92	1	156.91	1	null	6	977.08	1	41.168724	15.52385
2913	2024-05-01 08:00:00	22	candela_ex_comes	14.83	1	74.51	1	0.0	1	3.16	1	142.21	1	null	6	976.83	1	41.168724	15.52385
2914	2024-05-01 09:00:00	22	candela_ex_comes	17.1	1	66.9	1	0.0	1	3.93	1	132.13	1	null	6	976.42	1	41.168724	15.52385
2915	2024-05-01 10:00:00	22	candela_ex_comes	20.2	1	51.32	1	0.0	1	4.88	1	134.93	1	null	6	976.2	1	41.168724	15.52385
2916	2024-05-01 11:00:00	22	candela_ex_comes	21.91	1	46.58	1	0.0	1	4.26	1	137.92	1	null	6	975.86	1	41.168724	15.52385
2917	2024-05-01 12:00:00	22	candela_ex_comes	23.26	1	44.11	1	0.0	1	3.22	1	210.42	1	null	6	975.16	1	41.168724	15.52385
2918	2024-05-01 13:00:00	22	candela_ex_comes	18.1	1	69.53	1	3.0	1	5.62	1	226.73	1	null	6	975.87	1	41.168724	15.52385
2919	2024-05-01 14:00:00	22	candela_ex_comes	19.12	1	67.29	1	0.0	1	6.73	1	208.17	1	null	6	975.69	1	41.168724	15.52385
2920	2024-05-01 15:00:00	22	candela_ex_comes	19.23	1	62.71	1	0.0	1	8.66	1	211.49	1	null	6	975.96	1	41.168724	15.52385
2921	2024-05-01 16:00:00	22	candela_ex_comes	19.08	1	64.63	1	0.0	1	5.0	1	265.17	1	null	6	975.35	1	41.168724	15.52385
2922	2024-05-01 17:00:00	22	candela_ex_comes	18.94	1	64.54	1	0.0	1	6.01	1	206.25	1	null	6	975.58	1	41.168724	15.52385
2923	2024-05-01 18:00:00	22	candela_ex_comes	17.78	1	65.68	1	0.0	1	4.72	1	197.42	1	null	6	975.87	1	41.168724	15.52385
2924	2024-05-01 19:00:00	22	candela_ex_comes	16.11	1	67.62	1	0.0	1	4.37	1	198.73	1	null	6	976.36	1	41.168724	15.52385
2925	2024-05-01 20:00:00	22	candela_ex_comes	15.23	1	70.66	1	0.0	1	4.08	1	192.3	1	null	6	976.93	1	41.168724	15.52385
2926	2024-05-01 21:00:00	22	candela_ex_comes	14.75	1	70.99	1	0.0	1	3.64	1	207.69	1	null	6	977.88	1	41.168724	15.52385
2927	2024-05-01 22:00:00	22	candela_ex_comes	14.08	1	70.03	1	0.0	1	3.55	1	217.5	1	null	6	978.18	1	41.168724	15.52385
2928	2024-05-01 23:00:00	22	candela_ex_comes	13.09	1	73.57	1	0.0	1	2.66	1	187.1	1	null	6	978.37	1	41.168724	15.52385
2929	2024-05-02 00:00:00	22	candela_ex_comes	12.41	1	78.36	1	0.0	1	3.03	1	154.27	1	null	6	978.24	1	41.168724	15.52385
2930	2024-05-02 01:00:00	22	candela_ex_comes	12.89	1	78.18	1	0.0	1	2.22	1	189.79	1	null	6	978.38	1	41.168724	15.52385
2931	2024-05-02 02:00:00	22	candela_ex_comes	12.31	1	81.23	1	0.0	1	1.83	1	157.09	1	null	6	978.37	1	41.168724	15.52385
2932	2024-05-02 03:00:00	22	candela_ex_comes	11.04	1	83.14	1	0.0	1	2.14	1	239.73	1	null	6	978.42	1	41.168724	15.52385
2933	2024-05-02 04:00:00	22	candela_ex_comes	11.2	1	85.52	1	0.0	1	2.96	1	235.36	1	null	6	978.38	1	41.168724	15.52385
2934	2024-05-02 05:00:00	22	candela_ex_comes	11.42	1	85.25	1	0.0	1	4.23	1	224.41	1	null	6	978.29	1	41.168724	15.52385
2935	2024-05-02 06:00:00	22	candela_ex_comes	12.37	1	81.33	1	0.0	1	4.79	1	205.31	1	null	6	978.25	1	41.168724	15.52385
2936	2024-05-02 07:00:00	22	candela_ex_comes	12.97	1	80.59	1	0.0	1	3.08	1	240.24	1	null	6	978.31	1	41.168724	15.52385
2937	2024-05-02 08:00:00	22	candela_ex_comes	15.42	1	73.41	1	0.0	1	3.72	1	248.64	1	null	6	978.42	1	41.168724	15.52385
2938	2024-05-02 09:00:00	22	candela_ex_comes	16.87	1	63.87	1	0.0	1	6.66	1	248.9	1	null	6	978.26	1	41.168724	15.52385
2939	2024-05-02 10:00:00	22	candela_ex_comes	18.51	1	53.71	1	0.0	1	10.05	1	254.0	1	null	6	978.21	1	41.168724	15.52385
2940	2024-05-02 11:00:00	22	candela_ex_comes	19.38	1	47.96	1	0.0	1	6.62	1	252.77	1	null	6	978.08	1	41.168724	15.52385
2941	2024-05-02 12:00:00	22	candela_ex_comes	19.39	1	53.99	1	0.0	1	4.72	1	214.66	1	null	6	977.88	1	41.168724	15.52385
2942	2024-05-02 13:00:00	22	candela_ex_comes	19.11	1	55.29	1	0.0	1	7.15	1	231.18	1	null	6	977.61	1	41.168724	15.52385
2943	2024-05-02 14:00:00	22	candela_ex_comes	17.93	1	57.95	1	0.0	1	8.15	1	234.19	1	null	6	978.22	1	41.168724	15.52385
2944	2024-05-02 15:00:00	22	candela_ex_comes	12.91	1	81.65	1	3.4	1	4.67	1	241.5	1	null	6	979.42	1	41.168724	15.52385
2945	2024-05-02 16:00:00	22	candela_ex_comes	13.25	1	80.78	1	0.0	1	6.92	1	255.59	1	null	6	979.34	1	41.168724	15.52385
2946	2024-05-02 17:00:00	22	candela_ex_comes	12.61	1	69.96	1	0.0	1	8.46	1	251.2	1	null	6	978.82	1	41.168724	15.52385
2947	2024-05-02 18:00:00	22	candela_ex_comes	13.34	1	66.17	1	0.0	1	4.91	1	234.44	1	null	6	978.74	1	41.168724	15.52385
2948	2024-05-02 19:00:00	22	candela_ex_comes	12.63	1	67.41	1	0.0	1	4.7	1	234.51	1	null	6	978.82	1	41.168724	15.52385
2949	2024-05-02 20:00:00	22	candela_ex_comes	11.6	1	69.54	1	0.0	1	3.86	1	223.07	1	null	6	978.73	1	41.168724	15.52385
2950	2024-05-02 21:00:00	22	candela_ex_comes	11.11	1	74.26	1	0.0	1	2.44	1	214.98	1	null	6	979.27	1	41.168724	15.52385
2951	2024-05-02 22:00:00	22	candela_ex_comes	10.04	1	72.52	1	0.0	1	5.06	1	259.2	1	null	6	979.47	1	41.168724	15.52385
2952	2024-05-02 23:00:00	22	candela_ex_comes	9.83	1	78.9	1	0.0	1	2.51	1	209.98	1	null	6	978.95	1	41.168724	15.52385
2953	2024-05-03 00:00:00	22	candela_ex_comes	10.38	1	76.8	1	0.0	1	3.75	1	247.44	1	null	6	978.36	1	41.168724	15.52385
2954	2024-05-03 01:00:00	22	candela_ex_comes	10.94	1	74.02	1	0.0	1	7.86	1	243.85	1	null	6	977.86	1	41.168724	15.52385
2955	2024-05-03 02:00:00	22	candela_ex_comes	11.1	1	72.98	1	0.0	1	3.7	1	233.28	1	null	6	978.41	1	41.168724	15.52385
2956	2024-05-03 03:00:00	22	candela_ex_comes	11.17	1	73.55	1	0.0	1	5.19	1	236.96	1	null	6	978.0	1	41.168724	15.52385
2957	2024-05-03 04:00:00	22	candela_ex_comes	11.06	1	73.09	1	0.0	1	11.11	1	251.63	1	null	6	977.18	1	41.168724	15.52385
2958	2024-05-03 05:00:00	22	candela_ex_comes	10.82	1	73.56	1	0.0	1	13.31	1	256.32	1	null	6	976.72	1	41.168724	15.52385
2959	2024-05-03 06:00:00	22	candela_ex_comes	10.74	1	72.55	1	0.0	1	13.47	1	256.85	1	null	6	977.01	1	41.168724	15.52385
2960	2024-05-03 07:00:00	22	candela_ex_comes	11.43	1	69.77	1	0.0	1	13.93	1	255.44	1	null	6	977.42	1	41.168724	15.52385
2961	2024-05-03 08:00:00	22	candela_ex_comes	12.51	1	67.3	1	0.0	1	13.92	1	258.03	1	null	6	977.76	1	41.168724	15.52385
2962	2024-05-03 09:00:00	22	candela_ex_comes	13.63	1	61.01	1	0.0	1	13.67	1	258.43	1	null	6	978.2	1	41.168724	15.52385
2963	2024-05-03 10:00:00	22	candela_ex_comes	14.31	1	59.26	1	0.0	1	13.13	1	257.45	1	null	6	978.5	1	41.168724	15.52385
2964	2024-05-03 11:00:00	22	candela_ex_comes	14.81	1	57.55	1	0.0	1	10.48	1	265.86	1	null	6	979.3	1	41.168724	15.52385
2965	2024-05-03 12:00:00	22	candela_ex_comes	14.72	1	58.17	1	0.0	1	10.1	1	267.8	1	null	6	979.38	1	41.168724	15.52385
2966	2024-05-03 13:00:00	22	candela_ex_comes	14.76	1	58.26	1	0.0	1	9.76	1	264.66	1	null	6	979.01	1	41.168724	15.52385
2967	2024-05-03 14:00:00	22	candela_ex_comes	14.14	1	61.69	1	0.0	1	10.17	1	258.59	1	null	6	978.97	1	41.168724	15.52385
2968	2024-05-03 15:00:00	22	candela_ex_comes	13.34	1	68.6	1	0.0	1	8.78	1	255.39	1	null	6	979.23	1	41.168724	15.52385
2969	2024-05-03 16:00:00	22	candela_ex_comes	12.38	1	76.09	1	0.0	1	7.47	1	255.94	1	null	6	979.09	1	41.168724	15.52385
2970	2024-05-03 17:00:00	22	candela_ex_comes	12.84	1	71.69	1	0.0	1	10.28	1	250.87	1	null	6	978.41	1	41.168724	15.52385
2971	2024-05-03 18:00:00	22	candela_ex_comes	13.49	1	69.76	1	0.0	1	11.26	1	259.89	1	null	6	978.28	1	41.168724	15.52385
2972	2024-05-03 19:00:00	22	candela_ex_comes	12.91	1	74.05	1	0.0	1	7.81	1	267.99	1	null	6	978.77	1	41.168724	15.52385
2973	2024-05-03 20:00:00	22	candela_ex_comes	12.73	1	75.02	1	0.0	1	7.11	1	259.34	1	null	6	979.12	1	41.168724	15.52385
2974	2024-05-03 21:00:00	22	candela_ex_comes	12.39	1	76.01	1	0.0	1	6.66	1	249.31	1	null	6	979.72	1	41.168724	15.52385
2975	2024-05-03 22:00:00	22	candela_ex_comes	12.07	1	76.81	1	0.0	1	5.54	1	241.42	1	null	6	980.06	1	41.168724	15.52385
2976	2024-05-03 23:00:00	22	candela_ex_comes	11.96	1	75.04	1	0.0	1	5.46	1	248.48	1	null	6	980.1	1	41.168724	15.52385
2977	2024-05-04 00:00:00	22	candela_ex_comes	11.43	1	78.03	1	0.0	1	5.48	1	243.79	1	null	6	979.97	1	41.168724	15.52385
2978	2024-05-04 01:00:00	22	candela_ex_comes	10.93	1	79.36	1	0.0	1	6.35	1	249.39	1	null	6	979.65	1	41.168724	15.52385
2979	2024-05-04 02:00:00	22	candela_ex_comes	10.65	1	80.4	1	0.0	1	6.21	1	253.04	1	null	6	979.47	1	41.168724	15.52385
2980	2024-05-04 03:00:00	22	candela_ex_comes	10.81	1	79.16	1	0.0	1	7.36	1	253.93	1	null	6	979.36	1	41.168724	15.52385
2981	2024-05-04 04:00:00	22	candela_ex_comes	10.43	1	80.79	1	0.0	1	6.71	1	246.89	1	null	6	979.46	1	41.168724	15.52385
2982	2024-05-04 05:00:00	22	candela_ex_comes	9.97	1	82.44	1	0.0	1	6.18	1	249.78	1	null	6	979.7	1	41.168724	15.52385
2983	2024-05-04 06:00:00	22	candela_ex_comes	10.21	1	82.65	1	0.0	1	5.86	1	249.75	1	null	6	980.17	1	41.168724	15.52385
2984	2024-05-04 07:00:00	22	candela_ex_comes	11.49	1	77.71	1	0.0	1	5.98	1	252.51	1	null	6	980.56	1	41.168724	15.52385
2985	2024-05-04 08:00:00	22	candela_ex_comes	13.6	1	67.56	1	0.0	1	5.59	1	251.45	1	null	6	980.71	1	41.168724	15.52385
2986	2024-05-04 09:00:00	22	candela_ex_comes	15.28	1	53.88	1	0.0	1	3.31	1	301.55	1	null	6	980.87	1	41.168724	15.52385
2987	2024-05-04 10:00:00	22	candela_ex_comes	15.86	1	52.74	1	0.0	1	4.93	1	336.04	1	null	6	981.29	1	41.168724	15.52385
2988	2024-05-04 11:00:00	22	candela_ex_comes	16.76	1	50.68	1	0.0	1	5.4	1	336.44	1	null	6	981.33	1	41.168724	15.52385
2989	2024-05-04 12:00:00	22	candela_ex_comes	17.25	1	49.04	1	0.0	1	5.55	1	338.21	1	null	6	981.29	1	41.168724	15.52385
2990	2024-05-04 13:00:00	22	candela_ex_comes	17.86	1	46.88	1	0.0	1	6.07	1	342.51	1	null	6	981.25	1	41.168724	15.52385
2991	2024-05-04 14:00:00	22	candela_ex_comes	18.12	1	48.33	1	0.0	1	6.25	1	334.76	1	null	6	981.21	1	41.168724	15.52385
2992	2024-05-04 15:00:00	22	candela_ex_comes	18.17	1	51.69	1	0.0	1	5.62	1	349.23	1	null	6	981.13	1	41.168724	15.52385
2993	2024-05-04 16:00:00	22	candela_ex_comes	17.75	1	56.86	1	0.0	1	6.15	1	358.63	1	null	6	981.47	1	41.168724	15.52385
2994	2024-05-04 17:00:00	22	candela_ex_comes	17.37	1	58.06	1	0.0	1	6.13	1	341.29	1	null	6	981.78	1	41.168724	15.52385
2995	2024-05-04 18:00:00	22	candela_ex_comes	16.82	1	58.87	1	0.0	1	5.42	1	345.41	1	null	6	982.03	1	41.168724	15.52385
2996	2024-05-04 19:00:00	22	candela_ex_comes	15.31	1	64.65	1	0.0	1	3.96	1	340.64	1	null	6	982.39	1	41.168724	15.52385
2997	2024-05-04 20:00:00	22	candela_ex_comes	14.07	1	71.9	1	0.0	1	2.88	1	324.36	1	null	6	982.79	1	41.168724	15.52385
2998	2024-05-04 21:00:00	22	candela_ex_comes	13.73	1	74.06	1	0.0	1	2.25	1	252.48	1	null	6	983.43	1	41.168724	15.52385
2999	2024-05-04 22:00:00	22	candela_ex_comes	12.31	1	81.06	1	0.0	1	3.99	1	245.37	1	null	6	983.84	1	41.168724	15.52385
3000	2024-05-04 23:00:00	22	candela_ex_comes	11.82	1	84.12	1	0.0	1	4.54	1	255.5	1	null	6	983.88	1	41.168724	15.52385
3001	2024-05-05 00:00:00	22	candela_ex_comes	11.99	1	83.16	1	0.0	1	2.43	1	252.13	1	null	6	984.05	1	41.168724	15.52385
3002	2024-05-05 01:00:00	22	candela_ex_comes	11.43	1	83.99	1	0.0	1	3.89	1	246.14	1	null	6	983.72	1	41.168724	15.52385
3003	2024-05-05 02:00:00	22	candela_ex_comes	11.24	1	84.85	1	0.0	1	3.48	1	242.62	1	null	6	983.52	1	41.168724	15.52385
3004	2024-05-05 03:00:00	22	candela_ex_comes	11.14	1	85.07	1	0.0	1	3.0	1	237.18	1	null	6	983.5	1	41.168724	15.52385
3005	2024-05-05 04:00:00	22	candela_ex_comes	10.67	1	85.74	1	0.0	1	3.43	1	244.1	1	null	6	983.33	1	41.168724	15.52385
3006	2024-05-05 05:00:00	22	candela_ex_comes	10.23	1	87.74	1	0.0	1	3.64	1	236.33	1	null	6	983.4	1	41.168724	15.52385
3007	2024-05-05 06:00:00	22	candela_ex_comes	11.21	1	85.69	1	0.0	1	1.32	1	184.29	1	null	6	983.5	1	41.168724	15.52385
3008	2024-05-05 07:00:00	22	candela_ex_comes	11.84	1	84.02	1	0.0	1	1.91	1	150.07	1	null	6	983.74	1	41.168724	15.52385
3009	2024-05-05 08:00:00	22	candela_ex_comes	15.06	1	74.58	1	0.0	1	2.18	1	132.89	1	null	6	983.79	1	41.168724	15.52385
3010	2024-05-05 09:00:00	22	candela_ex_comes	17.9	1	57.28	1	0.0	1	1.98	1	260.13	1	null	6	983.8	1	41.168724	15.52385
3011	2024-05-05 10:00:00	22	candela_ex_comes	18.94	1	51.9	1	0.0	1	4.7	1	251.97	1	null	6	983.83	1	41.168724	15.52385
3012	2024-05-05 11:00:00	22	candela_ex_comes	19.57	1	49.62	1	0.0	1	4.29	1	240.32	1	null	6	983.57	1	41.168724	15.52385
3013	2024-05-05 12:00:00	22	candela_ex_comes	20.48	1	42.8	1	0.0	1	4.17	1	255.82	1	null	6	983.07	1	41.168724	15.52385
3014	2024-05-05 13:00:00	22	candela_ex_comes	20.87	1	44.91	1	0.0	1	4.59	1	265.37	1	null	6	982.76	1	41.168724	15.52385
3015	2024-05-05 14:00:00	22	candela_ex_comes	21.21	1	47.1	1	0.0	1	5.71	1	262.73	1	null	6	982.39	1	41.168724	15.52385
3016	2024-05-05 15:00:00	22	candela_ex_comes	20.68	1	47.43	1	0.0	1	7.42	1	271.94	1	null	6	982.06	1	41.168724	15.52385
3017	2024-05-05 16:00:00	22	candela_ex_comes	21.61	1	47.19	1	0.0	1	7.36	1	267.35	1	null	6	981.79	1	41.168724	15.52385
3018	2024-05-05 17:00:00	22	candela_ex_comes	20.82	1	47.53	1	0.0	1	6.77	1	260.18	1	null	6	981.49	1	41.168724	15.52385
3019	2024-05-05 18:00:00	22	candela_ex_comes	20.3	1	48.58	1	0.0	1	5.15	1	270.33	1	null	6	981.58	1	41.168724	15.52385
3020	2024-05-05 19:00:00	22	candela_ex_comes	18.4	1	56.03	1	0.0	1	5.02	1	265.88	1	null	6	981.88	1	41.168724	15.52385
3021	2024-05-05 20:00:00	22	candela_ex_comes	16.92	1	65.76	1	0.0	1	4.18	1	237.59	1	null	6	982.17	1	41.168724	15.52385
3022	2024-05-05 21:00:00	22	candela_ex_comes	15.65	1	72.64	1	0.0	1	5.64	1	243.21	1	null	6	982.71	1	41.168724	15.52385
3023	2024-05-05 22:00:00	22	candela_ex_comes	14.57	1	78.58	1	0.0	1	5.23	1	245.54	1	null	6	982.83	1	41.168724	15.52385
3024	2024-05-05 23:00:00	22	candela_ex_comes	14.33	1	80.03	1	0.0	1	4.51	1	248.56	1	null	6	982.78	1	41.168724	15.52385
3025	2024-05-06 00:00:00	22	candela_ex_comes	14.02	1	80.18	1	0.0	1	3.67	1	239.07	1	null	6	982.78	1	41.168724	15.52385
3026	2024-05-06 01:00:00	22	candela_ex_comes	13.88	1	79.7	1	0.0	1	4.03	1	231.07	1	null	6	982.47	1	41.168724	15.52385
3027	2024-05-06 02:00:00	22	candela_ex_comes	13.31	1	81.09	1	0.0	1	1.76	1	189.55	1	null	6	982.24	1	41.168724	15.52385
3028	2024-05-06 03:00:00	22	candela_ex_comes	13.11	1	82.26	1	0.0	1	4.16	1	235.59	1	null	6	982.05	1	41.168724	15.52385
3029	2024-05-06 04:00:00	22	candela_ex_comes	12.87	1	81.32	1	0.0	1	5.75	1	238.86	1	null	6	981.76	1	41.168724	15.52385
3030	2024-05-06 05:00:00	22	candela_ex_comes	13.16	1	79.17	1	0.0	1	7.16	1	246.27	1	null	6	981.62	1	41.168724	15.52385
3031	2024-05-06 06:00:00	22	candela_ex_comes	13.46	1	75.89	1	0.0	1	4.78	1	244.62	1	null	6	981.9	1	41.168724	15.52385
3032	2024-05-06 07:00:00	22	candela_ex_comes	14.61	1	70.57	1	0.0	1	5.04	1	240.71	1	null	6	982.09	1	41.168724	15.52385
3033	2024-05-06 08:00:00	22	candela_ex_comes	15.72	1	69.46	1	0.0	1	5.65	1	245.69	1	null	6	982.27	1	41.168724	15.52385
3034	2024-05-06 09:00:00	22	candela_ex_comes	17.73	1	63.38	1	0.0	1	4.7	1	244.1	1	null	6	982.17	1	41.168724	15.52385
3035	2024-05-06 10:00:00	22	candela_ex_comes	19.85	1	53.47	1	0.0	1	2.18	1	240.15	1	null	6	981.99	1	41.168724	15.52385
3036	2024-05-06 11:00:00	22	candela_ex_comes	21.05	1	48.37	1	0.0	1	2.59	1	180.95	1	null	6	981.66	1	41.168724	15.52385
3037	2024-05-06 12:00:00	22	candela_ex_comes	21.71	1	45.21	1	0.0	1	5.03	1	242.14	1	null	6	981.42	1	41.168724	15.52385
3038	2024-05-06 13:00:00	22	candela_ex_comes	22.38	1	42.44	1	0.0	1	5.43	1	241.88	1	null	6	981.17	1	41.168724	15.52385
3039	2024-05-06 14:00:00	22	candela_ex_comes	22.76	1	44.35	1	0.0	1	6.14	1	263.33	1	null	6	980.86	1	41.168724	15.52385
3040	2024-05-06 15:00:00	22	candela_ex_comes	22.91	1	46.84	1	0.0	1	5.98	1	251.86	1	null	6	980.6	1	41.168724	15.52385
3041	2024-05-06 16:00:00	22	candela_ex_comes	23.34	1	42.7	1	0.0	1	6.06	1	260.26	1	null	6	980.35	1	41.168724	15.52385
3042	2024-05-06 17:00:00	22	candela_ex_comes	23.13	1	42.5	1	0.0	1	5.65	1	262.04	1	null	6	980.26	1	41.168724	15.52385
3043	2024-05-06 18:00:00	22	candela_ex_comes	22.31	1	48.39	1	0.0	1	5.39	1	267.42	1	null	6	980.15	1	41.168724	15.52385
3044	2024-05-06 19:00:00	22	candela_ex_comes	20.59	1	56.79	1	0.0	1	4.04	1	257.48	1	null	6	980.48	1	41.168724	15.52385
3045	2024-05-06 20:00:00	22	candela_ex_comes	18.98	1	61.14	1	0.0	1	4.25	1	240.28	1	null	6	980.62	1	41.168724	15.52385
3046	2024-05-06 21:00:00	22	candela_ex_comes	16.85	1	70.29	1	0.0	1	4.69	1	252.76	1	null	6	981.2	1	41.168724	15.52385
3047	2024-05-06 22:00:00	22	candela_ex_comes	17.52	1	67.04	1	0.0	1	4.11	1	221.68	1	null	6	981.52	1	41.168724	15.52385
3048	2024-05-06 23:00:00	22	candela_ex_comes	17.34	1	66.91	1	0.0	1	3.54	1	207.44	1	null	6	981.37	1	41.168724	15.52385
3049	2024-05-07 00:00:00	22	candela_ex_comes	17.06	1	65.98	1	0.0	1	3.08	1	200.54	1	null	6	981.29	1	41.168724	15.52385
3050	2024-05-07 01:00:00	22	candela_ex_comes	16.17	1	69.0	1	0.0	1	2.27	1	182.45	1	null	6	981.08	1	41.168724	15.52385
3051	2024-05-07 02:00:00	22	candela_ex_comes	15.75	1	65.53	1	0.0	1	3.01	1	168.14	1	null	6	980.69	1	41.168724	15.52385
3052	2024-05-07 03:00:00	22	candela_ex_comes	15.81	1	60.91	1	0.0	1	4.1	1	211.78	1	null	6	980.42	1	41.168724	15.52385
3053	2024-05-07 04:00:00	22	candela_ex_comes	15.6	1	59.2	1	0.0	1	4.99	1	232.32	1	null	6	979.91	1	41.168724	15.52385
3054	2024-05-07 05:00:00	22	candela_ex_comes	16.33	1	57.7	1	0.0	1	5.96	1	232.39	1	null	6	979.71	1	41.168724	15.52385
3055	2024-05-07 06:00:00	22	candela_ex_comes	16.21	1	57.69	1	0.0	1	6.86	1	240.56	1	null	6	979.8	1	41.168724	15.52385
3056	2024-05-07 07:00:00	22	candela_ex_comes	15.66	1	62.29	1	0.0	1	6.62	1	254.93	1	null	6	980.23	1	41.168724	15.52385
3057	2024-05-07 08:00:00	22	candela_ex_comes	15.86	1	63.39	1	0.0	1	4.28	1	266.75	1	null	6	980.64	1	41.168724	15.52385
3058	2024-05-07 09:00:00	22	candela_ex_comes	17.43	1	55.43	1	0.0	1	4.3	1	249.49	1	null	6	980.73	1	41.168724	15.52385
3059	2024-05-07 10:00:00	22	candela_ex_comes	19.38	1	52.6	1	0.0	1	3.07	1	231.69	1	null	6	980.4	1	41.168724	15.52385
3060	2024-05-07 11:00:00	22	candela_ex_comes	21.33	1	46.21	1	0.0	1	3.7	1	280.26	1	null	6	980.02	1	41.168724	15.52385
3061	2024-05-07 12:00:00	22	candela_ex_comes	22.15	1	44.03	1	0.0	1	5.03	1	270.55	1	null	6	979.9	1	41.168724	15.52385
3062	2024-05-07 13:00:00	22	candela_ex_comes	22.53	1	43.09	1	0.0	1	5.94	1	260.65	1	null	6	979.85	1	41.168724	15.52385
3063	2024-05-07 14:00:00	22	candela_ex_comes	23.45	1	38.52	1	0.0	1	7.19	1	248.15	1	null	6	979.41	1	41.168724	15.52385
3064	2024-05-07 15:00:00	22	candela_ex_comes	22.39	1	37.44	1	0.0	1	11.09	1	254.68	1	null	6	979.19	1	41.168724	15.52385
3065	2024-05-07 16:00:00	22	candela_ex_comes	22.48	1	35.67	1	0.0	1	8.89	1	243.99	1	null	6	979.2	1	41.168724	15.52385
3066	2024-05-07 17:00:00	22	candela_ex_comes	22.22	1	35.54	1	0.0	1	4.82	1	211.61	1	null	6	979.35	1	41.168724	15.52385
3067	2024-05-07 18:00:00	22	candela_ex_comes	21.93	1	38.35	1	0.0	1	5.61	1	231.88	1	null	6	979.42	1	41.168724	15.52385
3068	2024-05-07 19:00:00	22	candela_ex_comes	20.37	1	40.02	1	0.0	1	5.75	1	243.7	1	null	6	979.48	1	41.168724	15.52385
3069	2024-05-07 20:00:00	22	candela_ex_comes	18.91	1	42.63	1	0.0	1	4.61	1	250.58	1	null	6	980.04	1	41.168724	15.52385
3070	2024-05-07 21:00:00	22	candela_ex_comes	17.74	1	46.37	1	0.0	1	3.44	1	251.52	1	null	6	980.89	1	41.168724	15.52385
3071	2024-05-07 22:00:00	22	candela_ex_comes	16.54	1	51.44	1	0.0	1	2.83	1	270.68	1	null	6	981.06	1	41.168724	15.52385
3072	2024-05-07 23:00:00	22	candela_ex_comes	15.44	1	56.2	1	0.0	1	2.87	1	255.87	1	null	6	981.19	1	41.168724	15.52385
3073	2024-05-08 00:00:00	22	candela_ex_comes	15.42	1	56.71	1	0.0	1	4.36	1	225.31	1	null	6	981.53	1	41.168724	15.52385
3074	2024-05-08 01:00:00	22	candela_ex_comes	14.71	1	59.39	1	0.0	1	2.71	1	241.14	1	null	6	981.25	1	41.168724	15.52385
3075	2024-05-08 02:00:00	22	candela_ex_comes	13.35	1	66.44	1	0.0	1	2.53	1	260.32	1	null	6	980.97	1	41.168724	15.52385
3076	2024-05-08 03:00:00	22	candela_ex_comes	13.06	1	67.5	1	0.0	1	3.7	1	245.47	1	null	6	980.66	1	41.168724	15.52385
3077	2024-05-08 04:00:00	22	candela_ex_comes	13.42	1	64.96	1	0.0	1	1.23	1	175.29	1	null	6	980.6	1	41.168724	15.52385
3078	2024-05-08 05:00:00	22	candela_ex_comes	13.54	1	63.76	1	0.0	1	3.58	1	247.19	1	null	6	980.68	1	41.168724	15.52385
3079	2024-05-08 06:00:00	22	candela_ex_comes	13.08	1	65.24	1	0.0	1	1.61	1	286.93	1	null	6	981.11	1	41.168724	15.52385
3080	2024-05-08 07:00:00	22	candela_ex_comes	13.36	1	69.13	1	0.0	1	1.31	1	267.53	1	null	6	981.36	1	41.168724	15.52385
3081	2024-05-08 08:00:00	22	candela_ex_comes	14.97	1	74.3	1	0.0	1	3.71	1	3.36	1	null	6	981.73	1	41.168724	15.52385
3082	2024-05-08 09:00:00	22	candela_ex_comes	15.71	1	77.1	1	0.0	1	3.48	1	327.21	1	null	6	981.93	1	41.168724	15.52385
3083	2024-05-08 10:00:00	22	candela_ex_comes	17.22	1	70.27	1	0.0	1	3.36	1	334.74	1	null	6	981.74	1	41.168724	15.52385
3084	2024-05-08 11:00:00	22	candela_ex_comes	18.76	1	62.52	1	0.0	1	3.45	1	356.52	1	null	6	981.58	1	41.168724	15.52385
3085	2024-05-08 12:00:00	22	candela_ex_comes	20.17	1	54.84	1	0.0	1	3.23	1	20.34	1	null	6	981.03	1	41.168724	15.52385
3086	2024-05-08 13:00:00	22	candela_ex_comes	21.21	1	52.02	1	0.0	1	4.84	1	2.9	1	null	6	980.11	1	41.168724	15.52385
3087	2024-05-08 14:00:00	22	candela_ex_comes	20.85	1	54.48	1	0.0	1	5.53	1	3.27	1	null	6	979.54	1	41.168724	15.52385
3088	2024-05-08 15:00:00	22	candela_ex_comes	19.44	1	62.14	1	3.4	1	5.92	1	4.26	1	null	6	979.14	1	41.168724	15.52385
3089	2024-05-08 16:00:00	22	candela_ex_comes	17.19	1	79.6	1	1.6	1	4.73	1	34.32	1	null	6	979.79	1	41.168724	15.52385
3090	2024-05-08 17:00:00	22	candela_ex_comes	15.97	1	86.97	1	0.6	1	4.13	1	323.58	1	null	6	980.51	1	41.168724	15.52385
3091	2024-05-08 18:00:00	22	candela_ex_comes	15.42	1	90.23	1	1.8	1	2.74	1	340.72	1	null	6	980.62	1	41.168724	15.52385
3092	2024-05-08 19:00:00	22	candela_ex_comes	14.94	1	93.44	1	0.2	1	2.05	1	345.86	1	null	6	980.9	1	41.168724	15.52385
3093	2024-05-08 20:00:00	22	candela_ex_comes	14.76	1	94.37	1	0.2	1	2.68	1	326.85	1	null	6	981.2	1	41.168724	15.52385
3094	2024-05-08 21:00:00	22	candela_ex_comes	14.67	1	94.81	1	0.0	1	3.86	1	339.0	1	null	6	981.59	1	41.168724	15.52385
3095	2024-05-08 22:00:00	22	candela_ex_comes	14.48	1	95.07	1	0.0	1	5.28	1	330.91	1	null	6	981.74	1	41.168724	15.52385
3096	2024-05-08 23:00:00	22	candela_ex_comes	13.78	1	94.55	1	0.0	1	5.38	1	340.38	1	null	6	981.6	1	41.168724	15.52385
3097	2024-05-09 00:00:00	22	candela_ex_comes	13.4	1	91.93	1	0.2	1	3.81	1	3.83	1	null	6	981.71	1	41.168724	15.52385
3098	2024-05-09 01:00:00	22	candela_ex_comes	13.29	1	91.53	1	0.0	1	3.28	1	357.27	1	null	6	981.35	1	41.168724	15.52385
3099	2024-05-09 02:00:00	22	candela_ex_comes	13.38	1	91.83	1	0.0	1	3.39	1	349.53	1	null	6	981.09	1	41.168724	15.52385
3100	2024-05-09 03:00:00	22	candela_ex_comes	13.14	1	90.92	1	0.0	1	3.35	1	347.6	1	null	6	980.88	1	41.168724	15.52385
3101	2024-05-09 04:00:00	22	candela_ex_comes	13.03	1	87.88	1	0.0	1	3.46	1	346.03	1	null	6	980.48	1	41.168724	15.52385
3102	2024-05-09 05:00:00	22	candela_ex_comes	13.07	1	87.8	1	0.0	1	2.95	1	341.56	1	null	6	980.51	1	41.168724	15.52385
3103	2024-05-09 06:00:00	22	candela_ex_comes	13.32	1	84.4	1	0.0	1	3.72	1	349.93	1	null	6	980.74	1	41.168724	15.52385
3104	2024-05-09 07:00:00	22	candela_ex_comes	13.71	1	82.47	1	0.0	1	4.33	1	350.19	1	null	6	980.76	1	41.168724	15.52385
3105	2024-05-09 08:00:00	22	candela_ex_comes	14.57	1	81.72	1	0.0	1	4.49	1	344.92	1	null	6	981.13	1	41.168724	15.52385
3106	2024-05-09 09:00:00	22	candela_ex_comes	15.74	1	80.33	1	0.0	1	5.86	1	337.83	1	null	6	981.24	1	41.168724	15.52385
3107	2024-05-09 10:00:00	22	candela_ex_comes	16.52	1	78.86	1	0.0	1	5.68	1	334.69	1	null	6	981.31	1	41.168724	15.52385
3108	2024-05-09 11:00:00	22	candela_ex_comes	17.35	1	76.33	1	0.0	1	6.76	1	336.62	1	null	6	981.1	1	41.168724	15.52385
3109	2024-05-09 12:00:00	22	candela_ex_comes	18.29	1	72.07	1	0.0	1	7.06	1	333.77	1	null	6	980.85	1	41.168724	15.52385
3110	2024-05-09 13:00:00	22	candela_ex_comes	18.94	1	68.85	1	0.0	1	7.2	1	334.59	1	null	6	980.68	1	41.168724	15.52385
3111	2024-05-09 14:00:00	22	candela_ex_comes	19.84	1	63.97	1	0.0	1	7.7	1	330.3	1	null	6	980.04	1	41.168724	15.52385
3112	2024-05-09 15:00:00	22	candela_ex_comes	18.24	1	70.57	1	1.6	1	8.5	1	342.76	1	null	6	979.54	1	41.168724	15.52385
3113	2024-05-09 16:00:00	22	candela_ex_comes	17.07	1	79.72	1	0.0	1	7.18	1	345.78	1	null	6	980.11	1	41.168724	15.52385
3114	2024-05-09 17:00:00	22	candela_ex_comes	16.58	1	80.06	1	0.0	1	5.86	1	340.98	1	null	6	980.47	1	41.168724	15.52385
3115	2024-05-09 18:00:00	22	candela_ex_comes	16.13	1	82.45	1	0.0	1	4.31	1	338.56	1	null	6	980.52	1	41.168724	15.52385
3116	2024-05-09 19:00:00	22	candela_ex_comes	15.2	1	83.25	1	0.0	1	4.68	1	334.61	1	null	6	980.84	1	41.168724	15.52385
3117	2024-05-09 20:00:00	22	candela_ex_comes	15.11	1	79.61	1	0.0	1	2.89	1	5.33	1	null	6	981.36	1	41.168724	15.52385
3118	2024-05-09 21:00:00	22	candela_ex_comes	14.98	1	77.91	1	0.0	1	3.79	1	350.34	1	null	6	982.03	1	41.168724	15.52385
3119	2024-05-09 22:00:00	22	candela_ex_comes	14.74	1	77.54	1	0.2	1	4.14	1	0.61	1	null	6	982.75	1	41.168724	15.52385
3120	2024-05-09 23:00:00	22	candela_ex_comes	14.92	1	75.24	1	0.2	1	3.75	1	358.67	1	null	6	982.78	1	41.168724	15.52385
3121	2024-05-10 00:00:00	22	candela_ex_comes	14.94	1	70.58	1	0.0	1	4.14	1	357.84	1	null	6	982.78	1	41.168724	15.52385
3122	2024-05-10 01:00:00	22	candela_ex_comes	15.03	1	66.82	1	0.0	1	4.36	1	3.6	1	null	6	982.79	1	41.168724	15.52385
3123	2024-05-10 02:00:00	22	candela_ex_comes	14.88	1	67.98	1	0.0	1	4.01	1	358.06	1	null	6	982.66	1	41.168724	15.52385
3124	2024-05-10 03:00:00	22	candela_ex_comes	14.84	1	68.77	1	0.0	1	3.49	1	8.83	1	null	6	982.47	1	41.168724	15.52385
3125	2024-05-10 04:00:00	22	candela_ex_comes	14.45	1	70.64	1	0.0	1	4.33	1	5.04	1	null	6	982.02	1	41.168724	15.52385
3126	2024-05-10 05:00:00	22	candela_ex_comes	14.1	1	73.11	1	0.0	1	3.73	1	1.78	1	null	6	982.01	1	41.168724	15.52385
3127	2024-05-10 06:00:00	22	candela_ex_comes	14.13	1	73.5	1	0.0	1	3.22	1	354.9	1	null	6	982.16	1	41.168724	15.52385
3128	2024-05-10 07:00:00	22	candela_ex_comes	14.66	1	73.19	1	0.0	1	4.61	1	342.55	1	null	6	982.38	1	41.168724	15.52385
3129	2024-05-10 08:00:00	22	candela_ex_comes	15.48	1	72.51	1	0.0	1	5.74	1	333.91	1	null	6	982.66	1	41.168724	15.52385
3130	2024-05-10 09:00:00	22	candela_ex_comes	16.8	1	67.5	1	0.0	1	6.23	1	339.69	1	null	6	982.79	1	41.168724	15.52385
3131	2024-05-10 10:00:00	22	candela_ex_comes	17.81	1	63.54	1	0.0	1	7.19	1	343.68	1	null	6	982.8	1	41.168724	15.52385
3132	2024-05-10 11:00:00	22	candela_ex_comes	18.41	1	61.67	1	0.0	1	6.8	1	335.65	1	null	6	982.71	1	41.168724	15.52385
3133	2024-05-10 12:00:00	22	candela_ex_comes	19.35	1	56.2	1	0.0	1	6.89	1	335.12	1	null	6	982.49	1	41.168724	15.52385
3134	2024-05-10 13:00:00	22	candela_ex_comes	20.09	1	51.63	1	0.0	1	6.87	1	339.55	1	null	6	982.26	1	41.168724	15.52385
3135	2024-05-10 14:00:00	22	candela_ex_comes	20.26	1	51.53	1	0.0	1	7.79	1	334.7	1	null	6	981.91	1	41.168724	15.52385
3136	2024-05-10 15:00:00	22	candela_ex_comes	20.28	1	49.37	1	0.0	1	8.56	1	333.87	1	null	6	981.52	1	41.168724	15.52385
3137	2024-05-10 16:00:00	22	candela_ex_comes	19.95	1	47.59	1	0.0	1	8.12	1	336.02	1	null	6	981.35	1	41.168724	15.52385
3138	2024-05-10 17:00:00	22	candela_ex_comes	19.97	1	46.22	1	0.0	1	8.04	1	344.8	1	null	6	981.14	1	41.168724	15.52385
3139	2024-05-10 18:00:00	22	candela_ex_comes	19.19	1	47.62	1	0.0	1	7.09	1	338.73	1	null	6	981.14	1	41.168724	15.52385
3140	2024-05-10 19:00:00	22	candela_ex_comes	17.84	1	50.55	1	0.0	1	4.71	1	342.48	1	null	6	981.63	1	41.168724	15.52385
3141	2024-05-10 20:00:00	22	candela_ex_comes	15.88	1	58.34	1	0.0	1	2.61	1	270.57	1	null	6	982.02	1	41.168724	15.52385
3142	2024-05-10 21:00:00	22	candela_ex_comes	14.77	1	62.54	1	0.0	1	2.51	1	285.67	1	null	6	982.6	1	41.168724	15.52385
3143	2024-05-10 22:00:00	22	candela_ex_comes	13.58	1	69.0	1	0.0	1	1.87	1	344.94	1	null	6	982.82	1	41.168724	15.52385
3144	2024-05-10 23:00:00	22	candela_ex_comes	14.66	1	64.2	1	0.0	1	2.56	1	345.47	1	null	6	983.04	1	41.168724	15.52385
3145	2024-05-11 00:00:00	22	candela_ex_comes	14.62	1	58.65	1	0.0	1	2.46	1	279.01	1	null	6	982.79	1	41.168724	15.52385
3146	2024-05-11 01:00:00	22	candela_ex_comes	14.2	1	55.4	1	0.0	1	2.13	1	276.42	1	null	6	982.36	1	41.168724	15.52385
3147	2024-05-11 02:00:00	22	candela_ex_comes	14.43	1	53.31	1	0.0	1	1.74	1	310.16	1	null	6	982.15	1	41.168724	15.52385
3148	2024-05-11 03:00:00	22	candela_ex_comes	14.39	1	55.86	1	0.0	1	3.09	1	328.46	1	null	6	981.89	1	41.168724	15.52385
3149	2024-05-11 04:00:00	22	candela_ex_comes	14.45	1	59.46	1	0.0	1	3.95	1	321.96	1	null	6	982.07	1	41.168724	15.52385
3150	2024-05-11 05:00:00	22	candela_ex_comes	14.3	1	62.29	1	0.0	1	3.22	1	322.2	1	null	6	982.1	1	41.168724	15.52385
3151	2024-05-11 06:00:00	22	candela_ex_comes	13.62	1	66.94	1	0.0	1	2.72	1	293.4	1	null	6	982.49	1	41.168724	15.52385
3152	2024-05-11 07:00:00	22	candela_ex_comes	15.03	1	64.89	1	0.0	1	4.6	1	328.18	1	null	6	982.83	1	41.168724	15.52385
3153	2024-05-11 08:00:00	22	candela_ex_comes	16.38	1	62.43	1	0.0	1	4.73	1	328.57	1	null	6	983.17	1	41.168724	15.52385
3154	2024-05-11 09:00:00	22	candela_ex_comes	17.62	1	59.4	1	0.0	1	5.58	1	335.23	1	null	6	983.31	1	41.168724	15.52385
3155	2024-05-11 10:00:00	22	candela_ex_comes	18.56	1	55.05	1	0.0	1	5.87	1	332.85	1	null	6	983.48	1	41.168724	15.52385
3156	2024-05-11 11:00:00	22	candela_ex_comes	19.62	1	49.43	1	0.0	1	5.51	1	340.44	1	null	6	983.5	1	41.168724	15.52385
3157	2024-05-11 12:00:00	22	candela_ex_comes	20.09	1	47.37	1	0.0	1	5.72	1	335.85	1	null	6	983.42	1	41.168724	15.52385
3158	2024-05-11 13:00:00	22	candela_ex_comes	20.46	1	45.72	1	0.0	1	5.93	1	335.29	1	null	6	983.39	1	41.168724	15.52385
3159	2024-05-11 14:00:00	22	candela_ex_comes	20.99	1	42.44	1	0.0	1	5.96	1	342.4	1	null	6	983.27	1	41.168724	15.52385
3160	2024-05-11 15:00:00	22	candela_ex_comes	20.89	1	41.43	1	0.0	1	6.48	1	343.7	1	null	6	983.12	1	41.168724	15.52385
3161	2024-05-11 16:00:00	22	candela_ex_comes	20.93	1	36.85	1	0.0	1	6.47	1	351.47	1	null	6	983.27	1	41.168724	15.52385
3162	2024-05-11 17:00:00	22	candela_ex_comes	20.77	1	34.74	1	0.0	1	6.79	1	336.11	1	null	6	983.14	1	41.168724	15.52385
3163	2024-05-11 18:00:00	22	candela_ex_comes	20.03	1	35.99	1	0.0	1	5.61	1	358.8	1	null	6	983.21	1	41.168724	15.52385
3164	2024-05-11 19:00:00	22	candela_ex_comes	18.32	1	41.49	1	0.0	1	4.05	1	355.25	1	null	6	983.55	1	41.168724	15.52385
3165	2024-05-11 20:00:00	22	candela_ex_comes	15.67	1	51.12	1	0.0	1	2.19	1	314.22	1	null	6	984.03	1	41.168724	15.52385
3166	2024-05-11 21:00:00	22	candela_ex_comes	14.4	1	56.31	1	0.0	1	3.55	1	254.88	1	null	6	984.44	1	41.168724	15.52385
3167	2024-05-11 22:00:00	22	candela_ex_comes	11.59	1	72.14	1	0.0	1	4.33	1	244.05	1	null	6	984.96	1	41.168724	15.52385
3168	2024-05-11 23:00:00	22	candela_ex_comes	10.98	1	73.35	1	0.0	1	5.37	1	247.32	1	null	6	984.99	1	41.168724	15.52385
3169	2024-05-12 00:00:00	22	candela_ex_comes	10.62	1	74.25	1	0.0	1	5.1	1	241.11	1	null	6	984.88	1	41.168724	15.52385
3170	2024-05-12 01:00:00	22	candela_ex_comes	10.65	1	68.96	1	0.0	1	2.8	1	257.17	1	null	6	984.84	1	41.168724	15.52385
3171	2024-05-12 02:00:00	22	candela_ex_comes	10.16	1	69.6	1	0.0	1	2.14	1	254.31	1	null	6	984.74	1	41.168724	15.52385
3172	2024-05-12 03:00:00	22	candela_ex_comes	9.83	1	69.91	1	0.0	1	3.07	1	254.95	1	null	6	984.75	1	41.168724	15.52385
3173	2024-05-12 04:00:00	22	candela_ex_comes	10.29	1	67.87	1	0.0	1	1.88	1	218.74	1	null	6	984.69	1	41.168724	15.52385
3174	2024-05-12 05:00:00	22	candela_ex_comes	9.93	1	67.87	1	0.0	1	1.66	1	236.94	1	null	6	984.61	1	41.168724	15.52385
3175	2024-05-12 06:00:00	22	candela_ex_comes	10.04	1	68.63	1	0.0	1	1.87	1	172.71	1	null	6	984.75	1	41.168724	15.52385
3176	2024-05-12 07:00:00	22	candela_ex_comes	11.77	1	67.62	1	0.0	1	2.31	1	155.83	1	null	6	984.62	1	41.168724	15.52385
3177	2024-05-12 08:00:00	22	candela_ex_comes	15.84	1	55.66	1	0.0	1	2.35	1	141.47	1	null	6	984.74	1	41.168724	15.52385
3178	2024-05-12 09:00:00	22	candela_ex_comes	19.72	1	38.83	1	0.0	1	1.0	1	124.37	1	null	6	984.74	1	41.168724	15.52385
3179	2024-05-12 10:00:00	22	candela_ex_comes	20.82	1	32.35	1	0.0	1	2.04	1	283.05	1	null	6	984.52	1	41.168724	15.52385
3180	2024-05-12 11:00:00	22	candela_ex_comes	22.02	1	31.8	1	0.0	1	1.52	1	183.32	1	null	6	984.35	1	41.168724	15.52385
3181	2024-05-12 12:00:00	22	candela_ex_comes	22.48	1	32.28	1	0.0	1	3.1	1	246.97	1	null	6	983.97	1	41.168724	15.52385
3182	2024-05-12 13:00:00	22	candela_ex_comes	22.68	1	33.85	1	0.0	1	3.53	1	298.36	1	null	6	983.56	1	41.168724	15.52385
3183	2024-05-12 14:00:00	22	candela_ex_comes	22.6	1	35.8	1	0.0	1	3.63	1	274.31	1	null	6	983.42	1	41.168724	15.52385
3184	2024-05-12 15:00:00	22	candela_ex_comes	23.5	1	32.2	1	0.0	1	4.1	1	256.6	1	null	6	982.91	1	41.168724	15.52385
3185	2024-05-12 16:00:00	22	candela_ex_comes	23.94	1	31.46	1	0.0	1	3.24	1	269.93	1	null	6	982.53	1	41.168724	15.52385
3186	2024-05-12 17:00:00	22	candela_ex_comes	23.05	1	34.29	1	0.0	1	2.37	1	16.8	1	null	6	982.33	1	41.168724	15.52385
3187	2024-05-12 18:00:00	22	candela_ex_comes	21.83	1	37.67	1	0.0	1	3.27	1	61.8	1	null	6	982.4	1	41.168724	15.52385
3188	2024-05-12 19:00:00	22	candela_ex_comes	20.57	1	42.67	1	0.0	1	2.07	1	270.38	1	null	6	982.94	1	41.168724	15.52385
3189	2024-05-12 20:00:00	22	candela_ex_comes	19.27	1	53.66	1	0.0	1	1.77	1	258.63	1	null	6	983.57	1	41.168724	15.52385
3190	2024-05-12 21:00:00	22	candela_ex_comes	17.3	1	64.74	1	0.0	1	2.19	1	240.19	1	null	6	983.94	1	41.168724	15.52385
3191	2024-05-12 22:00:00	22	candela_ex_comes	16.43	1	68.84	1	0.0	1	2.44	1	241.03	1	null	6	984.24	1	41.168724	15.52385
3192	2024-05-12 23:00:00	22	candela_ex_comes	15.52	1	70.13	1	0.0	1	2.61	1	247.59	1	null	6	984.2	1	41.168724	15.52385
3193	2024-05-13 00:00:00	22	candela_ex_comes	14.47	1	73.65	1	0.0	1	2.9	1	249.23	1	null	6	983.84	1	41.168724	15.52385
3194	2024-05-13 01:00:00	22	candela_ex_comes	14.19	1	73.46	1	0.0	1	1.43	1	231.69	1	null	6	983.46	1	41.168724	15.52385
3195	2024-05-13 02:00:00	22	candela_ex_comes	13.48	1	76.48	1	0.0	1	2.09	1	146.93	1	null	6	983.2	1	41.168724	15.52385
3196	2024-05-13 03:00:00	22	candela_ex_comes	13.47	1	76.93	1	0.0	1	2.22	1	155.49	1	null	6	983.13	1	41.168724	15.52385
3197	2024-05-13 04:00:00	22	candela_ex_comes	13.77	1	74.49	1	0.0	1	1.71	1	162.52	1	null	6	983.04	1	41.168724	15.52385
3198	2024-05-13 05:00:00	22	candela_ex_comes	14.41	1	72.95	1	0.0	1	1.67	1	152.4	1	null	6	982.83	1	41.168724	15.52385
3199	2024-05-13 06:00:00	22	candela_ex_comes	15.27	1	68.75	1	0.0	1	1.51	1	185.27	1	null	6	983.04	1	41.168724	15.52385
3200	2024-05-13 07:00:00	22	candela_ex_comes	16.62	1	64.98	1	0.0	1	2.28	1	214.9	1	null	6	983.04	1	41.168724	15.52385
3201	2024-05-13 08:00:00	22	candela_ex_comes	18.12	1	56.63	1	0.0	1	3.21	1	221.88	1	null	6	983.03	1	41.168724	15.52385
3202	2024-05-13 09:00:00	22	candela_ex_comes	19.7	1	53.22	1	0.0	1	4.16	1	255.95	1	null	6	982.88	1	41.168724	15.52385
3203	2024-05-13 10:00:00	22	candela_ex_comes	20.9	1	49.98	1	0.0	1	1.65	1	245.45	1	null	6	982.69	1	41.168724	15.52385
3204	2024-05-13 11:00:00	22	candela_ex_comes	21.72	1	48.1	1	0.0	1	1.87	1	265.67	1	null	6	982.22	1	41.168724	15.52385
3205	2024-05-13 12:00:00	22	candela_ex_comes	22.58	1	47.18	1	0.0	1	2.98	1	259.47	1	null	6	981.78	1	41.168724	15.52385
3206	2024-05-13 13:00:00	22	candela_ex_comes	22.43	1	46.61	1	0.0	1	3.21	1	265.27	1	null	6	981.24	1	41.168724	15.52385
3207	2024-05-13 14:00:00	22	candela_ex_comes	22.39	1	47.17	1	0.0	1	4.98	1	13.73	1	null	6	980.67	1	41.168724	15.52385
3208	2024-05-13 15:00:00	22	candela_ex_comes	20.15	1	53.36	1	0.0	1	6.88	1	123.59	1	null	6	980.5	1	41.168724	15.52385
3209	2024-05-13 16:00:00	22	candela_ex_comes	16.7	1	72.67	1	3.0	1	5.01	1	142.95	1	null	6	980.47	1	41.168724	15.52385
3210	2024-05-13 17:00:00	22	candela_ex_comes	17.93	1	73.38	1	0.0	1	4.13	1	142.55	1	null	6	980.13	1	41.168724	15.52385
3211	2024-05-13 18:00:00	22	candela_ex_comes	18.18	1	72.21	1	0.0	1	2.85	1	135.03	1	null	6	980.19	1	41.168724	15.52385
3212	2024-05-13 19:00:00	22	candela_ex_comes	16.46	1	75.8	1	0.0	1	3.2	1	324.46	1	null	6	980.29	1	41.168724	15.52385
3213	2024-05-13 20:00:00	22	candela_ex_comes	16.54	1	75.77	1	0.4	1	3.6	1	241.88	1	null	6	980.35	1	41.168724	15.52385
3214	2024-05-13 21:00:00	22	candela_ex_comes	15.64	1	82.19	1	0.0	1	2.83	1	256.51	1	null	6	980.18	1	41.168724	15.52385
3215	2024-05-13 22:00:00	22	candela_ex_comes	15.43	1	82.21	1	0.0	1	2.61	1	251.11	1	null	6	980.1	1	41.168724	15.52385
3216	2024-05-13 23:00:00	22	candela_ex_comes	15.25	1	81.26	1	0.0	1	2.05	1	249.47	1	null	6	979.88	1	41.168724	15.52385
3217	2024-05-14 00:00:00	22	candela_ex_comes	14.63	1	84.81	1	0.0	1	2.26	1	252.62	1	null	6	979.49	1	41.168724	15.52385
3218	2024-05-14 01:00:00	22	candela_ex_comes	14.33	1	85.26	1	0.0	1	2.85	1	248.82	1	null	6	979.0	1	41.168724	15.52385
3219	2024-05-14 02:00:00	22	candela_ex_comes	13.77	1	85.05	1	0.0	1	2.18	1	264.19	1	null	6	978.46	1	41.168724	15.52385
3220	2024-05-14 03:00:00	22	candela_ex_comes	13.47	1	85.52	1	0.0	1	1.5	1	241.14	1	null	6	978.16	1	41.168724	15.52385
3221	2024-05-14 04:00:00	22	candela_ex_comes	12.92	1	84.76	1	0.0	1	2.34	1	241.13	1	null	6	977.93	1	41.168724	15.52385
3222	2024-05-14 05:00:00	22	candela_ex_comes	12.92	1	85.37	1	0.0	1	2.11	1	231.38	1	null	6	977.67	1	41.168724	15.52385
3223	2024-05-14 06:00:00	22	candela_ex_comes	12.3	1	87.61	1	0.0	1	1.38	1	253.61	1	null	6	977.67	1	41.168724	15.52385
3224	2024-05-14 07:00:00	22	candela_ex_comes	13.95	1	85.94	1	0.0	1	1.49	1	132.75	1	null	6	977.73	1	41.168724	15.52385
3225	2024-05-14 08:00:00	22	candela_ex_comes	16.23	1	78.95	1	0.0	1	1.18	1	126.47	1	null	6	977.67	1	41.168724	15.52385
3226	2024-05-14 09:00:00	22	candela_ex_comes	18.53	1	66.18	1	0.0	1	1.07	1	75.04	1	null	6	977.66	1	41.168724	15.52385
3227	2024-05-14 10:00:00	22	candela_ex_comes	19.61	1	62.52	1	0.0	1	1.47	1	315.61	1	null	6	977.44	1	41.168724	15.52385
3228	2024-05-14 11:00:00	22	candela_ex_comes	20.63	1	58.21	1	0.0	1	2.2	1	318.54	1	null	6	977.26	1	41.168724	15.52385
3229	2024-05-14 12:00:00	22	candela_ex_comes	21.79	1	50.24	1	0.0	1	2.42	1	324.82	1	null	6	976.95	1	41.168724	15.52385
3230	2024-05-14 13:00:00	22	candela_ex_comes	22.71	1	45.17	1	0.0	1	2.79	1	30.3	1	null	6	976.49	1	41.168724	15.52385
3231	2024-05-14 14:00:00	22	candela_ex_comes	23.21	1	42.93	1	0.0	1	3.61	1	66.51	1	null	6	975.92	1	41.168724	15.52385
3232	2024-05-14 15:00:00	22	candela_ex_comes	22.93	1	50.04	1	0.0	1	4.27	1	56.11	1	null	6	975.6	1	41.168724	15.52385
3233	2024-05-14 16:00:00	22	candela_ex_comes	22.61	1	50.74	1	0.0	1	4.34	1	56.66	1	null	6	975.24	1	41.168724	15.52385
3234	2024-05-14 17:00:00	22	candela_ex_comes	22.09	1	51.25	1	0.0	1	4.16	1	66.45	1	null	6	975.41	1	41.168724	15.52385
3235	2024-05-14 18:00:00	22	candela_ex_comes	21.29	1	53.97	1	0.0	1	2.79	1	72.94	1	null	6	975.88	1	41.168724	15.52385
3236	2024-05-14 19:00:00	22	candela_ex_comes	19.99	1	64.71	1	0.0	1	3.01	1	9.27	1	null	6	976.29	1	41.168724	15.52385
3237	2024-05-14 20:00:00	22	candela_ex_comes	18.26	1	73.3	1	0.0	1	3.23	1	3.39	1	null	6	976.65	1	41.168724	15.52385
3238	2024-05-14 21:00:00	22	candela_ex_comes	17.17	1	83.05	1	0.0	1	2.89	1	356.98	1	null	6	977.59	1	41.168724	15.52385
3239	2024-05-14 22:00:00	22	candela_ex_comes	16.34	1	89.49	1	0.0	1	2.31	1	0.38	1	null	6	977.92	1	41.168724	15.52385
3240	2024-05-14 23:00:00	22	candela_ex_comes	15.08	1	91.44	1	0.0	1	2.92	1	248.59	1	null	6	977.77	1	41.168724	15.52385
3241	2024-05-15 00:00:00	22	candela_ex_comes	13.68	1	92.2	1	0.0	1	2.84	1	253.33	1	null	6	977.76	1	41.168724	15.52385
3242	2024-05-15 01:00:00	22	candela_ex_comes	13.93	1	92.73	1	0.0	1	3.0	1	242.59	1	null	6	977.38	1	41.168724	15.52385
3243	2024-05-15 02:00:00	22	candela_ex_comes	13.83	1	92.94	1	0.0	1	2.31	1	253.44	1	null	6	977.04	1	41.168724	15.52385
3244	2024-05-15 03:00:00	22	candela_ex_comes	13.83	1	93.58	1	0.0	1	2.06	1	255.63	1	null	6	976.83	1	41.168724	15.52385
3245	2024-05-15 04:00:00	22	candela_ex_comes	13.98	1	94.05	1	0.0	1	1.56	1	257.27	1	null	6	976.48	1	41.168724	15.52385
3246	2024-05-15 05:00:00	22	candela_ex_comes	14.41	1	94.16	1	0.0	1	1.32	1	236.79	1	null	6	976.44	1	41.168724	15.52385
3247	2024-05-15 06:00:00	22	candela_ex_comes	14.95	1	93.74	1	0.0	1	0.55	1	150.97	1	null	6	976.49	1	41.168724	15.52385
3248	2024-05-15 07:00:00	22	candela_ex_comes	15.51	1	92.55	1	0.0	1	0.91	1	302.34	1	null	6	976.82	1	41.168724	15.52385
3249	2024-05-15 08:00:00	22	candela_ex_comes	16.68	1	86.58	1	0.0	1	1.98	1	146.94	1	null	6	977.08	1	41.168724	15.52385
3250	2024-05-15 09:00:00	22	candela_ex_comes	18.35	1	77.88	1	0.0	1	2.85	1	145.63	1	null	6	976.89	1	41.168724	15.52385
3251	2024-05-15 10:00:00	22	candela_ex_comes	20.56	1	64.32	1	0.0	1	3.2	1	130.42	1	null	6	976.5	1	41.168724	15.52385
3252	2024-05-15 11:00:00	22	candela_ex_comes	22.34	1	52.8	1	0.0	1	2.42	1	141.88	1	null	6	976.33	1	41.168724	15.52385
3253	2024-05-15 12:00:00	22	candela_ex_comes	24.05	1	41.06	1	0.0	1	1.99	1	166.62	1	null	6	975.8	1	41.168724	15.52385
3254	2024-05-15 13:00:00	22	candela_ex_comes	24.96	1	39.01	1	0.0	1	2.93	1	117.43	1	null	6	975.39	1	41.168724	15.52385
3255	2024-05-15 14:00:00	22	candela_ex_comes	23.95	1	55.07	1	0.0	1	5.0	1	69.33	1	null	6	975.03	1	41.168724	15.52385
3256	2024-05-15 15:00:00	22	candela_ex_comes	24.2	1	54.15	1	0.0	1	4.78	1	35.1	1	null	6	974.68	1	41.168724	15.52385
3257	2024-05-15 16:00:00	22	candela_ex_comes	24.1	1	55.45	1	0.0	1	5.98	1	108.5	1	null	6	974.33	1	41.168724	15.52385
3258	2024-05-15 17:00:00	22	candela_ex_comes	23.48	1	58.1	1	0.0	1	7.16	1	114.54	1	null	6	974.35	1	41.168724	15.52385
3259	2024-05-15 18:00:00	22	candela_ex_comes	22.46	1	61.26	1	0.0	1	6.11	1	120.88	1	null	6	974.34	1	41.168724	15.52385
3260	2024-05-15 19:00:00	22	candela_ex_comes	20.78	1	66.62	1	0.0	1	5.8	1	128.57	1	null	6	974.66	1	41.168724	15.52385
3261	2024-05-15 20:00:00	22	candela_ex_comes	18.76	1	74.02	1	0.0	1	5.6	1	130.06	1	null	6	975.22	1	41.168724	15.52385
3262	2024-05-15 21:00:00	22	candela_ex_comes	17.69	1	79.96	1	0.0	1	3.53	1	137.34	1	null	6	975.9	1	41.168724	15.52385
3263	2024-05-15 22:00:00	22	candela_ex_comes	17.2	1	82.77	1	0.0	1	2.86	1	148.15	1	null	6	976.15	1	41.168724	15.52385
3264	2024-05-15 23:00:00	22	candela_ex_comes	16.53	1	85.5	1	0.0	1	2.62	1	132.41	1	null	6	976.21	1	41.168724	15.52385
3265	2024-05-16 00:00:00	22	candela_ex_comes	16.2	1	87.96	1	0.0	1	2.2	1	134.05	1	null	6	976.25	1	41.168724	15.52385
3266	2024-05-16 01:00:00	22	candela_ex_comes	16.16	1	88.8	1	0.0	1	1.87	1	143.68	1	null	6	976.05	1	41.168724	15.52385
3267	2024-05-16 02:00:00	22	candela_ex_comes	15.9	1	89.74	1	0.0	1	2.01	1	146.83	1	null	6	975.73	1	41.168724	15.52385
3268	2024-05-16 03:00:00	22	candela_ex_comes	15.58	1	91.62	1	0.0	1	2.48	1	141.83	1	null	6	975.3	1	41.168724	15.52385
3269	2024-05-16 04:00:00	22	candela_ex_comes	14.88	1	93.28	1	0.0	1	3.21	1	134.32	1	null	6	974.98	1	41.168724	15.52385
3270	2024-05-16 05:00:00	22	candela_ex_comes	15.26	1	94.69	1	0.0	1	2.03	1	168.78	1	null	6	975.08	1	41.168724	15.52385
3271	2024-05-16 06:00:00	22	candela_ex_comes	15.36	1	94.31	1	0.0	1	1.97	1	170.7	1	null	6	974.6	1	41.168724	15.52385
3272	2024-05-16 07:00:00	22	candela_ex_comes	16.0	1	93.43	1	0.0	1	2.41	1	145.93	1	null	6	974.35	1	41.168724	15.52385
3273	2024-05-16 08:00:00	22	candela_ex_comes	17.46	1	87.5	1	0.0	1	2.62	1	132.76	1	null	6	974.01	1	41.168724	15.52385
3274	2024-05-16 09:00:00	22	candela_ex_comes	19.65	1	75.18	1	0.0	1	1.96	1	120.67	1	null	6	973.85	1	41.168724	15.52385
3275	2024-05-16 10:00:00	22	candela_ex_comes	21.59	1	65.16	1	0.0	1	2.38	1	103.81	1	null	6	973.5	1	41.168724	15.52385
3276	2024-05-16 11:00:00	22	candela_ex_comes	22.84	1	58.9	1	0.0	1	2.84	1	82.18	1	null	6	973.04	1	41.168724	15.52385
3277	2024-05-16 12:00:00	22	candela_ex_comes	24.08	1	53.91	1	0.0	1	2.67	1	127.93	1	null	6	972.4	1	41.168724	15.52385
3278	2024-05-16 13:00:00	22	candela_ex_comes	25.81	1	48.04	1	0.0	1	1.39	1	261.31	1	null	6	971.74	1	41.168724	15.52385
3279	2024-05-16 14:00:00	22	candela_ex_comes	27.33	1	44.34	1	0.0	1	1.82	1	268.6	1	null	6	971.0	1	41.168724	15.52385
3280	2024-05-16 15:00:00	22	candela_ex_comes	28.07	1	44.51	1	0.0	1	3.33	1	323.47	1	null	6	970.61	1	41.168724	15.52385
3281	2024-05-16 16:00:00	22	candela_ex_comes	28.22	1	43.71	1	0.0	1	4.36	1	303.75	1	null	6	970.4	1	41.168724	15.52385
3282	2024-05-16 17:00:00	22	candela_ex_comes	28.19	1	36.93	1	0.0	1	5.71	1	228.01	1	null	6	970.53	1	41.168724	15.52385
3283	2024-05-16 18:00:00	22	candela_ex_comes	26.58	1	38.99	1	0.0	1	6.96	1	235.89	1	null	6	971.13	1	41.168724	15.52385
3284	2024-05-16 19:00:00	22	candela_ex_comes	24.56	1	44.48	1	0.0	1	5.75	1	236.51	1	null	6	971.96	1	41.168724	15.52385
3285	2024-05-16 20:00:00	22	candela_ex_comes	22.47	1	49.77	1	0.0	1	4.34	1	226.8	1	null	6	972.57	1	41.168724	15.52385
3286	2024-05-16 21:00:00	22	candela_ex_comes	21.82	1	50.84	1	0.0	1	2.59	1	204.68	1	null	6	973.37	1	41.168724	15.52385
3287	2024-05-16 22:00:00	22	candela_ex_comes	20.62	1	54.21	1	0.0	1	1.94	1	169.57	1	null	6	973.93	1	41.168724	15.52385
3288	2024-05-16 23:00:00	22	candela_ex_comes	20.01	1	56.26	1	0.0	1	2.34	1	199.24	1	null	6	974.27	1	41.168724	15.52385
3289	2024-05-17 00:00:00	22	candela_ex_comes	19.0	1	62.74	1	0.0	1	2.81	1	219.27	1	null	6	974.71	1	41.168724	15.52385
3290	2024-05-17 01:00:00	22	candela_ex_comes	17.89	1	67.1	1	0.0	1	1.86	1	337.88	1	null	6	975.59	1	41.168724	15.52385
3291	2024-05-17 02:00:00	22	candela_ex_comes	17.49	1	61.67	1	0.0	1	2.83	1	265.64	1	null	6	976.37	1	41.168724	15.52385
3292	2024-05-17 03:00:00	22	candela_ex_comes	16.11	1	70.09	1	0.0	1	3.42	1	278.49	1	null	6	977.18	1	41.168724	15.52385
3293	2024-05-17 04:00:00	22	candela_ex_comes	16.39	1	73.56	1	0.0	1	4.48	1	242.2	1	null	6	977.49	1	41.168724	15.52385
3294	2024-05-17 05:00:00	22	candela_ex_comes	15.03	1	77.8	1	0.0	1	5.09	1	244.53	1	null	6	977.51	1	41.168724	15.52385
3295	2024-05-17 06:00:00	22	candela_ex_comes	14.2	1	80.31	1	0.0	1	5.62	1	251.93	1	null	6	977.93	1	41.168724	15.52385
3296	2024-05-17 07:00:00	22	candela_ex_comes	16.44	1	75.79	1	0.0	1	4.96	1	261.43	1	null	6	978.16	1	41.168724	15.52385
3297	2024-05-17 08:00:00	22	candela_ex_comes	19.51	1	60.84	1	0.0	1	5.13	1	258.91	1	null	6	978.24	1	41.168724	15.52385
3298	2024-05-17 09:00:00	22	candela_ex_comes	20.91	1	47.98	1	0.0	1	5.8	1	253.68	1	null	6	978.71	1	41.168724	15.52385
3299	2024-05-17 10:00:00	22	candela_ex_comes	22.11	1	38.93	1	0.0	1	5.45	1	253.95	1	null	6	979.1	1	41.168724	15.52385
3300	2024-05-17 11:00:00	22	candela_ex_comes	23.31	1	32.03	1	0.0	1	6.64	1	253.42	1	null	6	979.14	1	41.168724	15.52385
3301	2024-05-17 12:00:00	22	candela_ex_comes	24.12	1	28.23	1	0.0	1	7.64	1	262.23	1	null	6	979.26	1	41.168724	15.52385
3302	2024-05-17 13:00:00	22	candela_ex_comes	24.89	1	26.99	1	0.0	1	7.14	1	259.89	1	null	6	979.1	1	41.168724	15.52385
3303	2024-05-17 14:00:00	22	candela_ex_comes	24.96	1	29.4	1	0.0	1	6.61	1	263.64	1	null	6	979.1	1	41.168724	15.52385
3304	2024-05-17 15:00:00	22	candela_ex_comes	25.12	1	32.07	1	0.0	1	5.75	1	254.45	1	null	6	979.02	1	41.168724	15.52385
3305	2024-05-17 16:00:00	22	candela_ex_comes	25.24	1	31.64	1	0.0	1	5.26	1	272.07	1	null	6	978.7	1	41.168724	15.52385
3306	2024-05-17 17:00:00	22	candela_ex_comes	25.11	1	32.58	1	0.0	1	4.82	1	278.9	1	null	6	978.68	1	41.168724	15.52385
3307	2024-05-17 18:00:00	22	candela_ex_comes	24.56	1	32.74	1	0.0	1	5.19	1	272.41	1	null	6	978.66	1	41.168724	15.52385
3308	2024-05-17 19:00:00	22	candela_ex_comes	23.16	1	37.16	1	0.0	1	3.64	1	277.79	1	null	6	979.25	1	41.168724	15.52385
3309	2024-05-17 20:00:00	22	candela_ex_comes	20.46	1	55.15	1	0.0	1	2.45	1	139.4	1	null	6	979.89	1	41.168724	15.52385
3310	2024-05-17 21:00:00	22	candela_ex_comes	18.8	1	61.05	1	0.0	1	1.73	1	190.59	1	null	6	980.52	1	41.168724	15.52385
3311	2024-05-17 22:00:00	22	candela_ex_comes	15.73	1	61.47	1	0.0	1	2.47	1	265.63	1	null	6	980.75	1	41.168724	15.52385
3312	2024-05-17 23:00:00	22	candela_ex_comes	14.65	1	65.45	1	0.0	1	3.56	1	259.66	1	null	6	980.85	1	41.168724	15.52385
3313	2024-05-18 00:00:00	22	candela_ex_comes	15.14	1	68.4	1	0.0	1	1.33	1	239.11	1	null	6	980.69	1	41.168724	15.52385
3314	2024-05-18 01:00:00	22	candela_ex_comes	14.05	1	68.43	1	0.0	1	2.3	1	245.73	1	null	6	980.21	1	41.168724	15.52385
3315	2024-05-18 02:00:00	22	candela_ex_comes	15.21	1	67.19	1	0.0	1	2.41	1	240.55	1	null	6	979.87	1	41.168724	15.52385
3316	2024-05-18 03:00:00	22	candela_ex_comes	13.45	1	68.22	1	0.0	1	1.88	1	257.98	1	null	6	979.86	1	41.168724	15.52385
3317	2024-05-18 04:00:00	22	candela_ex_comes	13.71	1	68.44	1	0.0	1	2.53	1	241.08	1	null	6	980.13	1	41.168724	15.52385
3318	2024-05-18 05:00:00	22	candela_ex_comes	13.48	1	68.44	1	0.0	1	2.0	1	252.03	1	null	6	980.39	1	41.168724	15.52385
3319	2024-05-18 06:00:00	22	candela_ex_comes	13.17	1	68.0	1	0.0	1	2.7	1	246.18	1	null	6	980.37	1	41.168724	15.52385
3320	2024-05-18 07:00:00	22	candela_ex_comes	15.5	1	63.74	1	0.0	1	1.69	1	250.02	1	null	6	980.17	1	41.168724	15.52385
3321	2024-05-18 08:00:00	22	candela_ex_comes	17.45	1	55.01	1	0.0	1	2.11	1	357.78	1	null	6	980.63	1	41.168724	15.52385
3322	2024-05-18 09:00:00	22	candela_ex_comes	18.97	1	53.86	1	0.0	1	3.18	1	348.71	1	null	6	980.78	1	41.168724	15.52385
3323	2024-05-18 10:00:00	22	candela_ex_comes	20.34	1	50.61	1	0.0	1	3.4	1	357.45	1	null	6	981.12	1	41.168724	15.52385
3324	2024-05-18 11:00:00	22	candela_ex_comes	21.12	1	48.64	1	0.0	1	3.34	1	329.9	1	null	6	981.31	1	41.168724	15.52385
3325	2024-05-18 12:00:00	22	candela_ex_comes	20.65	1	50.37	1	5.8	1	1.58	1	45.98	1	null	6	980.55	1	41.168724	15.52385
3326	2024-05-18 13:00:00	22	candela_ex_comes	18.43	1	71.38	1	0.6	1	2.98	1	266.72	1	null	6	980.43	1	41.168724	15.52385
3327	2024-05-18 14:00:00	22	candela_ex_comes	17.3	1	79.87	1	5.4	1	2.97	1	276.84	1	null	6	981.17	1	41.168724	15.52385
3328	2024-05-18 15:00:00	22	candela_ex_comes	16.73	1	85.36	1	1.8	1	3.53	1	227.97	1	null	6	981.81	1	41.168724	15.52385
3329	2024-05-18 16:00:00	22	candela_ex_comes	16.17	1	86.34	1	1.2	1	2.62	1	221.45	1	null	6	981.26	1	41.168724	15.52385
3330	2024-05-18 17:00:00	22	candela_ex_comes	16.35	1	89.85	1	0.4	1	1.63	1	145.25	1	null	6	980.69	1	41.168724	15.52385
3331	2024-05-18 18:00:00	22	candela_ex_comes	16.42	1	91.44	1	0.4	1	3.27	1	137.0	1	null	6	980.03	1	41.168724	15.52385
3332	2024-05-18 19:00:00	22	candela_ex_comes	15.74	1	94.33	1	0.0	1	4.49	1	141.3	1	null	6	979.97	1	41.168724	15.52385
3333	2024-05-18 20:00:00	22	candela_ex_comes	15.71	1	96.13	1	0.0	1	3.03	1	135.53	1	null	6	979.68	1	41.168724	15.52385
3334	2024-05-18 21:00:00	22	candela_ex_comes	15.71	1	96.71	1	0.0	1	1.87	1	131.96	1	null	6	980.06	1	41.168724	15.52385
3335	2024-05-18 22:00:00	22	candela_ex_comes	15.48	1	96.59	1	0.0	1	1.27	1	314.42	1	null	6	980.15	1	41.168724	15.52385
3336	2024-05-18 23:00:00	22	candela_ex_comes	14.88	1	97.05	1	0.0	1	1.68	1	309.86	1	null	6	980.28	1	41.168724	15.52385
3337	2024-05-19 00:00:00	22	candela_ex_comes	14.58	1	97.75	1	0.2	1	1.13	1	352.19	1	null	6	979.9	1	41.168724	15.52385
3338	2024-05-19 01:00:00	22	candela_ex_comes	13.42	1	97.76	1	0.0	1	1.67	1	253.65	1	null	6	979.26	1	41.168724	15.52385
3339	2024-05-19 02:00:00	22	candela_ex_comes	13.06	1	98.49	1	0.0	1	1.51	1	250.25	1	null	6	978.66	1	41.168724	15.52385
3340	2024-05-19 03:00:00	22	candela_ex_comes	12.96	1	98.69	1	0.0	1	3.0	1	149.07	1	null	6	978.03	1	41.168724	15.52385
3341	2024-05-19 04:00:00	22	candela_ex_comes	12.87	1	98.96	1	0.0	1	2.69	1	147.12	1	null	6	977.91	1	41.168724	15.52385
3342	2024-05-19 05:00:00	22	candela_ex_comes	13.84	1	99.21	1	0.0	1	1.47	1	139.48	1	null	6	978.24	1	41.168724	15.52385
3343	2024-05-19 06:00:00	22	candela_ex_comes	13.97	1	98.16	1	0.0	1	1.07	1	186.74	1	null	6	978.72	1	41.168724	15.52385
3344	2024-05-19 07:00:00	22	candela_ex_comes	15.59	1	97.68	1	0.0	1	1.32	1	136.05	1	null	6	979.34	1	41.168724	15.52385
3345	2024-05-19 08:00:00	22	candela_ex_comes	17.41	1	92.48	1	0.0	1	0.94	1	326.65	1	null	6	979.78	1	41.168724	15.52385
3346	2024-05-19 09:00:00	22	candela_ex_comes	18.13	1	86.76	1	0.0	1	2.71	1	134.23	1	null	6	979.6	1	41.168724	15.52385
3347	2024-05-19 10:00:00	22	candela_ex_comes	20.8	1	70.99	1	0.0	1	1.64	1	101.21	1	null	6	979.46	1	41.168724	15.52385
3348	2024-05-19 11:00:00	22	candela_ex_comes	22.35	1	64.13	1	0.0	1	1.32	1	357.83	1	null	6	978.96	1	41.168724	15.52385
3349	2024-05-19 12:00:00	22	candela_ex_comes	23.63	1	59.8	1	0.0	1	1.36	1	162.88	1	null	6	978.49	1	41.168724	15.52385
3350	2024-05-19 13:00:00	22	candela_ex_comes	24.2	1	58.58	1	0.0	1	1.38	1	53.24	1	null	6	978.17	1	41.168724	15.52385
3351	2024-05-19 14:00:00	22	candela_ex_comes	24.09	1	60.81	1	0.0	1	3.11	1	80.21	1	null	6	977.36	1	41.168724	15.52385
3352	2024-05-19 15:00:00	22	candela_ex_comes	22.74	1	69.41	1	1.6	1	3.59	1	96.49	1	null	6	976.73	1	41.168724	15.52385
3353	2024-05-19 16:00:00	22	candela_ex_comes	21.06	1	78.43	1	0.0	1	5.1	1	341.83	1	null	6	977.06	1	41.168724	15.52385
3354	2024-05-19 17:00:00	22	candela_ex_comes	20.25	1	81.02	1	0.0	1	3.04	1	2.73	1	null	6	977.39	1	41.168724	15.52385
3355	2024-05-19 18:00:00	22	candela_ex_comes	19.09	1	84.44	1	0.0	1	4.02	1	352.48	1	null	6	977.6	1	41.168724	15.52385
3356	2024-05-19 19:00:00	22	candela_ex_comes	18.38	1	89.2	1	0.0	1	2.89	1	356.85	1	null	6	977.79	1	41.168724	15.52385
3357	2024-05-19 20:00:00	22	candela_ex_comes	17.77	1	91.91	1	0.0	1	3.27	1	346.26	1	null	6	977.87	1	41.168724	15.52385
3358	2024-05-19 21:00:00	22	candela_ex_comes	17.25	1	94.63	1	0.0	1	2.08	1	354.26	1	null	6	978.31	1	41.168724	15.52385
3359	2024-05-19 22:00:00	22	candela_ex_comes	16.87	1	95.94	1	0.0	1	1.53	1	348.96	1	null	6	978.59	1	41.168724	15.52385
3360	2024-05-19 23:00:00	22	candela_ex_comes	16.68	1	96.37	1	0.0	1	1.11	1	164.01	1	null	6	978.65	1	41.168724	15.52385
3361	2024-05-20 00:00:00	22	candela_ex_comes	15.9	1	96.66	1	0.0	1	2.53	1	153.35	1	null	6	978.2	1	41.168724	15.52385
3362	2024-05-20 01:00:00	22	candela_ex_comes	15.91	1	97.76	1	0.0	1	1.64	1	146.66	1	null	6	977.87	1	41.168724	15.52385
3363	2024-05-20 02:00:00	22	candela_ex_comes	15.7	1	97.87	1	0.0	1	1.49	1	169.88	1	null	6	977.47	1	41.168724	15.52385
3364	2024-05-20 03:00:00	22	candela_ex_comes	15.8	1	97.48	1	0.0	1	1.15	1	194.08	1	null	6	977.48	1	41.168724	15.52385
3365	2024-05-20 04:00:00	22	candela_ex_comes	15.38	1	96.94	1	0.0	1	0.8	1	183.19	1	null	6	977.58	1	41.168724	15.52385
3366	2024-05-20 05:00:00	22	candela_ex_comes	14.51	1	95.9	1	0.0	1	1.4	1	316.07	1	null	6	977.9	1	41.168724	15.52385
3367	2024-05-20 06:00:00	22	candela_ex_comes	14.38	1	94.92	1	0.2	1	0.88	1	243.11	1	null	6	978.17	1	41.168724	15.52385
3368	2024-05-20 07:00:00	22	candela_ex_comes	15.26	1	94.73	1	0.0	1	1.72	1	248.34	1	null	6	978.19	1	41.168724	15.52385
3369	2024-05-20 08:00:00	22	candela_ex_comes	17.46	1	90.68	1	0.0	1	1.91	1	135.93	1	null	6	978.34	1	41.168724	15.52385
3370	2024-05-20 09:00:00	22	candela_ex_comes	19.98	1	79.69	1	0.0	1	1.22	1	116.02	1	null	6	978.08	1	41.168724	15.52385
3371	2024-05-20 10:00:00	22	candela_ex_comes	21.08	1	75.73	1	0.0	1	2.67	1	2.09	1	null	6	977.74	1	41.168724	15.52385
3372	2024-05-20 11:00:00	22	candela_ex_comes	22.06	1	72.0	1	0.0	1	3.32	1	342.3	1	null	6	977.4	1	41.168724	15.52385
3373	2024-05-20 12:00:00	22	candela_ex_comes	23.08	1	62.99	1	0.0	1	2.72	1	63.42	1	null	6	977.1	1	41.168724	15.52385
3374	2024-05-20 13:00:00	22	candela_ex_comes	23.68	1	63.34	1	0.0	1	3.36	1	42.19	1	null	6	976.84	1	41.168724	15.52385
3375	2024-05-20 14:00:00	22	candela_ex_comes	24.05	1	64.2	1	0.0	1	3.52	1	67.07	1	null	6	976.52	1	41.168724	15.52385
3376	2024-05-20 15:00:00	22	candela_ex_comes	23.71	1	63.93	1	0.0	1	3.89	1	52.48	1	null	6	976.14	1	41.168724	15.52385
3377	2024-05-20 16:00:00	22	candela_ex_comes	23.28	1	67.09	1	0.0	1	4.59	1	50.32	1	null	6	975.74	1	41.168724	15.52385
3378	2024-05-20 17:00:00	22	candela_ex_comes	22.32	1	70.51	1	0.0	1	3.7	1	54.12	1	null	6	975.41	1	41.168724	15.52385
3379	2024-05-20 18:00:00	22	candela_ex_comes	21.51	1	74.98	1	0.0	1	3.21	1	23.32	1	null	6	975.14	1	41.168724	15.52385
3380	2024-05-20 19:00:00	22	candela_ex_comes	20.17	1	82.11	1	0.0	1	2.65	1	13.1	1	null	6	974.97	1	41.168724	15.52385
3381	2024-05-20 20:00:00	22	candela_ex_comes	18.86	1	88.88	1	0.0	1	2.47	1	3.44	1	null	6	975.0	1	41.168724	15.52385
3382	2024-05-20 21:00:00	22	candela_ex_comes	18.37	1	92.84	1	0.0	1	2.29	1	1.77	1	null	6	975.13	1	41.168724	15.52385
3383	2024-05-20 22:00:00	22	candela_ex_comes	18.17	1	95.04	1	0.0	1	1.84	1	342.0	1	null	6	974.97	1	41.168724	15.52385
3384	2024-05-20 23:00:00	22	candela_ex_comes	18.12	1	96.53	1	0.0	1	2.08	1	349.74	1	null	6	974.82	1	41.168724	15.52385
3385	2024-05-21 00:00:00	22	candela_ex_comes	17.94	1	97.44	1	0.0	1	1.48	1	345.7	1	null	6	974.26	1	41.168724	15.52385
3386	2024-05-21 01:00:00	22	candela_ex_comes	17.75	1	98.14	1	0.0	1	1.45	1	354.56	1	null	6	973.66	1	41.168724	15.52385
3387	2024-05-21 02:00:00	22	candela_ex_comes	17.64	1	98.62	1	0.0	1	0.84	1	149.05	1	null	6	973.21	1	41.168724	15.52385
3388	2024-05-21 03:00:00	22	candela_ex_comes	17.44	1	98.76	1	0.0	1	1.6	1	142.83	1	null	6	972.78	1	41.168724	15.52385
3389	2024-05-21 04:00:00	22	candela_ex_comes	17.28	1	98.67	1	0.0	1	1.8	1	148.28	1	null	6	972.47	1	41.168724	15.52385
3390	2024-05-21 05:00:00	22	candela_ex_comes	16.83	1	98.67	1	0.0	1	1.7	1	166.61	1	null	6	972.42	1	41.168724	15.52385
3391	2024-05-21 06:00:00	22	candela_ex_comes	19.05	1	87.77	1	0.0	1	3.19	1	208.71	1	null	6	972.64	1	41.168724	15.52385
3392	2024-05-21 07:00:00	22	candela_ex_comes	21.24	1	65.21	1	0.0	1	6.66	1	208.49	1	null	6	973.08	1	41.168724	15.52385
3393	2024-05-21 08:00:00	22	candela_ex_comes	21.62	1	64.9	1	0.0	1	6.74	1	212.86	1	null	6	974.23	1	41.168724	15.52385
3394	2024-05-21 09:00:00	22	candela_ex_comes	20.89	1	67.91	1	0.0	1	8.31	1	255.55	1	null	6	974.99	1	41.168724	15.52385
3395	2024-05-21 10:00:00	22	candela_ex_comes	21.4	1	64.7	1	0.0	1	7.46	1	247.26	1	null	6	975.55	1	41.168724	15.52385
3396	2024-05-21 11:00:00	22	candela_ex_comes	21.81	1	59.72	1	0.0	1	7.96	1	249.97	1	null	6	975.83	1	41.168724	15.52385
3397	2024-05-21 12:00:00	22	candela_ex_comes	22.36	1	55.25	1	0.0	1	9.79	1	254.89	1	null	6	975.89	1	41.168724	15.52385
3398	2024-05-21 13:00:00	22	candela_ex_comes	22.94	1	51.7	1	0.0	1	11.34	1	245.3	1	null	6	975.68	1	41.168724	15.52385
3399	2024-05-21 14:00:00	22	candela_ex_comes	22.95	1	49.76	1	0.0	1	13.66	1	252.85	1	null	6	975.36	1	41.168724	15.52385
3400	2024-05-21 15:00:00	22	candela_ex_comes	23.04	1	49.99	1	0.0	1	11.14	1	266.01	1	null	6	976.27	1	41.168724	15.52385
3401	2024-05-21 16:00:00	22	candela_ex_comes	22.5	1	51.39	1	0.0	1	12.52	1	257.16	1	null	6	976.17	1	41.168724	15.52385
3402	2024-05-21 17:00:00	22	candela_ex_comes	21.88	1	52.69	1	0.0	1	11.96	1	254.83	1	null	6	976.49	1	41.168724	15.52385
3403	2024-05-21 18:00:00	22	candela_ex_comes	21.23	1	54.32	1	0.0	1	12.15	1	255.1	1	null	6	976.61	1	41.168724	15.52385
3404	2024-05-21 19:00:00	22	candela_ex_comes	20.01	1	58.63	1	0.0	1	9.83	1	261.08	1	null	6	977.19	1	41.168724	15.52385
3405	2024-05-21 20:00:00	22	candela_ex_comes	18.23	1	65.73	1	0.0	1	7.98	1	251.14	1	null	6	977.64	1	41.168724	15.52385
3406	2024-05-21 21:00:00	22	candela_ex_comes	17.23	1	69.24	1	0.0	1	8.3	1	242.12	1	null	6	978.4	1	41.168724	15.52385
3407	2024-05-21 22:00:00	22	candela_ex_comes	16.84	1	67.31	1	0.0	1	11.43	1	250.15	1	null	6	978.8	1	41.168724	15.52385
3408	2024-05-21 23:00:00	22	candela_ex_comes	16.37	1	68.65	1	0.0	1	11.12	1	253.51	1	null	6	978.95	1	41.168724	15.52385
3409	2024-05-22 00:00:00	22	candela_ex_comes	16.25	1	68.7	1	0.0	1	11.35	1	258.02	1	null	6	979.25	1	41.168724	15.52385
3410	2024-05-22 01:00:00	22	candela_ex_comes	15.92	1	69.29	1	0.0	1	10.54	1	255.82	1	null	6	978.94	1	41.168724	15.52385
3411	2024-05-22 02:00:00	22	candela_ex_comes	15.82	1	69.5	1	0.0	1	10.68	1	248.1	1	null	6	978.97	1	41.168724	15.52385
3412	2024-05-22 03:00:00	22	candela_ex_comes	15.72	1	69.78	1	0.0	1	12.94	1	245.68	1	null	6	978.54	1	41.168724	15.52385
3413	2024-05-22 04:00:00	22	candela_ex_comes	15.58	1	71.93	1	0.0	1	12.26	1	250.16	1	null	6	978.26	1	41.168724	15.52385
3414	2024-05-22 05:00:00	22	candela_ex_comes	15.72	1	73.04	1	0.0	1	9.02	1	258.76	1	null	6	978.7	1	41.168724	15.52385
3415	2024-05-22 06:00:00	22	candela_ex_comes	16.2	1	73.16	1	0.0	1	8.32	1	253.32	1	null	6	979.27	1	41.168724	15.52385
3416	2024-05-22 07:00:00	22	candela_ex_comes	17.39	1	66.56	1	0.0	1	8.28	1	258.29	1	null	6	979.51	1	41.168724	15.52385
3417	2024-05-22 08:00:00	22	candela_ex_comes	18.29	1	61.55	1	0.0	1	9.04	1	259.88	1	null	6	980.02	1	41.168724	15.52385
3418	2024-05-22 09:00:00	22	candela_ex_comes	19.36	1	52.72	1	0.0	1	8.79	1	269.56	1	null	6	980.57	1	41.168724	15.52385
3419	2024-05-22 10:00:00	22	candela_ex_comes	19.85	1	51.26	1	0.0	1	9.05	1	276.6	1	null	6	980.75	1	41.168724	15.52385
3420	2024-05-22 11:00:00	22	candela_ex_comes	20.54	1	48.76	1	0.0	1	10.25	1	281.37	1	null	6	980.74	1	41.168724	15.52385
3421	2024-05-22 12:00:00	22	candela_ex_comes	21.72	1	41.09	1	0.0	1	12.24	1	273.89	1	null	6	980.36	1	41.168724	15.52385
3422	2024-05-22 13:00:00	22	candela_ex_comes	22.22	1	39.46	1	0.0	1	11.66	1	266.99	1	null	6	980.37	1	41.168724	15.52385
3423	2024-05-22 14:00:00	22	candela_ex_comes	22.52	1	38.58	1	0.0	1	12.47	1	258.56	1	null	6	980.08	1	41.168724	15.52385
3424	2024-05-22 15:00:00	22	candela_ex_comes	22.38	1	38.59	1	0.0	1	12.86	1	257.53	1	null	6	979.9	1	41.168724	15.52385
3425	2024-05-22 16:00:00	22	candela_ex_comes	22.0	1	42.01	1	0.0	1	12.68	1	258.05	1	null	6	979.65	1	41.168724	15.52385
3426	2024-05-22 17:00:00	22	candela_ex_comes	21.7	1	41.91	1	0.0	1	12.42	1	263.45	1	null	6	979.61	1	41.168724	15.52385
3427	2024-05-22 18:00:00	22	candela_ex_comes	20.92	1	46.35	1	0.0	1	10.27	1	263.15	1	null	6	980.1	1	41.168724	15.52385
3428	2024-05-22 19:00:00	22	candela_ex_comes	19.93	1	49.24	1	0.0	1	10.29	1	260.85	1	null	6	980.3	1	41.168724	15.52385
3429	2024-05-22 20:00:00	22	candela_ex_comes	18.37	1	55.3	1	0.0	1	9.17	1	256.92	1	null	6	980.48	1	41.168724	15.52385
3430	2024-05-22 21:00:00	22	candela_ex_comes	17.5	1	59.44	1	0.0	1	9.96	1	251.11	1	null	6	981.13	1	41.168724	15.52385
3431	2024-05-22 22:00:00	22	candela_ex_comes	16.93	1	65.05	1	0.0	1	9.22	1	244.31	1	null	6	981.96	1	41.168724	15.52385
3432	2024-05-22 23:00:00	22	candela_ex_comes	16.86	1	65.54	1	0.0	1	10.47	1	243.11	1	null	6	982.47	1	41.168724	15.52385
3433	2024-05-23 00:00:00	22	candela_ex_comes	16.38	1	69.42	1	0.0	1	9.99	1	247.16	1	null	6	982.53	1	41.168724	15.52385
3434	2024-05-23 01:00:00	22	candela_ex_comes	15.7	1	73.81	1	0.0	1	8.14	1	243.19	1	null	6	982.49	1	41.168724	15.52385
3435	2024-05-23 02:00:00	22	candela_ex_comes	15.39	1	74.36	1	0.0	1	8.51	1	247.24	1	null	6	982.43	1	41.168724	15.52385
3436	2024-05-23 03:00:00	22	candela_ex_comes	15.2	1	75.93	1	0.0	1	7.95	1	247.06	1	null	6	982.54	1	41.168724	15.52385
3437	2024-05-23 04:00:00	22	candela_ex_comes	15.06	1	77.29	1	0.0	1	7.77	1	247.39	1	null	6	982.82	1	41.168724	15.52385
3438	2024-05-23 05:00:00	22	candela_ex_comes	14.7	1	79.55	1	0.0	1	7.32	1	244.73	1	null	6	983.2	1	41.168724	15.52385
3439	2024-05-23 06:00:00	22	candela_ex_comes	15.06	1	78.52	1	0.0	1	6.93	1	246.24	1	null	6	983.48	1	41.168724	15.52385
3440	2024-05-23 07:00:00	22	candela_ex_comes	16.47	1	72.63	1	0.0	1	6.78	1	249.65	1	null	6	983.52	1	41.168724	15.52385
3441	2024-05-23 08:00:00	22	candela_ex_comes	18.11	1	65.7	1	0.0	1	5.46	1	250.05	1	null	6	983.56	1	41.168724	15.52385
3442	2024-05-23 09:00:00	22	candela_ex_comes	20.07	1	52.63	1	0.0	1	3.15	1	250.49	1	null	6	983.53	1	41.168724	15.52385
3443	2024-05-23 10:00:00	22	candela_ex_comes	21.38	1	45.85	1	0.0	1	2.25	1	235.3	1	null	6	983.42	1	41.168724	15.52385
3444	2024-05-23 11:00:00	22	candela_ex_comes	21.82	1	46.5	1	0.0	1	3.93	1	267.65	1	null	6	983.45	1	41.168724	15.52385
3445	2024-05-23 12:00:00	22	candela_ex_comes	22.72	1	40.66	1	0.0	1	4.86	1	262.47	1	null	6	983.42	1	41.168724	15.52385
3446	2024-05-23 13:00:00	22	candela_ex_comes	23.47	1	36.42	1	0.0	1	4.49	1	246.27	1	null	6	983.32	1	41.168724	15.52385
3447	2024-05-23 14:00:00	22	candela_ex_comes	23.78	1	36.64	1	0.0	1	5.52	1	250.37	1	null	6	983.15	1	41.168724	15.52385
3448	2024-05-23 15:00:00	22	candela_ex_comes	23.6	1	40.48	1	0.0	1	6.72	1	263.85	1	null	6	982.99	1	41.168724	15.52385
3449	2024-05-23 16:00:00	22	candela_ex_comes	23.58	1	41.29	1	0.0	1	8.14	1	264.65	1	null	6	982.63	1	41.168724	15.52385
3450	2024-05-23 17:00:00	22	candela_ex_comes	23.06	1	43.02	1	0.0	1	10.17	1	266.24	1	null	6	982.35	1	41.168724	15.52385
3451	2024-05-23 18:00:00	22	candela_ex_comes	22.44	1	45.21	1	0.0	1	8.47	1	264.24	1	null	6	982.36	1	41.168724	15.52385
3452	2024-05-23 19:00:00	22	candela_ex_comes	21.4	1	46.79	1	0.0	1	6.86	1	258.41	1	null	6	982.69	1	41.168724	15.52385
3453	2024-05-23 20:00:00	22	candela_ex_comes	19.19	1	53.61	1	0.0	1	5.82	1	255.59	1	null	6	983.1	1	41.168724	15.52385
3454	2024-05-23 21:00:00	22	candela_ex_comes	17.83	1	55.21	1	0.0	1	5.75	1	253.67	1	null	6	983.7	1	41.168724	15.52385
3455	2024-05-23 22:00:00	22	candela_ex_comes	16.68	1	57.6	1	0.0	1	5.23	1	253.86	1	null	6	984.33	1	41.168724	15.52385
3456	2024-05-23 23:00:00	22	candela_ex_comes	16.31	1	59.82	1	0.0	1	5.76	1	249.1	1	null	6	984.68	1	41.168724	15.52385
3457	2024-05-24 00:00:00	22	candela_ex_comes	15.97	1	62.7	1	0.0	1	6.0	1	242.1	1	null	6	984.52	1	41.168724	15.52385
3458	2024-05-24 01:00:00	22	candela_ex_comes	15.09	1	66.5	1	0.0	1	3.09	1	247.71	1	null	6	984.38	1	41.168724	15.52385
3459	2024-05-24 02:00:00	22	candela_ex_comes	13.55	1	73.31	1	0.0	1	2.36	1	243.71	1	null	6	984.5	1	41.168724	15.52385
3460	2024-05-24 03:00:00	22	candela_ex_comes	13.74	1	74.53	1	0.0	1	2.7	1	248.73	1	null	6	984.54	1	41.168724	15.52385
3461	2024-05-24 04:00:00	22	candela_ex_comes	13.22	1	74.95	1	0.0	1	2.69	1	247.53	1	null	6	984.47	1	41.168724	15.52385
3462	2024-05-24 05:00:00	22	candela_ex_comes	12.69	1	78.57	1	0.0	1	2.73	1	246.49	1	null	6	984.51	1	41.168724	15.52385
3463	2024-05-24 06:00:00	22	candela_ex_comes	13.34	1	77.04	1	0.0	1	2.5	1	242.0	1	null	6	984.77	1	41.168724	15.52385
3464	2024-05-24 07:00:00	22	candela_ex_comes	16.63	1	66.78	1	0.0	1	4.39	1	251.55	1	null	6	984.88	1	41.168724	15.52385
3465	2024-05-24 08:00:00	22	candela_ex_comes	18.94	1	55.97	1	0.0	1	4.37	1	257.75	1	null	6	985.12	1	41.168724	15.52385
3466	2024-05-24 09:00:00	22	candela_ex_comes	20.59	1	46.22	1	0.0	1	2.47	1	273.21	1	null	6	985.41	1	41.168724	15.52385
3467	2024-05-24 10:00:00	22	candela_ex_comes	21.75	1	41.73	1	0.0	1	2.37	1	2.03	1	null	6	985.29	1	41.168724	15.52385
3468	2024-05-24 11:00:00	22	candela_ex_comes	22.38	1	39.79	1	0.0	1	2.11	1	325.46	1	null	6	985.22	1	41.168724	15.52385
3469	2024-05-24 12:00:00	22	candela_ex_comes	23.14	1	36.34	1	0.0	1	3.0	1	285.31	1	null	6	984.79	1	41.168724	15.52385
3470	2024-05-24 13:00:00	22	candela_ex_comes	23.66	1	34.16	1	0.0	1	3.38	1	336.15	1	null	6	984.47	1	41.168724	15.52385
3471	2024-05-24 14:00:00	22	candela_ex_comes	24.54	1	31.16	1	0.0	1	1.74	1	281.94	1	null	6	983.98	1	41.168724	15.52385
3472	2024-05-24 15:00:00	22	candela_ex_comes	24.43	1	39.54	1	0.0	1	4.54	1	61.82	1	null	6	983.68	1	41.168724	15.52385
3473	2024-05-24 16:00:00	22	candela_ex_comes	23.62	1	44.89	1	0.0	1	4.03	1	58.63	1	null	6	983.52	1	41.168724	15.52385
3474	2024-05-24 17:00:00	22	candela_ex_comes	22.86	1	48.39	1	0.0	1	4.49	1	68.0	1	null	6	983.57	1	41.168724	15.52385
3475	2024-05-24 18:00:00	22	candela_ex_comes	21.65	1	51.98	1	0.0	1	3.66	1	83.29	1	null	6	983.96	1	41.168724	15.52385
3476	2024-05-24 19:00:00	22	candela_ex_comes	20.78	1	56.67	1	0.0	1	2.16	1	92.92	1	null	6	984.29	1	41.168724	15.52385
3477	2024-05-24 20:00:00	22	candela_ex_comes	19.43	1	63.3	1	0.0	1	2.45	1	124.23	1	null	6	984.48	1	41.168724	15.52385
3478	2024-05-24 21:00:00	22	candela_ex_comes	19.11	1	64.96	1	0.0	1	2.02	1	242.42	1	null	6	984.7	1	41.168724	15.52385
3479	2024-05-24 22:00:00	22	candela_ex_comes	17.17	1	68.59	1	0.0	1	3.47	1	247.41	1	null	6	984.85	1	41.168724	15.52385
3480	2024-05-24 23:00:00	22	candela_ex_comes	15.57	1	75.37	1	0.0	1	4.1	1	259.53	1	null	6	984.85	1	41.168724	15.52385
3481	2024-05-25 00:00:00	22	candela_ex_comes	14.82	1	79.26	1	0.0	1	3.96	1	245.35	1	null	6	984.85	1	41.168724	15.52385
3482	2024-05-25 01:00:00	22	candela_ex_comes	13.83	1	80.85	1	0.0	1	2.58	1	256.83	1	null	6	984.43	1	41.168724	15.52385
3483	2024-05-25 02:00:00	22	candela_ex_comes	14.54	1	79.6	1	0.0	1	1.95	1	240.96	1	null	6	983.95	1	41.168724	15.52385
3484	2024-05-25 03:00:00	22	candela_ex_comes	14.28	1	80.5	1	0.0	1	1.66	1	235.25	1	null	6	983.77	1	41.168724	15.52385
3485	2024-05-25 04:00:00	22	candela_ex_comes	14.1	1	81.13	1	0.0	1	1.88	1	163.52	1	null	6	983.52	1	41.168724	15.52385
3486	2024-05-25 05:00:00	22	candela_ex_comes	13.89	1	81.19	1	0.0	1	1.53	1	154.09	1	null	6	983.27	1	41.168724	15.52385
3487	2024-05-25 06:00:00	22	candela_ex_comes	14.39	1	81.94	1	0.0	1	2.07	1	253.2	1	null	6	983.05	1	41.168724	15.52385
3488	2024-05-25 07:00:00	22	candela_ex_comes	15.88	1	77.46	1	0.0	1	2.24	1	256.92	1	null	6	983.0	1	41.168724	15.52385
3489	2024-05-25 08:00:00	22	candela_ex_comes	16.28	1	78.03	1	0.0	1	1.61	1	38.65	1	null	6	983.06	1	41.168724	15.52385
3490	2024-05-25 09:00:00	22	candela_ex_comes	16.56	1	77.18	1	0.0	1	1.35	1	324.08	1	null	6	983.25	1	41.168724	15.52385
3491	2024-05-25 10:00:00	22	candela_ex_comes	17.03	1	76.79	1	0.0	1	2.35	1	9.53	1	null	6	983.1	1	41.168724	15.52385
3492	2024-05-25 11:00:00	22	candela_ex_comes	17.55	1	71.34	1	0.0	1	2.48	1	330.71	1	null	6	983.03	1	41.168724	15.52385
3493	2024-05-25 12:00:00	22	candela_ex_comes	17.54	1	69.34	1	0.0	1	3.31	1	327.81	1	null	6	982.98	1	41.168724	15.52385
3494	2024-05-25 13:00:00	22	candela_ex_comes	16.97	1	72.08	1	0.4	1	2.8	1	338.51	1	null	6	982.8	1	41.168724	15.52385
3495	2024-05-25 14:00:00	22	candela_ex_comes	16.54	1	79.4	1	0.2	1	1.94	1	46.05	1	null	6	982.53	1	41.168724	15.52385
3496	2024-05-25 15:00:00	22	candela_ex_comes	16.65	1	79.66	1	0.2	1	2.8	1	124.18	1	null	6	982.24	1	41.168724	15.52385
3497	2024-05-25 16:00:00	22	candela_ex_comes	16.02	1	82.51	1	0.0	1	4.44	1	131.04	1	null	6	981.82	1	41.168724	15.52385
3498	2024-05-25 17:00:00	22	candela_ex_comes	15.97	1	84.24	1	0.0	1	4.27	1	138.21	1	null	6	981.53	1	41.168724	15.52385
3499	2024-05-25 18:00:00	22	candela_ex_comes	16.4	1	82.77	1	0.0	1	3.73	1	134.5	1	null	6	981.22	1	41.168724	15.52385
3500	2024-05-25 19:00:00	22	candela_ex_comes	16.49	1	78.6	1	0.0	1	2.58	1	126.53	1	null	6	981.36	1	41.168724	15.52385
3501	2024-05-25 20:00:00	22	candela_ex_comes	15.92	1	79.69	1	0.0	1	2.25	1	148.28	1	null	6	981.61	1	41.168724	15.52385
3502	2024-05-25 21:00:00	22	candela_ex_comes	15.61	1	84.18	1	0.0	1	3.28	1	250.95	1	null	6	982.02	1	41.168724	15.52385
3503	2024-05-25 22:00:00	22	candela_ex_comes	15.45	1	86.69	1	0.0	1	1.65	1	266.5	1	null	6	982.72	1	41.168724	15.52385
3504	2024-05-25 23:00:00	22	candela_ex_comes	15.31	1	86.04	1	0.0	1	3.17	1	244.47	1	null	6	982.71	1	41.168724	15.52385
3505	2024-05-26 00:00:00	22	candela_ex_comes	14.7	1	88.03	1	0.0	1	1.5	1	308.3	1	null	6	982.65	1	41.168724	15.52385
3506	2024-05-26 01:00:00	22	candela_ex_comes	13.82	1	89.7	1	0.0	1	3.57	1	265.68	1	null	6	982.42	1	41.168724	15.52385
3507	2024-05-26 02:00:00	22	candela_ex_comes	13.98	1	90.57	1	0.0	1	3.12	1	251.78	1	null	6	982.47	1	41.168724	15.52385
3508	2024-05-26 03:00:00	22	candela_ex_comes	13.06	1	89.13	1	0.0	1	3.91	1	259.68	1	null	6	982.54	1	41.168724	15.52385
3509	2024-05-26 04:00:00	22	candela_ex_comes	12.72	1	91.04	1	0.0	1	3.75	1	256.03	1	null	6	982.34	1	41.168724	15.52385
3510	2024-05-26 05:00:00	22	candela_ex_comes	13.37	1	91.15	1	0.0	1	2.94	1	252.75	1	null	6	982.21	1	41.168724	15.52385
3511	2024-05-26 06:00:00	22	candela_ex_comes	13.33	1	90.27	1	0.0	1	3.45	1	255.99	1	null	6	982.48	1	41.168724	15.52385
3512	2024-05-26 07:00:00	22	candela_ex_comes	15.55	1	81.9	1	0.0	1	4.09	1	261.88	1	null	6	982.78	1	41.168724	15.52385
3513	2024-05-26 08:00:00	22	candela_ex_comes	18.37	1	55.01	1	0.2	1	4.75	1	332.77	1	null	6	982.92	1	41.168724	15.52385
3514	2024-05-26 09:00:00	22	candela_ex_comes	19.17	1	48.83	1	0.0	1	5.78	1	340.83	1	null	6	983.09	1	41.168724	15.52385
3515	2024-05-26 10:00:00	22	candela_ex_comes	20.18	1	45.58	1	0.0	1	7.25	1	336.05	1	null	6	983.2	1	41.168724	15.52385
3516	2024-05-26 11:00:00	22	candela_ex_comes	21.23	1	44.38	1	0.0	1	6.89	1	339.81	1	null	6	983.4	1	41.168724	15.52385
3517	2024-05-26 12:00:00	22	candela_ex_comes	22.01	1	44.44	1	0.0	1	6.92	1	344.17	1	null	6	983.53	1	41.168724	15.52385
3518	2024-05-26 13:00:00	22	candela_ex_comes	21.75	1	46.62	1	0.0	1	6.63	1	350.79	1	null	6	983.5	1	41.168724	15.52385
3519	2024-05-26 14:00:00	22	candela_ex_comes	22.2	1	44.82	1	0.0	1	4.9	1	11.01	1	null	6	983.27	1	41.168724	15.52385
3520	2024-05-26 15:00:00	22	candela_ex_comes	22.59	1	44.1	1	0.0	1	5.3	1	14.1	1	null	6	982.92	1	41.168724	15.52385
3521	2024-05-26 16:00:00	22	candela_ex_comes	22.76	1	44.94	1	0.0	1	5.82	1	2.83	1	null	6	982.78	1	41.168724	15.52385
3522	2024-05-26 17:00:00	22	candela_ex_comes	22.1	1	49.18	1	0.0	1	6.02	1	358.72	1	null	6	982.81	1	41.168724	15.52385
3523	2024-05-26 18:00:00	22	candela_ex_comes	21.12	1	52.25	1	0.0	1	5.99	1	340.35	1	null	6	983.14	1	41.168724	15.52385
3524	2024-05-26 19:00:00	22	candela_ex_comes	20.56	1	51.09	1	0.0	1	4.87	1	331.87	1	null	6	983.66	1	41.168724	15.52385
3525	2024-05-26 20:00:00	22	candela_ex_comes	18.5	1	62.62	1	0.0	1	3.26	1	353.67	1	null	6	984.25	1	41.168724	15.52385
3526	2024-05-26 21:00:00	22	candela_ex_comes	17.18	1	67.79	1	0.0	1	2.11	1	354.24	1	null	6	984.86	1	41.168724	15.52385
3527	2024-05-26 22:00:00	22	candela_ex_comes	16.82	1	72.28	1	0.0	1	1.38	1	309.88	1	null	6	985.34	1	41.168724	15.52385
3528	2024-05-26 23:00:00	22	candela_ex_comes	15.57	1	78.08	1	0.0	1	1.73	1	268.27	1	null	6	985.24	1	41.168724	15.52385
3529	2024-05-27 00:00:00	22	candela_ex_comes	15.32	1	78.97	1	0.0	1	2.38	1	238.4	1	null	6	985.23	1	41.168724	15.52385
3530	2024-05-27 01:00:00	22	candela_ex_comes	14.62	1	79.52	1	0.0	1	2.68	1	250.53	1	null	6	984.99	1	41.168724	15.52385
3531	2024-05-27 02:00:00	22	candela_ex_comes	13.35	1	83.63	1	0.0	1	3.26	1	251.46	1	null	6	984.67	1	41.168724	15.52385
3532	2024-05-27 03:00:00	22	candela_ex_comes	13.08	1	84.77	1	0.0	1	4.41	1	242.02	1	null	6	984.31	1	41.168724	15.52385
3533	2024-05-27 04:00:00	22	candela_ex_comes	12.46	1	84.6	1	0.0	1	2.57	1	244.54	1	null	6	984.52	1	41.168724	15.52385
3534	2024-05-27 05:00:00	22	candela_ex_comes	12.18	1	86.06	1	0.0	1	2.97	1	244.46	1	null	6	984.51	1	41.168724	15.52385
3535	2024-05-27 06:00:00	22	candela_ex_comes	12.53	1	85.5	1	0.0	1	1.75	1	248.18	1	null	6	984.71	1	41.168724	15.52385
3536	2024-05-27 07:00:00	22	candela_ex_comes	15.02	1	81.11	1	0.0	1	0.94	1	266.83	1	null	6	984.91	1	41.168724	15.52385
3537	2024-05-27 08:00:00	22	candela_ex_comes	17.43	1	71.41	1	0.0	1	1.6	1	355.07	1	null	6	985.02	1	41.168724	15.52385
3538	2024-05-27 09:00:00	22	candela_ex_comes	18.21	1	61.93	1	0.0	1	4.59	1	335.71	1	null	6	985.06	1	41.168724	15.52385
3539	2024-05-27 10:00:00	22	candela_ex_comes	19.06	1	55.38	1	0.0	1	4.92	1	337.54	1	null	6	985.04	1	41.168724	15.52385
3540	2024-05-27 11:00:00	22	candela_ex_comes	20.13	1	51.98	1	0.0	1	4.73	1	320.53	1	null	6	984.94	1	41.168724	15.52385
3541	2024-05-27 12:00:00	22	candela_ex_comes	20.28	1	56.13	1	0.0	1	4.38	1	353.29	1	null	6	984.71	1	41.168724	15.52385
3542	2024-05-27 13:00:00	22	candela_ex_comes	20.94	1	51.76	1	0.0	1	5.2	1	340.62	1	null	6	984.29	1	41.168724	15.52385
3543	2024-05-27 14:00:00	22	candela_ex_comes	21.2	1	49.7	1	0.0	1	5.24	1	324.35	1	null	6	984.03	1	41.168724	15.52385
3544	2024-05-27 15:00:00	22	candela_ex_comes	21.64	1	46.58	1	0.0	1	5.06	1	317.13	1	null	6	983.67	1	41.168724	15.52385
3545	2024-05-27 16:00:00	22	candela_ex_comes	21.36	1	49.92	1	0.0	1	3.81	1	309.09	1	null	6	983.36	1	41.168724	15.52385
3546	2024-05-27 17:00:00	22	candela_ex_comes	21.19	1	51.72	1	0.0	1	4.39	1	255.64	1	null	6	983.11	1	41.168724	15.52385
3547	2024-05-27 18:00:00	22	candela_ex_comes	21.38	1	49.47	1	0.0	1	3.54	1	286.28	1	null	6	982.87	1	41.168724	15.52385
3548	2024-05-27 19:00:00	22	candela_ex_comes	20.68	1	55.09	1	0.0	1	3.79	1	311.32	1	null	6	983.0	1	41.168724	15.52385
3549	2024-05-27 20:00:00	22	candela_ex_comes	19.57	1	59.26	1	0.0	1	3.02	1	243.56	1	null	6	983.06	1	41.168724	15.52385
3550	2024-05-27 21:00:00	22	candela_ex_comes	18.51	1	65.39	1	0.0	1	2.83	1	254.3	1	null	6	983.5	1	41.168724	15.52385
3551	2024-05-27 22:00:00	22	candela_ex_comes	16.78	1	71.3	1	0.0	1	2.83	1	259.69	1	null	6	983.76	1	41.168724	15.52385
3552	2024-05-27 23:00:00	22	candela_ex_comes	15.66	1	78.3	1	0.0	1	3.06	1	250.37	1	null	6	983.58	1	41.168724	15.52385
3553	2024-05-28 00:00:00	22	candela_ex_comes	15.49	1	80.24	1	0.0	1	1.78	1	207.87	1	null	6	983.19	1	41.168724	15.52385
3554	2024-05-28 01:00:00	22	candela_ex_comes	15.01	1	80.42	1	0.0	1	1.02	1	173.16	1	null	6	982.91	1	41.168724	15.52385
3555	2024-05-28 02:00:00	22	candela_ex_comes	14.92	1	81.87	1	0.0	1	1.71	1	128.23	1	null	6	982.46	1	41.168724	15.52385
3556	2024-05-28 03:00:00	22	candela_ex_comes	14.86	1	84.49	1	0.0	1	1.81	1	144.39	1	null	6	982.02	1	41.168724	15.52385
3557	2024-05-28 04:00:00	22	candela_ex_comes	15.5	1	81.31	1	0.0	1	2.13	1	210.31	1	null	6	981.71	1	41.168724	15.52385
3558	2024-05-28 05:00:00	22	candela_ex_comes	15.86	1	81.16	1	0.0	1	4.47	1	243.41	1	null	6	981.56	1	41.168724	15.52385
3559	2024-05-28 06:00:00	22	candela_ex_comes	16.63	1	79.78	1	0.0	1	6.25	1	244.93	1	null	6	981.49	1	41.168724	15.52385
3560	2024-05-28 07:00:00	22	candela_ex_comes	18.03	1	74.49	1	0.0	1	7.47	1	256.38	1	null	6	981.56	1	41.168724	15.52385
3561	2024-05-28 08:00:00	22	candela_ex_comes	18.93	1	69.89	1	0.0	1	7.52	1	258.27	1	null	6	981.66	1	41.168724	15.52385
3562	2024-05-28 09:00:00	22	candela_ex_comes	19.55	1	66.04	1	0.0	1	7.69	1	259.82	1	null	6	981.61	1	41.168724	15.52385
3563	2024-05-28 10:00:00	22	candela_ex_comes	21.23	1	58.75	1	0.0	1	3.84	1	254.27	1	null	6	981.32	1	41.168724	15.52385
3564	2024-05-28 11:00:00	22	candela_ex_comes	22.32	1	52.24	1	0.0	1	3.24	1	303.35	1	null	6	981.04	1	41.168724	15.52385
3565	2024-05-28 12:00:00	22	candela_ex_comes	23.52	1	47.52	1	0.0	1	3.54	1	324.01	1	null	6	980.29	1	41.168724	15.52385
3566	2024-05-28 13:00:00	22	candela_ex_comes	23.16	1	47.5	1	0.0	1	6.5	1	289.06	1	null	6	979.92	1	41.168724	15.52385
3567	2024-05-28 14:00:00	22	candela_ex_comes	21.32	1	56.29	1	0.0	1	7.25	1	268.0	1	null	6	980.1	1	41.168724	15.52385
3568	2024-05-28 15:00:00	22	candela_ex_comes	21.31	1	59.82	1	0.0	1	8.9	1	253.3	1	null	6	980.04	1	41.168724	15.52385
3569	2024-05-28 16:00:00	22	candela_ex_comes	21.35	1	64.72	1	0.0	1	7.73	1	242.57	1	null	6	979.94	1	41.168724	15.52385
3570	2024-05-28 17:00:00	22	candela_ex_comes	21.7	1	59.63	1	0.0	1	8.58	1	247.74	1	null	6	979.86	1	41.168724	15.52385
3571	2024-05-28 18:00:00	22	candela_ex_comes	21.21	1	58.43	1	0.0	1	8.09	1	260.12	1	null	6	979.96	1	41.168724	15.52385
3572	2024-05-28 19:00:00	22	candela_ex_comes	20.19	1	62.81	1	0.0	1	5.33	1	249.42	1	null	6	980.55	1	41.168724	15.52385
3573	2024-05-28 20:00:00	22	candela_ex_comes	19.16	1	69.24	1	0.0	1	5.05	1	255.03	1	null	6	980.78	1	41.168724	15.52385
3574	2024-05-28 21:00:00	22	candela_ex_comes	18.32	1	71.13	1	0.0	1	3.13	1	267.27	1	null	6	981.18	1	41.168724	15.52385
3575	2024-05-28 22:00:00	22	candela_ex_comes	17.93	1	72.79	1	0.0	1	2.41	1	252.55	1	null	6	981.54	1	41.168724	15.52385
3576	2024-05-28 23:00:00	22	candela_ex_comes	17.45	1	74.76	1	0.0	1	2.78	1	245.86	1	null	6	981.45	1	41.168724	15.52385
3577	2024-05-29 00:00:00	22	candela_ex_comes	17.14	1	76.19	1	0.0	1	3.05	1	240.85	1	null	6	981.71	1	41.168724	15.52385
3578	2024-05-29 01:00:00	22	candela_ex_comes	15.94	1	82.12	1	0.0	1	2.85	1	246.15	1	null	6	981.48	1	41.168724	15.52385
3579	2024-05-29 02:00:00	22	candela_ex_comes	15.29	1	85.14	1	0.0	1	3.34	1	242.43	1	null	6	981.21	1	41.168724	15.52385
3580	2024-05-29 03:00:00	22	candela_ex_comes	14.78	1	86.88	1	0.0	1	3.2	1	250.78	1	null	6	980.89	1	41.168724	15.52385
3581	2024-05-29 04:00:00	22	candela_ex_comes	14.75	1	87.44	1	0.0	1	2.69	1	243.46	1	null	6	980.8	1	41.168724	15.52385
3582	2024-05-29 05:00:00	22	candela_ex_comes	14.95	1	86.96	1	0.0	1	1.05	1	136.45	1	null	6	980.73	1	41.168724	15.52385
3583	2024-05-29 06:00:00	22	candela_ex_comes	15.6	1	86.12	1	0.0	1	1.87	1	237.12	1	null	6	981.05	1	41.168724	15.52385
3584	2024-05-29 07:00:00	22	candela_ex_comes	16.56	1	83.72	1	0.0	1	2.42	1	267.16	1	null	6	980.95	1	41.168724	15.52385
3585	2024-05-29 08:00:00	22	candela_ex_comes	17.22	1	82.68	1	0.0	1	1.66	1	320.79	1	null	6	981.22	1	41.168724	15.52385
3586	2024-05-29 09:00:00	22	candela_ex_comes	19.07	1	68.61	1	0.0	1	1.96	1	332.17	1	null	6	981.21	1	41.168724	15.52385
3587	2024-05-29 10:00:00	22	candela_ex_comes	20.61	1	61.6	1	0.0	1	2.3	1	12.88	1	null	6	980.87	1	41.168724	15.52385
3588	2024-05-29 11:00:00	22	candela_ex_comes	21.71	1	56.13	1	0.0	1	2.15	1	69.3	1	null	6	980.32	1	41.168724	15.52385
3589	2024-05-29 12:00:00	22	candela_ex_comes	19.59	1	67.81	1	0.6	1	2.26	1	213.71	1	null	6	980.13	1	41.168724	15.52385
3590	2024-05-29 13:00:00	22	candela_ex_comes	20.07	1	71.64	1	0.0	1	4.01	1	253.72	1	null	6	979.8	1	41.168724	15.52385
3591	2024-05-29 14:00:00	22	candela_ex_comes	20.58	1	66.97	1	0.0	1	5.4	1	263.0	1	null	6	979.36	1	41.168724	15.52385
3592	2024-05-29 15:00:00	22	candela_ex_comes	18.91	5	71.72	1	0.0	1	5.55	1	341.39	1	null	6	979.59	1	41.168724	15.52385
3593	2024-05-29 16:00:00	22	candela_ex_comes	17.23	1	82.11	1	0.0	1	2.92	1	294.92	1	null	6	979.29	1	41.168724	15.52385
3594	2024-05-29 17:00:00	22	candela_ex_comes	18.07	1	78.07	1	0.0	1	1.29	1	296.18	1	null	6	979.05	1	41.168724	15.52385
3595	2024-05-29 18:00:00	22	candela_ex_comes	18.34	1	78.06	1	0.0	1	1.88	1	268.39	1	null	6	978.66	1	41.168724	15.52385
3596	2024-05-29 19:00:00	22	candela_ex_comes	18.21	1	78.76	1	0.0	1	2.39	1	243.17	1	null	6	978.87	1	41.168724	15.52385
3597	2024-05-29 20:00:00	22	candela_ex_comes	17.71	1	78.91	1	0.0	1	2.54	1	255.98	1	null	6	979.09	1	41.168724	15.52385
3598	2024-05-29 21:00:00	22	candela_ex_comes	16.85	1	82.14	1	0.0	1	3.36	1	247.03	1	null	6	979.21	1	41.168724	15.52385
3599	2024-05-29 22:00:00	22	candela_ex_comes	16.23	1	82.38	1	0.0	1	4.21	1	247.94	1	null	6	979.19	1	41.168724	15.52385
3600	2024-05-29 23:00:00	22	candela_ex_comes	15.46	1	86.04	1	0.0	1	3.51	1	241.93	1	null	6	978.88	1	41.168724	15.52385
3601	2024-05-30 00:00:00	22	candela_ex_comes	15.59	1	85.32	1	0.0	1	1.2	1	245.89	1	null	6	978.82	1	41.168724	15.52385
3602	2024-05-30 01:00:00	22	candela_ex_comes	15.4	1	85.27	1	0.0	1	1.11	1	210.23	1	null	6	978.31	1	41.168724	15.52385
3603	2024-05-30 02:00:00	22	candela_ex_comes	14.94	1	85.84	1	0.0	1	1.73	1	134.04	1	null	6	977.78	1	41.168724	15.52385
3604	2024-05-30 03:00:00	22	candela_ex_comes	14.51	1	87.85	1	0.0	1	1.84	1	158.63	1	null	6	977.52	1	41.168724	15.52385
3605	2024-05-30 04:00:00	22	candela_ex_comes	14.58	1	87.92	1	0.0	1	1.69	1	153.91	1	null	6	977.18	1	41.168724	15.52385
3606	2024-05-30 05:00:00	22	candela_ex_comes	14.32	1	88.2	1	0.0	1	2.25	1	150.56	1	null	6	977.09	1	41.168724	15.52385
3607	2024-05-30 06:00:00	22	candela_ex_comes	14.5	1	88.85	1	0.0	1	2.88	1	141.88	1	null	6	976.92	1	41.168724	15.52385
3608	2024-05-30 07:00:00	22	candela_ex_comes	17.22	1	80.24	1	0.0	1	2.65	1	229.66	1	null	6	976.92	1	41.168724	15.52385
3609	2024-05-30 08:00:00	22	candela_ex_comes	19.75	1	62.95	1	0.0	1	3.97	1	226.49	1	null	6	976.73	1	41.168724	15.52385
3610	2024-05-30 09:00:00	22	candela_ex_comes	21.09	1	55.93	1	0.0	1	4.94	1	241.01	1	null	6	976.61	1	41.168724	15.52385
3611	2024-05-30 10:00:00	22	candela_ex_comes	22.25	1	47.52	1	0.0	1	5.15	1	247.77	1	null	6	976.49	1	41.168724	15.52385
3612	2024-05-30 11:00:00	22	candela_ex_comes	23.3	1	43.82	1	0.0	1	4.56	1	255.06	1	null	6	976.21	1	41.168724	15.52385
3613	2024-05-30 12:00:00	22	candela_ex_comes	24.09	1	43.25	1	0.0	1	6.17	1	261.97	1	null	6	975.93	1	41.168724	15.52385
3614	2024-05-30 13:00:00	22	candela_ex_comes	24.43	1	44.89	1	0.0	1	7.24	1	267.25	1	null	6	975.53	1	41.168724	15.52385
3615	2024-05-30 14:00:00	22	candela_ex_comes	24.82	1	44.36	1	0.0	1	7.35	1	255.59	1	null	6	975.27	1	41.168724	15.52385
3616	2024-05-30 15:00:00	22	candela_ex_comes	24.05	1	47.86	1	0.0	1	7.59	1	252.21	1	null	6	974.88	1	41.168724	15.52385
3617	2024-05-30 16:00:00	22	candela_ex_comes	23.69	1	50.41	1	0.0	1	8.31	1	258.9	1	null	6	974.84	1	41.168724	15.52385
3618	2024-05-30 17:00:00	22	candela_ex_comes	23.09	1	52.63	1	0.0	1	7.25	1	258.25	1	null	6	974.6	1	41.168724	15.52385
3619	2024-05-30 18:00:00	22	candela_ex_comes	22.28	1	55.73	1	0.0	1	6.51	1	255.59	1	null	6	974.75	1	41.168724	15.52385
3620	2024-05-30 19:00:00	22	candela_ex_comes	21.39	1	56.22	1	0.0	1	5.04	1	235.58	1	null	6	974.93	1	41.168724	15.52385
3621	2024-05-30 20:00:00	22	candela_ex_comes	20.23	1	60.21	1	0.0	1	2.75	1	204.16	1	null	6	975.16	1	41.168724	15.52385
3622	2024-05-30 21:00:00	22	candela_ex_comes	19.57	1	62.57	1	0.0	1	2.83	1	180.46	1	null	6	975.27	1	41.168724	15.52385
3623	2024-05-30 22:00:00	22	candela_ex_comes	19.08	1	63.42	1	0.0	1	3.57	1	214.96	1	null	6	975.63	1	41.168724	15.52385
3624	2024-05-30 23:00:00	22	candela_ex_comes	18.59	1	65.98	1	0.0	1	3.93	1	210.3	1	null	6	975.48	1	41.168724	15.52385
3625	2024-05-31 00:00:00	22	candela_ex_comes	18.58	1	69.18	1	0.0	1	3.79	1	220.34	1	null	6	975.35	1	41.168724	15.52385
3626	2024-05-31 01:00:00	22	candela_ex_comes	18.4	1	69.72	1	0.0	1	2.02	1	201.72	1	null	6	974.91	1	41.168724	15.52385
3627	2024-05-31 02:00:00	22	candela_ex_comes	18.21	1	66.5	1	0.0	1	3.97	1	221.03	1	null	6	974.16	1	41.168724	15.52385
3628	2024-05-31 03:00:00	22	candela_ex_comes	18.75	1	63.81	1	0.0	1	3.51	1	220.71	1	null	6	973.86	1	41.168724	15.52385
3629	2024-05-31 04:00:00	22	candela_ex_comes	19.61	1	60.76	1	0.0	1	4.36	1	219.55	1	null	6	973.81	1	41.168724	15.52385
3630	2024-05-31 05:00:00	22	candela_ex_comes	19.3	1	64.58	1	0.0	1	5.31	1	227.5	1	null	6	973.95	1	41.168724	15.52385
3631	2024-05-31 06:00:00	22	candela_ex_comes	19.1	1	68.44	1	0.0	1	3.66	1	221.37	1	null	6	974.21	1	41.168724	15.52385
3632	2024-05-31 07:00:00	22	candela_ex_comes	19.77	1	63.45	1	0.0	1	4.5	1	211.04	1	null	6	974.46	1	41.168724	15.52385
3633	2024-05-31 08:00:00	22	candela_ex_comes	20.38	1	61.88	1	0.0	1	4.46	1	205.6	1	null	6	974.64	1	41.168724	15.52385
3634	2024-05-31 09:00:00	22	candela_ex_comes	20.2	1	61.28	1	0.0	1	4.77	1	193.38	1	null	6	974.87	1	41.168724	15.52385
3635	2024-05-31 10:00:00	22	candela_ex_comes	21.64	1	60.24	1	0.0	1	6.3	1	224.24	1	null	6	974.79	1	41.168724	15.52385
3636	2024-05-31 11:00:00	22	candela_ex_comes	22.41	1	56.86	1	0.0	1	9.03	1	239.02	1	null	6	975.03	1	41.168724	15.52385
3637	2024-05-31 12:00:00	22	candela_ex_comes	22.04	1	55.62	1	0.0	1	8.36	1	224.44	1	null	6	974.79	1	41.168724	15.52385
3638	2024-05-31 13:00:00	22	candela_ex_comes	22.38	1	52.99	1	0.0	1	8.86	1	221.28	1	null	6	975.15	1	41.168724	15.52385
3639	2024-05-31 14:00:00	22	candela_ex_comes	22.87	1	49.22	1	0.0	1	5.6	1	198.61	1	null	6	975.51	1	41.168724	15.52385
3640	2024-05-31 15:00:00	22	candela_ex_comes	22.8	1	51.72	1	0.0	1	7.53	1	210.46	1	null	6	975.68	1	41.168724	15.52385
3641	2024-05-31 16:00:00	22	candela_ex_comes	22.3	1	57.37	1	0.0	1	7.37	1	214.05	1	null	6	975.67	1	41.168724	15.52385
3642	2024-05-31 17:00:00	22	candela_ex_comes	21.8	1	59.27	1	0.0	1	6.55	1	210.4	1	null	6	975.84	1	41.168724	15.52385
3643	2024-05-31 18:00:00	22	candela_ex_comes	21.01	1	62.8	1	0.0	1	5.71	1	206.99	1	null	6	976.03	1	41.168724	15.52385
3644	2024-05-31 19:00:00	22	candela_ex_comes	20.64	1	64.62	1	0.0	1	3.9	1	199.99	1	null	6	976.4	1	41.168724	15.52385
3645	2024-05-31 20:00:00	22	candela_ex_comes	20.23	1	65.43	1	0.0	1	2.44	1	163.11	1	null	6	976.92	1	41.168724	15.52385
3646	2024-05-31 21:00:00	22	candela_ex_comes	19.9	1	64.99	1	0.0	1	2.57	1	179.08	1	null	6	977.48	1	41.168724	15.52385
3647	2024-05-31 22:00:00	22	candela_ex_comes	19.41	1	67.5	1	0.0	1	4.92	1	221.17	1	null	6	977.94	1	41.168724	15.52385
3648	2024-05-31 23:00:00	22	candela_ex_comes	18.13	1	79.75	1	0.2	1	2.96	1	237.67	1	null	6	978.14	1	41.168724	"15.52385	"
